<?xml version="1.0" encoding="UTF-8" standalone="no" ?>
<gpx xmlns="http://www.topografix.com/GPX/1/1" xmlns:xsi="http://www.w3.org/2001/XMLSchema-instance" xsi:schemaLocation="http://www.topografix.com/GPX/1/1 http://www.topografix.com/GPX/1/1/gpx.xsd" version="1.1" creator="VisuGPX - https://www.visugpx.com">
  <metadata>
    <name>GR 34 G Douarnenez/ Pors-Poulhan</name>
    <desc><![CDATA[Départ parking de l\'église de Ploaré, direction le Lycée J.M Le Bris, prendre à gauche, et descendre le chemin de Kermabon jusque l\'ancienne voie ferrée, la quitter en direction de l\'église de Pouldavid. Passer Kerem, Pont Kersaudy, L\'Espérance, Buzit, Le Moulin de Kerdanet, descendre vers la carrière, continuer vers Kernaouéret en direction de Meilars, puis Mahalon(aire de pic-nic).Continuer vers Lambabu, la chapelle de St They, et descendre à Pors Poulhan.]]></desc>
  </metadata>
  <trk>
    <name><![CDATA[Douarnenez / Pors Poulhan]]></name>
    <trkseg>
      <trkpt lat="48.08637" lon="-4.32119">
        <ele>76</ele>
        <time>2013-08-13T07:00:47.000Z</time>
      </trkpt>
      <trkpt lat="48.08637" lon="-4.32128">
        <ele>76</ele>
        <time>2013-08-13T07:00:54.000Z</time>
      </trkpt>
      <trkpt lat="48.08636" lon="-4.32136">
        <ele>76</ele>
        <time>2013-08-13T07:01:01.000Z</time>
      </trkpt>
      <trkpt lat="48.08633" lon="-4.32143">
        <ele>77</ele>
        <time>2013-08-13T07:01:07.000Z</time>
      </trkpt>
      <trkpt lat="48.0863" lon="-4.32146">
        <ele>77</ele>
        <time>2013-08-13T07:01:10.000Z</time>
      </trkpt>
      <trkpt lat="48.08627" lon="-4.32156">
        <ele>77.400001525879</ele>
        <time>2013-08-13T07:01:16.000Z</time>
      </trkpt>
      <trkpt lat="48.08627" lon="-4.32164">
        <ele>77</ele>
        <time>2013-08-13T07:01:21.000Z</time>
      </trkpt>
      <trkpt lat="48.08627" lon="-4.32167">
        <ele>77.400001525879</ele>
        <time>2013-08-13T07:01:23.000Z</time>
      </trkpt>
      <trkpt lat="48.08626" lon="-4.32177">
        <ele>76.400001525879</ele>
        <time>2013-08-13T07:01:29.000Z</time>
      </trkpt>
      <trkpt lat="48.08626" lon="-4.32184">
        <ele>77</ele>
        <time>2013-08-13T07:01:33.000Z</time>
      </trkpt>
      <trkpt lat="48.08625" lon="-4.32197">
        <ele>78.800003051758</ele>
        <time>2013-08-13T07:01:40.000Z</time>
      </trkpt>
      <trkpt lat="48.08625" lon="-4.32201">
        <ele>79.400001525879</ele>
        <time>2013-08-13T07:01:44.000Z</time>
      </trkpt>
      <trkpt lat="48.08626" lon="-4.32202">
        <ele>78.800003051758</ele>
        <time>2013-08-13T07:01:53.000Z</time>
      </trkpt>
      <trkpt lat="48.08623" lon="-4.3221">
        <ele>79.400001525879</ele>
        <time>2013-08-13T07:01:59.000Z</time>
      </trkpt>
      <trkpt lat="48.08621" lon="-4.32215">
        <ele>78.400001525879</ele>
        <time>2013-08-13T07:02:03.000Z</time>
      </trkpt>
      <trkpt lat="48.08614" lon="-4.32224">
        <ele>80.800003051758</ele>
        <time>2013-08-13T07:02:09.000Z</time>
      </trkpt>
      <trkpt lat="48.08608" lon="-4.32237">
        <ele>84.199996948242</ele>
        <time>2013-08-13T07:02:14.000Z</time>
      </trkpt>
      <trkpt lat="48.08604" lon="-4.32242">
        <ele>87</ele>
        <time>2013-08-13T07:02:17.000Z</time>
      </trkpt>
      <trkpt lat="48.08598" lon="-4.32251">
        <ele>90.400001525879</ele>
        <time>2013-08-13T07:02:22.000Z</time>
      </trkpt>
      <trkpt lat="48.08596" lon="-4.32253">
        <ele>90</ele>
        <time>2013-08-13T07:02:25.000Z</time>
      </trkpt>
      <trkpt lat="48.08593" lon="-4.32256">
        <ele>86.599998474121</ele>
        <time>2013-08-13T07:02:30.000Z</time>
      </trkpt>
      <trkpt lat="48.0859" lon="-4.3226">
        <ele>83.199996948242</ele>
        <time>2013-08-13T07:02:34.000Z</time>
      </trkpt>
      <trkpt lat="48.08584" lon="-4.32263">
        <ele>79.800003051758</ele>
        <time>2013-08-13T07:02:40.000Z</time>
      </trkpt>
      <trkpt lat="48.08579" lon="-4.32269">
        <ele>79.400001525879</ele>
        <time>2013-08-13T07:02:46.000Z</time>
      </trkpt>
      <trkpt lat="48.08576" lon="-4.32274">
        <ele>78.800003051758</ele>
        <time>2013-08-13T07:02:51.000Z</time>
      </trkpt>
      <trkpt lat="48.08569" lon="-4.32285">
        <ele>78.400001525879</ele>
        <time>2013-08-13T07:02:58.000Z</time>
      </trkpt>
      <trkpt lat="48.08568" lon="-4.32287">
        <ele>78</ele>
        <time>2013-08-13T07:03:00.000Z</time>
      </trkpt>
      <trkpt lat="48.08567" lon="-4.3229">
        <ele>77.400001525879</ele>
        <time>2013-08-13T07:03:02.000Z</time>
      </trkpt>
      <trkpt lat="48.08562" lon="-4.32296">
        <ele>77.400001525879</ele>
        <time>2013-08-13T07:03:07.000Z</time>
      </trkpt>
      <trkpt lat="48.08557" lon="-4.32305">
        <ele>75.599998474121</ele>
        <time>2013-08-13T07:03:13.000Z</time>
      </trkpt>
      <trkpt lat="48.08554" lon="-4.3231">
        <ele>75</ele>
        <time>2013-08-13T07:03:17.000Z</time>
      </trkpt>
      <trkpt lat="48.0855" lon="-4.32312">
        <ele>75.599998474121</ele>
        <time>2013-08-13T07:03:21.000Z</time>
      </trkpt>
      <trkpt lat="48.08539" lon="-4.32312">
        <ele>77.400001525879</ele>
        <time>2013-08-13T07:03:30.000Z</time>
      </trkpt>
      <trkpt lat="48.08533" lon="-4.32312">
        <ele>78.800003051758</ele>
        <time>2013-08-13T07:03:35.000Z</time>
      </trkpt>
      <trkpt lat="48.08529" lon="-4.3231">
        <ele>78.400001525879</ele>
        <time>2013-08-13T07:03:38.000Z</time>
      </trkpt>
      <trkpt lat="48.08521" lon="-4.32311">
        <ele>78.400001525879</ele>
        <time>2013-08-13T07:03:43.000Z</time>
      </trkpt>
      <trkpt lat="48.08518" lon="-4.32312">
        <ele>78.400001525879</ele>
        <time>2013-08-13T07:03:45.000Z</time>
      </trkpt>
      <trkpt lat="48.08511" lon="-4.32311">
        <ele>78</ele>
        <time>2013-08-13T07:03:52.000Z</time>
      </trkpt>
      <trkpt lat="48.08505" lon="-4.32309">
        <ele>77</ele>
        <time>2013-08-13T07:03:57.000Z</time>
      </trkpt>
      <trkpt lat="48.085" lon="-4.32308">
        <ele>77</ele>
        <time>2013-08-13T07:04:00.000Z</time>
      </trkpt>
      <trkpt lat="48.08498" lon="-4.32306">
        <ele>76.400001525879</ele>
        <time>2013-08-13T07:04:04.000Z</time>
      </trkpt>
      <trkpt lat="48.08492" lon="-4.32304">
        <ele>76.400001525879</ele>
        <time>2013-08-13T07:04:10.000Z</time>
      </trkpt>
      <trkpt lat="48.08483" lon="-4.32305">
        <ele>78.400001525879</ele>
        <time>2013-08-13T07:04:16.000Z</time>
      </trkpt>
      <trkpt lat="48.08477" lon="-4.32306">
        <ele>78.800003051758</ele>
        <time>2013-08-13T07:04:21.000Z</time>
      </trkpt>
      <trkpt lat="48.08471" lon="-4.32306">
        <ele>80.400001525879</ele>
        <time>2013-08-13T07:04:26.000Z</time>
      </trkpt>
      <trkpt lat="48.08461" lon="-4.32304">
        <ele>79.400001525879</ele>
        <time>2013-08-13T07:04:34.000Z</time>
      </trkpt>
      <trkpt lat="48.08459" lon="-4.32304">
        <ele>79.800003051758</ele>
        <time>2013-08-13T07:04:35.000Z</time>
      </trkpt>
      <trkpt lat="48.08457" lon="-4.32304">
        <ele>79.400001525879</ele>
        <time>2013-08-13T07:04:37.000Z</time>
      </trkpt>
      <trkpt lat="48.08446" lon="-4.32303">
        <ele>80.400001525879</ele>
        <time>2013-08-13T07:04:44.000Z</time>
      </trkpt>
      <trkpt lat="48.08441" lon="-4.32302">
        <ele>78.800003051758</ele>
        <time>2013-08-13T07:04:49.000Z</time>
      </trkpt>
      <trkpt lat="48.08433" lon="-4.323">
        <ele>77</ele>
        <time>2013-08-13T07:04:55.000Z</time>
      </trkpt>
      <trkpt lat="48.0842" lon="-4.32299">
        <ele>77</ele>
        <time>2013-08-13T07:05:04.000Z</time>
      </trkpt>
      <trkpt lat="48.08411" lon="-4.32298">
        <ele>76</ele>
        <time>2013-08-13T07:05:11.000Z</time>
      </trkpt>
      <trkpt lat="48.08403" lon="-4.32298">
        <ele>76</ele>
        <time>2013-08-13T07:05:17.000Z</time>
      </trkpt>
      <trkpt lat="48.08394" lon="-4.32299">
        <ele>74.599998474121</ele>
        <time>2013-08-13T07:05:24.000Z</time>
      </trkpt>
      <trkpt lat="48.08384" lon="-4.32299">
        <ele>73</ele>
        <time>2013-08-13T07:05:32.000Z</time>
      </trkpt>
      <trkpt lat="48.0838" lon="-4.32299">
        <ele>72.599998474121</ele>
        <time>2013-08-13T07:05:35.000Z</time>
      </trkpt>
      <trkpt lat="48.08375" lon="-4.32299">
        <ele>74</ele>
        <time>2013-08-13T07:05:39.000Z</time>
      </trkpt>
      <trkpt lat="48.08368" lon="-4.32301">
        <ele>71.599998474121</ele>
        <time>2013-08-13T07:05:45.000Z</time>
      </trkpt>
      <trkpt lat="48.08362" lon="-4.32302">
        <ele>72.599998474121</ele>
        <time>2013-08-13T07:05:50.000Z</time>
      </trkpt>
      <trkpt lat="48.08353" lon="-4.32303">
        <ele>70.599998474121</ele>
        <time>2013-08-13T07:05:57.000Z</time>
      </trkpt>
      <trkpt lat="48.08352" lon="-4.32303">
        <ele>70.599998474121</ele>
        <time>2013-08-13T07:05:58.000Z</time>
      </trkpt>
      <trkpt lat="48.08344" lon="-4.32302">
        <ele>69.800003051758</ele>
        <time>2013-08-13T07:06:04.000Z</time>
      </trkpt>
      <trkpt lat="48.08335" lon="-4.32304">
        <ele>69.199996948242</ele>
        <time>2013-08-13T07:06:11.000Z</time>
      </trkpt>
      <trkpt lat="48.08327" lon="-4.32305">
        <ele>69.800003051758</ele>
        <time>2013-08-13T07:06:18.000Z</time>
      </trkpt>
      <trkpt lat="48.08319" lon="-4.32305">
        <ele>67.800003051758</ele>
        <time>2013-08-13T07:06:24.000Z</time>
      </trkpt>
      <trkpt lat="48.0831" lon="-4.32307">
        <ele>65</ele>
        <time>2013-08-13T07:06:32.000Z</time>
      </trkpt>
      <trkpt lat="48.08303" lon="-4.32306">
        <ele>65.800003051758</ele>
        <time>2013-08-13T07:06:38.000Z</time>
      </trkpt>
      <trkpt lat="48.08299" lon="-4.32306">
        <ele>65</ele>
        <time>2013-08-13T07:06:42.000Z</time>
      </trkpt>
      <trkpt lat="48.08298" lon="-4.32306">
        <ele>65</ele>
        <time>2013-08-13T07:06:43.000Z</time>
      </trkpt>
      <trkpt lat="48.0829" lon="-4.32309">
        <ele>66.400001525879</ele>
        <time>2013-08-13T07:06:50.000Z</time>
      </trkpt>
      <trkpt lat="48.08285" lon="-4.3231">
        <ele>66.400001525879</ele>
        <time>2013-08-13T07:06:54.000Z</time>
      </trkpt>
      <trkpt lat="48.08277" lon="-4.32312">
        <ele>65.800003051758</ele>
        <time>2013-08-13T07:06:59.000Z</time>
      </trkpt>
      <trkpt lat="48.08276" lon="-4.32314">
        <ele>65.800003051758</ele>
        <time>2013-08-13T07:07:00.000Z</time>
      </trkpt>
      <trkpt lat="48.08272" lon="-4.32328">
        <ele>63</ele>
        <time>2013-08-13T07:07:08.000Z</time>
      </trkpt>
      <trkpt lat="48.08271" lon="-4.32336">
        <ele>62</ele>
        <time>2013-08-13T07:07:13.000Z</time>
      </trkpt>
      <trkpt lat="48.08268" lon="-4.32338">
        <ele>61.599998474121</ele>
        <time>2013-08-13T07:07:17.000Z</time>
      </trkpt>
      <trkpt lat="48.08266" lon="-4.32337">
        <ele>60.200000762939</ele>
        <time>2013-08-13T07:07:24.000Z</time>
      </trkpt>
      <trkpt lat="48.08263" lon="-4.3233">
        <ele>59.599998474121</ele>
        <time>2013-08-13T07:07:31.000Z</time>
      </trkpt>
      <trkpt lat="48.08258" lon="-4.32322">
        <ele>58.200000762939</ele>
        <time>2013-08-13T07:07:37.000Z</time>
      </trkpt>
      <trkpt lat="48.08251" lon="-4.32311">
        <ele>55.400001525879</ele>
        <time>2013-08-13T07:07:45.000Z</time>
      </trkpt>
      <trkpt lat="48.0825" lon="-4.32308">
        <ele>55.400001525879</ele>
        <time>2013-08-13T07:07:47.000Z</time>
      </trkpt>
      <trkpt lat="48.08246" lon="-4.32306">
        <ele>55.400001525879</ele>
        <time>2013-08-13T07:07:54.000Z</time>
      </trkpt>
      <trkpt lat="48.08241" lon="-4.32303">
        <ele>53</ele>
        <time>2013-08-13T07:08:00.000Z</time>
      </trkpt>
      <trkpt lat="48.08238" lon="-4.32305">
        <ele>52</ele>
        <time>2013-08-13T07:08:04.000Z</time>
      </trkpt>
      <trkpt lat="48.08235" lon="-4.32305">
        <ele>52</ele>
        <time>2013-08-13T07:08:07.000Z</time>
      </trkpt>
      <trkpt lat="48.08229" lon="-4.32303">
        <ele>49.599998474121</ele>
        <time>2013-08-13T07:08:13.000Z</time>
      </trkpt>
      <trkpt lat="48.08226" lon="-4.32303">
        <ele>48.200000762939</ele>
        <time>2013-08-13T07:08:16.000Z</time>
      </trkpt>
      <trkpt lat="48.08221" lon="-4.32304">
        <ele>46.200000762939</ele>
        <time>2013-08-13T07:08:21.000Z</time>
      </trkpt>
      <trkpt lat="48.08218" lon="-4.32304">
        <ele>43.200000762939</ele>
        <time>2013-08-13T07:08:26.000Z</time>
      </trkpt>
      <trkpt lat="48.08212" lon="-4.32308">
        <ele>42.799999237061</ele>
        <time>2013-08-13T07:08:30.000Z</time>
      </trkpt>
      <trkpt lat="48.08206" lon="-4.32314">
        <ele>41.799999237061</ele>
        <time>2013-08-13T07:08:35.000Z</time>
      </trkpt>
      <trkpt lat="48.082" lon="-4.32319">
        <ele>40.799999237061</ele>
        <time>2013-08-13T07:08:42.000Z</time>
      </trkpt>
      <trkpt lat="48.08196" lon="-4.32323">
        <ele>41.799999237061</ele>
        <time>2013-08-13T07:08:49.000Z</time>
      </trkpt>
      <trkpt lat="48.0819" lon="-4.32326">
        <ele>40.799999237061</ele>
        <time>2013-08-13T07:08:55.000Z</time>
      </trkpt>
      <trkpt lat="48.08183" lon="-4.32329">
        <ele>38.400001525879</ele>
        <time>2013-08-13T07:09:01.000Z</time>
      </trkpt>
      <trkpt lat="48.08178" lon="-4.32331">
        <ele>33.200000762939</ele>
        <time>2013-08-13T07:09:05.000Z</time>
      </trkpt>
      <trkpt lat="48.08173" lon="-4.32332">
        <ele>28.799999237061</ele>
        <time>2013-08-13T07:09:11.000Z</time>
      </trkpt>
      <trkpt lat="48.08165" lon="-4.32334">
        <ele>34.200000762939</ele>
        <time>2013-08-13T07:09:27.000Z</time>
      </trkpt>
      <trkpt lat="48.08163" lon="-4.32334">
        <ele>33.200000762939</ele>
        <time>2013-08-13T07:09:29.000Z</time>
      </trkpt>
      <trkpt lat="48.0816" lon="-4.32336">
        <ele>31.799999237061</ele>
        <time>2013-08-13T07:09:34.000Z</time>
      </trkpt>
      <trkpt lat="48.08154" lon="-4.32338">
        <ele>31.200000762939</ele>
        <time>2013-08-13T07:09:41.000Z</time>
      </trkpt>
      <trkpt lat="48.08147" lon="-4.32339">
        <ele>31.200000762939</ele>
        <time>2013-08-13T07:09:48.000Z</time>
      </trkpt>
      <trkpt lat="48.08142" lon="-4.32341">
        <ele>29.799999237061</ele>
        <time>2013-08-13T07:09:55.000Z</time>
      </trkpt>
      <trkpt lat="48.08139" lon="-4.32343">
        <ele>28.799999237061</ele>
        <time>2013-08-13T07:10:02.000Z</time>
      </trkpt>
      <trkpt lat="48.08131" lon="-4.32345">
        <ele>27</ele>
        <time>2013-08-13T07:10:10.000Z</time>
      </trkpt>
      <trkpt lat="48.08128" lon="-4.32347">
        <ele>28.39999961853</ele>
        <time>2013-08-13T07:10:15.000Z</time>
      </trkpt>
      <trkpt lat="48.08121" lon="-4.32347">
        <ele>28.799999237061</ele>
        <time>2013-08-13T07:10:22.000Z</time>
      </trkpt>
      <trkpt lat="48.08116" lon="-4.3235">
        <ele>30.39999961853</ele>
        <time>2013-08-13T07:10:26.000Z</time>
      </trkpt>
      <trkpt lat="48.08113" lon="-4.32354">
        <ele>30.39999961853</ele>
        <time>2013-08-13T07:10:30.000Z</time>
      </trkpt>
      <trkpt lat="48.08113" lon="-4.32356">
        <ele>29.39999961853</ele>
        <time>2013-08-13T07:10:32.000Z</time>
      </trkpt>
      <trkpt lat="48.08116" lon="-4.3237">
        <ele>26.39999961853</ele>
        <time>2013-08-13T07:10:41.000Z</time>
      </trkpt>
      <trkpt lat="48.08121" lon="-4.32387">
        <ele>23.60000038147</ele>
        <time>2013-08-13T07:10:52.000Z</time>
      </trkpt>
      <trkpt lat="48.08123" lon="-4.324">
        <ele>22.200000762939</ele>
        <time>2013-08-13T07:11:00.000Z</time>
      </trkpt>
      <trkpt lat="48.08125" lon="-4.32415">
        <ele>21.200000762939</ele>
        <time>2013-08-13T07:11:08.000Z</time>
      </trkpt>
      <trkpt lat="48.08128" lon="-4.32432">
        <ele>19.799999237061</ele>
        <time>2013-08-13T07:11:18.000Z</time>
      </trkpt>
      <trkpt lat="48.08128" lon="-4.32437">
        <ele>19.200000762939</ele>
        <time>2013-08-13T07:11:21.000Z</time>
      </trkpt>
      <trkpt lat="48.08128" lon="-4.3244">
        <ele>19.200000762939</ele>
        <time>2013-08-13T07:11:24.000Z</time>
      </trkpt>
      <trkpt lat="48.08125" lon="-4.32442">
        <ele>17.39999961853</ele>
        <time>2013-08-13T07:11:31.000Z</time>
      </trkpt>
      <trkpt lat="48.0812" lon="-4.32445">
        <ele>14.39999961853</ele>
        <time>2013-08-13T07:11:37.000Z</time>
      </trkpt>
      <trkpt lat="48.08119" lon="-4.32451">
        <ele>15.39999961853</ele>
        <time>2013-08-13T07:11:42.000Z</time>
      </trkpt>
      <trkpt lat="48.08122" lon="-4.32468">
        <ele>22.60000038147</ele>
        <time>2013-08-13T07:11:49.000Z</time>
      </trkpt>
      <trkpt lat="48.08123" lon="-4.32481">
        <ele>21.60000038147</ele>
        <time>2013-08-13T07:11:57.000Z</time>
      </trkpt>
      <trkpt lat="48.08124" lon="-4.32485">
        <ele>21.200000762939</ele>
        <time>2013-08-13T07:12:00.000Z</time>
      </trkpt>
      <trkpt lat="48.08124" lon="-4.32491">
        <ele>21.200000762939</ele>
        <time>2013-08-13T07:12:04.000Z</time>
      </trkpt>
      <trkpt lat="48.08124" lon="-4.32503">
        <ele>19.799999237061</ele>
        <time>2013-08-13T07:12:11.000Z</time>
      </trkpt>
      <trkpt lat="48.08124" lon="-4.32508">
        <ele>20.200000762939</ele>
        <time>2013-08-13T07:12:14.000Z</time>
      </trkpt>
      <trkpt lat="48.08126" lon="-4.32519">
        <ele>18.799999237061</ele>
        <time>2013-08-13T07:12:21.000Z</time>
      </trkpt>
      <trkpt lat="48.08126" lon="-4.32526">
        <ele>18.39999961853</ele>
        <time>2013-08-13T07:12:25.000Z</time>
      </trkpt>
      <trkpt lat="48.08127" lon="-4.3253">
        <ele>17.799999237061</ele>
        <time>2013-08-13T07:12:27.000Z</time>
      </trkpt>
      <trkpt lat="48.08128" lon="-4.32538">
        <ele>17.799999237061</ele>
        <time>2013-08-13T07:12:33.000Z</time>
      </trkpt>
      <trkpt lat="48.08127" lon="-4.32542">
        <ele>17.39999961853</ele>
        <time>2013-08-13T07:12:37.000Z</time>
      </trkpt>
      <trkpt lat="48.08128" lon="-4.32546">
        <ele>16.799999237061</ele>
        <time>2013-08-13T07:12:41.000Z</time>
      </trkpt>
      <trkpt lat="48.08128" lon="-4.32555">
        <ele>18.39999961853</ele>
        <time>2013-08-13T07:12:45.000Z</time>
      </trkpt>
      <trkpt lat="48.08127" lon="-4.32574">
        <ele>19.799999237061</ele>
        <time>2013-08-13T07:12:53.000Z</time>
      </trkpt>
      <trkpt lat="48.08125" lon="-4.32584">
        <ele>21.200000762939</ele>
        <time>2013-08-13T07:12:58.000Z</time>
      </trkpt>
      <trkpt lat="48.08126" lon="-4.3259">
        <ele>19.799999237061</ele>
        <time>2013-08-13T07:13:05.000Z</time>
      </trkpt>
      <trkpt lat="48.08125" lon="-4.32597">
        <ele>20.200000762939</ele>
        <time>2013-08-13T07:13:10.000Z</time>
      </trkpt>
      <trkpt lat="48.08123" lon="-4.32604">
        <ele>20.799999237061</ele>
        <time>2013-08-13T07:13:14.000Z</time>
      </trkpt>
      <trkpt lat="48.08123" lon="-4.32614">
        <ele>18.799999237061</ele>
        <time>2013-08-13T07:13:20.000Z</time>
      </trkpt>
      <trkpt lat="48.08124" lon="-4.32619">
        <ele>17.799999237061</ele>
        <time>2013-08-13T07:13:23.000Z</time>
      </trkpt>
      <trkpt lat="48.08123" lon="-4.32627">
        <ele>15.800000190735</ele>
        <time>2013-08-13T07:13:28.000Z</time>
      </trkpt>
      <trkpt lat="48.08124" lon="-4.32633">
        <ele>15.39999961853</ele>
        <time>2013-08-13T07:13:31.000Z</time>
      </trkpt>
      <trkpt lat="48.08126" lon="-4.32644">
        <ele>13.39999961853</ele>
        <time>2013-08-13T07:13:37.000Z</time>
      </trkpt>
      <trkpt lat="48.08126" lon="-4.32654">
        <ele>13</ele>
        <time>2013-08-13T07:13:43.000Z</time>
      </trkpt>
      <trkpt lat="48.08126" lon="-4.32667">
        <ele>15</ele>
        <time>2013-08-13T07:13:50.000Z</time>
      </trkpt>
      <trkpt lat="48.08126" lon="-4.3268">
        <ele>14.39999961853</ele>
        <time>2013-08-13T07:13:57.000Z</time>
      </trkpt>
      <trkpt lat="48.08126" lon="-4.32682">
        <ele>14.39999961853</ele>
        <time>2013-08-13T07:13:58.000Z</time>
      </trkpt>
      <trkpt lat="48.08126" lon="-4.32693">
        <ele>15.39999961853</ele>
        <time>2013-08-13T07:14:04.000Z</time>
      </trkpt>
      <trkpt lat="48.08126" lon="-4.32695">
        <ele>15.800000190735</ele>
        <time>2013-08-13T07:14:05.000Z</time>
      </trkpt>
      <trkpt lat="48.08125" lon="-4.32704">
        <ele>15</ele>
        <time>2013-08-13T07:14:11.000Z</time>
      </trkpt>
      <trkpt lat="48.08126" lon="-4.32718">
        <ele>16.39999961853</ele>
        <time>2013-08-13T07:14:18.000Z</time>
      </trkpt>
      <trkpt lat="48.08125" lon="-4.32723">
        <ele>17.39999961853</ele>
        <time>2013-08-13T07:14:25.000Z</time>
      </trkpt>
      <trkpt lat="48.08125" lon="-4.32731">
        <ele>16.799999237061</ele>
        <time>2013-08-13T07:14:31.000Z</time>
      </trkpt>
      <trkpt lat="48.08124" lon="-4.32743">
        <ele>16.39999961853</ele>
        <time>2013-08-13T07:14:38.000Z</time>
      </trkpt>
      <trkpt lat="48.08124" lon="-4.32744">
        <ele>15.800000190735</ele>
        <time>2013-08-13T07:14:39.000Z</time>
      </trkpt>
      <trkpt lat="48.08124" lon="-4.32751">
        <ele>15.39999961853</ele>
        <time>2013-08-13T07:14:43.000Z</time>
      </trkpt>
      <trkpt lat="48.08125" lon="-4.32762">
        <ele>15</ele>
        <time>2013-08-13T07:14:51.000Z</time>
      </trkpt>
      <trkpt lat="48.08125" lon="-4.32775">
        <ele>13.39999961853</ele>
        <time>2013-08-13T07:15:00.000Z</time>
      </trkpt>
      <trkpt lat="48.08125" lon="-4.32785">
        <ele>12.60000038147</ele>
        <time>2013-08-13T07:15:07.000Z</time>
      </trkpt>
      <trkpt lat="48.08126" lon="-4.32795">
        <ele>12.60000038147</ele>
        <time>2013-08-13T07:15:11.000Z</time>
      </trkpt>
      <trkpt lat="48.08126" lon="-4.32801">
        <ele>15</ele>
        <time>2013-08-13T07:15:17.000Z</time>
      </trkpt>
      <trkpt lat="48.08125" lon="-4.3281">
        <ele>16.39999961853</ele>
        <time>2013-08-13T07:15:24.000Z</time>
      </trkpt>
      <trkpt lat="48.08126" lon="-4.32819">
        <ele>14.39999961853</ele>
        <time>2013-08-13T07:15:31.000Z</time>
      </trkpt>
      <trkpt lat="48.08126" lon="-4.32823">
        <ele>14.39999961853</ele>
        <time>2013-08-13T07:15:33.000Z</time>
      </trkpt>
      <trkpt lat="48.08127" lon="-4.3283">
        <ele>12.60000038147</ele>
        <time>2013-08-13T07:15:41.000Z</time>
      </trkpt>
      <trkpt lat="48.08126" lon="-4.3283">
        <ele>11.60000038147</ele>
        <time>2013-08-13T07:15:53.000Z</time>
      </trkpt>
      <trkpt lat="48.08127" lon="-4.32829">
        <ele>11</ele>
        <time>2013-08-13T07:16:09.000Z</time>
      </trkpt>
      <trkpt lat="48.08125" lon="-4.32831">
        <ele>11.60000038147</ele>
        <time>2013-08-13T07:16:20.000Z</time>
      </trkpt>
      <trkpt lat="48.08123" lon="-4.32838">
        <ele>12</ele>
        <time>2013-08-13T07:16:31.000Z</time>
      </trkpt>
      <trkpt lat="48.08123" lon="-4.32845">
        <ele>12.60000038147</ele>
        <time>2013-08-13T07:16:34.000Z</time>
      </trkpt>
      <trkpt lat="48.08125" lon="-4.32852">
        <ele>13</ele>
        <time>2013-08-13T07:16:38.000Z</time>
      </trkpt>
      <trkpt lat="48.08127" lon="-4.32866">
        <ele>14</ele>
        <time>2013-08-13T07:16:45.000Z</time>
      </trkpt>
      <trkpt lat="48.08129" lon="-4.3288">
        <ele>14</ele>
        <time>2013-08-13T07:16:53.000Z</time>
      </trkpt>
      <trkpt lat="48.08131" lon="-4.32893">
        <ele>12</ele>
        <time>2013-08-13T07:17:00.000Z</time>
      </trkpt>
      <trkpt lat="48.08133" lon="-4.32906">
        <ele>12.60000038147</ele>
        <time>2013-08-13T07:17:07.000Z</time>
      </trkpt>
      <trkpt lat="48.08137" lon="-4.32921">
        <ele>12.60000038147</ele>
        <time>2013-08-13T07:17:15.000Z</time>
      </trkpt>
      <trkpt lat="48.08139" lon="-4.3293">
        <ele>11.60000038147</ele>
        <time>2013-08-13T07:17:20.000Z</time>
      </trkpt>
      <trkpt lat="48.08143" lon="-4.32944">
        <ele>11.60000038147</ele>
        <time>2013-08-13T07:17:29.000Z</time>
      </trkpt>
      <trkpt lat="48.08144" lon="-4.32946">
        <ele>12.60000038147</ele>
        <time>2013-08-13T07:17:31.000Z</time>
      </trkpt>
      <trkpt lat="48.08144" lon="-4.32948">
        <ele>12</ele>
        <time>2013-08-13T07:17:33.000Z</time>
      </trkpt>
      <trkpt lat="48.08147" lon="-4.32954">
        <ele>11.60000038147</ele>
        <time>2013-08-13T07:17:40.000Z</time>
      </trkpt>
      <trkpt lat="48.08148" lon="-4.32957">
        <ele>9.6000003814697</ele>
        <time>2013-08-13T07:17:46.000Z</time>
      </trkpt>
      <trkpt lat="48.08148" lon="-4.32964">
        <ele>12.60000038147</ele>
        <time>2013-08-13T07:17:50.000Z</time>
      </trkpt>
      <trkpt lat="48.08151" lon="-4.32969">
        <ele>12</ele>
        <time>2013-08-13T07:17:57.000Z</time>
      </trkpt>
      <trkpt lat="48.08153" lon="-4.32976">
        <ele>12</ele>
        <time>2013-08-13T07:18:02.000Z</time>
      </trkpt>
      <trkpt lat="48.08154" lon="-4.32978">
        <ele>11.60000038147</ele>
        <time>2013-08-13T07:18:04.000Z</time>
      </trkpt>
      <trkpt lat="48.08154" lon="-4.32985">
        <ele>12.60000038147</ele>
        <time>2013-08-13T07:18:08.000Z</time>
      </trkpt>
      <trkpt lat="48.08155" lon="-4.32992">
        <ele>13</ele>
        <time>2013-08-13T07:18:12.000Z</time>
      </trkpt>
      <trkpt lat="48.08159" lon="-4.33009">
        <ele>14.39999961853</ele>
        <time>2013-08-13T07:18:21.000Z</time>
      </trkpt>
      <trkpt lat="48.08161" lon="-4.33021">
        <ele>15.39999961853</ele>
        <time>2013-08-13T07:18:28.000Z</time>
      </trkpt>
      <trkpt lat="48.08162" lon="-4.33031">
        <ele>16.799999237061</ele>
        <time>2013-08-13T07:18:32.000Z</time>
      </trkpt>
      <trkpt lat="48.08164" lon="-4.3304">
        <ele>17.799999237061</ele>
        <time>2013-08-13T07:18:38.000Z</time>
      </trkpt>
      <trkpt lat="48.08166" lon="-4.33045">
        <ele>16.799999237061</ele>
        <time>2013-08-13T07:18:43.000Z</time>
      </trkpt>
      <trkpt lat="48.08167" lon="-4.33047">
        <ele>16.799999237061</ele>
        <time>2013-08-13T07:18:44.000Z</time>
      </trkpt>
      <trkpt lat="48.0817" lon="-4.33058">
        <ele>16.39999961853</ele>
        <time>2013-08-13T07:18:51.000Z</time>
      </trkpt>
      <trkpt lat="48.08165" lon="-4.33054">
        <ele>14.39999961853</ele>
        <time>2013-08-13T07:18:57.000Z</time>
      </trkpt>
      <trkpt lat="48.08164" lon="-4.33049">
        <ele>11.60000038147</ele>
        <time>2013-08-13T07:19:02.000Z</time>
      </trkpt>
      <trkpt lat="48.08162" lon="-4.33044">
        <ele>11</ele>
        <time>2013-08-13T07:19:05.000Z</time>
      </trkpt>
      <trkpt lat="48.08159" lon="-4.33039">
        <ele>11</ele>
        <time>2013-08-13T07:19:09.000Z</time>
      </trkpt>
      <trkpt lat="48.08148" lon="-4.33032">
        <ele>11.60000038147</ele>
        <time>2013-08-13T07:19:19.000Z</time>
      </trkpt>
      <trkpt lat="48.08144" lon="-4.33032">
        <ele>11</ele>
        <time>2013-08-13T07:19:22.000Z</time>
      </trkpt>
      <trkpt lat="48.08141" lon="-4.33033">
        <ele>11.60000038147</ele>
        <time>2013-08-13T07:19:26.000Z</time>
      </trkpt>
      <trkpt lat="48.0813" lon="-4.33034">
        <ele>11</ele>
        <time>2013-08-13T07:19:34.000Z</time>
      </trkpt>
      <trkpt lat="48.0812" lon="-4.33036">
        <ele>11.60000038147</ele>
        <time>2013-08-13T07:19:42.000Z</time>
      </trkpt>
      <trkpt lat="48.08113" lon="-4.33037">
        <ele>11</ele>
        <time>2013-08-13T07:19:48.000Z</time>
      </trkpt>
      <trkpt lat="48.08107" lon="-4.33037">
        <ele>11</ele>
        <time>2013-08-13T07:19:53.000Z</time>
      </trkpt>
      <trkpt lat="48.08101" lon="-4.33037">
        <ele>11</ele>
        <time>2013-08-13T07:19:59.000Z</time>
      </trkpt>
      <trkpt lat="48.08092" lon="-4.33038">
        <ele>11.60000038147</ele>
        <time>2013-08-13T07:20:06.000Z</time>
      </trkpt>
      <trkpt lat="48.08087" lon="-4.33038">
        <ele>11</ele>
        <time>2013-08-13T07:20:12.000Z</time>
      </trkpt>
      <trkpt lat="48.08078" lon="-4.33035">
        <ele>13</ele>
        <time>2013-08-13T07:20:19.000Z</time>
      </trkpt>
      <trkpt lat="48.08077" lon="-4.33035">
        <ele>13.39999961853</ele>
        <time>2013-08-13T07:20:20.000Z</time>
      </trkpt>
      <trkpt lat="48.08068" lon="-4.33037">
        <ele>13.39999961853</ele>
        <time>2013-08-13T07:20:28.000Z</time>
      </trkpt>
      <trkpt lat="48.08066" lon="-4.33038">
        <ele>12</ele>
        <time>2013-08-13T07:20:32.000Z</time>
      </trkpt>
      <trkpt lat="48.0806" lon="-4.33038">
        <ele>12</ele>
        <time>2013-08-13T07:20:38.000Z</time>
      </trkpt>
      <trkpt lat="48.08055" lon="-4.33038">
        <ele>13</ele>
        <time>2013-08-13T07:20:42.000Z</time>
      </trkpt>
      <trkpt lat="48.0805" lon="-4.3304">
        <ele>13.39999961853</ele>
        <time>2013-08-13T07:20:46.000Z</time>
      </trkpt>
      <trkpt lat="48.08046" lon="-4.3304">
        <ele>13.39999961853</ele>
        <time>2013-08-13T07:20:53.000Z</time>
      </trkpt>
      <trkpt lat="48.08037" lon="-4.33043">
        <ele>14</ele>
        <time>2013-08-13T07:21:01.000Z</time>
      </trkpt>
      <trkpt lat="48.08035" lon="-4.33042">
        <ele>13</ele>
        <time>2013-08-13T07:21:08.000Z</time>
      </trkpt>
      <trkpt lat="48.08029" lon="-4.33043">
        <ele>12.60000038147</ele>
        <time>2013-08-13T07:21:14.000Z</time>
      </trkpt>
      <trkpt lat="48.08025" lon="-4.33044">
        <ele>13</ele>
        <time>2013-08-13T07:21:19.000Z</time>
      </trkpt>
      <trkpt lat="48.08023" lon="-4.33046">
        <ele>14.39999961853</ele>
        <time>2013-08-13T07:21:25.000Z</time>
      </trkpt>
      <trkpt lat="48.08024" lon="-4.33047">
        <ele>14.39999961853</ele>
        <time>2013-08-13T07:21:34.000Z</time>
      </trkpt>
      <trkpt lat="48.08018" lon="-4.3305">
        <ele>14.39999961853</ele>
        <time>2013-08-13T07:21:40.000Z</time>
      </trkpt>
      <trkpt lat="48.08012" lon="-4.3305">
        <ele>13.39999961853</ele>
        <time>2013-08-13T07:21:46.000Z</time>
      </trkpt>
      <trkpt lat="48.08009" lon="-4.33047">
        <ele>14.39999961853</ele>
        <time>2013-08-13T07:21:53.000Z</time>
      </trkpt>
      <trkpt lat="48.08005" lon="-4.33045">
        <ele>13.39999961853</ele>
        <time>2013-08-13T07:21:57.000Z</time>
      </trkpt>
      <trkpt lat="48.07999" lon="-4.33043">
        <ele>13</ele>
        <time>2013-08-13T07:22:03.000Z</time>
      </trkpt>
      <trkpt lat="48.07998" lon="-4.33043">
        <ele>13</ele>
        <time>2013-08-13T07:22:04.000Z</time>
      </trkpt>
      <trkpt lat="48.07994" lon="-4.33053">
        <ele>13</ele>
        <time>2013-08-13T07:22:11.000Z</time>
      </trkpt>
      <trkpt lat="48.07993" lon="-4.33055">
        <ele>13</ele>
        <time>2013-08-13T07:22:12.000Z</time>
      </trkpt>
      <trkpt lat="48.07987" lon="-4.33054">
        <ele>13</ele>
        <time>2013-08-13T07:22:17.000Z</time>
      </trkpt>
      <trkpt lat="48.07986" lon="-4.33053">
        <ele>13</ele>
        <time>2013-08-13T07:22:19.000Z</time>
      </trkpt>
      <trkpt lat="48.07976" lon="-4.33051">
        <ele>15</ele>
        <time>2013-08-13T07:22:27.000Z</time>
      </trkpt>
      <trkpt lat="48.07969" lon="-4.33048">
        <ele>14</ele>
        <time>2013-08-13T07:22:33.000Z</time>
      </trkpt>
      <trkpt lat="48.0796" lon="-4.33046">
        <ele>14.39999961853</ele>
        <time>2013-08-13T07:22:39.000Z</time>
      </trkpt>
      <trkpt lat="48.07952" lon="-4.33041">
        <ele>13</ele>
        <time>2013-08-13T07:22:47.000Z</time>
      </trkpt>
      <trkpt lat="48.07944" lon="-4.3304">
        <ele>12.60000038147</ele>
        <time>2013-08-13T07:22:54.000Z</time>
      </trkpt>
      <trkpt lat="48.07938" lon="-4.33043">
        <ele>12.60000038147</ele>
        <time>2013-08-13T07:22:59.000Z</time>
      </trkpt>
      <trkpt lat="48.0793" lon="-4.33046">
        <ele>14.39999961853</ele>
        <time>2013-08-13T07:23:05.000Z</time>
      </trkpt>
      <trkpt lat="48.07923" lon="-4.33052">
        <ele>14.39999961853</ele>
        <time>2013-08-13T07:23:11.000Z</time>
      </trkpt>
      <trkpt lat="48.07922" lon="-4.33053">
        <ele>14</ele>
        <time>2013-08-13T07:23:12.000Z</time>
      </trkpt>
      <trkpt lat="48.07917" lon="-4.33062">
        <ele>12.60000038147</ele>
        <time>2013-08-13T07:23:19.000Z</time>
      </trkpt>
      <trkpt lat="48.07914" lon="-4.33067">
        <ele>11.60000038147</ele>
        <time>2013-08-13T07:23:23.000Z</time>
      </trkpt>
      <trkpt lat="48.07912" lon="-4.3307">
        <ele>12</ele>
        <time>2013-08-13T07:23:30.000Z</time>
      </trkpt>
      <trkpt lat="48.07912" lon="-4.33071">
        <ele>12</ele>
        <time>2013-08-13T07:23:35.000Z</time>
      </trkpt>
      <trkpt lat="48.07912" lon="-4.33072">
        <ele>11</ele>
        <time>2013-08-13T07:23:46.000Z</time>
      </trkpt>
      <trkpt lat="48.07909" lon="-4.33075">
        <ele>11.60000038147</ele>
        <time>2013-08-13T07:23:51.000Z</time>
      </trkpt>
      <trkpt lat="48.07905" lon="-4.33083">
        <ele>13</ele>
        <time>2013-08-13T07:23:56.000Z</time>
      </trkpt>
      <trkpt lat="48.07902" lon="-4.33088">
        <ele>14.39999961853</ele>
        <time>2013-08-13T07:24:01.000Z</time>
      </trkpt>
      <trkpt lat="48.07897" lon="-4.331">
        <ele>14.39999961853</ele>
        <time>2013-08-13T07:24:09.000Z</time>
      </trkpt>
      <trkpt lat="48.07896" lon="-4.33106">
        <ele>13.39999961853</ele>
        <time>2013-08-13T07:24:12.000Z</time>
      </trkpt>
      <trkpt lat="48.07895" lon="-4.33106">
        <ele>13</ele>
        <time>2013-08-13T07:24:14.000Z</time>
      </trkpt>
      <trkpt lat="48.0789" lon="-4.33099">
        <ele>10.199999809265</ele>
        <time>2013-08-13T07:24:21.000Z</time>
      </trkpt>
      <trkpt lat="48.07889" lon="-4.33097">
        <ele>10.199999809265</ele>
        <time>2013-08-13T07:24:23.000Z</time>
      </trkpt>
      <trkpt lat="48.07883" lon="-4.33088">
        <ele>12.60000038147</ele>
        <time>2013-08-13T07:24:30.000Z</time>
      </trkpt>
      <trkpt lat="48.07881" lon="-4.33085">
        <ele>12.60000038147</ele>
        <time>2013-08-13T07:24:32.000Z</time>
      </trkpt>
      <trkpt lat="48.07873" lon="-4.33076">
        <ele>14</ele>
        <time>2013-08-13T07:24:40.000Z</time>
      </trkpt>
      <trkpt lat="48.07868" lon="-4.33069">
        <ele>14</ele>
        <time>2013-08-13T07:24:47.000Z</time>
      </trkpt>
      <trkpt lat="48.0786" lon="-4.33066">
        <ele>15</ele>
        <time>2013-08-13T07:24:53.000Z</time>
      </trkpt>
      <trkpt lat="48.07853" lon="-4.33066">
        <ele>15</ele>
        <time>2013-08-13T07:24:57.000Z</time>
      </trkpt>
      <trkpt lat="48.07849" lon="-4.33062">
        <ele>14.39999961853</ele>
        <time>2013-08-13T07:25:01.000Z</time>
      </trkpt>
      <trkpt lat="48.07844" lon="-4.33057">
        <ele>15</ele>
        <time>2013-08-13T07:25:07.000Z</time>
      </trkpt>
      <trkpt lat="48.07833" lon="-4.33054">
        <ele>18.39999961853</ele>
        <time>2013-08-13T07:25:14.000Z</time>
      </trkpt>
      <trkpt lat="48.07827" lon="-4.33049">
        <ele>18.39999961853</ele>
        <time>2013-08-13T07:25:20.000Z</time>
      </trkpt>
      <trkpt lat="48.07822" lon="-4.33049">
        <ele>17.799999237061</ele>
        <time>2013-08-13T07:25:24.000Z</time>
      </trkpt>
      <trkpt lat="48.07814" lon="-4.33046">
        <ele>19.799999237061</ele>
        <time>2013-08-13T07:25:31.000Z</time>
      </trkpt>
      <trkpt lat="48.0781" lon="-4.33043">
        <ele>17.799999237061</ele>
        <time>2013-08-13T07:25:35.000Z</time>
      </trkpt>
      <trkpt lat="48.07805" lon="-4.33038">
        <ele>16.799999237061</ele>
        <time>2013-08-13T07:25:40.000Z</time>
      </trkpt>
      <trkpt lat="48.078" lon="-4.33034">
        <ele>14</ele>
        <time>2013-08-13T07:25:45.000Z</time>
      </trkpt>
      <trkpt lat="48.07794" lon="-4.33027">
        <ele>11</ele>
        <time>2013-08-13T07:25:51.000Z</time>
      </trkpt>
      <trkpt lat="48.07792" lon="-4.33024">
        <ele>10.60000038147</ele>
        <time>2013-08-13T07:25:53.000Z</time>
      </trkpt>
      <trkpt lat="48.07787" lon="-4.33018">
        <ele>11</ele>
        <time>2013-08-13T07:25:59.000Z</time>
      </trkpt>
      <trkpt lat="48.07781" lon="-4.33012">
        <ele>13.39999961853</ele>
        <time>2013-08-13T07:26:03.000Z</time>
      </trkpt>
      <trkpt lat="48.07774" lon="-4.33005">
        <ele>16.39999961853</ele>
        <time>2013-08-13T07:26:10.000Z</time>
      </trkpt>
      <trkpt lat="48.07768" lon="-4.32998">
        <ele>17.799999237061</ele>
        <time>2013-08-13T07:26:17.000Z</time>
      </trkpt>
      <trkpt lat="48.07766" lon="-4.32998">
        <ele>19.799999237061</ele>
        <time>2013-08-13T07:26:21.000Z</time>
      </trkpt>
      <trkpt lat="48.07764" lon="-4.33005">
        <ele>18.39999961853</ele>
        <time>2013-08-13T07:26:27.000Z</time>
      </trkpt>
      <trkpt lat="48.07762" lon="-4.33014">
        <ele>17.799999237061</ele>
        <time>2013-08-13T07:26:38.000Z</time>
      </trkpt>
      <trkpt lat="48.07758" lon="-4.33019">
        <ele>20.200000762939</ele>
        <time>2013-08-13T07:26:42.000Z</time>
      </trkpt>
      <trkpt lat="48.07755" lon="-4.33026">
        <ele>24</ele>
        <time>2013-08-13T07:26:47.000Z</time>
      </trkpt>
      <trkpt lat="48.07754" lon="-4.33028">
        <ele>23.60000038147</ele>
        <time>2013-08-13T07:26:49.000Z</time>
      </trkpt>
      <trkpt lat="48.07751" lon="-4.33026">
        <ele>18.39999961853</ele>
        <time>2013-08-13T07:26:55.000Z</time>
      </trkpt>
      <trkpt lat="48.07748" lon="-4.33031">
        <ele>15.800000190735</ele>
        <time>2013-08-13T07:27:01.000Z</time>
      </trkpt>
      <trkpt lat="48.07744" lon="-4.33034">
        <ele>16.39999961853</ele>
        <time>2013-08-13T07:27:07.000Z</time>
      </trkpt>
      <trkpt lat="48.07741" lon="-4.33037">
        <ele>20.200000762939</ele>
        <time>2013-08-13T07:27:12.000Z</time>
      </trkpt>
      <trkpt lat="48.07735" lon="-4.33037">
        <ele>26.39999961853</ele>
        <time>2013-08-13T07:27:18.000Z</time>
      </trkpt>
      <trkpt lat="48.07729" lon="-4.33035">
        <ele>29.39999961853</ele>
        <time>2013-08-13T07:27:25.000Z</time>
      </trkpt>
      <trkpt lat="48.07725" lon="-4.33036">
        <ele>28.799999237061</ele>
        <time>2013-08-13T07:27:31.000Z</time>
      </trkpt>
      <trkpt lat="48.0772" lon="-4.33038">
        <ele>28.39999961853</ele>
        <time>2013-08-13T07:27:38.000Z</time>
      </trkpt>
      <trkpt lat="48.07714" lon="-4.3304">
        <ele>28</ele>
        <time>2013-08-13T07:27:45.000Z</time>
      </trkpt>
      <trkpt lat="48.0771" lon="-4.33037">
        <ele>28.799999237061</ele>
        <time>2013-08-13T07:27:51.000Z</time>
      </trkpt>
      <trkpt lat="48.07705" lon="-4.33032">
        <ele>28</ele>
        <time>2013-08-13T07:27:56.000Z</time>
      </trkpt>
      <trkpt lat="48.07699" lon="-4.33023">
        <ele>28</ele>
        <time>2013-08-13T07:28:03.000Z</time>
      </trkpt>
      <trkpt lat="48.07698" lon="-4.33022">
        <ele>28</ele>
        <time>2013-08-13T07:28:04.000Z</time>
      </trkpt>
      <trkpt lat="48.07691" lon="-4.33014">
        <ele>27</ele>
        <time>2013-08-13T07:28:11.000Z</time>
      </trkpt>
      <trkpt lat="48.07688" lon="-4.33011">
        <ele>27</ele>
        <time>2013-08-13T07:28:14.000Z</time>
      </trkpt>
      <trkpt lat="48.07681" lon="-4.33008">
        <ele>25</ele>
        <time>2013-08-13T07:28:21.000Z</time>
      </trkpt>
      <trkpt lat="48.07679" lon="-4.33008">
        <ele>25</ele>
        <time>2013-08-13T07:28:22.000Z</time>
      </trkpt>
      <trkpt lat="48.07669" lon="-4.33004">
        <ele>26.39999961853</ele>
        <time>2013-08-13T07:28:31.000Z</time>
      </trkpt>
      <trkpt lat="48.07659" lon="-4.33003">
        <ele>29.39999961853</ele>
        <time>2013-08-13T07:28:40.000Z</time>
      </trkpt>
      <trkpt lat="48.07651" lon="-4.33">
        <ele>33.599998474121</ele>
        <time>2013-08-13T07:28:46.000Z</time>
      </trkpt>
      <trkpt lat="48.07642" lon="-4.32998">
        <ele>36.599998474121</ele>
        <time>2013-08-13T07:28:54.000Z</time>
      </trkpt>
      <trkpt lat="48.07634" lon="-4.32996">
        <ele>36</ele>
        <time>2013-08-13T07:29:01.000Z</time>
      </trkpt>
      <trkpt lat="48.07622" lon="-4.32994">
        <ele>36</ele>
        <time>2013-08-13T07:29:10.000Z</time>
      </trkpt>
      <trkpt lat="48.07615" lon="-4.32991">
        <ele>36</ele>
        <time>2013-08-13T07:29:16.000Z</time>
      </trkpt>
      <trkpt lat="48.07611" lon="-4.32992">
        <ele>33.200000762939</ele>
        <time>2013-08-13T07:29:22.000Z</time>
      </trkpt>
      <trkpt lat="48.07606" lon="-4.32994">
        <ele>32.200000762939</ele>
        <time>2013-08-13T07:29:27.000Z</time>
      </trkpt>
      <trkpt lat="48.07597" lon="-4.32994">
        <ele>32.200000762939</ele>
        <time>2013-08-13T07:29:34.000Z</time>
      </trkpt>
      <trkpt lat="48.07594" lon="-4.32994">
        <ele>32.799999237061</ele>
        <time>2013-08-13T07:29:36.000Z</time>
      </trkpt>
      <trkpt lat="48.07585" lon="-4.32997">
        <ele>31.799999237061</ele>
        <time>2013-08-13T07:29:44.000Z</time>
      </trkpt>
      <trkpt lat="48.07578" lon="-4.33">
        <ele>30.799999237061</ele>
        <time>2013-08-13T07:29:49.000Z</time>
      </trkpt>
      <trkpt lat="48.0757" lon="-4.33004">
        <ele>29.39999961853</ele>
        <time>2013-08-13T07:29:56.000Z</time>
      </trkpt>
      <trkpt lat="48.07562" lon="-4.33007">
        <ele>29.39999961853</ele>
        <time>2013-08-13T07:30:04.000Z</time>
      </trkpt>
      <trkpt lat="48.07553" lon="-4.33011">
        <ele>31.200000762939</ele>
        <time>2013-08-13T07:30:12.000Z</time>
      </trkpt>
      <trkpt lat="48.0755" lon="-4.33012">
        <ele>31.200000762939</ele>
        <time>2013-08-13T07:30:14.000Z</time>
      </trkpt>
      <trkpt lat="48.07546" lon="-4.33017">
        <ele>31.200000762939</ele>
        <time>2013-08-13T07:30:20.000Z</time>
      </trkpt>
      <trkpt lat="48.0754" lon="-4.3302">
        <ele>31.799999237061</ele>
        <time>2013-08-13T07:30:26.000Z</time>
      </trkpt>
      <trkpt lat="48.07534" lon="-4.33023">
        <ele>31.200000762939</ele>
        <time>2013-08-13T07:30:32.000Z</time>
      </trkpt>
      <trkpt lat="48.07531" lon="-4.33031">
        <ele>31.200000762939</ele>
        <time>2013-08-13T07:30:38.000Z</time>
      </trkpt>
      <trkpt lat="48.07532" lon="-4.33035">
        <ele>30.799999237061</ele>
        <time>2013-08-13T07:30:41.000Z</time>
      </trkpt>
      <trkpt lat="48.07534" lon="-4.33049">
        <ele>30.39999961853</ele>
        <time>2013-08-13T07:30:49.000Z</time>
      </trkpt>
      <trkpt lat="48.07535" lon="-4.33057">
        <ele>30.799999237061</ele>
        <time>2013-08-13T07:30:54.000Z</time>
      </trkpt>
      <trkpt lat="48.07535" lon="-4.33065">
        <ele>30.799999237061</ele>
        <time>2013-08-13T07:31:00.000Z</time>
      </trkpt>
      <trkpt lat="48.07536" lon="-4.33076">
        <ele>30.799999237061</ele>
        <time>2013-08-13T07:31:07.000Z</time>
      </trkpt>
      <trkpt lat="48.07537" lon="-4.33087">
        <ele>30.39999961853</ele>
        <time>2013-08-13T07:31:14.000Z</time>
      </trkpt>
      <trkpt lat="48.07538" lon="-4.33101">
        <ele>33.200000762939</ele>
        <time>2013-08-13T07:31:21.000Z</time>
      </trkpt>
      <trkpt lat="48.07539" lon="-4.33106">
        <ele>34.599998474121</ele>
        <time>2013-08-13T07:31:24.000Z</time>
      </trkpt>
      <trkpt lat="48.07538" lon="-4.33109">
        <ele>35.200000762939</ele>
        <time>2013-08-13T07:31:26.000Z</time>
      </trkpt>
      <trkpt lat="48.0754" lon="-4.33116">
        <ele>34.599998474121</ele>
        <time>2013-08-13T07:31:32.000Z</time>
      </trkpt>
      <trkpt lat="48.07541" lon="-4.33122">
        <ele>35.599998474121</ele>
        <time>2013-08-13T07:31:38.000Z</time>
      </trkpt>
      <trkpt lat="48.07545" lon="-4.33128">
        <ele>34.200000762939</ele>
        <time>2013-08-13T07:31:45.000Z</time>
      </trkpt>
      <trkpt lat="48.07548" lon="-4.33132">
        <ele>36</ele>
        <time>2013-08-13T07:31:50.000Z</time>
      </trkpt>
      <trkpt lat="48.07552" lon="-4.33136">
        <ele>33.599998474121</ele>
        <time>2013-08-13T07:31:57.000Z</time>
      </trkpt>
      <trkpt lat="48.07554" lon="-4.33143">
        <ele>32.799999237061</ele>
        <time>2013-08-13T07:32:03.000Z</time>
      </trkpt>
      <trkpt lat="48.07551" lon="-4.33149">
        <ele>34.200000762939</ele>
        <time>2013-08-13T07:32:07.000Z</time>
      </trkpt>
      <trkpt lat="48.07548" lon="-4.33152">
        <ele>34.599998474121</ele>
        <time>2013-08-13T07:32:10.000Z</time>
      </trkpt>
      <trkpt lat="48.07545" lon="-4.33161">
        <ele>37</ele>
        <time>2013-08-13T07:32:17.000Z</time>
      </trkpt>
      <trkpt lat="48.07541" lon="-4.3317">
        <ele>39</ele>
        <time>2013-08-13T07:32:24.000Z</time>
      </trkpt>
      <trkpt lat="48.07538" lon="-4.33178">
        <ele>39</ele>
        <time>2013-08-13T07:32:31.000Z</time>
      </trkpt>
      <trkpt lat="48.07536" lon="-4.33185">
        <ele>38.400001525879</ele>
        <time>2013-08-13T07:32:36.000Z</time>
      </trkpt>
      <trkpt lat="48.07531" lon="-4.33194">
        <ele>37</ele>
        <time>2013-08-13T07:32:43.000Z</time>
      </trkpt>
      <trkpt lat="48.07527" lon="-4.33206">
        <ele>36.599998474121</ele>
        <time>2013-08-13T07:32:51.000Z</time>
      </trkpt>
      <trkpt lat="48.07524" lon="-4.33213">
        <ele>36.599998474121</ele>
        <time>2013-08-13T07:32:57.000Z</time>
      </trkpt>
      <trkpt lat="48.07521" lon="-4.33219">
        <ele>38</ele>
        <time>2013-08-13T07:33:02.000Z</time>
      </trkpt>
      <trkpt lat="48.07515" lon="-4.33233">
        <ele>40.400001525879</ele>
        <time>2013-08-13T07:33:09.000Z</time>
      </trkpt>
      <trkpt lat="48.07513" lon="-4.33237">
        <ele>42.400001525879</ele>
        <time>2013-08-13T07:33:11.000Z</time>
      </trkpt>
      <trkpt lat="48.0751" lon="-4.33245">
        <ele>41.799999237061</ele>
        <time>2013-08-13T07:33:17.000Z</time>
      </trkpt>
      <trkpt lat="48.07508" lon="-4.33249">
        <ele>40.799999237061</ele>
        <time>2013-08-13T07:33:20.000Z</time>
      </trkpt>
      <trkpt lat="48.07505" lon="-4.33258">
        <ele>42.400001525879</ele>
        <time>2013-08-13T07:33:25.000Z</time>
      </trkpt>
      <trkpt lat="48.07501" lon="-4.33272">
        <ele>42.799999237061</ele>
        <time>2013-08-13T07:33:33.000Z</time>
      </trkpt>
      <trkpt lat="48.075" lon="-4.3328">
        <ele>41.400001525879</ele>
        <time>2013-08-13T07:33:38.000Z</time>
      </trkpt>
      <trkpt lat="48.07498" lon="-4.33289">
        <ele>40.400001525879</ele>
        <time>2013-08-13T07:33:44.000Z</time>
      </trkpt>
      <trkpt lat="48.07497" lon="-4.33295">
        <ele>39.400001525879</ele>
        <time>2013-08-13T07:33:49.000Z</time>
      </trkpt>
      <trkpt lat="48.07495" lon="-4.33302">
        <ele>38.400001525879</ele>
        <time>2013-08-13T07:33:54.000Z</time>
      </trkpt>
      <trkpt lat="48.07494" lon="-4.33312">
        <ele>39.400001525879</ele>
        <time>2013-08-13T07:33:59.000Z</time>
      </trkpt>
      <trkpt lat="48.07495" lon="-4.33324">
        <ele>36.599998474121</ele>
        <time>2013-08-13T07:34:06.000Z</time>
      </trkpt>
      <trkpt lat="48.07494" lon="-4.33335">
        <ele>42.400001525879</ele>
        <time>2013-08-13T07:34:10.000Z</time>
      </trkpt>
      <trkpt lat="48.07494" lon="-4.33344">
        <ele>47.200000762939</ele>
        <time>2013-08-13T07:34:14.000Z</time>
      </trkpt>
      <trkpt lat="48.07495" lon="-4.33356">
        <ele>44.799999237061</ele>
        <time>2013-08-13T07:34:21.000Z</time>
      </trkpt>
      <trkpt lat="48.07495" lon="-4.33359">
        <ele>44.799999237061</ele>
        <time>2013-08-13T07:34:23.000Z</time>
      </trkpt>
      <trkpt lat="48.07491" lon="-4.33366">
        <ele>44.200000762939</ele>
        <time>2013-08-13T07:34:29.000Z</time>
      </trkpt>
      <trkpt lat="48.07488" lon="-4.33376">
        <ele>43.799999237061</ele>
        <time>2013-08-13T07:34:35.000Z</time>
      </trkpt>
      <trkpt lat="48.07486" lon="-4.33388">
        <ele>43.799999237061</ele>
        <time>2013-08-13T07:34:42.000Z</time>
      </trkpt>
      <trkpt lat="48.07484" lon="-4.33395">
        <ele>42.799999237061</ele>
        <time>2013-08-13T07:34:46.000Z</time>
      </trkpt>
      <trkpt lat="48.07485" lon="-4.33401">
        <ele>40.799999237061</ele>
        <time>2013-08-13T07:34:53.000Z</time>
      </trkpt>
      <trkpt lat="48.07483" lon="-4.3341">
        <ele>40.400001525879</ele>
        <time>2013-08-13T07:35:00.000Z</time>
      </trkpt>
      <trkpt lat="48.07481" lon="-4.33417">
        <ele>40.799999237061</ele>
        <time>2013-08-13T07:35:04.000Z</time>
      </trkpt>
      <trkpt lat="48.0748" lon="-4.33427">
        <ele>40.799999237061</ele>
        <time>2013-08-13T07:35:10.000Z</time>
      </trkpt>
      <trkpt lat="48.07479" lon="-4.33432">
        <ele>40.799999237061</ele>
        <time>2013-08-13T07:35:15.000Z</time>
      </trkpt>
      <trkpt lat="48.07477" lon="-4.33448">
        <ele>40</ele>
        <time>2013-08-13T07:35:25.000Z</time>
      </trkpt>
      <trkpt lat="48.07475" lon="-4.3346">
        <ele>38.400001525879</ele>
        <time>2013-08-13T07:35:32.000Z</time>
      </trkpt>
      <trkpt lat="48.07474" lon="-4.33472">
        <ele>37.599998474121</ele>
        <time>2013-08-13T07:35:40.000Z</time>
      </trkpt>
      <trkpt lat="48.07472" lon="-4.33485">
        <ele>36</ele>
        <time>2013-08-13T07:35:48.000Z</time>
      </trkpt>
      <trkpt lat="48.07472" lon="-4.33489">
        <ele>35.599998474121</ele>
        <time>2013-08-13T07:35:50.000Z</time>
      </trkpt>
      <trkpt lat="48.07472" lon="-4.33497">
        <ele>34.599998474121</ele>
        <time>2013-08-13T07:35:54.000Z</time>
      </trkpt>
      <trkpt lat="48.07472" lon="-4.33501">
        <ele>33.599998474121</ele>
        <time>2013-08-13T07:35:57.000Z</time>
      </trkpt>
      <trkpt lat="48.07471" lon="-4.33502">
        <ele>32.799999237061</ele>
        <time>2013-08-13T07:36:06.000Z</time>
      </trkpt>
      <trkpt lat="48.0747" lon="-4.33503">
        <ele>31.799999237061</ele>
        <time>2013-08-13T07:36:14.000Z</time>
      </trkpt>
      <trkpt lat="48.0747" lon="-4.33504">
        <ele>31.200000762939</ele>
        <time>2013-08-13T07:36:24.000Z</time>
      </trkpt>
      <trkpt lat="48.07468" lon="-4.3351">
        <ele>30.39999961853</ele>
        <time>2013-08-13T07:36:32.000Z</time>
      </trkpt>
      <trkpt lat="48.07466" lon="-4.33518">
        <ele>29.799999237061</ele>
        <time>2013-08-13T07:36:40.000Z</time>
      </trkpt>
      <trkpt lat="48.07465" lon="-4.33521">
        <ele>29.39999961853</ele>
        <time>2013-08-13T07:36:42.000Z</time>
      </trkpt>
      <trkpt lat="48.07463" lon="-4.3353">
        <ele>28.39999961853</ele>
        <time>2013-08-13T07:36:48.000Z</time>
      </trkpt>
      <trkpt lat="48.07459" lon="-4.33546">
        <ele>27.39999961853</ele>
        <time>2013-08-13T07:36:58.000Z</time>
      </trkpt>
      <trkpt lat="48.07458" lon="-4.33551">
        <ele>27.39999961853</ele>
        <time>2013-08-13T07:37:03.000Z</time>
      </trkpt>
      <trkpt lat="48.07453" lon="-4.33563">
        <ele>28</ele>
        <time>2013-08-13T07:37:10.000Z</time>
      </trkpt>
      <trkpt lat="48.07452" lon="-4.33571">
        <ele>27.39999961853</ele>
        <time>2013-08-13T07:37:14.000Z</time>
      </trkpt>
      <trkpt lat="48.07449" lon="-4.33581">
        <ele>26</ele>
        <time>2013-08-13T07:37:19.000Z</time>
      </trkpt>
      <trkpt lat="48.07447" lon="-4.33592">
        <ele>25.60000038147</ele>
        <time>2013-08-13T07:37:25.000Z</time>
      </trkpt>
      <trkpt lat="48.07447" lon="-4.33594">
        <ele>25</ele>
        <time>2013-08-13T07:37:26.000Z</time>
      </trkpt>
      <trkpt lat="48.07443" lon="-4.33605">
        <ele>25</ele>
        <time>2013-08-13T07:37:32.000Z</time>
      </trkpt>
      <trkpt lat="48.0744" lon="-4.33616">
        <ele>24</ele>
        <time>2013-08-13T07:37:38.000Z</time>
      </trkpt>
      <trkpt lat="48.07437" lon="-4.33622">
        <ele>23.60000038147</ele>
        <time>2013-08-13T07:37:43.000Z</time>
      </trkpt>
      <trkpt lat="48.07431" lon="-4.33628">
        <ele>22.60000038147</ele>
        <time>2013-08-13T07:37:49.000Z</time>
      </trkpt>
      <trkpt lat="48.07426" lon="-4.33626">
        <ele>22.60000038147</ele>
        <time>2013-08-13T07:37:54.000Z</time>
      </trkpt>
      <trkpt lat="48.07422" lon="-4.33619">
        <ele>21.60000038147</ele>
        <time>2013-08-13T07:37:59.000Z</time>
      </trkpt>
      <trkpt lat="48.0742" lon="-4.33616">
        <ele>22.200000762939</ele>
        <time>2013-08-13T07:38:01.000Z</time>
      </trkpt>
      <trkpt lat="48.07412" lon="-4.33608">
        <ele>23.200000762939</ele>
        <time>2013-08-13T07:38:10.000Z</time>
      </trkpt>
      <trkpt lat="48.07408" lon="-4.33602">
        <ele>24</ele>
        <time>2013-08-13T07:38:17.000Z</time>
      </trkpt>
      <trkpt lat="48.07403" lon="-4.33596">
        <ele>25</ele>
        <time>2013-08-13T07:38:23.000Z</time>
      </trkpt>
      <trkpt lat="48.07396" lon="-4.33586">
        <ele>25.60000038147</ele>
        <time>2013-08-13T07:38:29.000Z</time>
      </trkpt>
      <trkpt lat="48.07391" lon="-4.33577">
        <ele>27.39999961853</ele>
        <time>2013-08-13T07:38:34.000Z</time>
      </trkpt>
      <trkpt lat="48.07384" lon="-4.3357">
        <ele>27</ele>
        <time>2013-08-13T07:38:41.000Z</time>
      </trkpt>
      <trkpt lat="48.07376" lon="-4.33563">
        <ele>26.39999961853</ele>
        <time>2013-08-13T07:38:48.000Z</time>
      </trkpt>
      <trkpt lat="48.07369" lon="-4.33552">
        <ele>27.39999961853</ele>
        <time>2013-08-13T07:38:56.000Z</time>
      </trkpt>
      <trkpt lat="48.07361" lon="-4.33544">
        <ele>28</ele>
        <time>2013-08-13T07:39:04.000Z</time>
      </trkpt>
      <trkpt lat="48.07355" lon="-4.33537">
        <ele>28.799999237061</ele>
        <time>2013-08-13T07:39:11.000Z</time>
      </trkpt>
      <trkpt lat="48.07348" lon="-4.33529">
        <ele>29.39999961853</ele>
        <time>2013-08-13T07:39:18.000Z</time>
      </trkpt>
      <trkpt lat="48.07343" lon="-4.33526">
        <ele>28.39999961853</ele>
        <time>2013-08-13T07:39:24.000Z</time>
      </trkpt>
      <trkpt lat="48.07336" lon="-4.33519">
        <ele>30.799999237061</ele>
        <time>2013-08-13T07:39:30.000Z</time>
      </trkpt>
      <trkpt lat="48.0733" lon="-4.33514">
        <ele>29.39999961853</ele>
        <time>2013-08-13T07:39:37.000Z</time>
      </trkpt>
      <trkpt lat="48.07322" lon="-4.33512">
        <ele>29.799999237061</ele>
        <time>2013-08-13T07:39:44.000Z</time>
      </trkpt>
      <trkpt lat="48.07313" lon="-4.33507">
        <ele>32.799999237061</ele>
        <time>2013-08-13T07:39:51.000Z</time>
      </trkpt>
      <trkpt lat="48.07306" lon="-4.33507">
        <ele>32.799999237061</ele>
        <time>2013-08-13T07:39:57.000Z</time>
      </trkpt>
      <trkpt lat="48.07299" lon="-4.33505">
        <ele>33.200000762939</ele>
        <time>2013-08-13T07:40:03.000Z</time>
      </trkpt>
      <trkpt lat="48.07291" lon="-4.33507">
        <ele>33.599998474121</ele>
        <time>2013-08-13T07:40:10.000Z</time>
      </trkpt>
      <trkpt lat="48.07286" lon="-4.33507">
        <ele>33.599998474121</ele>
        <time>2013-08-13T07:40:14.000Z</time>
      </trkpt>
      <trkpt lat="48.07277" lon="-4.33506">
        <ele>36</ele>
        <time>2013-08-13T07:40:23.000Z</time>
      </trkpt>
      <trkpt lat="48.07275" lon="-4.33506">
        <ele>36.599998474121</ele>
        <time>2013-08-13T07:40:25.000Z</time>
      </trkpt>
      <trkpt lat="48.07267" lon="-4.33505">
        <ele>37</ele>
        <time>2013-08-13T07:40:33.000Z</time>
      </trkpt>
      <trkpt lat="48.07261" lon="-4.33504">
        <ele>37.599998474121</ele>
        <time>2013-08-13T07:40:39.000Z</time>
      </trkpt>
      <trkpt lat="48.07254" lon="-4.33502">
        <ele>36.599998474121</ele>
        <time>2013-08-13T07:40:45.000Z</time>
      </trkpt>
      <trkpt lat="48.07249" lon="-4.335">
        <ele>37.599998474121</ele>
        <time>2013-08-13T07:40:49.000Z</time>
      </trkpt>
      <trkpt lat="48.07241" lon="-4.33496">
        <ele>38.400001525879</ele>
        <time>2013-08-13T07:40:55.000Z</time>
      </trkpt>
      <trkpt lat="48.07233" lon="-4.33492">
        <ele>40</ele>
        <time>2013-08-13T07:41:01.000Z</time>
      </trkpt>
      <trkpt lat="48.07232" lon="-4.33492">
        <ele>40.400001525879</ele>
        <time>2013-08-13T07:41:02.000Z</time>
      </trkpt>
      <trkpt lat="48.07227" lon="-4.33491">
        <ele>39.400001525879</ele>
        <time>2013-08-13T07:41:09.000Z</time>
      </trkpt>
      <trkpt lat="48.07219" lon="-4.33488">
        <ele>38.400001525879</ele>
        <time>2013-08-13T07:41:16.000Z</time>
      </trkpt>
      <trkpt lat="48.07217" lon="-4.33488">
        <ele>38</ele>
        <time>2013-08-13T07:41:18.000Z</time>
      </trkpt>
      <trkpt lat="48.07211" lon="-4.33486">
        <ele>37.599998474121</ele>
        <time>2013-08-13T07:41:23.000Z</time>
      </trkpt>
      <trkpt lat="48.07202" lon="-4.33482">
        <ele>38.400001525879</ele>
        <time>2013-08-13T07:41:31.000Z</time>
      </trkpt>
      <trkpt lat="48.07198" lon="-4.33482">
        <ele>38.400001525879</ele>
        <time>2013-08-13T07:41:34.000Z</time>
      </trkpt>
      <trkpt lat="48.07194" lon="-4.33481">
        <ele>38</ele>
        <time>2013-08-13T07:41:38.000Z</time>
      </trkpt>
      <trkpt lat="48.07188" lon="-4.33478">
        <ele>38.400001525879</ele>
        <time>2013-08-13T07:41:43.000Z</time>
      </trkpt>
      <trkpt lat="48.07181" lon="-4.3348">
        <ele>40.400001525879</ele>
        <time>2013-08-13T07:41:49.000Z</time>
      </trkpt>
      <trkpt lat="48.07172" lon="-4.33481">
        <ele>40.400001525879</ele>
        <time>2013-08-13T07:41:56.000Z</time>
      </trkpt>
      <trkpt lat="48.07164" lon="-4.33483">
        <ele>39</ele>
        <time>2013-08-13T07:42:02.000Z</time>
      </trkpt>
      <trkpt lat="48.0716" lon="-4.33483">
        <ele>38</ele>
        <time>2013-08-13T07:42:05.000Z</time>
      </trkpt>
      <trkpt lat="48.07158" lon="-4.33483">
        <ele>37.599998474121</ele>
        <time>2013-08-13T07:42:07.000Z</time>
      </trkpt>
      <trkpt lat="48.07154" lon="-4.33483">
        <ele>37.599998474121</ele>
        <time>2013-08-13T07:42:10.000Z</time>
      </trkpt>
      <trkpt lat="48.07147" lon="-4.33483">
        <ele>38</ele>
        <time>2013-08-13T07:42:16.000Z</time>
      </trkpt>
      <trkpt lat="48.07144" lon="-4.33482">
        <ele>37</ele>
        <time>2013-08-13T07:42:19.000Z</time>
      </trkpt>
      <trkpt lat="48.0714" lon="-4.33481">
        <ele>38.400001525879</ele>
        <time>2013-08-13T07:42:23.000Z</time>
      </trkpt>
      <trkpt lat="48.07134" lon="-4.33483">
        <ele>41.799999237061</ele>
        <time>2013-08-13T07:42:27.000Z</time>
      </trkpt>
      <trkpt lat="48.07128" lon="-4.33486">
        <ele>42.799999237061</ele>
        <time>2013-08-13T07:42:33.000Z</time>
      </trkpt>
      <trkpt lat="48.07126" lon="-4.33486">
        <ele>43.200000762939</ele>
        <time>2013-08-13T07:42:34.000Z</time>
      </trkpt>
      <trkpt lat="48.07122" lon="-4.33485">
        <ele>43.799999237061</ele>
        <time>2013-08-13T07:42:37.000Z</time>
      </trkpt>
      <trkpt lat="48.07115" lon="-4.33484">
        <ele>42.400001525879</ele>
        <time>2013-08-13T07:42:43.000Z</time>
      </trkpt>
      <trkpt lat="48.07108" lon="-4.33484">
        <ele>43.200000762939</ele>
        <time>2013-08-13T07:42:49.000Z</time>
      </trkpt>
      <trkpt lat="48.07102" lon="-4.33481">
        <ele>42.400001525879</ele>
        <time>2013-08-13T07:42:56.000Z</time>
      </trkpt>
      <trkpt lat="48.07096" lon="-4.33479">
        <ele>40.400001525879</ele>
        <time>2013-08-13T07:43:02.000Z</time>
      </trkpt>
      <trkpt lat="48.07088" lon="-4.33479">
        <ele>40</ele>
        <time>2013-08-13T07:43:09.000Z</time>
      </trkpt>
      <trkpt lat="48.07084" lon="-4.33478">
        <ele>39</ele>
        <time>2013-08-13T07:43:11.000Z</time>
      </trkpt>
      <trkpt lat="48.07079" lon="-4.33479">
        <ele>40.799999237061</ele>
        <time>2013-08-13T07:43:15.000Z</time>
      </trkpt>
      <trkpt lat="48.07075" lon="-4.33479">
        <ele>40.400001525879</ele>
        <time>2013-08-13T07:43:19.000Z</time>
      </trkpt>
      <trkpt lat="48.07068" lon="-4.33477">
        <ele>41.400001525879</ele>
        <time>2013-08-13T07:43:26.000Z</time>
      </trkpt>
      <trkpt lat="48.07063" lon="-4.33478">
        <ele>44.200000762939</ele>
        <time>2013-08-13T07:43:32.000Z</time>
      </trkpt>
      <trkpt lat="48.07059" lon="-4.33476">
        <ele>44.200000762939</ele>
        <time>2013-08-13T07:43:36.000Z</time>
      </trkpt>
      <trkpt lat="48.07058" lon="-4.33476">
        <ele>43.799999237061</ele>
        <time>2013-08-13T07:43:37.000Z</time>
      </trkpt>
      <trkpt lat="48.07053" lon="-4.33475">
        <ele>43.200000762939</ele>
        <time>2013-08-13T07:43:41.000Z</time>
      </trkpt>
      <trkpt lat="48.0705" lon="-4.33474">
        <ele>44.200000762939</ele>
        <time>2013-08-13T07:43:44.000Z</time>
      </trkpt>
      <trkpt lat="48.07045" lon="-4.33475">
        <ele>47.200000762939</ele>
        <time>2013-08-13T07:43:50.000Z</time>
      </trkpt>
      <trkpt lat="48.07034" lon="-4.3347">
        <ele>47.599998474121</ele>
        <time>2013-08-13T07:43:57.000Z</time>
      </trkpt>
      <trkpt lat="48.07026" lon="-4.33469">
        <ele>46.200000762939</ele>
        <time>2013-08-13T07:44:02.000Z</time>
      </trkpt>
      <trkpt lat="48.07024" lon="-4.33468">
        <ele>47.200000762939</ele>
        <time>2013-08-13T07:44:04.000Z</time>
      </trkpt>
      <trkpt lat="48.07019" lon="-4.33466">
        <ele>43.799999237061</ele>
        <time>2013-08-13T07:44:09.000Z</time>
      </trkpt>
      <trkpt lat="48.07016" lon="-4.33465">
        <ele>44.200000762939</ele>
        <time>2013-08-13T07:44:11.000Z</time>
      </trkpt>
      <trkpt lat="48.07009" lon="-4.33463">
        <ele>46.200000762939</ele>
        <time>2013-08-13T07:44:16.000Z</time>
      </trkpt>
      <trkpt lat="48.07004" lon="-4.33462">
        <ele>46.200000762939</ele>
        <time>2013-08-13T07:44:20.000Z</time>
      </trkpt>
      <trkpt lat="48.07" lon="-4.33459">
        <ele>45.599998474121</ele>
        <time>2013-08-13T07:44:24.000Z</time>
      </trkpt>
      <trkpt lat="48.06996" lon="-4.33456">
        <ele>42.400001525879</ele>
        <time>2013-08-13T07:44:29.000Z</time>
      </trkpt>
      <trkpt lat="48.06988" lon="-4.33456">
        <ele>43.200000762939</ele>
        <time>2013-08-13T07:44:34.000Z</time>
      </trkpt>
      <trkpt lat="48.06984" lon="-4.33454">
        <ele>44.200000762939</ele>
        <time>2013-08-13T07:44:37.000Z</time>
      </trkpt>
      <trkpt lat="48.06979" lon="-4.33453">
        <ele>43.799999237061</ele>
        <time>2013-08-13T07:44:41.000Z</time>
      </trkpt>
      <trkpt lat="48.06975" lon="-4.33458">
        <ele>42.400001525879</ele>
        <time>2013-08-13T07:44:48.000Z</time>
      </trkpt>
      <trkpt lat="48.0697" lon="-4.33462">
        <ele>41.400001525879</ele>
        <time>2013-08-13T07:44:53.000Z</time>
      </trkpt>
      <trkpt lat="48.06969" lon="-4.33463">
        <ele>41.400001525879</ele>
        <time>2013-08-13T07:44:54.000Z</time>
      </trkpt>
      <trkpt lat="48.06965" lon="-4.33466">
        <ele>40.400001525879</ele>
        <time>2013-08-13T07:44:58.000Z</time>
      </trkpt>
      <trkpt lat="48.06963" lon="-4.3347">
        <ele>39.400001525879</ele>
        <time>2013-08-13T07:45:01.000Z</time>
      </trkpt>
      <trkpt lat="48.06961" lon="-4.33478">
        <ele>38</ele>
        <time>2013-08-13T07:45:08.000Z</time>
      </trkpt>
      <trkpt lat="48.06958" lon="-4.33486">
        <ele>36.599998474121</ele>
        <time>2013-08-13T07:45:14.000Z</time>
      </trkpt>
      <trkpt lat="48.06954" lon="-4.33496">
        <ele>37</ele>
        <time>2013-08-13T07:45:20.000Z</time>
      </trkpt>
      <trkpt lat="48.06951" lon="-4.33505">
        <ele>37</ele>
        <time>2013-08-13T07:45:25.000Z</time>
      </trkpt>
      <trkpt lat="48.0695" lon="-4.33508">
        <ele>38</ele>
        <time>2013-08-13T07:45:27.000Z</time>
      </trkpt>
      <trkpt lat="48.06948" lon="-4.33511">
        <ele>38.400001525879</ele>
        <time>2013-08-13T07:45:29.000Z</time>
      </trkpt>
      <trkpt lat="48.06941" lon="-4.33524">
        <ele>39</ele>
        <time>2013-08-13T07:45:36.000Z</time>
      </trkpt>
      <trkpt lat="48.06938" lon="-4.3353">
        <ele>39.400001525879</ele>
        <time>2013-08-13T07:45:40.000Z</time>
      </trkpt>
      <trkpt lat="48.06936" lon="-4.33536">
        <ele>38.400001525879</ele>
        <time>2013-08-13T07:45:45.000Z</time>
      </trkpt>
      <trkpt lat="48.06936" lon="-4.33542">
        <ele>38</ele>
        <time>2013-08-13T07:45:48.000Z</time>
      </trkpt>
      <trkpt lat="48.06934" lon="-4.33548">
        <ele>38.400001525879</ele>
        <time>2013-08-13T07:45:53.000Z</time>
      </trkpt>
      <trkpt lat="48.06933" lon="-4.33549">
        <ele>39</ele>
        <time>2013-08-13T07:45:54.000Z</time>
      </trkpt>
      <trkpt lat="48.06927" lon="-4.33561">
        <ele>38.400001525879</ele>
        <time>2013-08-13T07:46:01.000Z</time>
      </trkpt>
      <trkpt lat="48.06925" lon="-4.33565">
        <ele>38.400001525879</ele>
        <time>2013-08-13T07:46:04.000Z</time>
      </trkpt>
      <trkpt lat="48.06924" lon="-4.33571">
        <ele>37.599998474121</ele>
        <time>2013-08-13T07:46:08.000Z</time>
      </trkpt>
      <trkpt lat="48.06922" lon="-4.33576">
        <ele>37.599998474121</ele>
        <time>2013-08-13T07:46:11.000Z</time>
      </trkpt>
      <trkpt lat="48.06918" lon="-4.33585">
        <ele>38</ele>
        <time>2013-08-13T07:46:17.000Z</time>
      </trkpt>
      <trkpt lat="48.06912" lon="-4.33592">
        <ele>37</ele>
        <time>2013-08-13T07:46:21.000Z</time>
      </trkpt>
      <trkpt lat="48.06909" lon="-4.33601">
        <ele>36</ele>
        <time>2013-08-13T07:46:27.000Z</time>
      </trkpt>
      <trkpt lat="48.06908" lon="-4.33604">
        <ele>36.599998474121</ele>
        <time>2013-08-13T07:46:29.000Z</time>
      </trkpt>
      <trkpt lat="48.06907" lon="-4.33611">
        <ele>37</ele>
        <time>2013-08-13T07:46:34.000Z</time>
      </trkpt>
      <trkpt lat="48.06904" lon="-4.3362">
        <ele>36</ele>
        <time>2013-08-13T07:46:40.000Z</time>
      </trkpt>
      <trkpt lat="48.069" lon="-4.33628">
        <ele>36.599998474121</ele>
        <time>2013-08-13T07:46:46.000Z</time>
      </trkpt>
      <trkpt lat="48.06895" lon="-4.33643">
        <ele>39.400001525879</ele>
        <time>2013-08-13T07:46:56.000Z</time>
      </trkpt>
      <trkpt lat="48.06891" lon="-4.33655">
        <ele>39</ele>
        <time>2013-08-13T07:47:02.000Z</time>
      </trkpt>
      <trkpt lat="48.0689" lon="-4.3366">
        <ele>37.599998474121</ele>
        <time>2013-08-13T07:47:05.000Z</time>
      </trkpt>
      <trkpt lat="48.06887" lon="-4.33672">
        <ele>36.599998474121</ele>
        <time>2013-08-13T07:47:12.000Z</time>
      </trkpt>
      <trkpt lat="48.06885" lon="-4.33678">
        <ele>36</ele>
        <time>2013-08-13T07:47:16.000Z</time>
      </trkpt>
      <trkpt lat="48.06882" lon="-4.33684">
        <ele>36</ele>
        <time>2013-08-13T07:47:20.000Z</time>
      </trkpt>
      <trkpt lat="48.0688" lon="-4.33694">
        <ele>35.599998474121</ele>
        <time>2013-08-13T07:47:26.000Z</time>
      </trkpt>
      <trkpt lat="48.06878" lon="-4.337">
        <ele>35.599998474121</ele>
        <time>2013-08-13T07:47:31.000Z</time>
      </trkpt>
      <trkpt lat="48.06874" lon="-4.33708">
        <ele>36</ele>
        <time>2013-08-13T07:47:36.000Z</time>
      </trkpt>
      <trkpt lat="48.0687" lon="-4.33718">
        <ele>37</ele>
        <time>2013-08-13T07:47:42.000Z</time>
      </trkpt>
      <trkpt lat="48.06867" lon="-4.33724">
        <ele>38</ele>
        <time>2013-08-13T07:47:47.000Z</time>
      </trkpt>
      <trkpt lat="48.06865" lon="-4.3373">
        <ele>38</ele>
        <time>2013-08-13T07:47:50.000Z</time>
      </trkpt>
      <trkpt lat="48.06863" lon="-4.33737">
        <ele>38.400001525879</ele>
        <time>2013-08-13T07:47:54.000Z</time>
      </trkpt>
      <trkpt lat="48.0686" lon="-4.33746">
        <ele>36</ele>
        <time>2013-08-13T07:47:59.000Z</time>
      </trkpt>
      <trkpt lat="48.06855" lon="-4.33752">
        <ele>34.599998474121</ele>
        <time>2013-08-13T07:48:04.000Z</time>
      </trkpt>
      <trkpt lat="48.06853" lon="-4.33757">
        <ele>35.200000762939</ele>
        <time>2013-08-13T07:48:07.000Z</time>
      </trkpt>
      <trkpt lat="48.06849" lon="-4.33765">
        <ele>35.200000762939</ele>
        <time>2013-08-13T07:48:13.000Z</time>
      </trkpt>
      <trkpt lat="48.06848" lon="-4.33766">
        <ele>35.200000762939</ele>
        <time>2013-08-13T07:48:14.000Z</time>
      </trkpt>
      <trkpt lat="48.06842" lon="-4.33779">
        <ele>35.200000762939</ele>
        <time>2013-08-13T07:48:22.000Z</time>
      </trkpt>
      <trkpt lat="48.06839" lon="-4.33788">
        <ele>34.200000762939</ele>
        <time>2013-08-13T07:48:27.000Z</time>
      </trkpt>
      <trkpt lat="48.06834" lon="-4.33799">
        <ele>33.599998474121</ele>
        <time>2013-08-13T07:48:34.000Z</time>
      </trkpt>
      <trkpt lat="48.0683" lon="-4.33809">
        <ele>33.599998474121</ele>
        <time>2013-08-13T07:48:40.000Z</time>
      </trkpt>
      <trkpt lat="48.06829" lon="-4.3381">
        <ele>33.599998474121</ele>
        <time>2013-08-13T07:48:41.000Z</time>
      </trkpt>
      <trkpt lat="48.06826" lon="-4.33821">
        <ele>33.599998474121</ele>
        <time>2013-08-13T07:48:47.000Z</time>
      </trkpt>
      <trkpt lat="48.06825" lon="-4.33826">
        <ele>34.200000762939</ele>
        <time>2013-08-13T07:48:50.000Z</time>
      </trkpt>
      <trkpt lat="48.0682" lon="-4.33835">
        <ele>35.200000762939</ele>
        <time>2013-08-13T07:48:57.000Z</time>
      </trkpt>
      <trkpt lat="48.06817" lon="-4.33843">
        <ele>35.200000762939</ele>
        <time>2013-08-13T07:49:02.000Z</time>
      </trkpt>
      <trkpt lat="48.06811" lon="-4.33851">
        <ele>34.599998474121</ele>
        <time>2013-08-13T07:49:08.000Z</time>
      </trkpt>
      <trkpt lat="48.06808" lon="-4.3386">
        <ele>34.599998474121</ele>
        <time>2013-08-13T07:49:14.000Z</time>
      </trkpt>
      <trkpt lat="48.06803" lon="-4.33868">
        <ele>31.799999237061</ele>
        <time>2013-08-13T07:49:20.000Z</time>
      </trkpt>
      <trkpt lat="48.06798" lon="-4.33872">
        <ele>30.799999237061</ele>
        <time>2013-08-13T07:49:25.000Z</time>
      </trkpt>
      <trkpt lat="48.06796" lon="-4.33878">
        <ele>31.200000762939</ele>
        <time>2013-08-13T07:49:29.000Z</time>
      </trkpt>
      <trkpt lat="48.06791" lon="-4.33885">
        <ele>30.799999237061</ele>
        <time>2013-08-13T07:49:35.000Z</time>
      </trkpt>
      <trkpt lat="48.06784" lon="-4.33892">
        <ele>31.200000762939</ele>
        <time>2013-08-13T07:49:42.000Z</time>
      </trkpt>
      <trkpt lat="48.06783" lon="-4.33895">
        <ele>31.200000762939</ele>
        <time>2013-08-13T07:49:46.000Z</time>
      </trkpt>
      <trkpt lat="48.06779" lon="-4.33901">
        <ele>31.799999237061</ele>
        <time>2013-08-13T07:49:52.000Z</time>
      </trkpt>
      <trkpt lat="48.06775" lon="-4.33907">
        <ele>33.200000762939</ele>
        <time>2013-08-13T07:49:57.000Z</time>
      </trkpt>
      <trkpt lat="48.06772" lon="-4.33915">
        <ele>33.599998474121</ele>
        <time>2013-08-13T07:50:02.000Z</time>
      </trkpt>
      <trkpt lat="48.06768" lon="-4.33921">
        <ele>33.200000762939</ele>
        <time>2013-08-13T07:50:07.000Z</time>
      </trkpt>
      <trkpt lat="48.06763" lon="-4.33929">
        <ele>33.200000762939</ele>
        <time>2013-08-13T07:50:13.000Z</time>
      </trkpt>
      <trkpt lat="48.06755" lon="-4.3394">
        <ele>33.599998474121</ele>
        <time>2013-08-13T07:50:21.000Z</time>
      </trkpt>
      <trkpt lat="48.0675" lon="-4.33946">
        <ele>32.799999237061</ele>
        <time>2013-08-13T07:50:27.000Z</time>
      </trkpt>
      <trkpt lat="48.06746" lon="-4.33953">
        <ele>34.200000762939</ele>
        <time>2013-08-13T07:50:31.000Z</time>
      </trkpt>
      <trkpt lat="48.06743" lon="-4.33958">
        <ele>34.200000762939</ele>
        <time>2013-08-13T07:50:35.000Z</time>
      </trkpt>
      <trkpt lat="48.06738" lon="-4.33966">
        <ele>36</ele>
        <time>2013-08-13T07:50:42.000Z</time>
      </trkpt>
      <trkpt lat="48.06736" lon="-4.33969">
        <ele>37</ele>
        <time>2013-08-13T07:50:44.000Z</time>
      </trkpt>
      <trkpt lat="48.06733" lon="-4.33975">
        <ele>37.599998474121</ele>
        <time>2013-08-13T07:50:49.000Z</time>
      </trkpt>
      <trkpt lat="48.06729" lon="-4.33981">
        <ele>38</ele>
        <time>2013-08-13T07:50:54.000Z</time>
      </trkpt>
      <trkpt lat="48.06723" lon="-4.33992">
        <ele>39.400001525879</ele>
        <time>2013-08-13T07:51:02.000Z</time>
      </trkpt>
      <trkpt lat="48.0672" lon="-4.33995">
        <ele>40.400001525879</ele>
        <time>2013-08-13T07:51:05.000Z</time>
      </trkpt>
      <trkpt lat="48.06715" lon="-4.34003">
        <ele>40.799999237061</ele>
        <time>2013-08-13T07:51:12.000Z</time>
      </trkpt>
      <trkpt lat="48.0671" lon="-4.3401">
        <ele>41.400001525879</ele>
        <time>2013-08-13T07:51:19.000Z</time>
      </trkpt>
      <trkpt lat="48.06707" lon="-4.34016">
        <ele>40.799999237061</ele>
        <time>2013-08-13T07:51:24.000Z</time>
      </trkpt>
      <trkpt lat="48.06703" lon="-4.34023">
        <ele>41.799999237061</ele>
        <time>2013-08-13T07:51:30.000Z</time>
      </trkpt>
      <trkpt lat="48.067" lon="-4.34027">
        <ele>43.200000762939</ele>
        <time>2013-08-13T07:51:34.000Z</time>
      </trkpt>
      <trkpt lat="48.06696" lon="-4.34034">
        <ele>42.400001525879</ele>
        <time>2013-08-13T07:51:40.000Z</time>
      </trkpt>
      <trkpt lat="48.06695" lon="-4.34036">
        <ele>42.400001525879</ele>
        <time>2013-08-13T07:51:42.000Z</time>
      </trkpt>
      <trkpt lat="48.0669" lon="-4.34041">
        <ele>43.200000762939</ele>
        <time>2013-08-13T07:51:48.000Z</time>
      </trkpt>
      <trkpt lat="48.06682" lon="-4.34051">
        <ele>44.200000762939</ele>
        <time>2013-08-13T07:51:56.000Z</time>
      </trkpt>
      <trkpt lat="48.06678" lon="-4.34056">
        <ele>44.200000762939</ele>
        <time>2013-08-13T07:52:01.000Z</time>
      </trkpt>
      <trkpt lat="48.06675" lon="-4.34063">
        <ele>44.200000762939</ele>
        <time>2013-08-13T07:52:07.000Z</time>
      </trkpt>
      <trkpt lat="48.06671" lon="-4.34069">
        <ele>44.799999237061</ele>
        <time>2013-08-13T07:52:13.000Z</time>
      </trkpt>
      <trkpt lat="48.06667" lon="-4.34074">
        <ele>47.599998474121</ele>
        <time>2013-08-13T07:52:20.000Z</time>
      </trkpt>
      <trkpt lat="48.06662" lon="-4.34082">
        <ele>46.599998474121</ele>
        <time>2013-08-13T07:52:26.000Z</time>
      </trkpt>
      <trkpt lat="48.06661" lon="-4.34084">
        <ele>46.599998474121</ele>
        <time>2013-08-13T07:52:27.000Z</time>
      </trkpt>
      <trkpt lat="48.06656" lon="-4.34092">
        <ele>46.599998474121</ele>
        <time>2013-08-13T07:52:34.000Z</time>
      </trkpt>
      <trkpt lat="48.06655" lon="-4.34093">
        <ele>46.599998474121</ele>
        <time>2013-08-13T07:52:35.000Z</time>
      </trkpt>
      <trkpt lat="48.06649" lon="-4.341">
        <ele>46.599998474121</ele>
        <time>2013-08-13T07:52:43.000Z</time>
      </trkpt>
      <trkpt lat="48.06646" lon="-4.34105">
        <ele>45.200000762939</ele>
        <time>2013-08-13T07:52:49.000Z</time>
      </trkpt>
      <trkpt lat="48.0664" lon="-4.34114">
        <ele>45.599998474121</ele>
        <time>2013-08-13T07:52:56.000Z</time>
      </trkpt>
      <trkpt lat="48.06636" lon="-4.3412">
        <ele>46.599998474121</ele>
        <time>2013-08-13T07:53:01.000Z</time>
      </trkpt>
      <trkpt lat="48.06635" lon="-4.34121">
        <ele>46.200000762939</ele>
        <time>2013-08-13T07:53:03.000Z</time>
      </trkpt>
      <trkpt lat="48.0663" lon="-4.34128">
        <ele>48.599998474121</ele>
        <time>2013-08-13T07:53:09.000Z</time>
      </trkpt>
      <trkpt lat="48.06627" lon="-4.34133">
        <ele>48.200000762939</ele>
        <time>2013-08-13T07:53:14.000Z</time>
      </trkpt>
      <trkpt lat="48.06622" lon="-4.34141">
        <ele>49</ele>
        <time>2013-08-13T07:53:21.000Z</time>
      </trkpt>
      <trkpt lat="48.0662" lon="-4.34144">
        <ele>49</ele>
        <time>2013-08-13T07:53:25.000Z</time>
      </trkpt>
      <trkpt lat="48.06615" lon="-4.34155">
        <ele>54.400001525879</ele>
        <time>2013-08-13T07:53:31.000Z</time>
      </trkpt>
      <trkpt lat="48.06614" lon="-4.34157">
        <ele>54.400001525879</ele>
        <time>2013-08-13T07:53:33.000Z</time>
      </trkpt>
      <trkpt lat="48.06611" lon="-4.34161">
        <ele>54.799999237061</ele>
        <time>2013-08-13T07:53:37.000Z</time>
      </trkpt>
      <trkpt lat="48.06605" lon="-4.34165">
        <ele>54.400001525879</ele>
        <time>2013-08-13T07:53:44.000Z</time>
      </trkpt>
      <trkpt lat="48.06604" lon="-4.3417">
        <ele>53</ele>
        <time>2013-08-13T07:53:48.000Z</time>
      </trkpt>
      <trkpt lat="48.06602" lon="-4.34174">
        <ele>56.799999237061</ele>
        <time>2013-08-13T07:53:49.000Z</time>
      </trkpt>
      <trkpt lat="48.06596" lon="-4.34183">
        <ele>56.200000762939</ele>
        <time>2013-08-13T07:53:56.000Z</time>
      </trkpt>
      <trkpt lat="48.06592" lon="-4.3419">
        <ele>55.799999237061</ele>
        <time>2013-08-13T07:54:01.000Z</time>
      </trkpt>
      <trkpt lat="48.06591" lon="-4.34194">
        <ele>53.400001525879</ele>
        <time>2013-08-13T07:54:04.000Z</time>
      </trkpt>
      <trkpt lat="48.06586" lon="-4.34202">
        <ele>52</ele>
        <time>2013-08-13T07:54:11.000Z</time>
      </trkpt>
      <trkpt lat="48.06586" lon="-4.34204">
        <ele>52</ele>
        <time>2013-08-13T07:54:12.000Z</time>
      </trkpt>
      <trkpt lat="48.06584" lon="-4.34205">
        <ele>52</ele>
        <time>2013-08-13T07:54:14.000Z</time>
      </trkpt>
      <trkpt lat="48.06578" lon="-4.34211">
        <ele>51</ele>
        <time>2013-08-13T07:54:20.000Z</time>
      </trkpt>
      <trkpt lat="48.06571" lon="-4.34219">
        <ele>53.799999237061</ele>
        <time>2013-08-13T07:54:26.000Z</time>
      </trkpt>
      <trkpt lat="48.06565" lon="-4.34232">
        <ele>54.400001525879</ele>
        <time>2013-08-13T07:54:32.000Z</time>
      </trkpt>
      <trkpt lat="48.06562" lon="-4.34234">
        <ele>54.799999237061</ele>
        <time>2013-08-13T07:54:34.000Z</time>
      </trkpt>
      <trkpt lat="48.06561" lon="-4.34238">
        <ele>56.200000762939</ele>
        <time>2013-08-13T07:54:37.000Z</time>
      </trkpt>
      <trkpt lat="48.06556" lon="-4.34245">
        <ele>58.200000762939</ele>
        <time>2013-08-13T07:54:43.000Z</time>
      </trkpt>
      <trkpt lat="48.06555" lon="-4.34246">
        <ele>57.200000762939</ele>
        <time>2013-08-13T07:54:45.000Z</time>
      </trkpt>
      <trkpt lat="48.06551" lon="-4.34251">
        <ele>54.799999237061</ele>
        <time>2013-08-13T07:54:50.000Z</time>
      </trkpt>
      <trkpt lat="48.06548" lon="-4.34255">
        <ele>54.799999237061</ele>
        <time>2013-08-13T07:54:53.000Z</time>
      </trkpt>
      <trkpt lat="48.06545" lon="-4.34261">
        <ele>55.400001525879</ele>
        <time>2013-08-13T07:54:59.000Z</time>
      </trkpt>
      <trkpt lat="48.06541" lon="-4.34269">
        <ele>58.599998474121</ele>
        <time>2013-08-13T07:55:06.000Z</time>
      </trkpt>
      <trkpt lat="48.06535" lon="-4.34277">
        <ele>59.200000762939</ele>
        <time>2013-08-13T07:55:12.000Z</time>
      </trkpt>
      <trkpt lat="48.06532" lon="-4.34283">
        <ele>59.200000762939</ele>
        <time>2013-08-13T07:55:17.000Z</time>
      </trkpt>
      <trkpt lat="48.06528" lon="-4.34289">
        <ele>58.200000762939</ele>
        <time>2013-08-13T07:55:22.000Z</time>
      </trkpt>
      <trkpt lat="48.06524" lon="-4.34293">
        <ele>57.200000762939</ele>
        <time>2013-08-13T07:55:26.000Z</time>
      </trkpt>
      <trkpt lat="48.06522" lon="-4.34295">
        <ele>57.799999237061</ele>
        <time>2013-08-13T07:55:28.000Z</time>
      </trkpt>
      <trkpt lat="48.06519" lon="-4.343">
        <ele>56.799999237061</ele>
        <time>2013-08-13T07:55:32.000Z</time>
      </trkpt>
      <trkpt lat="48.06516" lon="-4.34305">
        <ele>58.200000762939</ele>
        <time>2013-08-13T07:55:34.000Z</time>
      </trkpt>
      <trkpt lat="48.06511" lon="-4.34313">
        <ele>60.200000762939</ele>
        <time>2013-08-13T07:55:41.000Z</time>
      </trkpt>
      <trkpt lat="48.06511" lon="-4.34313">
        <ele>60.200000762939</ele>
        <time>2013-08-13T07:55:42.000Z</time>
      </trkpt>
      <trkpt lat="48.06504" lon="-4.34318">
        <ele>62</ele>
        <time>2013-08-13T07:55:49.000Z</time>
      </trkpt>
      <trkpt lat="48.06499" lon="-4.34322">
        <ele>61.599998474121</ele>
        <time>2013-08-13T07:55:55.000Z</time>
      </trkpt>
      <trkpt lat="48.06498" lon="-4.34322">
        <ele>61.599998474121</ele>
        <time>2013-08-13T07:55:56.000Z</time>
      </trkpt>
      <trkpt lat="48.06496" lon="-4.3432">
        <ele>61</ele>
        <time>2013-08-13T07:56:01.000Z</time>
      </trkpt>
      <trkpt lat="48.06502" lon="-4.34326">
        <ele>59.200000762939</ele>
        <time>2013-08-13T07:56:16.000Z</time>
      </trkpt>
      <trkpt lat="48.06502" lon="-4.34325">
        <ele>54.799999237061</ele>
        <time>2013-08-13T07:56:30.000Z</time>
      </trkpt>
      <trkpt lat="48.06498" lon="-4.34319">
        <ele>51.400001525879</ele>
        <time>2013-08-13T07:56:55.000Z</time>
      </trkpt>
      <trkpt lat="48.06501" lon="-4.34318">
        <ele>52</ele>
        <time>2013-08-13T07:57:00.000Z</time>
      </trkpt>
      <trkpt lat="48.06501" lon="-4.34318">
        <ele>52</ele>
        <time>2013-08-13T07:57:07.000Z</time>
      </trkpt>
      <trkpt lat="48.06501" lon="-4.34318">
        <ele>51.400001525879</ele>
        <time>2013-08-13T07:57:12.000Z</time>
      </trkpt>
      <trkpt lat="48.06501" lon="-4.34319">
        <ele>52</ele>
        <time>2013-08-13T07:57:18.000Z</time>
      </trkpt>
      <trkpt lat="48.06502" lon="-4.3432">
        <ele>51</ele>
        <time>2013-08-13T07:57:24.000Z</time>
      </trkpt>
      <trkpt lat="48.06502" lon="-4.3432">
        <ele>50.599998474121</ele>
        <time>2013-08-13T07:57:32.000Z</time>
      </trkpt>
      <trkpt lat="48.06502" lon="-4.34319">
        <ele>50</ele>
        <time>2013-08-13T07:57:46.000Z</time>
      </trkpt>
      <trkpt lat="48.06501" lon="-4.34318">
        <ele>49.599998474121</ele>
        <time>2013-08-13T07:58:05.000Z</time>
      </trkpt>
      <trkpt lat="48.065" lon="-4.34318">
        <ele>49</ele>
        <time>2013-08-13T07:58:14.000Z</time>
      </trkpt>
      <trkpt lat="48.065" lon="-4.34319">
        <ele>48.200000762939</ele>
        <time>2013-08-13T07:58:22.000Z</time>
      </trkpt>
      <trkpt lat="48.06499" lon="-4.34318">
        <ele>48.200000762939</ele>
        <time>2013-08-13T07:58:35.000Z</time>
      </trkpt>
      <trkpt lat="48.06499" lon="-4.34318">
        <ele>47.200000762939</ele>
        <time>2013-08-13T07:58:40.000Z</time>
      </trkpt>
      <trkpt lat="48.06499" lon="-4.34319">
        <ele>46.200000762939</ele>
        <time>2013-08-13T07:58:54.000Z</time>
      </trkpt>
      <trkpt lat="48.06499" lon="-4.3432">
        <ele>47.200000762939</ele>
        <time>2013-08-13T07:59:04.000Z</time>
      </trkpt>
      <trkpt lat="48.06499" lon="-4.34322">
        <ele>50</ele>
        <time>2013-08-13T07:59:17.000Z</time>
      </trkpt>
      <trkpt lat="48.065" lon="-4.34323">
        <ele>52.400001525879</ele>
        <time>2013-08-13T07:59:27.000Z</time>
      </trkpt>
      <trkpt lat="48.065" lon="-4.34324">
        <ele>53.400001525879</ele>
        <time>2013-08-13T07:59:39.000Z</time>
      </trkpt>
      <trkpt lat="48.065" lon="-4.34325">
        <ele>53.799999237061</ele>
        <time>2013-08-13T07:59:47.000Z</time>
      </trkpt>
      <trkpt lat="48.065" lon="-4.34332">
        <ele>54.799999237061</ele>
        <time>2013-08-13T08:00:05.000Z</time>
      </trkpt>
      <trkpt lat="48.06499" lon="-4.34341">
        <ele>55.400001525879</ele>
        <time>2013-08-13T08:00:10.000Z</time>
      </trkpt>
      <trkpt lat="48.06498" lon="-4.34348">
        <ele>56.200000762939</ele>
        <time>2013-08-13T08:00:14.000Z</time>
      </trkpt>
      <trkpt lat="48.06495" lon="-4.34357">
        <ele>55.400001525879</ele>
        <time>2013-08-13T08:00:20.000Z</time>
      </trkpt>
      <trkpt lat="48.06492" lon="-4.34364">
        <ele>54.799999237061</ele>
        <time>2013-08-13T08:00:24.000Z</time>
      </trkpt>
      <trkpt lat="48.06489" lon="-4.3438">
        <ele>55.400001525879</ele>
        <time>2013-08-13T08:00:33.000Z</time>
      </trkpt>
      <trkpt lat="48.06485" lon="-4.34394">
        <ele>54.799999237061</ele>
        <time>2013-08-13T08:00:42.000Z</time>
      </trkpt>
      <trkpt lat="48.06484" lon="-4.34405">
        <ele>53.799999237061</ele>
        <time>2013-08-13T08:00:49.000Z</time>
      </trkpt>
      <trkpt lat="48.0648" lon="-4.34419">
        <ele>54.799999237061</ele>
        <time>2013-08-13T08:00:57.000Z</time>
      </trkpt>
      <trkpt lat="48.06477" lon="-4.34432">
        <ele>56.200000762939</ele>
        <time>2013-08-13T08:01:04.000Z</time>
      </trkpt>
      <trkpt lat="48.06477" lon="-4.34433">
        <ele>56.200000762939</ele>
        <time>2013-08-13T08:01:05.000Z</time>
      </trkpt>
      <trkpt lat="48.06475" lon="-4.34443">
        <ele>55.400001525879</ele>
        <time>2013-08-13T08:01:11.000Z</time>
      </trkpt>
      <trkpt lat="48.06473" lon="-4.34455">
        <ele>54.799999237061</ele>
        <time>2013-08-13T08:01:18.000Z</time>
      </trkpt>
      <trkpt lat="48.06472" lon="-4.34461">
        <ele>54.400001525879</ele>
        <time>2013-08-13T08:01:22.000Z</time>
      </trkpt>
      <trkpt lat="48.06466" lon="-4.34482">
        <ele>58.200000762939</ele>
        <time>2013-08-13T08:01:32.000Z</time>
      </trkpt>
      <trkpt lat="48.06462" lon="-4.34497">
        <ele>60.200000762939</ele>
        <time>2013-08-13T08:01:40.000Z</time>
      </trkpt>
      <trkpt lat="48.06459" lon="-4.34511">
        <ele>59.200000762939</ele>
        <time>2013-08-13T08:01:48.000Z</time>
      </trkpt>
      <trkpt lat="48.06459" lon="-4.34522">
        <ele>55.799999237061</ele>
        <time>2013-08-13T08:01:56.000Z</time>
      </trkpt>
      <trkpt lat="48.06458" lon="-4.34531">
        <ele>53</ele>
        <time>2013-08-13T08:02:02.000Z</time>
      </trkpt>
      <trkpt lat="48.06456" lon="-4.34538">
        <ele>52.400001525879</ele>
        <time>2013-08-13T08:02:07.000Z</time>
      </trkpt>
      <trkpt lat="48.06447" lon="-4.34554">
        <ele>60.599998474121</ele>
        <time>2013-08-13T08:02:13.000Z</time>
      </trkpt>
      <trkpt lat="48.06446" lon="-4.34559">
        <ele>60.599998474121</ele>
        <time>2013-08-13T08:02:18.000Z</time>
      </trkpt>
      <trkpt lat="48.06445" lon="-4.34561">
        <ele>60.599998474121</ele>
        <time>2013-08-13T08:02:19.000Z</time>
      </trkpt>
      <trkpt lat="48.06443" lon="-4.34576">
        <ele>58.200000762939</ele>
        <time>2013-08-13T08:02:29.000Z</time>
      </trkpt>
      <trkpt lat="48.06441" lon="-4.34589">
        <ele>58.200000762939</ele>
        <time>2013-08-13T08:02:36.000Z</time>
      </trkpt>
      <trkpt lat="48.0644" lon="-4.34593">
        <ele>58.200000762939</ele>
        <time>2013-08-13T08:02:39.000Z</time>
      </trkpt>
      <trkpt lat="48.06437" lon="-4.34605">
        <ele>57.799999237061</ele>
        <time>2013-08-13T08:02:46.000Z</time>
      </trkpt>
      <trkpt lat="48.06435" lon="-4.34618">
        <ele>57.799999237061</ele>
        <time>2013-08-13T08:02:54.000Z</time>
      </trkpt>
      <trkpt lat="48.06431" lon="-4.34631">
        <ele>59.599998474121</ele>
        <time>2013-08-13T08:03:01.000Z</time>
      </trkpt>
      <trkpt lat="48.0643" lon="-4.34637">
        <ele>59.599998474121</ele>
        <time>2013-08-13T08:03:04.000Z</time>
      </trkpt>
      <trkpt lat="48.06426" lon="-4.34648">
        <ele>59.599998474121</ele>
        <time>2013-08-13T08:03:11.000Z</time>
      </trkpt>
      <trkpt lat="48.06425" lon="-4.34652">
        <ele>60.200000762939</ele>
        <time>2013-08-13T08:03:13.000Z</time>
      </trkpt>
      <trkpt lat="48.06421" lon="-4.34664">
        <ele>59.599998474121</ele>
        <time>2013-08-13T08:03:21.000Z</time>
      </trkpt>
      <trkpt lat="48.06418" lon="-4.34676">
        <ele>58.599998474121</ele>
        <time>2013-08-13T08:03:29.000Z</time>
      </trkpt>
      <trkpt lat="48.06415" lon="-4.34689">
        <ele>60.599998474121</ele>
        <time>2013-08-13T08:03:36.000Z</time>
      </trkpt>
      <trkpt lat="48.06413" lon="-4.34697">
        <ele>61.599998474121</ele>
        <time>2013-08-13T08:03:41.000Z</time>
      </trkpt>
      <trkpt lat="48.06412" lon="-4.34704">
        <ele>63.400001525879</ele>
        <time>2013-08-13T08:03:45.000Z</time>
      </trkpt>
      <trkpt lat="48.0641" lon="-4.34709">
        <ele>62.599998474121</ele>
        <time>2013-08-13T08:03:48.000Z</time>
      </trkpt>
      <trkpt lat="48.06407" lon="-4.34719">
        <ele>62</ele>
        <time>2013-08-13T08:03:54.000Z</time>
      </trkpt>
      <trkpt lat="48.06405" lon="-4.34724">
        <ele>61.599998474121</ele>
        <time>2013-08-13T08:04:00.000Z</time>
      </trkpt>
      <trkpt lat="48.06404" lon="-4.34725">
        <ele>61.599998474121</ele>
        <time>2013-08-13T08:04:08.000Z</time>
      </trkpt>
      <trkpt lat="48.06403" lon="-4.3473">
        <ele>60.200000762939</ele>
        <time>2013-08-13T08:04:14.000Z</time>
      </trkpt>
      <trkpt lat="48.06401" lon="-4.34738">
        <ele>60.599998474121</ele>
        <time>2013-08-13T08:04:18.000Z</time>
      </trkpt>
      <trkpt lat="48.06396" lon="-4.34751">
        <ele>65.800003051758</ele>
        <time>2013-08-13T08:04:24.000Z</time>
      </trkpt>
      <trkpt lat="48.06396" lon="-4.34751">
        <ele>66.800003051758</ele>
        <time>2013-08-13T08:04:29.000Z</time>
      </trkpt>
      <trkpt lat="48.06402" lon="-4.34754">
        <ele>67.800003051758</ele>
        <time>2013-08-13T08:04:36.000Z</time>
      </trkpt>
      <trkpt lat="48.064" lon="-4.3476">
        <ele>64</ele>
        <time>2013-08-13T08:04:42.000Z</time>
      </trkpt>
      <trkpt lat="48.06397" lon="-4.34764">
        <ele>65.800003051758</ele>
        <time>2013-08-13T08:04:44.000Z</time>
      </trkpt>
      <trkpt lat="48.06394" lon="-4.34777">
        <ele>65.800003051758</ele>
        <time>2013-08-13T08:04:50.000Z</time>
      </trkpt>
      <trkpt lat="48.06391" lon="-4.34785">
        <ele>66.400001525879</ele>
        <time>2013-08-13T08:04:54.000Z</time>
      </trkpt>
      <trkpt lat="48.0639" lon="-4.3479">
        <ele>65.800003051758</ele>
        <time>2013-08-13T08:04:57.000Z</time>
      </trkpt>
      <trkpt lat="48.06384" lon="-4.34805">
        <ele>70.199996948242</ele>
        <time>2013-08-13T08:05:03.000Z</time>
      </trkpt>
      <trkpt lat="48.06383" lon="-4.34809">
        <ele>69.800003051758</ele>
        <time>2013-08-13T08:05:05.000Z</time>
      </trkpt>
      <trkpt lat="48.06381" lon="-4.34818">
        <ele>67.800003051758</ele>
        <time>2013-08-13T08:05:11.000Z</time>
      </trkpt>
      <trkpt lat="48.06379" lon="-4.34828">
        <ele>68.800003051758</ele>
        <time>2013-08-13T08:05:16.000Z</time>
      </trkpt>
      <trkpt lat="48.06375" lon="-4.3484">
        <ele>67.800003051758</ele>
        <time>2013-08-13T08:05:24.000Z</time>
      </trkpt>
      <trkpt lat="48.06374" lon="-4.34846">
        <ele>67.800003051758</ele>
        <time>2013-08-13T08:05:27.000Z</time>
      </trkpt>
      <trkpt lat="48.06372" lon="-4.3485">
        <ele>69.800003051758</ele>
        <time>2013-08-13T08:05:29.000Z</time>
      </trkpt>
      <trkpt lat="48.0637" lon="-4.34857">
        <ele>67.800003051758</ele>
        <time>2013-08-13T08:05:34.000Z</time>
      </trkpt>
      <trkpt lat="48.06369" lon="-4.34862">
        <ele>66.400001525879</ele>
        <time>2013-08-13T08:05:38.000Z</time>
      </trkpt>
      <trkpt lat="48.06368" lon="-4.3487">
        <ele>65.400001525879</ele>
        <time>2013-08-13T08:05:42.000Z</time>
      </trkpt>
      <trkpt lat="48.06364" lon="-4.34879">
        <ele>62</ele>
        <time>2013-08-13T08:05:49.000Z</time>
      </trkpt>
      <trkpt lat="48.06362" lon="-4.34886">
        <ele>60.599998474121</ele>
        <time>2013-08-13T08:05:54.000Z</time>
      </trkpt>
      <trkpt lat="48.06359" lon="-4.34893">
        <ele>59.599998474121</ele>
        <time>2013-08-13T08:05:59.000Z</time>
      </trkpt>
      <trkpt lat="48.06355" lon="-4.34902">
        <ele>58.599998474121</ele>
        <time>2013-08-13T08:06:05.000Z</time>
      </trkpt>
      <trkpt lat="48.06349" lon="-4.34914">
        <ele>62</ele>
        <time>2013-08-13T08:06:11.000Z</time>
      </trkpt>
      <trkpt lat="48.06348" lon="-4.34918">
        <ele>63</ele>
        <time>2013-08-13T08:06:13.000Z</time>
      </trkpt>
      <trkpt lat="48.06344" lon="-4.34929">
        <ele>66.800003051758</ele>
        <time>2013-08-13T08:06:19.000Z</time>
      </trkpt>
      <trkpt lat="48.0634" lon="-4.34935">
        <ele>68.199996948242</ele>
        <time>2013-08-13T08:06:22.000Z</time>
      </trkpt>
      <trkpt lat="48.06339" lon="-4.34946">
        <ele>67.800003051758</ele>
        <time>2013-08-13T08:06:27.000Z</time>
      </trkpt>
      <trkpt lat="48.06338" lon="-4.34951">
        <ele>66.800003051758</ele>
        <time>2013-08-13T08:06:30.000Z</time>
      </trkpt>
      <trkpt lat="48.06335" lon="-4.3496">
        <ele>66.400001525879</ele>
        <time>2013-08-13T08:06:36.000Z</time>
      </trkpt>
      <trkpt lat="48.06334" lon="-4.34969">
        <ele>65.800003051758</ele>
        <time>2013-08-13T08:06:41.000Z</time>
      </trkpt>
      <trkpt lat="48.06332" lon="-4.34977">
        <ele>66.400001525879</ele>
        <time>2013-08-13T08:06:46.000Z</time>
      </trkpt>
      <trkpt lat="48.06328" lon="-4.34989">
        <ele>68.199996948242</ele>
        <time>2013-08-13T08:06:53.000Z</time>
      </trkpt>
      <trkpt lat="48.06328" lon="-4.34995">
        <ele>67.400001525879</ele>
        <time>2013-08-13T08:06:57.000Z</time>
      </trkpt>
      <trkpt lat="48.06327" lon="-4.35003">
        <ele>65.800003051758</ele>
        <time>2013-08-13T08:07:02.000Z</time>
      </trkpt>
      <trkpt lat="48.06326" lon="-4.3501">
        <ele>64</ele>
        <time>2013-08-13T08:07:07.000Z</time>
      </trkpt>
      <trkpt lat="48.06326" lon="-4.35016">
        <ele>63.400001525879</ele>
        <time>2013-08-13T08:07:10.000Z</time>
      </trkpt>
      <trkpt lat="48.06327" lon="-4.35021">
        <ele>61.599998474121</ele>
        <time>2013-08-13T08:07:14.000Z</time>
      </trkpt>
      <trkpt lat="48.06328" lon="-4.35034">
        <ele>57.200000762939</ele>
        <time>2013-08-13T08:07:20.000Z</time>
      </trkpt>
      <trkpt lat="48.06327" lon="-4.35042">
        <ele>53.799999237061</ele>
        <time>2013-08-13T08:07:26.000Z</time>
      </trkpt>
      <trkpt lat="48.06328" lon="-4.35049">
        <ele>50</ele>
        <time>2013-08-13T08:07:31.000Z</time>
      </trkpt>
      <trkpt lat="48.06325" lon="-4.35054">
        <ele>54.799999237061</ele>
        <time>2013-08-13T08:07:37.000Z</time>
      </trkpt>
      <trkpt lat="48.06324" lon="-4.35055">
        <ele>53.799999237061</ele>
        <time>2013-08-13T08:07:38.000Z</time>
      </trkpt>
      <trkpt lat="48.06325" lon="-4.3507">
        <ele>51.400001525879</ele>
        <time>2013-08-13T08:07:45.000Z</time>
      </trkpt>
      <trkpt lat="48.06324" lon="-4.35077">
        <ele>50</ele>
        <time>2013-08-13T08:07:50.000Z</time>
      </trkpt>
      <trkpt lat="48.06323" lon="-4.35087">
        <ele>46.599998474121</ele>
        <time>2013-08-13T08:07:56.000Z</time>
      </trkpt>
      <trkpt lat="48.06323" lon="-4.35091">
        <ele>44.200000762939</ele>
        <time>2013-08-13T08:07:59.000Z</time>
      </trkpt>
      <trkpt lat="48.06325" lon="-4.35103">
        <ele>41.400001525879</ele>
        <time>2013-08-13T08:08:05.000Z</time>
      </trkpt>
      <trkpt lat="48.06325" lon="-4.35114">
        <ele>40</ele>
        <time>2013-08-13T08:08:10.000Z</time>
      </trkpt>
      <trkpt lat="48.06325" lon="-4.35122">
        <ele>39.400001525879</ele>
        <time>2013-08-13T08:08:14.000Z</time>
      </trkpt>
      <trkpt lat="48.06325" lon="-4.35134">
        <ele>41.799999237061</ele>
        <time>2013-08-13T08:08:19.000Z</time>
      </trkpt>
      <trkpt lat="48.06323" lon="-4.35144">
        <ele>42.400001525879</ele>
        <time>2013-08-13T08:08:24.000Z</time>
      </trkpt>
      <trkpt lat="48.06324" lon="-4.35155">
        <ele>40</ele>
        <time>2013-08-13T08:08:30.000Z</time>
      </trkpt>
      <trkpt lat="48.06322" lon="-4.35159">
        <ele>38</ele>
        <time>2013-08-13T08:08:33.000Z</time>
      </trkpt>
      <trkpt lat="48.06319" lon="-4.35169">
        <ele>39</ele>
        <time>2013-08-13T08:08:38.000Z</time>
      </trkpt>
      <trkpt lat="48.06319" lon="-4.35172">
        <ele>39</ele>
        <time>2013-08-13T08:08:39.000Z</time>
      </trkpt>
      <trkpt lat="48.06318" lon="-4.35183">
        <ele>42.400001525879</ele>
        <time>2013-08-13T08:08:43.000Z</time>
      </trkpt>
      <trkpt lat="48.06315" lon="-4.35198">
        <ele>46.599998474121</ele>
        <time>2013-08-13T08:08:49.000Z</time>
      </trkpt>
      <trkpt lat="48.06314" lon="-4.35208">
        <ele>45.599998474121</ele>
        <time>2013-08-13T08:08:55.000Z</time>
      </trkpt>
      <trkpt lat="48.06315" lon="-4.35213">
        <ele>45.599998474121</ele>
        <time>2013-08-13T08:08:57.000Z</time>
      </trkpt>
      <trkpt lat="48.06314" lon="-4.35223">
        <ele>41.799999237061</ele>
        <time>2013-08-13T08:09:03.000Z</time>
      </trkpt>
      <trkpt lat="48.06315" lon="-4.35225">
        <ele>41.400001525879</ele>
        <time>2013-08-13T08:09:04.000Z</time>
      </trkpt>
      <trkpt lat="48.06315" lon="-4.35238">
        <ele>41.799999237061</ele>
        <time>2013-08-13T08:09:12.000Z</time>
      </trkpt>
      <trkpt lat="48.06315" lon="-4.3524">
        <ele>41.400001525879</ele>
        <time>2013-08-13T08:09:13.000Z</time>
      </trkpt>
      <trkpt lat="48.06313" lon="-4.35251">
        <ele>41.799999237061</ele>
        <time>2013-08-13T08:09:18.000Z</time>
      </trkpt>
      <trkpt lat="48.06314" lon="-4.35265">
        <ele>40.400001525879</ele>
        <time>2013-08-13T08:09:25.000Z</time>
      </trkpt>
      <trkpt lat="48.06315" lon="-4.35267">
        <ele>40</ele>
        <time>2013-08-13T08:09:26.000Z</time>
      </trkpt>
      <trkpt lat="48.06315" lon="-4.35276">
        <ele>38.400001525879</ele>
        <time>2013-08-13T08:09:31.000Z</time>
      </trkpt>
      <trkpt lat="48.06315" lon="-4.35277">
        <ele>37</ele>
        <time>2013-08-13T08:09:32.000Z</time>
      </trkpt>
      <trkpt lat="48.06316" lon="-4.35287">
        <ele>34.599998474121</ele>
        <time>2013-08-13T08:09:38.000Z</time>
      </trkpt>
      <trkpt lat="48.06316" lon="-4.35289">
        <ele>34.599998474121</ele>
        <time>2013-08-13T08:09:39.000Z</time>
      </trkpt>
      <trkpt lat="48.06316" lon="-4.35298">
        <ele>34.599998474121</ele>
        <time>2013-08-13T08:09:44.000Z</time>
      </trkpt>
      <trkpt lat="48.06315" lon="-4.35308">
        <ele>39</ele>
        <time>2013-08-13T08:09:50.000Z</time>
      </trkpt>
      <trkpt lat="48.06315" lon="-4.3532">
        <ele>40.400001525879</ele>
        <time>2013-08-13T08:09:56.000Z</time>
      </trkpt>
      <trkpt lat="48.06317" lon="-4.35325">
        <ele>41.400001525879</ele>
        <time>2013-08-13T08:09:59.000Z</time>
      </trkpt>
      <trkpt lat="48.06316" lon="-4.35331">
        <ele>41.400001525879</ele>
        <time>2013-08-13T08:10:06.000Z</time>
      </trkpt>
      <trkpt lat="48.06317" lon="-4.35338">
        <ele>40.400001525879</ele>
        <time>2013-08-13T08:10:11.000Z</time>
      </trkpt>
      <trkpt lat="48.0632" lon="-4.35348">
        <ele>40.400001525879</ele>
        <time>2013-08-13T08:10:16.000Z</time>
      </trkpt>
      <trkpt lat="48.06321" lon="-4.35358">
        <ele>40.799999237061</ele>
        <time>2013-08-13T08:10:22.000Z</time>
      </trkpt>
      <trkpt lat="48.06321" lon="-4.35366">
        <ele>41.400001525879</ele>
        <time>2013-08-13T08:10:27.000Z</time>
      </trkpt>
      <trkpt lat="48.06321" lon="-4.35376">
        <ele>40.799999237061</ele>
        <time>2013-08-13T08:10:33.000Z</time>
      </trkpt>
      <trkpt lat="48.06322" lon="-4.35385">
        <ele>40.400001525879</ele>
        <time>2013-08-13T08:10:39.000Z</time>
      </trkpt>
      <trkpt lat="48.06323" lon="-4.35393">
        <ele>40.400001525879</ele>
        <time>2013-08-13T08:10:44.000Z</time>
      </trkpt>
      <trkpt lat="48.06325" lon="-4.35406">
        <ele>40.799999237061</ele>
        <time>2013-08-13T08:10:50.000Z</time>
      </trkpt>
      <trkpt lat="48.06323" lon="-4.35414">
        <ele>44.200000762939</ele>
        <time>2013-08-13T08:10:54.000Z</time>
      </trkpt>
      <trkpt lat="48.06323" lon="-4.35428">
        <ele>48.599998474121</ele>
        <time>2013-08-13T08:11:00.000Z</time>
      </trkpt>
      <trkpt lat="48.06323" lon="-4.35434">
        <ele>48.200000762939</ele>
        <time>2013-08-13T08:11:05.000Z</time>
      </trkpt>
      <trkpt lat="48.06324" lon="-4.35439">
        <ele>45.599998474121</ele>
        <time>2013-08-13T08:11:10.000Z</time>
      </trkpt>
      <trkpt lat="48.06324" lon="-4.35445">
        <ele>45.200000762939</ele>
        <time>2013-08-13T08:11:13.000Z</time>
      </trkpt>
      <trkpt lat="48.06324" lon="-4.3545">
        <ele>44.799999237061</ele>
        <time>2013-08-13T08:11:15.000Z</time>
      </trkpt>
      <trkpt lat="48.06322" lon="-4.35463">
        <ele>44.200000762939</ele>
        <time>2013-08-13T08:11:21.000Z</time>
      </trkpt>
      <trkpt lat="48.06323" lon="-4.35473">
        <ele>46.200000762939</ele>
        <time>2013-08-13T08:11:26.000Z</time>
      </trkpt>
      <trkpt lat="48.06321" lon="-4.35481">
        <ele>43.200000762939</ele>
        <time>2013-08-13T08:11:32.000Z</time>
      </trkpt>
      <trkpt lat="48.06322" lon="-4.35492">
        <ele>44.200000762939</ele>
        <time>2013-08-13T08:11:38.000Z</time>
      </trkpt>
      <trkpt lat="48.06321" lon="-4.35505">
        <ele>46.200000762939</ele>
        <time>2013-08-13T08:11:45.000Z</time>
      </trkpt>
      <trkpt lat="48.06321" lon="-4.35516">
        <ele>46.200000762939</ele>
        <time>2013-08-13T08:11:51.000Z</time>
      </trkpt>
      <trkpt lat="48.06321" lon="-4.3552">
        <ele>45.599998474121</ele>
        <time>2013-08-13T08:11:53.000Z</time>
      </trkpt>
      <trkpt lat="48.0632" lon="-4.35524">
        <ele>48.200000762939</ele>
        <time>2013-08-13T08:11:55.000Z</time>
      </trkpt>
      <trkpt lat="48.06321" lon="-4.35535">
        <ele>48.599998474121</ele>
        <time>2013-08-13T08:12:01.000Z</time>
      </trkpt>
      <trkpt lat="48.06321" lon="-4.35538">
        <ele>49</ele>
        <time>2013-08-13T08:12:03.000Z</time>
      </trkpt>
      <trkpt lat="48.06321" lon="-4.35546">
        <ele>46.599998474121</ele>
        <time>2013-08-13T08:12:10.000Z</time>
      </trkpt>
      <trkpt lat="48.06321" lon="-4.35553">
        <ele>44.799999237061</ele>
        <time>2013-08-13T08:12:16.000Z</time>
      </trkpt>
      <trkpt lat="48.0632" lon="-4.3556">
        <ele>45.599998474121</ele>
        <time>2013-08-13T08:12:20.000Z</time>
      </trkpt>
      <trkpt lat="48.06318" lon="-4.35572">
        <ele>45.200000762939</ele>
        <time>2013-08-13T08:12:26.000Z</time>
      </trkpt>
      <trkpt lat="48.06316" lon="-4.35577">
        <ele>46.200000762939</ele>
        <time>2013-08-13T08:12:30.000Z</time>
      </trkpt>
      <trkpt lat="48.06317" lon="-4.3558">
        <ele>46.200000762939</ele>
        <time>2013-08-13T08:12:32.000Z</time>
      </trkpt>
      <trkpt lat="48.06319" lon="-4.35591">
        <ele>44.200000762939</ele>
        <time>2013-08-13T08:12:38.000Z</time>
      </trkpt>
      <trkpt lat="48.06319" lon="-4.35598">
        <ele>42.400001525879</ele>
        <time>2013-08-13T08:12:43.000Z</time>
      </trkpt>
      <trkpt lat="48.06319" lon="-4.35599">
        <ele>41.799999237061</ele>
        <time>2013-08-13T08:12:44.000Z</time>
      </trkpt>
      <trkpt lat="48.06318" lon="-4.35611">
        <ele>40.400001525879</ele>
        <time>2013-08-13T08:12:51.000Z</time>
      </trkpt>
      <trkpt lat="48.06314" lon="-4.35625">
        <ele>45.599998474121</ele>
        <time>2013-08-13T08:12:57.000Z</time>
      </trkpt>
      <trkpt lat="48.06311" lon="-4.35636">
        <ele>48.200000762939</ele>
        <time>2013-08-13T08:13:03.000Z</time>
      </trkpt>
      <trkpt lat="48.06312" lon="-4.35647">
        <ele>49</ele>
        <time>2013-08-13T08:13:10.000Z</time>
      </trkpt>
      <trkpt lat="48.06313" lon="-4.35653">
        <ele>49.599998474121</ele>
        <time>2013-08-13T08:13:13.000Z</time>
      </trkpt>
      <trkpt lat="48.06313" lon="-4.35664">
        <ele>50</ele>
        <time>2013-08-13T08:13:19.000Z</time>
      </trkpt>
      <trkpt lat="48.06312" lon="-4.35671">
        <ele>47.200000762939</ele>
        <time>2013-08-13T08:13:25.000Z</time>
      </trkpt>
      <trkpt lat="48.06311" lon="-4.35677">
        <ele>47.599998474121</ele>
        <time>2013-08-13T08:13:28.000Z</time>
      </trkpt>
      <trkpt lat="48.06312" lon="-4.3569">
        <ele>47.599998474121</ele>
        <time>2013-08-13T08:13:35.000Z</time>
      </trkpt>
      <trkpt lat="48.06311" lon="-4.35703">
        <ele>48.200000762939</ele>
        <time>2013-08-13T08:13:43.000Z</time>
      </trkpt>
      <trkpt lat="48.06311" lon="-4.35705">
        <ele>48.599998474121</ele>
        <time>2013-08-13T08:13:44.000Z</time>
      </trkpt>
      <trkpt lat="48.0631" lon="-4.35717">
        <ele>50</ele>
        <time>2013-08-13T08:13:51.000Z</time>
      </trkpt>
      <trkpt lat="48.06309" lon="-4.3573">
        <ele>51</ele>
        <time>2013-08-13T08:13:58.000Z</time>
      </trkpt>
      <trkpt lat="48.06308" lon="-4.35742">
        <ele>51.400001525879</ele>
        <time>2013-08-13T08:14:04.000Z</time>
      </trkpt>
      <trkpt lat="48.06308" lon="-4.35745">
        <ele>51.400001525879</ele>
        <time>2013-08-13T08:14:06.000Z</time>
      </trkpt>
      <trkpt lat="48.06307" lon="-4.3575">
        <ele>51</ele>
        <time>2013-08-13T08:14:09.000Z</time>
      </trkpt>
      <trkpt lat="48.06306" lon="-4.35753">
        <ele>50.599998474121</ele>
        <time>2013-08-13T08:14:11.000Z</time>
      </trkpt>
      <trkpt lat="48.06307" lon="-4.35759">
        <ele>50.599998474121</ele>
        <time>2013-08-13T08:14:14.000Z</time>
      </trkpt>
      <trkpt lat="48.06307" lon="-4.35768">
        <ele>50.599998474121</ele>
        <time>2013-08-13T08:14:19.000Z</time>
      </trkpt>
      <trkpt lat="48.06308" lon="-4.35782">
        <ele>50.599998474121</ele>
        <time>2013-08-13T08:14:27.000Z</time>
      </trkpt>
      <trkpt lat="48.06308" lon="-4.35787">
        <ele>50</ele>
        <time>2013-08-13T08:14:30.000Z</time>
      </trkpt>
      <trkpt lat="48.06308" lon="-4.35798">
        <ele>52</ele>
        <time>2013-08-13T08:14:36.000Z</time>
      </trkpt>
      <trkpt lat="48.06307" lon="-4.35809">
        <ele>51.400001525879</ele>
        <time>2013-08-13T08:14:42.000Z</time>
      </trkpt>
      <trkpt lat="48.06306" lon="-4.35818">
        <ele>53.799999237061</ele>
        <time>2013-08-13T08:14:49.000Z</time>
      </trkpt>
      <trkpt lat="48.06306" lon="-4.3582">
        <ele>53.799999237061</ele>
        <time>2013-08-13T08:14:50.000Z</time>
      </trkpt>
      <trkpt lat="48.06304" lon="-4.35829">
        <ele>54.400001525879</ele>
        <time>2013-08-13T08:14:55.000Z</time>
      </trkpt>
      <trkpt lat="48.06305" lon="-4.3583">
        <ele>53.799999237061</ele>
        <time>2013-08-13T08:14:56.000Z</time>
      </trkpt>
      <trkpt lat="48.06302" lon="-4.35843">
        <ele>58.200000762939</ele>
        <time>2013-08-13T08:15:02.000Z</time>
      </trkpt>
      <trkpt lat="48.06303" lon="-4.35851">
        <ele>58.200000762939</ele>
        <time>2013-08-13T08:15:07.000Z</time>
      </trkpt>
      <trkpt lat="48.06303" lon="-4.35861">
        <ele>59.200000762939</ele>
        <time>2013-08-13T08:15:12.000Z</time>
      </trkpt>
      <trkpt lat="48.06303" lon="-4.35869">
        <ele>60.200000762939</ele>
        <time>2013-08-13T08:15:17.000Z</time>
      </trkpt>
      <trkpt lat="48.06302" lon="-4.35877">
        <ele>59.599998474121</ele>
        <time>2013-08-13T08:15:22.000Z</time>
      </trkpt>
      <trkpt lat="48.06302" lon="-4.3588">
        <ele>59.599998474121</ele>
        <time>2013-08-13T08:15:23.000Z</time>
      </trkpt>
      <trkpt lat="48.06301" lon="-4.35885">
        <ele>58.200000762939</ele>
        <time>2013-08-13T08:15:27.000Z</time>
      </trkpt>
      <trkpt lat="48.063" lon="-4.35896">
        <ele>58.200000762939</ele>
        <time>2013-08-13T08:15:33.000Z</time>
      </trkpt>
      <trkpt lat="48.063" lon="-4.35901">
        <ele>58.200000762939</ele>
        <time>2013-08-13T08:15:36.000Z</time>
      </trkpt>
      <trkpt lat="48.063" lon="-4.35908">
        <ele>57.799999237061</ele>
        <time>2013-08-13T08:15:40.000Z</time>
      </trkpt>
      <trkpt lat="48.063" lon="-4.35917">
        <ele>58.200000762939</ele>
        <time>2013-08-13T08:15:46.000Z</time>
      </trkpt>
      <trkpt lat="48.06301" lon="-4.35924">
        <ele>58.200000762939</ele>
        <time>2013-08-13T08:15:50.000Z</time>
      </trkpt>
      <trkpt lat="48.063" lon="-4.35933">
        <ele>59.599998474121</ele>
        <time>2013-08-13T08:15:55.000Z</time>
      </trkpt>
      <trkpt lat="48.06298" lon="-4.35946">
        <ele>63.400001525879</ele>
        <time>2013-08-13T08:16:03.000Z</time>
      </trkpt>
      <trkpt lat="48.06298" lon="-4.35957">
        <ele>63</ele>
        <time>2013-08-13T08:16:10.000Z</time>
      </trkpt>
      <trkpt lat="48.06297" lon="-4.35973">
        <ele>65.800003051758</ele>
        <time>2013-08-13T08:16:17.000Z</time>
      </trkpt>
      <trkpt lat="48.06297" lon="-4.35979">
        <ele>65.800003051758</ele>
        <time>2013-08-13T08:16:20.000Z</time>
      </trkpt>
      <trkpt lat="48.06297" lon="-4.3599">
        <ele>65</ele>
        <time>2013-08-13T08:16:27.000Z</time>
      </trkpt>
      <trkpt lat="48.06295" lon="-4.35999">
        <ele>64.400001525879</ele>
        <time>2013-08-13T08:16:32.000Z</time>
      </trkpt>
      <trkpt lat="48.06295" lon="-4.36005">
        <ele>65</ele>
        <time>2013-08-13T08:16:36.000Z</time>
      </trkpt>
      <trkpt lat="48.06295" lon="-4.36011">
        <ele>65.800003051758</ele>
        <time>2013-08-13T08:16:40.000Z</time>
      </trkpt>
      <trkpt lat="48.06295" lon="-4.36014">
        <ele>65.400001525879</ele>
        <time>2013-08-13T08:16:42.000Z</time>
      </trkpt>
      <trkpt lat="48.06294" lon="-4.3603">
        <ele>67.800003051758</ele>
        <time>2013-08-13T08:16:50.000Z</time>
      </trkpt>
      <trkpt lat="48.06295" lon="-4.36044">
        <ele>71.199996948242</ele>
        <time>2013-08-13T08:16:56.000Z</time>
      </trkpt>
      <trkpt lat="48.06298" lon="-4.36051">
        <ele>72.599998474121</ele>
        <time>2013-08-13T08:17:02.000Z</time>
      </trkpt>
      <trkpt lat="48.06301" lon="-4.36059">
        <ele>75</ele>
        <time>2013-08-13T08:17:07.000Z</time>
      </trkpt>
      <trkpt lat="48.06298" lon="-4.36065">
        <ele>70.599998474121</ele>
        <time>2013-08-13T08:17:13.000Z</time>
      </trkpt>
      <trkpt lat="48.06296" lon="-4.36068">
        <ele>69.199996948242</ele>
        <time>2013-08-13T08:17:16.000Z</time>
      </trkpt>
      <trkpt lat="48.06296" lon="-4.36073">
        <ele>65.800003051758</ele>
        <time>2013-08-13T08:17:22.000Z</time>
      </trkpt>
      <trkpt lat="48.06293" lon="-4.36081">
        <ele>64.400001525879</ele>
        <time>2013-08-13T08:17:28.000Z</time>
      </trkpt>
      <trkpt lat="48.06293" lon="-4.3609">
        <ele>65.800003051758</ele>
        <time>2013-08-13T08:17:32.000Z</time>
      </trkpt>
      <trkpt lat="48.06292" lon="-4.36097">
        <ele>67.400001525879</ele>
        <time>2013-08-13T08:17:36.000Z</time>
      </trkpt>
      <trkpt lat="48.06291" lon="-4.36108">
        <ele>69.800003051758</ele>
        <time>2013-08-13T08:17:42.000Z</time>
      </trkpt>
      <trkpt lat="48.06287" lon="-4.3612">
        <ele>71.599998474121</ele>
        <time>2013-08-13T08:17:49.000Z</time>
      </trkpt>
      <trkpt lat="48.06285" lon="-4.36131">
        <ele>73</ele>
        <time>2013-08-13T08:17:55.000Z</time>
      </trkpt>
      <trkpt lat="48.06281" lon="-4.3614">
        <ele>75</ele>
        <time>2013-08-13T08:18:01.000Z</time>
      </trkpt>
      <trkpt lat="48.06277" lon="-4.36149">
        <ele>77.400001525879</ele>
        <time>2013-08-13T08:18:06.000Z</time>
      </trkpt>
      <trkpt lat="48.06275" lon="-4.36156">
        <ele>78</ele>
        <time>2013-08-13T08:18:11.000Z</time>
      </trkpt>
      <trkpt lat="48.06268" lon="-4.36167">
        <ele>81.199996948242</ele>
        <time>2013-08-13T08:18:18.000Z</time>
      </trkpt>
      <trkpt lat="48.06265" lon="-4.36174">
        <ele>81.800003051758</ele>
        <time>2013-08-13T08:18:22.000Z</time>
      </trkpt>
      <trkpt lat="48.06263" lon="-4.36179">
        <ele>77</ele>
        <time>2013-08-13T08:18:27.000Z</time>
      </trkpt>
      <trkpt lat="48.06261" lon="-4.36185">
        <ele>76.400001525879</ele>
        <time>2013-08-13T08:18:32.000Z</time>
      </trkpt>
      <trkpt lat="48.06259" lon="-4.36193">
        <ele>74</ele>
        <time>2013-08-13T08:18:37.000Z</time>
      </trkpt>
      <trkpt lat="48.06257" lon="-4.362">
        <ele>74.599998474121</ele>
        <time>2013-08-13T08:18:42.000Z</time>
      </trkpt>
      <trkpt lat="48.06257" lon="-4.36203">
        <ele>74.599998474121</ele>
        <time>2013-08-13T08:18:45.000Z</time>
      </trkpt>
      <trkpt lat="48.06254" lon="-4.3621">
        <ele>74</ele>
        <time>2013-08-13T08:18:50.000Z</time>
      </trkpt>
      <trkpt lat="48.06252" lon="-4.36213">
        <ele>73</ele>
        <time>2013-08-13T08:18:53.000Z</time>
      </trkpt>
      <trkpt lat="48.06251" lon="-4.36223">
        <ele>70.199996948242</ele>
        <time>2013-08-13T08:18:58.000Z</time>
      </trkpt>
      <trkpt lat="48.06251" lon="-4.36225">
        <ele>68.199996948242</ele>
        <time>2013-08-13T08:19:00.000Z</time>
      </trkpt>
      <trkpt lat="48.06245" lon="-4.36236">
        <ele>66.800003051758</ele>
        <time>2013-08-13T08:19:06.000Z</time>
      </trkpt>
      <trkpt lat="48.06241" lon="-4.36245">
        <ele>68.800003051758</ele>
        <time>2013-08-13T08:19:10.000Z</time>
      </trkpt>
      <trkpt lat="48.0624" lon="-4.3625">
        <ele>70.599998474121</ele>
        <time>2013-08-13T08:19:14.000Z</time>
      </trkpt>
      <trkpt lat="48.06235" lon="-4.3626">
        <ele>73.599998474121</ele>
        <time>2013-08-13T08:19:19.000Z</time>
      </trkpt>
      <trkpt lat="48.06235" lon="-4.36262">
        <ele>73.599998474121</ele>
        <time>2013-08-13T08:19:20.000Z</time>
      </trkpt>
      <trkpt lat="48.06233" lon="-4.36264">
        <ele>76</ele>
        <time>2013-08-13T08:19:27.000Z</time>
      </trkpt>
      <trkpt lat="48.06234" lon="-4.36257">
        <ele>69.800003051758</ele>
        <time>2013-08-13T08:19:40.000Z</time>
      </trkpt>
      <trkpt lat="48.06231" lon="-4.36256">
        <ele>76</ele>
        <time>2013-08-13T08:20:13.000Z</time>
      </trkpt>
      <trkpt lat="48.06232" lon="-4.3626">
        <ele>76</ele>
        <time>2013-08-13T08:20:32.000Z</time>
      </trkpt>
      <trkpt lat="48.06233" lon="-4.36271">
        <ele>73.599998474121</ele>
        <time>2013-08-13T08:20:37.000Z</time>
      </trkpt>
      <trkpt lat="48.06233" lon="-4.36272">
        <ele>73</ele>
        <time>2013-08-13T08:20:38.000Z</time>
      </trkpt>
      <trkpt lat="48.06232" lon="-4.36279">
        <ele>75.599998474121</ele>
        <time>2013-08-13T08:20:44.000Z</time>
      </trkpt>
      <trkpt lat="48.06232" lon="-4.36281">
        <ele>73.599998474121</ele>
        <time>2013-08-13T08:20:52.000Z</time>
      </trkpt>
      <trkpt lat="48.06232" lon="-4.36292">
        <ele>71.199996948242</ele>
        <time>2013-08-13T08:20:58.000Z</time>
      </trkpt>
      <trkpt lat="48.06231" lon="-4.36295">
        <ele>71.599998474121</ele>
        <time>2013-08-13T08:20:59.000Z</time>
      </trkpt>
      <trkpt lat="48.06228" lon="-4.36302">
        <ele>72.599998474121</ele>
        <time>2013-08-13T08:21:02.000Z</time>
      </trkpt>
      <trkpt lat="48.06227" lon="-4.3631">
        <ele>72.599998474121</ele>
        <time>2013-08-13T08:21:06.000Z</time>
      </trkpt>
      <trkpt lat="48.06222" lon="-4.36318">
        <ele>74</ele>
        <time>2013-08-13T08:21:11.000Z</time>
      </trkpt>
      <trkpt lat="48.06219" lon="-4.36329">
        <ele>71.199996948242</ele>
        <time>2013-08-13T08:21:19.000Z</time>
      </trkpt>
      <trkpt lat="48.06218" lon="-4.36331">
        <ele>71.199996948242</ele>
        <time>2013-08-13T08:21:20.000Z</time>
      </trkpt>
      <trkpt lat="48.06219" lon="-4.36335">
        <ele>69.199996948242</ele>
        <time>2013-08-13T08:21:28.000Z</time>
      </trkpt>
      <trkpt lat="48.06218" lon="-4.36341">
        <ele>67.400001525879</ele>
        <time>2013-08-13T08:21:33.000Z</time>
      </trkpt>
      <trkpt lat="48.06217" lon="-4.36347">
        <ele>66.800003051758</ele>
        <time>2013-08-13T08:21:38.000Z</time>
      </trkpt>
      <trkpt lat="48.06216" lon="-4.36356">
        <ele>65</ele>
        <time>2013-08-13T08:21:45.000Z</time>
      </trkpt>
      <trkpt lat="48.06211" lon="-4.36368">
        <ele>66.400001525879</ele>
        <time>2013-08-13T08:21:53.000Z</time>
      </trkpt>
      <trkpt lat="48.0621" lon="-4.36373">
        <ele>63.400001525879</ele>
        <time>2013-08-13T08:21:58.000Z</time>
      </trkpt>
      <trkpt lat="48.06209" lon="-4.36378">
        <ele>63.400001525879</ele>
        <time>2013-08-13T08:22:02.000Z</time>
      </trkpt>
      <trkpt lat="48.06209" lon="-4.36384">
        <ele>65</ele>
        <time>2013-08-13T08:22:04.000Z</time>
      </trkpt>
      <trkpt lat="48.06207" lon="-4.36391">
        <ele>66.800003051758</ele>
        <time>2013-08-13T08:22:09.000Z</time>
      </trkpt>
      <trkpt lat="48.06205" lon="-4.36398">
        <ele>67.800003051758</ele>
        <time>2013-08-13T08:22:13.000Z</time>
      </trkpt>
      <trkpt lat="48.06202" lon="-4.36408">
        <ele>66.800003051758</ele>
        <time>2013-08-13T08:22:19.000Z</time>
      </trkpt>
      <trkpt lat="48.06201" lon="-4.36412">
        <ele>66.800003051758</ele>
        <time>2013-08-13T08:22:21.000Z</time>
      </trkpt>
      <trkpt lat="48.062" lon="-4.3642">
        <ele>66.800003051758</ele>
        <time>2013-08-13T08:22:26.000Z</time>
      </trkpt>
      <trkpt lat="48.06198" lon="-4.36432">
        <ele>67.800003051758</ele>
        <time>2013-08-13T08:22:33.000Z</time>
      </trkpt>
      <trkpt lat="48.06194" lon="-4.36441">
        <ele>66.800003051758</ele>
        <time>2013-08-13T08:22:39.000Z</time>
      </trkpt>
      <trkpt lat="48.06191" lon="-4.36448">
        <ele>67.400001525879</ele>
        <time>2013-08-13T08:22:43.000Z</time>
      </trkpt>
      <trkpt lat="48.06186" lon="-4.36454">
        <ele>65.400001525879</ele>
        <time>2013-08-13T08:22:46.000Z</time>
      </trkpt>
      <trkpt lat="48.06183" lon="-4.36458">
        <ele>64</ele>
        <time>2013-08-13T08:22:48.000Z</time>
      </trkpt>
      <trkpt lat="48.06179" lon="-4.36462">
        <ele>64.400001525879</ele>
        <time>2013-08-13T08:22:52.000Z</time>
      </trkpt>
      <trkpt lat="48.06178" lon="-4.3647">
        <ele>65</ele>
        <time>2013-08-13T08:22:57.000Z</time>
      </trkpt>
      <trkpt lat="48.06178" lon="-4.36473">
        <ele>65.800003051758</ele>
        <time>2013-08-13T08:22:59.000Z</time>
      </trkpt>
      <trkpt lat="48.06178" lon="-4.36477">
        <ele>65.800003051758</ele>
        <time>2013-08-13T08:23:01.000Z</time>
      </trkpt>
      <trkpt lat="48.06179" lon="-4.36488">
        <ele>63.400001525879</ele>
        <time>2013-08-13T08:23:08.000Z</time>
      </trkpt>
      <trkpt lat="48.06178" lon="-4.365">
        <ele>64</ele>
        <time>2013-08-13T08:23:14.000Z</time>
      </trkpt>
      <trkpt lat="48.06178" lon="-4.36513">
        <ele>64.400001525879</ele>
        <time>2013-08-13T08:23:21.000Z</time>
      </trkpt>
      <trkpt lat="48.06174" lon="-4.36523">
        <ele>65.400001525879</ele>
        <time>2013-08-13T08:23:28.000Z</time>
      </trkpt>
      <trkpt lat="48.06171" lon="-4.36534">
        <ele>66.800003051758</ele>
        <time>2013-08-13T08:23:34.000Z</time>
      </trkpt>
      <trkpt lat="48.0617" lon="-4.36537">
        <ele>67.400001525879</ele>
        <time>2013-08-13T08:23:36.000Z</time>
      </trkpt>
      <trkpt lat="48.06168" lon="-4.36542">
        <ele>67.800003051758</ele>
        <time>2013-08-13T08:23:41.000Z</time>
      </trkpt>
      <trkpt lat="48.06166" lon="-4.36548">
        <ele>67.800003051758</ele>
        <time>2013-08-13T08:23:45.000Z</time>
      </trkpt>
      <trkpt lat="48.06164" lon="-4.36558">
        <ele>68.800003051758</ele>
        <time>2013-08-13T08:23:50.000Z</time>
      </trkpt>
      <trkpt lat="48.06161" lon="-4.3657">
        <ele>68.800003051758</ele>
        <time>2013-08-13T08:23:57.000Z</time>
      </trkpt>
      <trkpt lat="48.06159" lon="-4.36577">
        <ele>69.800003051758</ele>
        <time>2013-08-13T08:24:01.000Z</time>
      </trkpt>
      <trkpt lat="48.06156" lon="-4.36587">
        <ele>70.599998474121</ele>
        <time>2013-08-13T08:24:06.000Z</time>
      </trkpt>
      <trkpt lat="48.06156" lon="-4.36594">
        <ele>72.199996948242</ele>
        <time>2013-08-13T08:24:10.000Z</time>
      </trkpt>
      <trkpt lat="48.06153" lon="-4.36601">
        <ele>71.599998474121</ele>
        <time>2013-08-13T08:24:14.000Z</time>
      </trkpt>
      <trkpt lat="48.06151" lon="-4.36609">
        <ele>72.199996948242</ele>
        <time>2013-08-13T08:24:18.000Z</time>
      </trkpt>
      <trkpt lat="48.0615" lon="-4.36611">
        <ele>70.199996948242</ele>
        <time>2013-08-13T08:24:24.000Z</time>
      </trkpt>
      <trkpt lat="48.06149" lon="-4.36622">
        <ele>68.199996948242</ele>
        <time>2013-08-13T08:24:30.000Z</time>
      </trkpt>
      <trkpt lat="48.06147" lon="-4.36634">
        <ele>68.199996948242</ele>
        <time>2013-08-13T08:24:36.000Z</time>
      </trkpt>
      <trkpt lat="48.06147" lon="-4.36648">
        <ele>67.800003051758</ele>
        <time>2013-08-13T08:24:43.000Z</time>
      </trkpt>
      <trkpt lat="48.06143" lon="-4.36661">
        <ele>69.199996948242</ele>
        <time>2013-08-13T08:24:50.000Z</time>
      </trkpt>
      <trkpt lat="48.06141" lon="-4.36673">
        <ele>69.199996948242</ele>
        <time>2013-08-13T08:24:56.000Z</time>
      </trkpt>
      <trkpt lat="48.06139" lon="-4.36679">
        <ele>69.800003051758</ele>
        <time>2013-08-13T08:24:59.000Z</time>
      </trkpt>
      <trkpt lat="48.06134" lon="-4.36692">
        <ele>71.599998474121</ele>
        <time>2013-08-13T08:25:06.000Z</time>
      </trkpt>
      <trkpt lat="48.06129" lon="-4.36704">
        <ele>71.199996948242</ele>
        <time>2013-08-13T08:25:13.000Z</time>
      </trkpt>
      <trkpt lat="48.06129" lon="-4.36706">
        <ele>71.599998474121</ele>
        <time>2013-08-13T08:25:14.000Z</time>
      </trkpt>
      <trkpt lat="48.06124" lon="-4.36714">
        <ele>74</ele>
        <time>2013-08-13T08:25:19.000Z</time>
      </trkpt>
      <trkpt lat="48.06119" lon="-4.36728">
        <ele>75.599998474121</ele>
        <time>2013-08-13T08:25:27.000Z</time>
      </trkpt>
      <trkpt lat="48.06118" lon="-4.36736">
        <ele>76</ele>
        <time>2013-08-13T08:25:31.000Z</time>
      </trkpt>
      <trkpt lat="48.06116" lon="-4.36743">
        <ele>75.599998474121</ele>
        <time>2013-08-13T08:25:36.000Z</time>
      </trkpt>
      <trkpt lat="48.06114" lon="-4.36751">
        <ele>73.599998474121</ele>
        <time>2013-08-13T08:25:43.000Z</time>
      </trkpt>
      <trkpt lat="48.06113" lon="-4.36756">
        <ele>72.599998474121</ele>
        <time>2013-08-13T08:25:46.000Z</time>
      </trkpt>
      <trkpt lat="48.06111" lon="-4.36768">
        <ele>71.599998474121</ele>
        <time>2013-08-13T08:25:53.000Z</time>
      </trkpt>
      <trkpt lat="48.06108" lon="-4.36777">
        <ele>73</ele>
        <time>2013-08-13T08:25:57.000Z</time>
      </trkpt>
      <trkpt lat="48.06104" lon="-4.36788">
        <ele>76</ele>
        <time>2013-08-13T08:26:02.000Z</time>
      </trkpt>
      <trkpt lat="48.06104" lon="-4.36794">
        <ele>74.599998474121</ele>
        <time>2013-08-13T08:26:07.000Z</time>
      </trkpt>
      <trkpt lat="48.06102" lon="-4.36805">
        <ele>73</ele>
        <time>2013-08-13T08:26:13.000Z</time>
      </trkpt>
      <trkpt lat="48.06099" lon="-4.36816">
        <ele>76</ele>
        <time>2013-08-13T08:26:18.000Z</time>
      </trkpt>
      <trkpt lat="48.06098" lon="-4.36827">
        <ele>78</ele>
        <time>2013-08-13T08:26:22.000Z</time>
      </trkpt>
      <trkpt lat="48.06095" lon="-4.36841">
        <ele>75.599998474121</ele>
        <time>2013-08-13T08:26:30.000Z</time>
      </trkpt>
      <trkpt lat="48.06093" lon="-4.36853">
        <ele>74</ele>
        <time>2013-08-13T08:26:37.000Z</time>
      </trkpt>
      <trkpt lat="48.06091" lon="-4.36858">
        <ele>73.599998474121</ele>
        <time>2013-08-13T08:26:41.000Z</time>
      </trkpt>
      <trkpt lat="48.06089" lon="-4.36863">
        <ele>74</ele>
        <time>2013-08-13T08:26:44.000Z</time>
      </trkpt>
      <trkpt lat="48.06086" lon="-4.36872">
        <ele>74.599998474121</ele>
        <time>2013-08-13T08:26:49.000Z</time>
      </trkpt>
      <trkpt lat="48.06085" lon="-4.36875">
        <ele>75</ele>
        <time>2013-08-13T08:26:51.000Z</time>
      </trkpt>
      <trkpt lat="48.06082" lon="-4.36886">
        <ele>77.400001525879</ele>
        <time>2013-08-13T08:26:58.000Z</time>
      </trkpt>
      <trkpt lat="48.06079" lon="-4.36899">
        <ele>78.800003051758</ele>
        <time>2013-08-13T08:27:04.000Z</time>
      </trkpt>
      <trkpt lat="48.06078" lon="-4.36902">
        <ele>78.400001525879</ele>
        <time>2013-08-13T08:27:06.000Z</time>
      </trkpt>
      <trkpt lat="48.06074" lon="-4.36914">
        <ele>79.800003051758</ele>
        <time>2013-08-13T08:27:11.000Z</time>
      </trkpt>
      <trkpt lat="48.06073" lon="-4.36921">
        <ele>81.199996948242</ele>
        <time>2013-08-13T08:27:15.000Z</time>
      </trkpt>
      <trkpt lat="48.06072" lon="-4.36936">
        <ele>80.400001525879</ele>
        <time>2013-08-13T08:27:23.000Z</time>
      </trkpt>
      <trkpt lat="48.0607" lon="-4.36946">
        <ele>77</ele>
        <time>2013-08-13T08:27:30.000Z</time>
      </trkpt>
      <trkpt lat="48.06069" lon="-4.36947">
        <ele>76.400001525879</ele>
        <time>2013-08-13T08:27:31.000Z</time>
      </trkpt>
      <trkpt lat="48.0607" lon="-4.36955">
        <ele>76.400001525879</ele>
        <time>2013-08-13T08:27:35.000Z</time>
      </trkpt>
      <trkpt lat="48.06066" lon="-4.36963">
        <ele>75</ele>
        <time>2013-08-13T08:27:40.000Z</time>
      </trkpt>
      <trkpt lat="48.06065" lon="-4.36972">
        <ele>74.599998474121</ele>
        <time>2013-08-13T08:27:45.000Z</time>
      </trkpt>
      <trkpt lat="48.0606" lon="-4.36982">
        <ele>74.599998474121</ele>
        <time>2013-08-13T08:27:51.000Z</time>
      </trkpt>
      <trkpt lat="48.06058" lon="-4.36989">
        <ele>75</ele>
        <time>2013-08-13T08:27:55.000Z</time>
      </trkpt>
      <trkpt lat="48.06058" lon="-4.3699">
        <ele>74.599998474121</ele>
        <time>2013-08-13T08:27:56.000Z</time>
      </trkpt>
      <trkpt lat="48.06056" lon="-4.36998">
        <ele>76</ele>
        <time>2013-08-13T08:28:01.000Z</time>
      </trkpt>
      <trkpt lat="48.06055" lon="-4.37008">
        <ele>76</ele>
        <time>2013-08-13T08:28:06.000Z</time>
      </trkpt>
      <trkpt lat="48.06053" lon="-4.37015">
        <ele>76.400001525879</ele>
        <time>2013-08-13T08:28:10.000Z</time>
      </trkpt>
      <trkpt lat="48.06053" lon="-4.37023">
        <ele>76</ele>
        <time>2013-08-13T08:28:14.000Z</time>
      </trkpt>
      <trkpt lat="48.0605" lon="-4.37033">
        <ele>75.599998474121</ele>
        <time>2013-08-13T08:28:20.000Z</time>
      </trkpt>
      <trkpt lat="48.06049" lon="-4.37036">
        <ele>74.599998474121</ele>
        <time>2013-08-13T08:28:22.000Z</time>
      </trkpt>
      <trkpt lat="48.06045" lon="-4.3705">
        <ele>74.599998474121</ele>
        <time>2013-08-13T08:28:29.000Z</time>
      </trkpt>
      <trkpt lat="48.06043" lon="-4.37055">
        <ele>74</ele>
        <time>2013-08-13T08:28:32.000Z</time>
      </trkpt>
      <trkpt lat="48.06042" lon="-4.37064">
        <ele>73.599998474121</ele>
        <time>2013-08-13T08:28:37.000Z</time>
      </trkpt>
      <trkpt lat="48.06039" lon="-4.37072">
        <ele>75</ele>
        <time>2013-08-13T08:28:42.000Z</time>
      </trkpt>
      <trkpt lat="48.06037" lon="-4.3708">
        <ele>75</ele>
        <time>2013-08-13T08:28:46.000Z</time>
      </trkpt>
      <trkpt lat="48.06036" lon="-4.37085">
        <ele>74</ele>
        <time>2013-08-13T08:28:49.000Z</time>
      </trkpt>
      <trkpt lat="48.06032" lon="-4.37096">
        <ele>74.599998474121</ele>
        <time>2013-08-13T08:28:55.000Z</time>
      </trkpt>
      <trkpt lat="48.06026" lon="-4.37107">
        <ele>75.599998474121</ele>
        <time>2013-08-13T08:29:01.000Z</time>
      </trkpt>
      <trkpt lat="48.06025" lon="-4.3711">
        <ele>75.599998474121</ele>
        <time>2013-08-13T08:29:03.000Z</time>
      </trkpt>
      <trkpt lat="48.06023" lon="-4.37121">
        <ele>75</ele>
        <time>2013-08-13T08:29:09.000Z</time>
      </trkpt>
      <trkpt lat="48.0602" lon="-4.37133">
        <ele>74</ele>
        <time>2013-08-13T08:29:15.000Z</time>
      </trkpt>
      <trkpt lat="48.06017" lon="-4.3714">
        <ele>72.199996948242</ele>
        <time>2013-08-13T08:29:20.000Z</time>
      </trkpt>
      <trkpt lat="48.06013" lon="-4.37148">
        <ele>71.199996948242</ele>
        <time>2013-08-13T08:29:25.000Z</time>
      </trkpt>
      <trkpt lat="48.0601" lon="-4.37154">
        <ele>71.199996948242</ele>
        <time>2013-08-13T08:29:29.000Z</time>
      </trkpt>
      <trkpt lat="48.06006" lon="-4.37164">
        <ele>71.599998474121</ele>
        <time>2013-08-13T08:29:34.000Z</time>
      </trkpt>
      <trkpt lat="48.06003" lon="-4.37175">
        <ele>71.199996948242</ele>
        <time>2013-08-13T08:29:40.000Z</time>
      </trkpt>
      <trkpt lat="48.06002" lon="-4.37179">
        <ele>70.599998474121</ele>
        <time>2013-08-13T08:29:42.000Z</time>
      </trkpt>
      <trkpt lat="48.05998" lon="-4.37189">
        <ele>72.199996948242</ele>
        <time>2013-08-13T08:29:48.000Z</time>
      </trkpt>
      <trkpt lat="48.05993" lon="-4.37202">
        <ele>72.599998474121</ele>
        <time>2013-08-13T08:29:55.000Z</time>
      </trkpt>
      <trkpt lat="48.05991" lon="-4.37211">
        <ele>73.599998474121</ele>
        <time>2013-08-13T08:30:00.000Z</time>
      </trkpt>
      <trkpt lat="48.0599" lon="-4.37215">
        <ele>72.599998474121</ele>
        <time>2013-08-13T08:30:02.000Z</time>
      </trkpt>
      <trkpt lat="48.05988" lon="-4.37225">
        <ele>73</ele>
        <time>2013-08-13T08:30:07.000Z</time>
      </trkpt>
      <trkpt lat="48.05986" lon="-4.3723">
        <ele>73.599998474121</ele>
        <time>2013-08-13T08:30:10.000Z</time>
      </trkpt>
      <trkpt lat="48.05983" lon="-4.37238">
        <ele>73.599998474121</ele>
        <time>2013-08-13T08:30:15.000Z</time>
      </trkpt>
      <trkpt lat="48.05983" lon="-4.3724">
        <ele>73</ele>
        <time>2013-08-13T08:30:16.000Z</time>
      </trkpt>
      <trkpt lat="48.05984" lon="-4.37245">
        <ele>73</ele>
        <time>2013-08-13T08:30:18.000Z</time>
      </trkpt>
      <trkpt lat="48.05983" lon="-4.37254">
        <ele>73</ele>
        <time>2013-08-13T08:30:23.000Z</time>
      </trkpt>
      <trkpt lat="48.0598" lon="-4.37261">
        <ele>73</ele>
        <time>2013-08-13T08:30:27.000Z</time>
      </trkpt>
      <trkpt lat="48.05977" lon="-4.37271">
        <ele>73.599998474121</ele>
        <time>2013-08-13T08:30:32.000Z</time>
      </trkpt>
      <trkpt lat="48.05975" lon="-4.37276">
        <ele>73</ele>
        <time>2013-08-13T08:30:36.000Z</time>
      </trkpt>
      <trkpt lat="48.05976" lon="-4.37277">
        <ele>73.599998474121</ele>
        <time>2013-08-13T08:30:41.000Z</time>
      </trkpt>
      <trkpt lat="48.05981" lon="-4.3728">
        <ele>72.599998474121</ele>
        <time>2013-08-13T08:30:46.000Z</time>
      </trkpt>
      <trkpt lat="48.05986" lon="-4.37283">
        <ele>71.599998474121</ele>
        <time>2013-08-13T08:30:51.000Z</time>
      </trkpt>
      <trkpt lat="48.05988" lon="-4.37284">
        <ele>70.599998474121</ele>
        <time>2013-08-13T08:30:54.000Z</time>
      </trkpt>
      <trkpt lat="48.05996" lon="-4.37284">
        <ele>68.800003051758</ele>
        <time>2013-08-13T08:31:00.000Z</time>
      </trkpt>
      <trkpt lat="48.06" lon="-4.37284">
        <ele>67.800003051758</ele>
        <time>2013-08-13T08:31:03.000Z</time>
      </trkpt>
      <trkpt lat="48.06007" lon="-4.37284">
        <ele>66.400001525879</ele>
        <time>2013-08-13T08:31:09.000Z</time>
      </trkpt>
      <trkpt lat="48.06009" lon="-4.37285">
        <ele>66.800003051758</ele>
        <time>2013-08-13T08:31:11.000Z</time>
      </trkpt>
      <trkpt lat="48.06013" lon="-4.37283">
        <ele>66.800003051758</ele>
        <time>2013-08-13T08:31:17.000Z</time>
      </trkpt>
      <trkpt lat="48.06018" lon="-4.37287">
        <ele>66.800003051758</ele>
        <time>2013-08-13T08:31:22.000Z</time>
      </trkpt>
      <trkpt lat="48.06025" lon="-4.37291">
        <ele>66.400001525879</ele>
        <time>2013-08-13T08:31:27.000Z</time>
      </trkpt>
      <trkpt lat="48.06026" lon="-4.37291">
        <ele>65.800003051758</ele>
        <time>2013-08-13T08:31:28.000Z</time>
      </trkpt>
      <trkpt lat="48.06031" lon="-4.37298">
        <ele>65.400001525879</ele>
        <time>2013-08-13T08:31:33.000Z</time>
      </trkpt>
      <trkpt lat="48.06035" lon="-4.37303">
        <ele>65.400001525879</ele>
        <time>2013-08-13T08:31:38.000Z</time>
      </trkpt>
      <trkpt lat="48.06038" lon="-4.37308">
        <ele>64.400001525879</ele>
        <time>2013-08-13T08:31:42.000Z</time>
      </trkpt>
      <trkpt lat="48.0604" lon="-4.37313">
        <ele>64</ele>
        <time>2013-08-13T08:31:45.000Z</time>
      </trkpt>
      <trkpt lat="48.06044" lon="-4.3732">
        <ele>64</ele>
        <time>2013-08-13T08:31:51.000Z</time>
      </trkpt>
      <trkpt lat="48.06047" lon="-4.37329">
        <ele>64</ele>
        <time>2013-08-13T08:31:57.000Z</time>
      </trkpt>
      <trkpt lat="48.0605" lon="-4.3734">
        <ele>63.400001525879</ele>
        <time>2013-08-13T08:32:04.000Z</time>
      </trkpt>
      <trkpt lat="48.06051" lon="-4.37348">
        <ele>63.400001525879</ele>
        <time>2013-08-13T08:32:09.000Z</time>
      </trkpt>
      <trkpt lat="48.06046" lon="-4.37359">
        <ele>62.599998474121</ele>
        <time>2013-08-13T08:32:17.000Z</time>
      </trkpt>
      <trkpt lat="48.06045" lon="-4.3736">
        <ele>62.599998474121</ele>
        <time>2013-08-13T08:32:18.000Z</time>
      </trkpt>
      <trkpt lat="48.06044" lon="-4.37366">
        <ele>61</ele>
        <time>2013-08-13T08:32:25.000Z</time>
      </trkpt>
      <trkpt lat="48.06043" lon="-4.37361">
        <ele>59.200000762939</ele>
        <time>2013-08-13T08:32:31.000Z</time>
      </trkpt>
      <trkpt lat="48.06042" lon="-4.37359">
        <ele>59.200000762939</ele>
        <time>2013-08-13T08:32:37.000Z</time>
      </trkpt>
      <trkpt lat="48.06047" lon="-4.37361">
        <ele>57.200000762939</ele>
        <time>2013-08-13T08:32:51.000Z</time>
      </trkpt>
      <trkpt lat="48.06048" lon="-4.37361">
        <ele>57.799999237061</ele>
        <time>2013-08-13T08:32:58.000Z</time>
      </trkpt>
      <trkpt lat="48.06048" lon="-4.3736">
        <ele>56.200000762939</ele>
        <time>2013-08-13T08:33:07.000Z</time>
      </trkpt>
      <trkpt lat="48.06046" lon="-4.3736">
        <ele>55.400001525879</ele>
        <time>2013-08-13T08:33:17.000Z</time>
      </trkpt>
      <trkpt lat="48.06039" lon="-4.37358">
        <ele>55.400001525879</ele>
        <time>2013-08-13T08:33:25.000Z</time>
      </trkpt>
      <trkpt lat="48.06038" lon="-4.37356">
        <ele>58.200000762939</ele>
        <time>2013-08-13T08:33:32.000Z</time>
      </trkpt>
      <trkpt lat="48.06036" lon="-4.37356">
        <ele>58.599998474121</ele>
        <time>2013-08-13T08:33:37.000Z</time>
      </trkpt>
      <trkpt lat="48.06036" lon="-4.37356">
        <ele>58.599998474121</ele>
        <time>2013-08-13T08:33:44.000Z</time>
      </trkpt>
      <trkpt lat="48.06037" lon="-4.37353">
        <ele>58.599998474121</ele>
        <time>2013-08-13T08:33:50.000Z</time>
      </trkpt>
      <trkpt lat="48.06041" lon="-4.37355">
        <ele>57.200000762939</ele>
        <time>2013-08-13T08:33:57.000Z</time>
      </trkpt>
      <trkpt lat="48.06048" lon="-4.37363">
        <ele>56.799999237061</ele>
        <time>2013-08-13T08:34:06.000Z</time>
      </trkpt>
      <trkpt lat="48.06055" lon="-4.37369">
        <ele>58.200000762939</ele>
        <time>2013-08-13T08:34:13.000Z</time>
      </trkpt>
      <trkpt lat="48.06056" lon="-4.37371">
        <ele>57.799999237061</ele>
        <time>2013-08-13T08:34:21.000Z</time>
      </trkpt>
      <trkpt lat="48.06061" lon="-4.37375">
        <ele>57.799999237061</ele>
        <time>2013-08-13T08:34:27.000Z</time>
      </trkpt>
      <trkpt lat="48.06067" lon="-4.37377">
        <ele>58.599998474121</ele>
        <time>2013-08-13T08:34:32.000Z</time>
      </trkpt>
      <trkpt lat="48.06068" lon="-4.37377">
        <ele>59.200000762939</ele>
        <time>2013-08-13T08:34:33.000Z</time>
      </trkpt>
      <trkpt lat="48.06073" lon="-4.37382">
        <ele>58.200000762939</ele>
        <time>2013-08-13T08:34:39.000Z</time>
      </trkpt>
      <trkpt lat="48.06074" lon="-4.37382">
        <ele>57.799999237061</ele>
        <time>2013-08-13T08:34:40.000Z</time>
      </trkpt>
      <trkpt lat="48.0608" lon="-4.37386">
        <ele>56.799999237061</ele>
        <time>2013-08-13T08:34:45.000Z</time>
      </trkpt>
      <trkpt lat="48.06085" lon="-4.37393">
        <ele>57.200000762939</ele>
        <time>2013-08-13T08:34:50.000Z</time>
      </trkpt>
      <trkpt lat="48.06094" lon="-4.37405">
        <ele>60.200000762939</ele>
        <time>2013-08-13T08:34:58.000Z</time>
      </trkpt>
      <trkpt lat="48.06099" lon="-4.37413">
        <ele>60.599998474121</ele>
        <time>2013-08-13T08:35:04.000Z</time>
      </trkpt>
      <trkpt lat="48.06106" lon="-4.37421">
        <ele>61</ele>
        <time>2013-08-13T08:35:11.000Z</time>
      </trkpt>
      <trkpt lat="48.06109" lon="-4.37424">
        <ele>61.599998474121</ele>
        <time>2013-08-13T08:35:13.000Z</time>
      </trkpt>
      <trkpt lat="48.06115" lon="-4.37431">
        <ele>60.599998474121</ele>
        <time>2013-08-13T08:35:19.000Z</time>
      </trkpt>
      <trkpt lat="48.0612" lon="-4.37436">
        <ele>59.200000762939</ele>
        <time>2013-08-13T08:35:24.000Z</time>
      </trkpt>
      <trkpt lat="48.06124" lon="-4.37438">
        <ele>57.799999237061</ele>
        <time>2013-08-13T08:35:27.000Z</time>
      </trkpt>
      <trkpt lat="48.06128" lon="-4.37441">
        <ele>56.200000762939</ele>
        <time>2013-08-13T08:35:31.000Z</time>
      </trkpt>
      <trkpt lat="48.06132" lon="-4.37446">
        <ele>54.400001525879</ele>
        <time>2013-08-13T08:35:36.000Z</time>
      </trkpt>
      <trkpt lat="48.06139" lon="-4.37453">
        <ele>51.400001525879</ele>
        <time>2013-08-13T08:35:43.000Z</time>
      </trkpt>
      <trkpt lat="48.06145" lon="-4.37462">
        <ele>52</ele>
        <time>2013-08-13T08:35:49.000Z</time>
      </trkpt>
      <trkpt lat="48.06153" lon="-4.37472">
        <ele>54.799999237061</ele>
        <time>2013-08-13T08:35:55.000Z</time>
      </trkpt>
      <trkpt lat="48.06157" lon="-4.37476">
        <ele>54.400001525879</ele>
        <time>2013-08-13T08:35:59.000Z</time>
      </trkpt>
      <trkpt lat="48.06162" lon="-4.37482">
        <ele>54.400001525879</ele>
        <time>2013-08-13T08:36:04.000Z</time>
      </trkpt>
      <trkpt lat="48.06166" lon="-4.37488">
        <ele>55.400001525879</ele>
        <time>2013-08-13T08:36:09.000Z</time>
      </trkpt>
      <trkpt lat="48.06173" lon="-4.37497">
        <ele>55.400001525879</ele>
        <time>2013-08-13T08:36:16.000Z</time>
      </trkpt>
      <trkpt lat="48.06177" lon="-4.37501">
        <ele>54.799999237061</ele>
        <time>2013-08-13T08:36:19.000Z</time>
      </trkpt>
      <trkpt lat="48.06181" lon="-4.37507">
        <ele>53</ele>
        <time>2013-08-13T08:36:25.000Z</time>
      </trkpt>
      <trkpt lat="48.06184" lon="-4.3751">
        <ele>54.400001525879</ele>
        <time>2013-08-13T08:36:31.000Z</time>
      </trkpt>
      <trkpt lat="48.06187" lon="-4.37513">
        <ele>53.400001525879</ele>
        <time>2013-08-13T08:36:34.000Z</time>
      </trkpt>
      <trkpt lat="48.06189" lon="-4.37518">
        <ele>52</ele>
        <time>2013-08-13T08:36:38.000Z</time>
      </trkpt>
      <trkpt lat="48.06193" lon="-4.37522">
        <ele>52</ele>
        <time>2013-08-13T08:36:41.000Z</time>
      </trkpt>
      <trkpt lat="48.06198" lon="-4.37528">
        <ele>53</ele>
        <time>2013-08-13T08:36:46.000Z</time>
      </trkpt>
      <trkpt lat="48.062" lon="-4.3753">
        <ele>53</ele>
        <time>2013-08-13T08:36:48.000Z</time>
      </trkpt>
      <trkpt lat="48.06202" lon="-4.37535">
        <ele>53.400001525879</ele>
        <time>2013-08-13T08:36:51.000Z</time>
      </trkpt>
      <trkpt lat="48.06208" lon="-4.37546">
        <ele>53</ele>
        <time>2013-08-13T08:36:57.000Z</time>
      </trkpt>
      <trkpt lat="48.06209" lon="-4.37554">
        <ele>53</ele>
        <time>2013-08-13T08:37:01.000Z</time>
      </trkpt>
      <trkpt lat="48.06209" lon="-4.37562">
        <ele>52.400001525879</ele>
        <time>2013-08-13T08:37:05.000Z</time>
      </trkpt>
      <trkpt lat="48.06207" lon="-4.3757">
        <ele>53</ele>
        <time>2013-08-13T08:37:09.000Z</time>
      </trkpt>
      <trkpt lat="48.06208" lon="-4.37575">
        <ele>53</ele>
        <time>2013-08-13T08:37:12.000Z</time>
      </trkpt>
      <trkpt lat="48.0621" lon="-4.37578">
        <ele>52.400001525879</ele>
        <time>2013-08-13T08:37:16.000Z</time>
      </trkpt>
      <trkpt lat="48.06214" lon="-4.37583">
        <ele>52</ele>
        <time>2013-08-13T08:37:22.000Z</time>
      </trkpt>
      <trkpt lat="48.06214" lon="-4.37583">
        <ele>52</ele>
        <time>2013-08-13T08:37:28.000Z</time>
      </trkpt>
      <trkpt lat="48.06215" lon="-4.37583">
        <ele>51.400001525879</ele>
        <time>2013-08-13T08:37:50.000Z</time>
      </trkpt>
      <trkpt lat="48.06213" lon="-4.37585">
        <ele>51</ele>
        <time>2013-08-13T08:38:06.000Z</time>
      </trkpt>
      <trkpt lat="48.06213" lon="-4.37585">
        <ele>50.599998474121</ele>
        <time>2013-08-13T08:38:16.000Z</time>
      </trkpt>
      <trkpt lat="48.06211" lon="-4.37584">
        <ele>49.599998474121</ele>
        <time>2013-08-13T08:38:27.000Z</time>
      </trkpt>
      <trkpt lat="48.0621" lon="-4.37585">
        <ele>49.599998474121</ele>
        <time>2013-08-13T08:38:28.000Z</time>
      </trkpt>
      <trkpt lat="48.06207" lon="-4.3759">
        <ele>48.200000762939</ele>
        <time>2013-08-13T08:38:33.000Z</time>
      </trkpt>
      <trkpt lat="48.06208" lon="-4.37595">
        <ele>47.599998474121</ele>
        <time>2013-08-13T08:38:36.000Z</time>
      </trkpt>
      <trkpt lat="48.06204" lon="-4.37602">
        <ele>45.599998474121</ele>
        <time>2013-08-13T08:38:42.000Z</time>
      </trkpt>
      <trkpt lat="48.062" lon="-4.37615">
        <ele>45.200000762939</ele>
        <time>2013-08-13T08:38:50.000Z</time>
      </trkpt>
      <trkpt lat="48.06196" lon="-4.3762">
        <ele>45.200000762939</ele>
        <time>2013-08-13T08:38:53.000Z</time>
      </trkpt>
      <trkpt lat="48.06194" lon="-4.37629">
        <ele>45.200000762939</ele>
        <time>2013-08-13T08:38:59.000Z</time>
      </trkpt>
      <trkpt lat="48.0619" lon="-4.37638">
        <ele>45.200000762939</ele>
        <time>2013-08-13T08:39:04.000Z</time>
      </trkpt>
      <trkpt lat="48.06187" lon="-4.37646">
        <ele>46.200000762939</ele>
        <time>2013-08-13T08:39:09.000Z</time>
      </trkpt>
      <trkpt lat="48.06185" lon="-4.37652">
        <ele>44.200000762939</ele>
        <time>2013-08-13T08:39:13.000Z</time>
      </trkpt>
      <trkpt lat="48.06181" lon="-4.37653">
        <ele>42.799999237061</ele>
        <time>2013-08-13T08:39:16.000Z</time>
      </trkpt>
      <trkpt lat="48.06178" lon="-4.37656">
        <ele>40.799999237061</ele>
        <time>2013-08-13T08:39:19.000Z</time>
      </trkpt>
      <trkpt lat="48.06174" lon="-4.37666">
        <ele>41.400001525879</ele>
        <time>2013-08-13T08:39:26.000Z</time>
      </trkpt>
      <trkpt lat="48.06172" lon="-4.37669">
        <ele>41.400001525879</ele>
        <time>2013-08-13T08:39:28.000Z</time>
      </trkpt>
      <trkpt lat="48.06168" lon="-4.37676">
        <ele>40.400001525879</ele>
        <time>2013-08-13T08:39:34.000Z</time>
      </trkpt>
      <trkpt lat="48.06159" lon="-4.37683">
        <ele>39.400001525879</ele>
        <time>2013-08-13T08:39:41.000Z</time>
      </trkpt>
      <trkpt lat="48.06158" lon="-4.37686">
        <ele>39.400001525879</ele>
        <time>2013-08-13T08:39:43.000Z</time>
      </trkpt>
      <trkpt lat="48.06155" lon="-4.37689">
        <ele>40</ele>
        <time>2013-08-13T08:39:46.000Z</time>
      </trkpt>
      <trkpt lat="48.06152" lon="-4.37699">
        <ele>40</ele>
        <time>2013-08-13T08:39:52.000Z</time>
      </trkpt>
      <trkpt lat="48.06148" lon="-4.37707">
        <ele>40</ele>
        <time>2013-08-13T08:39:57.000Z</time>
      </trkpt>
      <trkpt lat="48.06147" lon="-4.37713">
        <ele>41.799999237061</ele>
        <time>2013-08-13T08:40:00.000Z</time>
      </trkpt>
      <trkpt lat="48.06145" lon="-4.37727">
        <ele>44.200000762939</ele>
        <time>2013-08-13T08:40:07.000Z</time>
      </trkpt>
      <trkpt lat="48.06144" lon="-4.37734">
        <ele>44.799999237061</ele>
        <time>2013-08-13T08:40:11.000Z</time>
      </trkpt>
      <trkpt lat="48.06143" lon="-4.37739">
        <ele>46.200000762939</ele>
        <time>2013-08-13T08:40:14.000Z</time>
      </trkpt>
      <trkpt lat="48.0614" lon="-4.37746">
        <ele>48.200000762939</ele>
        <time>2013-08-13T08:40:18.000Z</time>
      </trkpt>
      <trkpt lat="48.0614" lon="-4.3776">
        <ele>48.599998474121</ele>
        <time>2013-08-13T08:40:25.000Z</time>
      </trkpt>
      <trkpt lat="48.0614" lon="-4.37771">
        <ele>48.599998474121</ele>
        <time>2013-08-13T08:40:31.000Z</time>
      </trkpt>
      <trkpt lat="48.06141" lon="-4.3778">
        <ele>48.599998474121</ele>
        <time>2013-08-13T08:40:36.000Z</time>
      </trkpt>
      <trkpt lat="48.0614" lon="-4.37787">
        <ele>48.200000762939</ele>
        <time>2013-08-13T08:40:41.000Z</time>
      </trkpt>
      <trkpt lat="48.06139" lon="-4.37798">
        <ele>49</ele>
        <time>2013-08-13T08:40:47.000Z</time>
      </trkpt>
      <trkpt lat="48.06139" lon="-4.37807">
        <ele>50</ele>
        <time>2013-08-13T08:40:53.000Z</time>
      </trkpt>
      <trkpt lat="48.06139" lon="-4.37818">
        <ele>50.599998474121</ele>
        <time>2013-08-13T08:40:59.000Z</time>
      </trkpt>
      <trkpt lat="48.0614" lon="-4.37819">
        <ele>50</ele>
        <time>2013-08-13T08:41:00.000Z</time>
      </trkpt>
      <trkpt lat="48.0614" lon="-4.37833">
        <ele>52</ele>
        <time>2013-08-13T08:41:08.000Z</time>
      </trkpt>
      <trkpt lat="48.0614" lon="-4.3784">
        <ele>53</ele>
        <time>2013-08-13T08:41:12.000Z</time>
      </trkpt>
      <trkpt lat="48.06141" lon="-4.37846">
        <ele>53.400001525879</ele>
        <time>2013-08-13T08:41:16.000Z</time>
      </trkpt>
      <trkpt lat="48.06142" lon="-4.37851">
        <ele>53.799999237061</ele>
        <time>2013-08-13T08:41:20.000Z</time>
      </trkpt>
      <trkpt lat="48.06144" lon="-4.37864">
        <ele>55.400001525879</ele>
        <time>2013-08-13T08:41:27.000Z</time>
      </trkpt>
      <trkpt lat="48.06145" lon="-4.37876">
        <ele>55.400001525879</ele>
        <time>2013-08-13T08:41:35.000Z</time>
      </trkpt>
      <trkpt lat="48.06147" lon="-4.37882">
        <ele>55.400001525879</ele>
        <time>2013-08-13T08:41:38.000Z</time>
      </trkpt>
      <trkpt lat="48.06147" lon="-4.37888">
        <ele>56.200000762939</ele>
        <time>2013-08-13T08:41:42.000Z</time>
      </trkpt>
      <trkpt lat="48.06148" lon="-4.37898">
        <ele>56.799999237061</ele>
        <time>2013-08-13T08:41:47.000Z</time>
      </trkpt>
      <trkpt lat="48.06149" lon="-4.37905">
        <ele>57.200000762939</ele>
        <time>2013-08-13T08:41:52.000Z</time>
      </trkpt>
      <trkpt lat="48.0615" lon="-4.37912">
        <ele>57.799999237061</ele>
        <time>2013-08-13T08:41:56.000Z</time>
      </trkpt>
      <trkpt lat="48.06152" lon="-4.37925">
        <ele>58.200000762939</ele>
        <time>2013-08-13T08:42:04.000Z</time>
      </trkpt>
      <trkpt lat="48.06155" lon="-4.37936">
        <ele>58.599998474121</ele>
        <time>2013-08-13T08:42:11.000Z</time>
      </trkpt>
      <trkpt lat="48.06156" lon="-4.37946">
        <ele>59.200000762939</ele>
        <time>2013-08-13T08:42:17.000Z</time>
      </trkpt>
      <trkpt lat="48.06157" lon="-4.3795">
        <ele>59.200000762939</ele>
        <time>2013-08-13T08:42:22.000Z</time>
      </trkpt>
      <trkpt lat="48.06159" lon="-4.37956">
        <ele>59.200000762939</ele>
        <time>2013-08-13T08:42:26.000Z</time>
      </trkpt>
      <trkpt lat="48.06161" lon="-4.37964">
        <ele>58.599998474121</ele>
        <time>2013-08-13T08:42:31.000Z</time>
      </trkpt>
      <trkpt lat="48.06162" lon="-4.37971">
        <ele>60.200000762939</ele>
        <time>2013-08-13T08:42:35.000Z</time>
      </trkpt>
      <trkpt lat="48.06164" lon="-4.37981">
        <ele>61.599998474121</ele>
        <time>2013-08-13T08:42:41.000Z</time>
      </trkpt>
      <trkpt lat="48.06166" lon="-4.37991">
        <ele>62.599998474121</ele>
        <time>2013-08-13T08:42:47.000Z</time>
      </trkpt>
      <trkpt lat="48.06167" lon="-4.37997">
        <ele>62.599998474121</ele>
        <time>2013-08-13T08:42:51.000Z</time>
      </trkpt>
      <trkpt lat="48.06168" lon="-4.37998">
        <ele>62</ele>
        <time>2013-08-13T08:42:52.000Z</time>
      </trkpt>
      <trkpt lat="48.0617" lon="-4.38006">
        <ele>62.599998474121</ele>
        <time>2013-08-13T08:42:57.000Z</time>
      </trkpt>
      <trkpt lat="48.06172" lon="-4.38015">
        <ele>63</ele>
        <time>2013-08-13T08:43:03.000Z</time>
      </trkpt>
      <trkpt lat="48.06176" lon="-4.38026">
        <ele>63.400001525879</ele>
        <time>2013-08-13T08:43:10.000Z</time>
      </trkpt>
      <trkpt lat="48.06177" lon="-4.38028">
        <ele>64</ele>
        <time>2013-08-13T08:43:11.000Z</time>
      </trkpt>
      <trkpt lat="48.06178" lon="-4.38036">
        <ele>65</ele>
        <time>2013-08-13T08:43:17.000Z</time>
      </trkpt>
      <trkpt lat="48.0618" lon="-4.38047">
        <ele>65.400001525879</ele>
        <time>2013-08-13T08:43:24.000Z</time>
      </trkpt>
      <trkpt lat="48.0618" lon="-4.38048">
        <ele>65.400001525879</ele>
        <time>2013-08-13T08:43:25.000Z</time>
      </trkpt>
      <trkpt lat="48.06183" lon="-4.38059">
        <ele>65.800003051758</ele>
        <time>2013-08-13T08:43:32.000Z</time>
      </trkpt>
      <trkpt lat="48.06185" lon="-4.38067">
        <ele>66.400001525879</ele>
        <time>2013-08-13T08:43:37.000Z</time>
      </trkpt>
      <trkpt lat="48.06186" lon="-4.38077">
        <ele>65.800003051758</ele>
        <time>2013-08-13T08:43:44.000Z</time>
      </trkpt>
      <trkpt lat="48.06189" lon="-4.38085">
        <ele>65</ele>
        <time>2013-08-13T08:43:50.000Z</time>
      </trkpt>
      <trkpt lat="48.06189" lon="-4.38093">
        <ele>65</ele>
        <time>2013-08-13T08:43:56.000Z</time>
      </trkpt>
      <trkpt lat="48.0619" lon="-4.38096">
        <ele>65</ele>
        <time>2013-08-13T08:43:58.000Z</time>
      </trkpt>
      <trkpt lat="48.0619" lon="-4.38105">
        <ele>65.400001525879</ele>
        <time>2013-08-13T08:44:04.000Z</time>
      </trkpt>
      <trkpt lat="48.06191" lon="-4.38113">
        <ele>65.800003051758</ele>
        <time>2013-08-13T08:44:09.000Z</time>
      </trkpt>
      <trkpt lat="48.06192" lon="-4.38125">
        <ele>64</ele>
        <time>2013-08-13T08:44:16.000Z</time>
      </trkpt>
      <trkpt lat="48.06193" lon="-4.38134">
        <ele>64</ele>
        <time>2013-08-13T08:44:21.000Z</time>
      </trkpt>
      <trkpt lat="48.06192" lon="-4.38138">
        <ele>65</ele>
        <time>2013-08-13T08:44:23.000Z</time>
      </trkpt>
      <trkpt lat="48.06193" lon="-4.38143">
        <ele>65.400001525879</ele>
        <time>2013-08-13T08:44:26.000Z</time>
      </trkpt>
      <trkpt lat="48.06194" lon="-4.38149">
        <ele>63.400001525879</ele>
        <time>2013-08-13T08:44:32.000Z</time>
      </trkpt>
      <trkpt lat="48.06192" lon="-4.38161">
        <ele>64.400001525879</ele>
        <time>2013-08-13T08:44:39.000Z</time>
      </trkpt>
      <trkpt lat="48.06194" lon="-4.38171">
        <ele>65</ele>
        <time>2013-08-13T08:44:46.000Z</time>
      </trkpt>
      <trkpt lat="48.06196" lon="-4.38185">
        <ele>62</ele>
        <time>2013-08-13T08:44:54.000Z</time>
      </trkpt>
      <trkpt lat="48.06197" lon="-4.38199">
        <ele>61</ele>
        <time>2013-08-13T08:45:02.000Z</time>
      </trkpt>
      <trkpt lat="48.06197" lon="-4.38212">
        <ele>61.599998474121</ele>
        <time>2013-08-13T08:45:10.000Z</time>
      </trkpt>
      <trkpt lat="48.06197" lon="-4.38224">
        <ele>62.599998474121</ele>
        <time>2013-08-13T08:45:17.000Z</time>
      </trkpt>
      <trkpt lat="48.06197" lon="-4.38227">
        <ele>62.599998474121</ele>
        <time>2013-08-13T08:45:18.000Z</time>
      </trkpt>
      <trkpt lat="48.06198" lon="-4.38238">
        <ele>62.599998474121</ele>
        <time>2013-08-13T08:45:24.000Z</time>
      </trkpt>
      <trkpt lat="48.062" lon="-4.38246">
        <ele>62.599998474121</ele>
        <time>2013-08-13T08:45:29.000Z</time>
      </trkpt>
      <trkpt lat="48.062" lon="-4.38256">
        <ele>62.599998474121</ele>
        <time>2013-08-13T08:45:35.000Z</time>
      </trkpt>
      <trkpt lat="48.062" lon="-4.3827">
        <ele>65</ele>
        <time>2013-08-13T08:45:43.000Z</time>
      </trkpt>
      <trkpt lat="48.06198" lon="-4.38282">
        <ele>66.800003051758</ele>
        <time>2013-08-13T08:45:49.000Z</time>
      </trkpt>
      <trkpt lat="48.06201" lon="-4.38295">
        <ele>67.400001525879</ele>
        <time>2013-08-13T08:45:56.000Z</time>
      </trkpt>
      <trkpt lat="48.06207" lon="-4.383">
        <ele>66.800003051758</ele>
        <time>2013-08-13T08:46:01.000Z</time>
      </trkpt>
      <trkpt lat="48.06213" lon="-4.38301">
        <ele>66.800003051758</ele>
        <time>2013-08-13T08:46:07.000Z</time>
      </trkpt>
      <trkpt lat="48.06219" lon="-4.38301">
        <ele>67.400001525879</ele>
        <time>2013-08-13T08:46:12.000Z</time>
      </trkpt>
      <trkpt lat="48.06228" lon="-4.38302">
        <ele>67.800003051758</ele>
        <time>2013-08-13T08:46:19.000Z</time>
      </trkpt>
      <trkpt lat="48.06229" lon="-4.38302">
        <ele>67.800003051758</ele>
        <time>2013-08-13T08:46:20.000Z</time>
      </trkpt>
      <trkpt lat="48.06239" lon="-4.38304">
        <ele>68.800003051758</ele>
        <time>2013-08-13T08:46:28.000Z</time>
      </trkpt>
      <trkpt lat="48.06247" lon="-4.38306">
        <ele>68.800003051758</ele>
        <time>2013-08-13T08:46:35.000Z</time>
      </trkpt>
      <trkpt lat="48.06256" lon="-4.38307">
        <ele>69.800003051758</ele>
        <time>2013-08-13T08:46:42.000Z</time>
      </trkpt>
      <trkpt lat="48.06263" lon="-4.38307">
        <ele>69.800003051758</ele>
        <time>2013-08-13T08:46:47.000Z</time>
      </trkpt>
      <trkpt lat="48.06269" lon="-4.38307">
        <ele>70.199996948242</ele>
        <time>2013-08-13T08:46:52.000Z</time>
      </trkpt>
      <trkpt lat="48.0628" lon="-4.3831">
        <ele>70.599998474121</ele>
        <time>2013-08-13T08:47:00.000Z</time>
      </trkpt>
      <trkpt lat="48.06288" lon="-4.3831">
        <ele>71.599998474121</ele>
        <time>2013-08-13T08:47:07.000Z</time>
      </trkpt>
      <trkpt lat="48.06297" lon="-4.38311">
        <ele>72.199996948242</ele>
        <time>2013-08-13T08:47:14.000Z</time>
      </trkpt>
      <trkpt lat="48.06302" lon="-4.38311">
        <ele>70.599998474121</ele>
        <time>2013-08-13T08:47:18.000Z</time>
      </trkpt>
      <trkpt lat="48.06312" lon="-4.38312">
        <ele>70.599998474121</ele>
        <time>2013-08-13T08:47:26.000Z</time>
      </trkpt>
      <trkpt lat="48.06321" lon="-4.38312">
        <ele>70.199996948242</ele>
        <time>2013-08-13T08:47:33.000Z</time>
      </trkpt>
      <trkpt lat="48.06331" lon="-4.38313">
        <ele>69.800003051758</ele>
        <time>2013-08-13T08:47:41.000Z</time>
      </trkpt>
      <trkpt lat="48.06339" lon="-4.38313">
        <ele>69.199996948242</ele>
        <time>2013-08-13T08:47:48.000Z</time>
      </trkpt>
      <trkpt lat="48.06346" lon="-4.38313">
        <ele>68.800003051758</ele>
        <time>2013-08-13T08:47:54.000Z</time>
      </trkpt>
      <trkpt lat="48.06355" lon="-4.38311">
        <ele>68.199996948242</ele>
        <time>2013-08-13T08:48:02.000Z</time>
      </trkpt>
      <trkpt lat="48.06363" lon="-4.38312">
        <ele>68.800003051758</ele>
        <time>2013-08-13T08:48:08.000Z</time>
      </trkpt>
      <trkpt lat="48.06368" lon="-4.38318">
        <ele>69.199996948242</ele>
        <time>2013-08-13T08:48:14.000Z</time>
      </trkpt>
      <trkpt lat="48.06368" lon="-4.38327">
        <ele>68.199996948242</ele>
        <time>2013-08-13T08:48:20.000Z</time>
      </trkpt>
      <trkpt lat="48.06368" lon="-4.38332">
        <ele>68.800003051758</ele>
        <time>2013-08-13T08:48:23.000Z</time>
      </trkpt>
      <trkpt lat="48.06367" lon="-4.38337">
        <ele>69.199996948242</ele>
        <time>2013-08-13T08:48:28.000Z</time>
      </trkpt>
      <trkpt lat="48.06368" lon="-4.38333">
        <ele>69.199996948242</ele>
        <time>2013-08-13T08:48:32.000Z</time>
      </trkpt>
      <trkpt lat="48.06366" lon="-4.38338">
        <ele>69.199996948242</ele>
        <time>2013-08-13T08:48:38.000Z</time>
      </trkpt>
      <trkpt lat="48.06365" lon="-4.38348">
        <ele>69.199996948242</ele>
        <time>2013-08-13T08:48:44.000Z</time>
      </trkpt>
      <trkpt lat="48.06365" lon="-4.38353">
        <ele>69.199996948242</ele>
        <time>2013-08-13T08:48:47.000Z</time>
      </trkpt>
      <trkpt lat="48.06364" lon="-4.38367">
        <ele>70.599998474121</ele>
        <time>2013-08-13T08:48:55.000Z</time>
      </trkpt>
      <trkpt lat="48.06364" lon="-4.38377">
        <ele>72.199996948242</ele>
        <time>2013-08-13T08:49:01.000Z</time>
      </trkpt>
      <trkpt lat="48.06365" lon="-4.3839">
        <ele>72.599998474121</ele>
        <time>2013-08-13T08:49:08.000Z</time>
      </trkpt>
      <trkpt lat="48.06366" lon="-4.38397">
        <ele>72.199996948242</ele>
        <time>2013-08-13T08:49:12.000Z</time>
      </trkpt>
      <trkpt lat="48.06365" lon="-4.38405">
        <ele>72.199996948242</ele>
        <time>2013-08-13T08:49:17.000Z</time>
      </trkpt>
      <trkpt lat="48.06365" lon="-4.38422">
        <ele>72.199996948242</ele>
        <time>2013-08-13T08:49:26.000Z</time>
      </trkpt>
      <trkpt lat="48.06364" lon="-4.38435">
        <ele>72.599998474121</ele>
        <time>2013-08-13T08:49:33.000Z</time>
      </trkpt>
      <trkpt lat="48.06362" lon="-4.38443">
        <ele>72.599998474121</ele>
        <time>2013-08-13T08:49:37.000Z</time>
      </trkpt>
      <trkpt lat="48.06361" lon="-4.38457">
        <ele>73</ele>
        <time>2013-08-13T08:49:44.000Z</time>
      </trkpt>
      <trkpt lat="48.06359" lon="-4.38468">
        <ele>73.599998474121</ele>
        <time>2013-08-13T08:49:50.000Z</time>
      </trkpt>
      <trkpt lat="48.06358" lon="-4.38477">
        <ele>73</ele>
        <time>2013-08-13T08:49:55.000Z</time>
      </trkpt>
      <trkpt lat="48.06356" lon="-4.38484">
        <ele>73.599998474121</ele>
        <time>2013-08-13T08:49:59.000Z</time>
      </trkpt>
      <trkpt lat="48.06356" lon="-4.38491">
        <ele>74</ele>
        <time>2013-08-13T08:50:03.000Z</time>
      </trkpt>
      <trkpt lat="48.06354" lon="-4.38499">
        <ele>75</ele>
        <time>2013-08-13T08:50:08.000Z</time>
      </trkpt>
      <trkpt lat="48.06353" lon="-4.38505">
        <ele>75.599998474121</ele>
        <time>2013-08-13T08:50:11.000Z</time>
      </trkpt>
      <trkpt lat="48.06352" lon="-4.38519">
        <ele>76.400001525879</ele>
        <time>2013-08-13T08:50:18.000Z</time>
      </trkpt>
      <trkpt lat="48.06352" lon="-4.38528">
        <ele>76.400001525879</ele>
        <time>2013-08-13T08:50:23.000Z</time>
      </trkpt>
      <trkpt lat="48.0635" lon="-4.38541">
        <ele>76.400001525879</ele>
        <time>2013-08-13T08:50:30.000Z</time>
      </trkpt>
      <trkpt lat="48.06348" lon="-4.38555">
        <ele>76.400001525879</ele>
        <time>2013-08-13T08:50:37.000Z</time>
      </trkpt>
      <trkpt lat="48.06346" lon="-4.38568">
        <ele>76.400001525879</ele>
        <time>2013-08-13T08:50:44.000Z</time>
      </trkpt>
      <trkpt lat="48.06345" lon="-4.3858">
        <ele>76.400001525879</ele>
        <time>2013-08-13T08:50:51.000Z</time>
      </trkpt>
      <trkpt lat="48.06343" lon="-4.38593">
        <ele>76</ele>
        <time>2013-08-13T08:50:58.000Z</time>
      </trkpt>
      <trkpt lat="48.06342" lon="-4.386">
        <ele>76</ele>
        <time>2013-08-13T08:51:02.000Z</time>
      </trkpt>
      <trkpt lat="48.06341" lon="-4.38614">
        <ele>75</ele>
        <time>2013-08-13T08:51:10.000Z</time>
      </trkpt>
      <trkpt lat="48.06342" lon="-4.38621">
        <ele>73.599998474121</ele>
        <time>2013-08-13T08:51:14.000Z</time>
      </trkpt>
      <trkpt lat="48.06339" lon="-4.38632">
        <ele>72.199996948242</ele>
        <time>2013-08-13T08:51:21.000Z</time>
      </trkpt>
      <trkpt lat="48.06334" lon="-4.38633">
        <ele>71.599998474121</ele>
        <time>2013-08-13T08:51:26.000Z</time>
      </trkpt>
      <trkpt lat="48.06329" lon="-4.38631">
        <ele>71.199996948242</ele>
        <time>2013-08-13T08:51:31.000Z</time>
      </trkpt>
      <trkpt lat="48.06325" lon="-4.38629">
        <ele>72.599998474121</ele>
        <time>2013-08-13T08:51:35.000Z</time>
      </trkpt>
      <trkpt lat="48.0632" lon="-4.38627">
        <ele>73</ele>
        <time>2013-08-13T08:51:39.000Z</time>
      </trkpt>
      <trkpt lat="48.0631" lon="-4.38623">
        <ele>73.599998474121</ele>
        <time>2013-08-13T08:51:46.000Z</time>
      </trkpt>
      <trkpt lat="48.06301" lon="-4.38619">
        <ele>74</ele>
        <time>2013-08-13T08:51:53.000Z</time>
      </trkpt>
      <trkpt lat="48.06295" lon="-4.38616">
        <ele>74</ele>
        <time>2013-08-13T08:51:59.000Z</time>
      </trkpt>
      <trkpt lat="48.06289" lon="-4.38612">
        <ele>73.599998474121</ele>
        <time>2013-08-13T08:52:06.000Z</time>
      </trkpt>
      <trkpt lat="48.06287" lon="-4.38613">
        <ele>72.599998474121</ele>
        <time>2013-08-13T08:52:12.000Z</time>
      </trkpt>
      <trkpt lat="48.06285" lon="-4.38616">
        <ele>72.599998474121</ele>
        <time>2013-08-13T08:52:19.000Z</time>
      </trkpt>
      <trkpt lat="48.06286" lon="-4.38617">
        <ele>70.199996948242</ele>
        <time>2013-08-13T08:52:31.000Z</time>
      </trkpt>
      <trkpt lat="48.06281" lon="-4.38612">
        <ele>68.199996948242</ele>
        <time>2013-08-13T08:52:36.000Z</time>
      </trkpt>
      <trkpt lat="48.0628" lon="-4.3861">
        <ele>68.199996948242</ele>
        <time>2013-08-13T08:52:37.000Z</time>
      </trkpt>
      <trkpt lat="48.06277" lon="-4.38609">
        <ele>68.800003051758</ele>
        <time>2013-08-13T08:52:42.000Z</time>
      </trkpt>
      <trkpt lat="48.06275" lon="-4.38609">
        <ele>70.199996948242</ele>
        <time>2013-08-13T08:52:49.000Z</time>
      </trkpt>
      <trkpt lat="48.06273" lon="-4.3861">
        <ele>71.199996948242</ele>
        <time>2013-08-13T08:52:57.000Z</time>
      </trkpt>
      <trkpt lat="48.06272" lon="-4.38609">
        <ele>70.599998474121</ele>
        <time>2013-08-13T08:52:58.000Z</time>
      </trkpt>
      <trkpt lat="48.06261" lon="-4.38598">
        <ele>69.800003051758</ele>
        <time>2013-08-13T08:53:09.000Z</time>
      </trkpt>
      <trkpt lat="48.06251" lon="-4.3859">
        <ele>70.599998474121</ele>
        <time>2013-08-13T08:53:17.000Z</time>
      </trkpt>
      <trkpt lat="48.06243" lon="-4.38583">
        <ele>72.599998474121</ele>
        <time>2013-08-13T08:53:24.000Z</time>
      </trkpt>
      <trkpt lat="48.06238" lon="-4.38579">
        <ele>74</ele>
        <time>2013-08-13T08:53:28.000Z</time>
      </trkpt>
      <trkpt lat="48.06236" lon="-4.38578">
        <ele>75</ele>
        <time>2013-08-13T08:53:30.000Z</time>
      </trkpt>
      <trkpt lat="48.06231" lon="-4.38575">
        <ele>75.599998474121</ele>
        <time>2013-08-13T08:53:35.000Z</time>
      </trkpt>
      <trkpt lat="48.06227" lon="-4.38581">
        <ele>75</ele>
        <time>2013-08-13T08:53:40.000Z</time>
      </trkpt>
      <trkpt lat="48.06224" lon="-4.38589">
        <ele>74.599998474121</ele>
        <time>2013-08-13T08:53:45.000Z</time>
      </trkpt>
      <trkpt lat="48.06219" lon="-4.38596">
        <ele>75.599998474121</ele>
        <time>2013-08-13T08:53:50.000Z</time>
      </trkpt>
      <trkpt lat="48.06218" lon="-4.38598">
        <ele>76</ele>
        <time>2013-08-13T08:53:51.000Z</time>
      </trkpt>
      <trkpt lat="48.0622" lon="-4.38606">
        <ele>73.599998474121</ele>
        <time>2013-08-13T08:53:56.000Z</time>
      </trkpt>
      <trkpt lat="48.0622" lon="-4.38608">
        <ele>73</ele>
        <time>2013-08-13T08:53:57.000Z</time>
      </trkpt>
      <trkpt lat="48.06219" lon="-4.38612">
        <ele>73</ele>
        <time>2013-08-13T08:53:59.000Z</time>
      </trkpt>
      <trkpt lat="48.06213" lon="-4.38624">
        <ele>74.599998474121</ele>
        <time>2013-08-13T08:54:07.000Z</time>
      </trkpt>
      <trkpt lat="48.06209" lon="-4.38636">
        <ele>74.599998474121</ele>
        <time>2013-08-13T08:54:14.000Z</time>
      </trkpt>
      <trkpt lat="48.06204" lon="-4.38645">
        <ele>76.400001525879</ele>
        <time>2013-08-13T08:54:20.000Z</time>
      </trkpt>
      <trkpt lat="48.06203" lon="-4.38647">
        <ele>77</ele>
        <time>2013-08-13T08:54:21.000Z</time>
      </trkpt>
      <trkpt lat="48.06201" lon="-4.38658">
        <ele>77</ele>
        <time>2013-08-13T08:54:27.000Z</time>
      </trkpt>
      <trkpt lat="48.062" lon="-4.38659">
        <ele>77</ele>
        <time>2013-08-13T08:54:28.000Z</time>
      </trkpt>
      <trkpt lat="48.06197" lon="-4.3867">
        <ele>77</ele>
        <time>2013-08-13T08:54:34.000Z</time>
      </trkpt>
      <trkpt lat="48.06192" lon="-4.38683">
        <ele>77.400001525879</ele>
        <time>2013-08-13T08:54:42.000Z</time>
      </trkpt>
      <trkpt lat="48.06191" lon="-4.38686">
        <ele>78</ele>
        <time>2013-08-13T08:54:44.000Z</time>
      </trkpt>
      <trkpt lat="48.06188" lon="-4.38694">
        <ele>78</ele>
        <time>2013-08-13T08:54:49.000Z</time>
      </trkpt>
      <trkpt lat="48.06187" lon="-4.38696">
        <ele>78</ele>
        <time>2013-08-13T08:54:50.000Z</time>
      </trkpt>
      <trkpt lat="48.06186" lon="-4.38708">
        <ele>75</ele>
        <time>2013-08-13T08:54:56.000Z</time>
      </trkpt>
      <trkpt lat="48.06184" lon="-4.38713">
        <ele>73.599998474121</ele>
        <time>2013-08-13T08:54:59.000Z</time>
      </trkpt>
      <trkpt lat="48.0618" lon="-4.38723">
        <ele>73</ele>
        <time>2013-08-13T08:55:05.000Z</time>
      </trkpt>
      <trkpt lat="48.06179" lon="-4.38727">
        <ele>73</ele>
        <time>2013-08-13T08:55:07.000Z</time>
      </trkpt>
      <trkpt lat="48.06177" lon="-4.38734">
        <ele>72.599998474121</ele>
        <time>2013-08-13T08:55:11.000Z</time>
      </trkpt>
      <trkpt lat="48.06175" lon="-4.38741">
        <ele>71.599998474121</ele>
        <time>2013-08-13T08:55:15.000Z</time>
      </trkpt>
      <trkpt lat="48.0617" lon="-4.38754">
        <ele>72.199996948242</ele>
        <time>2013-08-13T08:55:23.000Z</time>
      </trkpt>
      <trkpt lat="48.06165" lon="-4.3877">
        <ele>72.599998474121</ele>
        <time>2013-08-13T08:55:32.000Z</time>
      </trkpt>
      <trkpt lat="48.0616" lon="-4.38785">
        <ele>71.599998474121</ele>
        <time>2013-08-13T08:55:40.000Z</time>
      </trkpt>
      <trkpt lat="48.06156" lon="-4.38797">
        <ele>71.199996948242</ele>
        <time>2013-08-13T08:55:47.000Z</time>
      </trkpt>
      <trkpt lat="48.06154" lon="-4.38806">
        <ele>69.800003051758</ele>
        <time>2013-08-13T08:55:52.000Z</time>
      </trkpt>
      <trkpt lat="48.06152" lon="-4.38816">
        <ele>67.800003051758</ele>
        <time>2013-08-13T08:55:58.000Z</time>
      </trkpt>
      <trkpt lat="48.06148" lon="-4.38827">
        <ele>65.400001525879</ele>
        <time>2013-08-13T08:56:05.000Z</time>
      </trkpt>
      <trkpt lat="48.06144" lon="-4.38838">
        <ele>66.800003051758</ele>
        <time>2013-08-13T08:56:11.000Z</time>
      </trkpt>
      <trkpt lat="48.06141" lon="-4.38847">
        <ele>68.199996948242</ele>
        <time>2013-08-13T08:56:16.000Z</time>
      </trkpt>
      <trkpt lat="48.06139" lon="-4.38857">
        <ele>68.199996948242</ele>
        <time>2013-08-13T08:56:21.000Z</time>
      </trkpt>
      <trkpt lat="48.06136" lon="-4.38865">
        <ele>68.800003051758</ele>
        <time>2013-08-13T08:56:26.000Z</time>
      </trkpt>
      <trkpt lat="48.06131" lon="-4.38882">
        <ele>69.199996948242</ele>
        <time>2013-08-13T08:56:35.000Z</time>
      </trkpt>
      <trkpt lat="48.06128" lon="-4.38893">
        <ele>68.199996948242</ele>
        <time>2013-08-13T08:56:42.000Z</time>
      </trkpt>
      <trkpt lat="48.06126" lon="-4.38901">
        <ele>67.800003051758</ele>
        <time>2013-08-13T08:56:46.000Z</time>
      </trkpt>
      <trkpt lat="48.06123" lon="-4.38912">
        <ele>67.400001525879</ele>
        <time>2013-08-13T08:56:52.000Z</time>
      </trkpt>
      <trkpt lat="48.06121" lon="-4.38921">
        <ele>66.800003051758</ele>
        <time>2013-08-13T08:56:57.000Z</time>
      </trkpt>
      <trkpt lat="48.06116" lon="-4.38939">
        <ele>66.400001525879</ele>
        <time>2013-08-13T08:57:07.000Z</time>
      </trkpt>
      <trkpt lat="48.06111" lon="-4.38952">
        <ele>66.800003051758</ele>
        <time>2013-08-13T08:57:15.000Z</time>
      </trkpt>
      <trkpt lat="48.06107" lon="-4.38966">
        <ele>67.800003051758</ele>
        <time>2013-08-13T08:57:23.000Z</time>
      </trkpt>
      <trkpt lat="48.06103" lon="-4.38977">
        <ele>67.800003051758</ele>
        <time>2013-08-13T08:57:30.000Z</time>
      </trkpt>
      <trkpt lat="48.061" lon="-4.38988">
        <ele>67.400001525879</ele>
        <time>2013-08-13T08:57:36.000Z</time>
      </trkpt>
      <trkpt lat="48.06094" lon="-4.39002">
        <ele>70.199996948242</ele>
        <time>2013-08-13T08:57:45.000Z</time>
      </trkpt>
      <trkpt lat="48.0609" lon="-4.39016">
        <ele>70.599998474121</ele>
        <time>2013-08-13T08:57:53.000Z</time>
      </trkpt>
      <trkpt lat="48.06085" lon="-4.39031">
        <ele>71.599998474121</ele>
        <time>2013-08-13T08:58:01.000Z</time>
      </trkpt>
      <trkpt lat="48.0608" lon="-4.39046">
        <ele>72.599998474121</ele>
        <time>2013-08-13T08:58:09.000Z</time>
      </trkpt>
      <trkpt lat="48.06078" lon="-4.39056">
        <ele>72.599998474121</ele>
        <time>2013-08-13T08:58:14.000Z</time>
      </trkpt>
      <trkpt lat="48.06075" lon="-4.39065">
        <ele>72.599998474121</ele>
        <time>2013-08-13T08:58:18.000Z</time>
      </trkpt>
      <trkpt lat="48.06072" lon="-4.3908">
        <ele>71.599998474121</ele>
        <time>2013-08-13T08:58:27.000Z</time>
      </trkpt>
      <trkpt lat="48.06069" lon="-4.39088">
        <ele>71.599998474121</ele>
        <time>2013-08-13T08:58:32.000Z</time>
      </trkpt>
      <trkpt lat="48.06065" lon="-4.39098">
        <ele>72.599998474121</ele>
        <time>2013-08-13T08:58:38.000Z</time>
      </trkpt>
      <trkpt lat="48.06063" lon="-4.3911">
        <ele>72.199996948242</ele>
        <time>2013-08-13T08:58:44.000Z</time>
      </trkpt>
      <trkpt lat="48.06059" lon="-4.39123">
        <ele>72.599998474121</ele>
        <time>2013-08-13T08:58:52.000Z</time>
      </trkpt>
      <trkpt lat="48.06056" lon="-4.39137">
        <ele>72.599998474121</ele>
        <time>2013-08-13T08:59:00.000Z</time>
      </trkpt>
      <trkpt lat="48.06054" lon="-4.39148">
        <ele>72.599998474121</ele>
        <time>2013-08-13T08:59:06.000Z</time>
      </trkpt>
      <trkpt lat="48.06051" lon="-4.39159">
        <ele>72.599998474121</ele>
        <time>2013-08-13T08:59:13.000Z</time>
      </trkpt>
      <trkpt lat="48.06049" lon="-4.39173">
        <ele>70.599998474121</ele>
        <time>2013-08-13T08:59:21.000Z</time>
      </trkpt>
      <trkpt lat="48.0605" lon="-4.39179">
        <ele>70.199996948242</ele>
        <time>2013-08-13T08:59:24.000Z</time>
      </trkpt>
      <trkpt lat="48.06052" lon="-4.3918">
        <ele>69.199996948242</ele>
        <time>2013-08-13T08:59:31.000Z</time>
      </trkpt>
      <trkpt lat="48.0605" lon="-4.39181">
        <ele>69.199996948242</ele>
        <time>2013-08-13T08:59:35.000Z</time>
      </trkpt>
      <trkpt lat="48.06046" lon="-4.3919">
        <ele>69.199996948242</ele>
        <time>2013-08-13T08:59:42.000Z</time>
      </trkpt>
      <trkpt lat="48.06046" lon="-4.39193">
        <ele>69.199996948242</ele>
        <time>2013-08-13T08:59:44.000Z</time>
      </trkpt>
      <trkpt lat="48.0604" lon="-4.39204">
        <ele>71.199996948242</ele>
        <time>2013-08-13T08:59:51.000Z</time>
      </trkpt>
      <trkpt lat="48.06038" lon="-4.39209">
        <ele>73</ele>
        <time>2013-08-13T08:59:54.000Z</time>
      </trkpt>
      <trkpt lat="48.06034" lon="-4.39228">
        <ele>71.599998474121</ele>
        <time>2013-08-13T09:00:05.000Z</time>
      </trkpt>
      <trkpt lat="48.06031" lon="-4.39247">
        <ele>69.800003051758</ele>
        <time>2013-08-13T09:00:17.000Z</time>
      </trkpt>
      <trkpt lat="48.06027" lon="-4.39265">
        <ele>68.800003051758</ele>
        <time>2013-08-13T09:00:28.000Z</time>
      </trkpt>
      <trkpt lat="48.06026" lon="-4.39267">
        <ele>67.800003051758</ele>
        <time>2013-08-13T09:00:30.000Z</time>
      </trkpt>
      <trkpt lat="48.06027" lon="-4.39269">
        <ele>65.800003051758</ele>
        <time>2013-08-13T09:00:35.000Z</time>
      </trkpt>
      <trkpt lat="48.06026" lon="-4.39277">
        <ele>63.400001525879</ele>
        <time>2013-08-13T09:00:41.000Z</time>
      </trkpt>
      <trkpt lat="48.06026" lon="-4.39278">
        <ele>63</ele>
        <time>2013-08-13T09:00:42.000Z</time>
      </trkpt>
      <trkpt lat="48.06024" lon="-4.39286">
        <ele>62</ele>
        <time>2013-08-13T09:00:47.000Z</time>
      </trkpt>
      <trkpt lat="48.06019" lon="-4.39303">
        <ele>62</ele>
        <time>2013-08-13T09:00:58.000Z</time>
      </trkpt>
      <trkpt lat="48.06017" lon="-4.39314">
        <ele>62</ele>
        <time>2013-08-13T09:01:05.000Z</time>
      </trkpt>
      <trkpt lat="48.06012" lon="-4.39329">
        <ele>63</ele>
        <time>2013-08-13T09:01:14.000Z</time>
      </trkpt>
      <trkpt lat="48.06008" lon="-4.39343">
        <ele>64.400001525879</ele>
        <time>2013-08-13T09:01:22.000Z</time>
      </trkpt>
      <trkpt lat="48.06005" lon="-4.39354">
        <ele>65.400001525879</ele>
        <time>2013-08-13T09:01:29.000Z</time>
      </trkpt>
      <trkpt lat="48.06002" lon="-4.39363">
        <ele>65.800003051758</ele>
        <time>2013-08-13T09:01:35.000Z</time>
      </trkpt>
      <trkpt lat="48.06003" lon="-4.39364">
        <ele>66.400001525879</ele>
        <time>2013-08-13T09:01:42.000Z</time>
      </trkpt>
      <trkpt lat="48.06002" lon="-4.39363">
        <ele>67.400001525879</ele>
        <time>2013-08-13T09:01:59.000Z</time>
      </trkpt>
      <trkpt lat="48.06001" lon="-4.39364">
        <ele>67.800003051758</ele>
        <time>2013-08-13T09:02:06.000Z</time>
      </trkpt>
      <trkpt lat="48.06" lon="-4.39368">
        <ele>67.400001525879</ele>
        <time>2013-08-13T09:02:09.000Z</time>
      </trkpt>
      <trkpt lat="48.05995" lon="-4.39385">
        <ele>66.800003051758</ele>
        <time>2013-08-13T09:02:19.000Z</time>
      </trkpt>
      <trkpt lat="48.05992" lon="-4.394">
        <ele>65.800003051758</ele>
        <time>2013-08-13T09:02:28.000Z</time>
      </trkpt>
      <trkpt lat="48.0599" lon="-4.39407">
        <ele>66.400001525879</ele>
        <time>2013-08-13T09:02:32.000Z</time>
      </trkpt>
      <trkpt lat="48.0599" lon="-4.39415">
        <ele>64.400001525879</ele>
        <time>2013-08-13T09:02:37.000Z</time>
      </trkpt>
      <trkpt lat="48.05989" lon="-4.39419">
        <ele>64.400001525879</ele>
        <time>2013-08-13T09:02:39.000Z</time>
      </trkpt>
      <trkpt lat="48.05988" lon="-4.39426">
        <ele>64</ele>
        <time>2013-08-13T09:02:42.000Z</time>
      </trkpt>
      <trkpt lat="48.05984" lon="-4.39439">
        <ele>64.400001525879</ele>
        <time>2013-08-13T09:02:50.000Z</time>
      </trkpt>
      <trkpt lat="48.05979" lon="-4.39453">
        <ele>64.400001525879</ele>
        <time>2013-08-13T09:02:58.000Z</time>
      </trkpt>
      <trkpt lat="48.05975" lon="-4.39465">
        <ele>65</ele>
        <time>2013-08-13T09:03:04.000Z</time>
      </trkpt>
      <trkpt lat="48.05971" lon="-4.39476">
        <ele>65.400001525879</ele>
        <time>2013-08-13T09:03:11.000Z</time>
      </trkpt>
      <trkpt lat="48.05969" lon="-4.39483">
        <ele>65.400001525879</ele>
        <time>2013-08-13T09:03:15.000Z</time>
      </trkpt>
      <trkpt lat="48.05965" lon="-4.39493">
        <ele>64</ele>
        <time>2013-08-13T09:03:20.000Z</time>
      </trkpt>
      <trkpt lat="48.05965" lon="-4.395">
        <ele>64</ele>
        <time>2013-08-13T09:03:24.000Z</time>
      </trkpt>
      <trkpt lat="48.05963" lon="-4.39515">
        <ele>63</ele>
        <time>2013-08-13T09:03:32.000Z</time>
      </trkpt>
      <trkpt lat="48.05962" lon="-4.39519">
        <ele>63.400001525879</ele>
        <time>2013-08-13T09:03:34.000Z</time>
      </trkpt>
      <trkpt lat="48.0596" lon="-4.39527">
        <ele>65.800003051758</ele>
        <time>2013-08-13T09:03:40.000Z</time>
      </trkpt>
      <trkpt lat="48.05957" lon="-4.39535">
        <ele>67.800003051758</ele>
        <time>2013-08-13T09:03:45.000Z</time>
      </trkpt>
      <trkpt lat="48.05952" lon="-4.39548">
        <ele>70.599998474121</ele>
        <time>2013-08-13T09:03:53.000Z</time>
      </trkpt>
      <trkpt lat="48.05949" lon="-4.3956">
        <ele>71.199996948242</ele>
        <time>2013-08-13T09:04:00.000Z</time>
      </trkpt>
      <trkpt lat="48.05947" lon="-4.39571">
        <ele>71.199996948242</ele>
        <time>2013-08-13T09:04:07.000Z</time>
      </trkpt>
      <trkpt lat="48.05945" lon="-4.39589">
        <ele>68.800003051758</ele>
        <time>2013-08-13T09:04:17.000Z</time>
      </trkpt>
      <trkpt lat="48.05945" lon="-4.39592">
        <ele>68.199996948242</ele>
        <time>2013-08-13T09:04:19.000Z</time>
      </trkpt>
      <trkpt lat="48.05942" lon="-4.396">
        <ele>69.199996948242</ele>
        <time>2013-08-13T09:04:24.000Z</time>
      </trkpt>
      <trkpt lat="48.0594" lon="-4.39603">
        <ele>70.199996948242</ele>
        <time>2013-08-13T09:04:26.000Z</time>
      </trkpt>
      <trkpt lat="48.05937" lon="-4.3961">
        <ele>71.599998474121</ele>
        <time>2013-08-13T09:04:30.000Z</time>
      </trkpt>
      <trkpt lat="48.05936" lon="-4.39615">
        <ele>71.599998474121</ele>
        <time>2013-08-13T09:04:33.000Z</time>
      </trkpt>
      <trkpt lat="48.05934" lon="-4.39628">
        <ele>70.199996948242</ele>
        <time>2013-08-13T09:04:40.000Z</time>
      </trkpt>
      <trkpt lat="48.05934" lon="-4.39631">
        <ele>69.800003051758</ele>
        <time>2013-08-13T09:04:42.000Z</time>
      </trkpt>
      <trkpt lat="48.05931" lon="-4.39643">
        <ele>68.800003051758</ele>
        <time>2013-08-13T09:04:48.000Z</time>
      </trkpt>
      <trkpt lat="48.05928" lon="-4.39655">
        <ele>67.800003051758</ele>
        <time>2013-08-13T09:04:55.000Z</time>
      </trkpt>
      <trkpt lat="48.05924" lon="-4.39666">
        <ele>67.400001525879</ele>
        <time>2013-08-13T09:05:01.000Z</time>
      </trkpt>
      <trkpt lat="48.05922" lon="-4.39674">
        <ele>67.400001525879</ele>
        <time>2013-08-13T09:05:06.000Z</time>
      </trkpt>
      <trkpt lat="48.0592" lon="-4.39688">
        <ele>66.400001525879</ele>
        <time>2013-08-13T09:05:14.000Z</time>
      </trkpt>
      <trkpt lat="48.05917" lon="-4.39696">
        <ele>67.400001525879</ele>
        <time>2013-08-13T09:05:19.000Z</time>
      </trkpt>
      <trkpt lat="48.05917" lon="-4.39703">
        <ele>67.400001525879</ele>
        <time>2013-08-13T09:05:23.000Z</time>
      </trkpt>
      <trkpt lat="48.05914" lon="-4.39715">
        <ele>65.800003051758</ele>
        <time>2013-08-13T09:05:30.000Z</time>
      </trkpt>
      <trkpt lat="48.05913" lon="-4.39719">
        <ele>65.800003051758</ele>
        <time>2013-08-13T09:05:32.000Z</time>
      </trkpt>
      <trkpt lat="48.0591" lon="-4.39732">
        <ele>66.400001525879</ele>
        <time>2013-08-13T09:05:39.000Z</time>
      </trkpt>
      <trkpt lat="48.05911" lon="-4.39741">
        <ele>67.400001525879</ele>
        <time>2013-08-13T09:05:45.000Z</time>
      </trkpt>
      <trkpt lat="48.05916" lon="-4.39748">
        <ele>66.800003051758</ele>
        <time>2013-08-13T09:05:51.000Z</time>
      </trkpt>
      <trkpt lat="48.05925" lon="-4.3975">
        <ele>65.400001525879</ele>
        <time>2013-08-13T09:05:58.000Z</time>
      </trkpt>
      <trkpt lat="48.05933" lon="-4.39751">
        <ele>65.400001525879</ele>
        <time>2013-08-13T09:06:04.000Z</time>
      </trkpt>
      <trkpt lat="48.0594" lon="-4.39752">
        <ele>64.400001525879</ele>
        <time>2013-08-13T09:06:10.000Z</time>
      </trkpt>
      <trkpt lat="48.05947" lon="-4.39754">
        <ele>63.400001525879</ele>
        <time>2013-08-13T09:06:16.000Z</time>
      </trkpt>
      <trkpt lat="48.05952" lon="-4.39758">
        <ele>63</ele>
        <time>2013-08-13T09:06:22.000Z</time>
      </trkpt>
      <trkpt lat="48.05961" lon="-4.39765">
        <ele>62</ele>
        <time>2013-08-13T09:06:30.000Z</time>
      </trkpt>
      <trkpt lat="48.05969" lon="-4.39771">
        <ele>62.599998474121</ele>
        <time>2013-08-13T09:06:35.000Z</time>
      </trkpt>
      <trkpt lat="48.05975" lon="-4.39778">
        <ele>62</ele>
        <time>2013-08-13T09:06:41.000Z</time>
      </trkpt>
      <trkpt lat="48.05984" lon="-4.39784">
        <ele>59.599998474121</ele>
        <time>2013-08-13T09:06:49.000Z</time>
      </trkpt>
      <trkpt lat="48.05988" lon="-4.39791">
        <ele>56.799999237061</ele>
        <time>2013-08-13T09:06:55.000Z</time>
      </trkpt>
      <trkpt lat="48.05987" lon="-4.39799">
        <ele>55.799999237061</ele>
        <time>2013-08-13T09:07:00.000Z</time>
      </trkpt>
      <trkpt lat="48.05984" lon="-4.39813">
        <ele>55.400001525879</ele>
        <time>2013-08-13T09:07:09.000Z</time>
      </trkpt>
      <trkpt lat="48.05984" lon="-4.39815">
        <ele>55.400001525879</ele>
        <time>2013-08-13T09:07:10.000Z</time>
      </trkpt>
      <trkpt lat="48.05982" lon="-4.39816">
        <ele>56.200000762939</ele>
        <time>2013-08-13T09:07:16.000Z</time>
      </trkpt>
      <trkpt lat="48.05979" lon="-4.39824">
        <ele>57.200000762939</ele>
        <time>2013-08-13T09:07:25.000Z</time>
      </trkpt>
      <trkpt lat="48.05979" lon="-4.39826">
        <ele>57.200000762939</ele>
        <time>2013-08-13T09:07:26.000Z</time>
      </trkpt>
      <trkpt lat="48.0598" lon="-4.39834">
        <ele>57.200000762939</ele>
        <time>2013-08-13T09:07:32.000Z</time>
      </trkpt>
      <trkpt lat="48.05978" lon="-4.39839">
        <ele>58.200000762939</ele>
        <time>2013-08-13T09:07:37.000Z</time>
      </trkpt>
      <trkpt lat="48.05978" lon="-4.39843">
        <ele>58.599998474121</ele>
        <time>2013-08-13T09:07:42.000Z</time>
      </trkpt>
      <trkpt lat="48.05978" lon="-4.39847">
        <ele>60.200000762939</ele>
        <time>2013-08-13T09:07:47.000Z</time>
      </trkpt>
      <trkpt lat="48.05981" lon="-4.39857">
        <ele>60.599998474121</ele>
        <time>2013-08-13T09:07:53.000Z</time>
      </trkpt>
      <trkpt lat="48.05982" lon="-4.39858">
        <ele>61</ele>
        <time>2013-08-13T09:07:54.000Z</time>
      </trkpt>
      <trkpt lat="48.05988" lon="-4.3987">
        <ele>61</ele>
        <time>2013-08-13T09:08:02.000Z</time>
      </trkpt>
      <trkpt lat="48.05991" lon="-4.39876">
        <ele>61.599998474121</ele>
        <time>2013-08-13T09:08:08.000Z</time>
      </trkpt>
      <trkpt lat="48.05994" lon="-4.39884">
        <ele>61.599998474121</ele>
        <time>2013-08-13T09:08:14.000Z</time>
      </trkpt>
      <trkpt lat="48.05995" lon="-4.39886">
        <ele>61.599998474121</ele>
        <time>2013-08-13T09:08:15.000Z</time>
      </trkpt>
      <trkpt lat="48.05997" lon="-4.39891">
        <ele>62</ele>
        <time>2013-08-13T09:08:20.000Z</time>
      </trkpt>
      <trkpt lat="48.05996" lon="-4.39901">
        <ele>61.599998474121</ele>
        <time>2013-08-13T09:08:26.000Z</time>
      </trkpt>
      <trkpt lat="48.05994" lon="-4.39912">
        <ele>61.599998474121</ele>
        <time>2013-08-13T09:08:32.000Z</time>
      </trkpt>
      <trkpt lat="48.05993" lon="-4.39916">
        <ele>61.599998474121</ele>
        <time>2013-08-13T09:08:34.000Z</time>
      </trkpt>
      <trkpt lat="48.05993" lon="-4.39924">
        <ele>60.599998474121</ele>
        <time>2013-08-13T09:08:38.000Z</time>
      </trkpt>
      <trkpt lat="48.05992" lon="-4.39937">
        <ele>61</ele>
        <time>2013-08-13T09:08:45.000Z</time>
      </trkpt>
      <trkpt lat="48.05989" lon="-4.39948">
        <ele>61.599998474121</ele>
        <time>2013-08-13T09:08:51.000Z</time>
      </trkpt>
      <trkpt lat="48.05988" lon="-4.39957">
        <ele>61</ele>
        <time>2013-08-13T09:08:55.000Z</time>
      </trkpt>
      <trkpt lat="48.05987" lon="-4.39964">
        <ele>61</ele>
        <time>2013-08-13T09:08:58.000Z</time>
      </trkpt>
      <trkpt lat="48.05986" lon="-4.39977">
        <ele>59.599998474121</ele>
        <time>2013-08-13T09:09:05.000Z</time>
      </trkpt>
      <trkpt lat="48.05986" lon="-4.39983">
        <ele>58.599998474121</ele>
        <time>2013-08-13T09:09:08.000Z</time>
      </trkpt>
      <trkpt lat="48.05985" lon="-4.39993">
        <ele>57.200000762939</ele>
        <time>2013-08-13T09:09:14.000Z</time>
      </trkpt>
      <trkpt lat="48.05983" lon="-4.40003">
        <ele>57.200000762939</ele>
        <time>2013-08-13T09:09:20.000Z</time>
      </trkpt>
      <trkpt lat="48.05982" lon="-4.40011">
        <ele>57.799999237061</ele>
        <time>2013-08-13T09:09:25.000Z</time>
      </trkpt>
      <trkpt lat="48.05981" lon="-4.4002">
        <ele>59.599998474121</ele>
        <time>2013-08-13T09:09:30.000Z</time>
      </trkpt>
      <trkpt lat="48.05979" lon="-4.40028">
        <ele>60.200000762939</ele>
        <time>2013-08-13T09:09:35.000Z</time>
      </trkpt>
      <trkpt lat="48.05978" lon="-4.40038">
        <ele>60.200000762939</ele>
        <time>2013-08-13T09:09:41.000Z</time>
      </trkpt>
      <trkpt lat="48.05978" lon="-4.40042">
        <ele>60.599998474121</ele>
        <time>2013-08-13T09:09:43.000Z</time>
      </trkpt>
      <trkpt lat="48.05977" lon="-4.40049">
        <ele>61</ele>
        <time>2013-08-13T09:09:47.000Z</time>
      </trkpt>
      <trkpt lat="48.05975" lon="-4.40065">
        <ele>62.599998474121</ele>
        <time>2013-08-13T09:09:56.000Z</time>
      </trkpt>
      <trkpt lat="48.05975" lon="-4.40066">
        <ele>62.599998474121</ele>
        <time>2013-08-13T09:09:57.000Z</time>
      </trkpt>
      <trkpt lat="48.05974" lon="-4.40075">
        <ele>62</ele>
        <time>2013-08-13T09:10:02.000Z</time>
      </trkpt>
      <trkpt lat="48.05973" lon="-4.40086">
        <ele>62</ele>
        <time>2013-08-13T09:10:09.000Z</time>
      </trkpt>
      <trkpt lat="48.05972" lon="-4.40095">
        <ele>62.599998474121</ele>
        <time>2013-08-13T09:10:14.000Z</time>
      </trkpt>
      <trkpt lat="48.05971" lon="-4.40107">
        <ele>61</ele>
        <time>2013-08-13T09:10:21.000Z</time>
      </trkpt>
      <trkpt lat="48.05971" lon="-4.40112">
        <ele>59.599998474121</ele>
        <time>2013-08-13T09:10:27.000Z</time>
      </trkpt>
      <trkpt lat="48.05971" lon="-4.40126">
        <ele>56.799999237061</ele>
        <time>2013-08-13T09:10:34.000Z</time>
      </trkpt>
      <trkpt lat="48.0597" lon="-4.40136">
        <ele>55.400001525879</ele>
        <time>2013-08-13T09:10:39.000Z</time>
      </trkpt>
      <trkpt lat="48.0597" lon="-4.40138">
        <ele>54.799999237061</ele>
        <time>2013-08-13T09:10:40.000Z</time>
      </trkpt>
      <trkpt lat="48.05971" lon="-4.40151">
        <ele>52.400001525879</ele>
        <time>2013-08-13T09:10:46.000Z</time>
      </trkpt>
      <trkpt lat="48.0597" lon="-4.40161">
        <ele>52</ele>
        <time>2013-08-13T09:10:52.000Z</time>
      </trkpt>
      <trkpt lat="48.05969" lon="-4.40169">
        <ele>51.400001525879</ele>
        <time>2013-08-13T09:10:57.000Z</time>
      </trkpt>
      <trkpt lat="48.05966" lon="-4.40177">
        <ele>52.400001525879</ele>
        <time>2013-08-13T09:11:02.000Z</time>
      </trkpt>
      <trkpt lat="48.05966" lon="-4.40189">
        <ele>50</ele>
        <time>2013-08-13T09:11:09.000Z</time>
      </trkpt>
      <trkpt lat="48.05966" lon="-4.40203">
        <ele>46.599998474121</ele>
        <time>2013-08-13T09:11:17.000Z</time>
      </trkpt>
      <trkpt lat="48.05967" lon="-4.40216">
        <ele>44.799999237061</ele>
        <time>2013-08-13T09:11:24.000Z</time>
      </trkpt>
      <trkpt lat="48.05967" lon="-4.40219">
        <ele>44.799999237061</ele>
        <time>2013-08-13T09:11:26.000Z</time>
      </trkpt>
      <trkpt lat="48.05967" lon="-4.40227">
        <ele>42.400001525879</ele>
        <time>2013-08-13T09:11:30.000Z</time>
      </trkpt>
      <trkpt lat="48.05969" lon="-4.40234">
        <ele>41.400001525879</ele>
        <time>2013-08-13T09:11:34.000Z</time>
      </trkpt>
      <trkpt lat="48.0597" lon="-4.40236">
        <ele>40.799999237061</ele>
        <time>2013-08-13T09:11:36.000Z</time>
      </trkpt>
      <trkpt lat="48.05973" lon="-4.40241">
        <ele>40</ele>
        <time>2013-08-13T09:11:40.000Z</time>
      </trkpt>
      <trkpt lat="48.05976" lon="-4.40244">
        <ele>40</ele>
        <time>2013-08-13T09:11:43.000Z</time>
      </trkpt>
      <trkpt lat="48.05984" lon="-4.40253">
        <ele>40</ele>
        <time>2013-08-13T09:11:52.000Z</time>
      </trkpt>
      <trkpt lat="48.0599" lon="-4.40262">
        <ele>42.400001525879</ele>
        <time>2013-08-13T09:11:59.000Z</time>
      </trkpt>
      <trkpt lat="48.05995" lon="-4.40271">
        <ele>44.200000762939</ele>
        <time>2013-08-13T09:12:06.000Z</time>
      </trkpt>
      <trkpt lat="48.06" lon="-4.40279">
        <ele>44.799999237061</ele>
        <time>2013-08-13T09:12:13.000Z</time>
      </trkpt>
      <trkpt lat="48.06006" lon="-4.4029">
        <ele>43.200000762939</ele>
        <time>2013-08-13T09:12:20.000Z</time>
      </trkpt>
      <trkpt lat="48.06011" lon="-4.40297">
        <ele>44.200000762939</ele>
        <time>2013-08-13T09:12:26.000Z</time>
      </trkpt>
      <trkpt lat="48.06012" lon="-4.40299">
        <ele>44.799999237061</ele>
        <time>2013-08-13T09:12:27.000Z</time>
      </trkpt>
      <trkpt lat="48.06014" lon="-4.40302">
        <ele>45.599998474121</ele>
        <time>2013-08-13T09:12:30.000Z</time>
      </trkpt>
      <trkpt lat="48.06017" lon="-4.40308">
        <ele>46.200000762939</ele>
        <time>2013-08-13T09:12:37.000Z</time>
      </trkpt>
      <trkpt lat="48.06018" lon="-4.40309">
        <ele>46.599998474121</ele>
        <time>2013-08-13T09:12:38.000Z</time>
      </trkpt>
      <trkpt lat="48.0602" lon="-4.40313">
        <ele>48.200000762939</ele>
        <time>2013-08-13T09:12:42.000Z</time>
      </trkpt>
      <trkpt lat="48.06024" lon="-4.40322">
        <ele>49</ele>
        <time>2013-08-13T09:12:48.000Z</time>
      </trkpt>
      <trkpt lat="48.06025" lon="-4.40323">
        <ele>49</ele>
        <time>2013-08-13T09:12:49.000Z</time>
      </trkpt>
      <trkpt lat="48.06028" lon="-4.40329">
        <ele>49</ele>
        <time>2013-08-13T09:12:53.000Z</time>
      </trkpt>
      <trkpt lat="48.06031" lon="-4.40337">
        <ele>49.599998474121</ele>
        <time>2013-08-13T09:12:58.000Z</time>
      </trkpt>
      <trkpt lat="48.06029" lon="-4.40342">
        <ele>51</ele>
        <time>2013-08-13T09:13:03.000Z</time>
      </trkpt>
      <trkpt lat="48.06022" lon="-4.40348">
        <ele>53.400001525879</ele>
        <time>2013-08-13T09:13:09.000Z</time>
      </trkpt>
      <trkpt lat="48.0602" lon="-4.40349">
        <ele>53.400001525879</ele>
        <time>2013-08-13T09:13:11.000Z</time>
      </trkpt>
      <trkpt lat="48.06014" lon="-4.40356">
        <ele>54.400001525879</ele>
        <time>2013-08-13T09:13:17.000Z</time>
      </trkpt>
      <trkpt lat="48.06012" lon="-4.40358">
        <ele>54.400001525879</ele>
        <time>2013-08-13T09:13:19.000Z</time>
      </trkpt>
      <trkpt lat="48.06009" lon="-4.40362">
        <ele>55.400001525879</ele>
        <time>2013-08-13T09:13:22.000Z</time>
      </trkpt>
      <trkpt lat="48.06002" lon="-4.40369">
        <ele>55.400001525879</ele>
        <time>2013-08-13T09:13:29.000Z</time>
      </trkpt>
      <trkpt lat="48.05997" lon="-4.40373">
        <ele>54.799999237061</ele>
        <time>2013-08-13T09:13:34.000Z</time>
      </trkpt>
      <trkpt lat="48.05991" lon="-4.40378">
        <ele>54.799999237061</ele>
        <time>2013-08-13T09:13:40.000Z</time>
      </trkpt>
      <trkpt lat="48.05985" lon="-4.40385">
        <ele>55.400001525879</ele>
        <time>2013-08-13T09:13:46.000Z</time>
      </trkpt>
      <trkpt lat="48.05982" lon="-4.4039">
        <ele>55.400001525879</ele>
        <time>2013-08-13T09:13:49.000Z</time>
      </trkpt>
      <trkpt lat="48.05975" lon="-4.40397">
        <ele>56.799999237061</ele>
        <time>2013-08-13T09:13:55.000Z</time>
      </trkpt>
      <trkpt lat="48.05971" lon="-4.40404">
        <ele>55.799999237061</ele>
        <time>2013-08-13T09:14:02.000Z</time>
      </trkpt>
      <trkpt lat="48.05965" lon="-4.4041">
        <ele>54.799999237061</ele>
        <time>2013-08-13T09:14:09.000Z</time>
      </trkpt>
      <trkpt lat="48.05962" lon="-4.40415">
        <ele>53.799999237061</ele>
        <time>2013-08-13T09:14:13.000Z</time>
      </trkpt>
      <trkpt lat="48.05958" lon="-4.40416">
        <ele>54.799999237061</ele>
        <time>2013-08-13T09:14:16.000Z</time>
      </trkpt>
      <trkpt lat="48.05953" lon="-4.40424">
        <ele>54.799999237061</ele>
        <time>2013-08-13T09:14:21.000Z</time>
      </trkpt>
      <trkpt lat="48.0595" lon="-4.40429">
        <ele>54.799999237061</ele>
        <time>2013-08-13T09:14:26.000Z</time>
      </trkpt>
      <trkpt lat="48.05947" lon="-4.40434">
        <ele>51.400001525879</ele>
        <time>2013-08-13T09:14:32.000Z</time>
      </trkpt>
      <trkpt lat="48.05946" lon="-4.40436">
        <ele>51.400001525879</ele>
        <time>2013-08-13T09:14:33.000Z</time>
      </trkpt>
      <trkpt lat="48.05942" lon="-4.40442">
        <ele>51.400001525879</ele>
        <time>2013-08-13T09:14:37.000Z</time>
      </trkpt>
      <trkpt lat="48.05939" lon="-4.40449">
        <ele>50.599998474121</ele>
        <time>2013-08-13T09:14:42.000Z</time>
      </trkpt>
      <trkpt lat="48.05937" lon="-4.40451">
        <ele>51</ele>
        <time>2013-08-13T09:14:45.000Z</time>
      </trkpt>
      <trkpt lat="48.05933" lon="-4.40458">
        <ele>49.599998474121</ele>
        <time>2013-08-13T09:14:51.000Z</time>
      </trkpt>
      <trkpt lat="48.05931" lon="-4.40463">
        <ele>48.599998474121</ele>
        <time>2013-08-13T09:14:55.000Z</time>
      </trkpt>
      <trkpt lat="48.05926" lon="-4.4047">
        <ele>47.200000762939</ele>
        <time>2013-08-13T09:15:02.000Z</time>
      </trkpt>
      <trkpt lat="48.05919" lon="-4.4048">
        <ele>48.200000762939</ele>
        <time>2013-08-13T09:15:09.000Z</time>
      </trkpt>
      <trkpt lat="48.05916" lon="-4.40485">
        <ele>48.200000762939</ele>
        <time>2013-08-13T09:15:12.000Z</time>
      </trkpt>
      <trkpt lat="48.05913" lon="-4.4049">
        <ele>48.599998474121</ele>
        <time>2013-08-13T09:15:16.000Z</time>
      </trkpt>
      <trkpt lat="48.05909" lon="-4.40495">
        <ele>49.599998474121</ele>
        <time>2013-08-13T09:15:20.000Z</time>
      </trkpt>
      <trkpt lat="48.05905" lon="-4.40503">
        <ele>50.599998474121</ele>
        <time>2013-08-13T09:15:26.000Z</time>
      </trkpt>
      <trkpt lat="48.05901" lon="-4.40512">
        <ele>50.599998474121</ele>
        <time>2013-08-13T09:15:32.000Z</time>
      </trkpt>
      <trkpt lat="48.05896" lon="-4.40517">
        <ele>52.400001525879</ele>
        <time>2013-08-13T09:15:37.000Z</time>
      </trkpt>
      <trkpt lat="48.05894" lon="-4.40523">
        <ele>51.400001525879</ele>
        <time>2013-08-13T09:15:40.000Z</time>
      </trkpt>
      <trkpt lat="48.05892" lon="-4.4053">
        <ele>51</ele>
        <time>2013-08-13T09:15:45.000Z</time>
      </trkpt>
      <trkpt lat="48.05889" lon="-4.40541">
        <ele>46.599998474121</ele>
        <time>2013-08-13T09:15:51.000Z</time>
      </trkpt>
      <trkpt lat="48.05886" lon="-4.4055">
        <ele>45.599998474121</ele>
        <time>2013-08-13T09:15:58.000Z</time>
      </trkpt>
      <trkpt lat="48.05884" lon="-4.40564">
        <ele>42.799999237061</ele>
        <time>2013-08-13T09:16:07.000Z</time>
      </trkpt>
      <trkpt lat="48.05882" lon="-4.4057">
        <ele>41.400001525879</ele>
        <time>2013-08-13T09:16:11.000Z</time>
      </trkpt>
      <trkpt lat="48.05882" lon="-4.40581">
        <ele>38.400001525879</ele>
        <time>2013-08-13T09:16:18.000Z</time>
      </trkpt>
      <trkpt lat="48.05882" lon="-4.40589">
        <ele>36</ele>
        <time>2013-08-13T09:16:23.000Z</time>
      </trkpt>
      <trkpt lat="48.05881" lon="-4.40599">
        <ele>35.599998474121</ele>
        <time>2013-08-13T09:16:28.000Z</time>
      </trkpt>
      <trkpt lat="48.05881" lon="-4.40601">
        <ele>35.599998474121</ele>
        <time>2013-08-13T09:16:30.000Z</time>
      </trkpt>
      <trkpt lat="48.05878" lon="-4.40608">
        <ele>36.599998474121</ele>
        <time>2013-08-13T09:16:35.000Z</time>
      </trkpt>
      <trkpt lat="48.05877" lon="-4.40611">
        <ele>38</ele>
        <time>2013-08-13T09:16:37.000Z</time>
      </trkpt>
      <trkpt lat="48.05876" lon="-4.40625">
        <ele>38</ele>
        <time>2013-08-13T09:16:44.000Z</time>
      </trkpt>
      <trkpt lat="48.05876" lon="-4.40631">
        <ele>37</ele>
        <time>2013-08-13T09:16:47.000Z</time>
      </trkpt>
      <trkpt lat="48.05877" lon="-4.40641">
        <ele>36</ele>
        <time>2013-08-13T09:16:52.000Z</time>
      </trkpt>
      <trkpt lat="48.05879" lon="-4.40648">
        <ele>34.599998474121</ele>
        <time>2013-08-13T09:16:56.000Z</time>
      </trkpt>
      <trkpt lat="48.0588" lon="-4.40657">
        <ele>34.200000762939</ele>
        <time>2013-08-13T09:17:01.000Z</time>
      </trkpt>
      <trkpt lat="48.05883" lon="-4.40665">
        <ele>31.799999237061</ele>
        <time>2013-08-13T09:17:06.000Z</time>
      </trkpt>
      <trkpt lat="48.05885" lon="-4.40676">
        <ele>31.799999237061</ele>
        <time>2013-08-13T09:17:13.000Z</time>
      </trkpt>
      <trkpt lat="48.05885" lon="-4.40681">
        <ele>31.799999237061</ele>
        <time>2013-08-13T09:17:16.000Z</time>
      </trkpt>
      <trkpt lat="48.05887" lon="-4.40692">
        <ele>31.799999237061</ele>
        <time>2013-08-13T09:17:22.000Z</time>
      </trkpt>
      <trkpt lat="48.05888" lon="-4.407">
        <ele>32.799999237061</ele>
        <time>2013-08-13T09:17:27.000Z</time>
      </trkpt>
      <trkpt lat="48.0589" lon="-4.4071">
        <ele>35.200000762939</ele>
        <time>2013-08-13T09:17:33.000Z</time>
      </trkpt>
      <trkpt lat="48.05891" lon="-4.40712">
        <ele>35.200000762939</ele>
        <time>2013-08-13T09:17:35.000Z</time>
      </trkpt>
      <trkpt lat="48.05893" lon="-4.40714">
        <ele>35.200000762939</ele>
        <time>2013-08-13T09:17:37.000Z</time>
      </trkpt>
      <trkpt lat="48.05895" lon="-4.40724">
        <ele>35.200000762939</ele>
        <time>2013-08-13T09:17:42.000Z</time>
      </trkpt>
      <trkpt lat="48.05899" lon="-4.40738">
        <ele>35.200000762939</ele>
        <time>2013-08-13T09:17:49.000Z</time>
      </trkpt>
      <trkpt lat="48.059" lon="-4.40745">
        <ele>35.200000762939</ele>
        <time>2013-08-13T09:17:53.000Z</time>
      </trkpt>
      <trkpt lat="48.05901" lon="-4.40748">
        <ele>35.599998474121</ele>
        <time>2013-08-13T09:17:55.000Z</time>
      </trkpt>
      <trkpt lat="48.059" lon="-4.40754">
        <ele>36.599998474121</ele>
        <time>2013-08-13T09:17:59.000Z</time>
      </trkpt>
      <trkpt lat="48.05897" lon="-4.40757">
        <ele>37</ele>
        <time>2013-08-13T09:18:02.000Z</time>
      </trkpt>
      <trkpt lat="48.0589" lon="-4.40758">
        <ele>40.400001525879</ele>
        <time>2013-08-13T09:18:07.000Z</time>
      </trkpt>
      <trkpt lat="48.05886" lon="-4.4076">
        <ele>43.200000762939</ele>
        <time>2013-08-13T09:18:11.000Z</time>
      </trkpt>
      <trkpt lat="48.05879" lon="-4.40762">
        <ele>44.799999237061</ele>
        <time>2013-08-13T09:18:15.000Z</time>
      </trkpt>
      <trkpt lat="48.05871" lon="-4.40764">
        <ele>45.599998474121</ele>
        <time>2013-08-13T09:18:22.000Z</time>
      </trkpt>
      <trkpt lat="48.05867" lon="-4.40766">
        <ele>45.200000762939</ele>
        <time>2013-08-13T09:18:26.000Z</time>
      </trkpt>
      <trkpt lat="48.05864" lon="-4.40767">
        <ele>46.200000762939</ele>
        <time>2013-08-13T09:18:32.000Z</time>
      </trkpt>
      <trkpt lat="48.05863" lon="-4.40767">
        <ele>46.599998474121</ele>
        <time>2013-08-13T09:18:38.000Z</time>
      </trkpt>
      <trkpt lat="48.0586" lon="-4.40769">
        <ele>47.599998474121</ele>
        <time>2013-08-13T09:18:43.000Z</time>
      </trkpt>
      <trkpt lat="48.05851" lon="-4.4077">
        <ele>48.200000762939</ele>
        <time>2013-08-13T09:18:50.000Z</time>
      </trkpt>
      <trkpt lat="48.05845" lon="-4.40771">
        <ele>47.599998474121</ele>
        <time>2013-08-13T09:18:56.000Z</time>
      </trkpt>
      <trkpt lat="48.05835" lon="-4.40773">
        <ele>48.200000762939</ele>
        <time>2013-08-13T09:19:04.000Z</time>
      </trkpt>
      <trkpt lat="48.05828" lon="-4.40775">
        <ele>50</ele>
        <time>2013-08-13T09:19:10.000Z</time>
      </trkpt>
      <trkpt lat="48.05824" lon="-4.40775">
        <ele>50.599998474121</ele>
        <time>2013-08-13T09:19:13.000Z</time>
      </trkpt>
      <trkpt lat="48.05817" lon="-4.40776">
        <ele>50.599998474121</ele>
        <time>2013-08-13T09:19:19.000Z</time>
      </trkpt>
      <trkpt lat="48.05815" lon="-4.40776">
        <ele>50</ele>
        <time>2013-08-13T09:19:21.000Z</time>
      </trkpt>
      <trkpt lat="48.05808" lon="-4.40776">
        <ele>49.599998474121</ele>
        <time>2013-08-13T09:19:27.000Z</time>
      </trkpt>
      <trkpt lat="48.05802" lon="-4.40775">
        <ele>48.200000762939</ele>
        <time>2013-08-13T09:19:32.000Z</time>
      </trkpt>
      <trkpt lat="48.05796" lon="-4.40775">
        <ele>46.599998474121</ele>
        <time>2013-08-13T09:19:39.000Z</time>
      </trkpt>
      <trkpt lat="48.05792" lon="-4.40776">
        <ele>46.200000762939</ele>
        <time>2013-08-13T09:19:44.000Z</time>
      </trkpt>
      <trkpt lat="48.05783" lon="-4.40777">
        <ele>47.200000762939</ele>
        <time>2013-08-13T09:19:51.000Z</time>
      </trkpt>
      <trkpt lat="48.05777" lon="-4.40778">
        <ele>47.599998474121</ele>
        <time>2013-08-13T09:19:55.000Z</time>
      </trkpt>
      <trkpt lat="48.05768" lon="-4.40779">
        <ele>50.599998474121</ele>
        <time>2013-08-13T09:20:02.000Z</time>
      </trkpt>
      <trkpt lat="48.05761" lon="-4.40783">
        <ele>50.599998474121</ele>
        <time>2013-08-13T09:20:08.000Z</time>
      </trkpt>
      <trkpt lat="48.05753" lon="-4.40782">
        <ele>52</ele>
        <time>2013-08-13T09:20:15.000Z</time>
      </trkpt>
      <trkpt lat="48.05749" lon="-4.40781">
        <ele>52</ele>
        <time>2013-08-13T09:20:19.000Z</time>
      </trkpt>
      <trkpt lat="48.0574" lon="-4.40775">
        <ele>53</ele>
        <time>2013-08-13T09:20:27.000Z</time>
      </trkpt>
      <trkpt lat="48.05733" lon="-4.40768">
        <ele>54.799999237061</ele>
        <time>2013-08-13T09:20:34.000Z</time>
      </trkpt>
      <trkpt lat="48.05727" lon="-4.40762">
        <ele>54.799999237061</ele>
        <time>2013-08-13T09:20:41.000Z</time>
      </trkpt>
      <trkpt lat="48.05722" lon="-4.40755">
        <ele>56.200000762939</ele>
        <time>2013-08-13T09:20:47.000Z</time>
      </trkpt>
      <trkpt lat="48.05717" lon="-4.40749">
        <ele>57.200000762939</ele>
        <time>2013-08-13T09:20:53.000Z</time>
      </trkpt>
      <trkpt lat="48.05711" lon="-4.40742">
        <ele>57.200000762939</ele>
        <time>2013-08-13T09:21:00.000Z</time>
      </trkpt>
      <trkpt lat="48.0571" lon="-4.40742">
        <ele>57.200000762939</ele>
        <time>2013-08-13T09:21:01.000Z</time>
      </trkpt>
      <trkpt lat="48.05706" lon="-4.40738">
        <ele>57.200000762939</ele>
        <time>2013-08-13T09:21:06.000Z</time>
      </trkpt>
      <trkpt lat="48.05701" lon="-4.40734">
        <ele>57.200000762939</ele>
        <time>2013-08-13T09:21:12.000Z</time>
      </trkpt>
      <trkpt lat="48.05696" lon="-4.40729">
        <ele>58.200000762939</ele>
        <time>2013-08-13T09:21:18.000Z</time>
      </trkpt>
      <trkpt lat="48.05692" lon="-4.40723">
        <ele>59.200000762939</ele>
        <time>2013-08-13T09:21:24.000Z</time>
      </trkpt>
      <trkpt lat="48.05688" lon="-4.40717">
        <ele>59.200000762939</ele>
        <time>2013-08-13T09:21:30.000Z</time>
      </trkpt>
      <trkpt lat="48.05683" lon="-4.4071">
        <ele>60.599998474121</ele>
        <time>2013-08-13T09:21:37.000Z</time>
      </trkpt>
      <trkpt lat="48.05683" lon="-4.40708">
        <ele>60.200000762939</ele>
        <time>2013-08-13T09:21:38.000Z</time>
      </trkpt>
      <trkpt lat="48.05679" lon="-4.40702">
        <ele>61</ele>
        <time>2013-08-13T09:21:44.000Z</time>
      </trkpt>
      <trkpt lat="48.05674" lon="-4.40693">
        <ele>61.599998474121</ele>
        <time>2013-08-13T09:21:51.000Z</time>
      </trkpt>
      <trkpt lat="48.05671" lon="-4.4069">
        <ele>61.599998474121</ele>
        <time>2013-08-13T09:21:56.000Z</time>
      </trkpt>
      <trkpt lat="48.05664" lon="-4.40685">
        <ele>64.400001525879</ele>
        <time>2013-08-13T09:22:03.000Z</time>
      </trkpt>
      <trkpt lat="48.0566" lon="-4.40682">
        <ele>65.400001525879</ele>
        <time>2013-08-13T09:22:07.000Z</time>
      </trkpt>
      <trkpt lat="48.05657" lon="-4.40684">
        <ele>66.800003051758</ele>
        <time>2013-08-13T09:22:14.000Z</time>
      </trkpt>
      <trkpt lat="48.05653" lon="-4.40685">
        <ele>67.800003051758</ele>
        <time>2013-08-13T09:22:22.000Z</time>
      </trkpt>
      <trkpt lat="48.05649" lon="-4.40687">
        <ele>65.800003051758</ele>
        <time>2013-08-13T09:22:29.000Z</time>
      </trkpt>
      <trkpt lat="48.05643" lon="-4.40688">
        <ele>66.400001525879</ele>
        <time>2013-08-13T09:22:38.000Z</time>
      </trkpt>
      <trkpt lat="48.05642" lon="-4.40688">
        <ele>65.800003051758</ele>
        <time>2013-08-13T09:22:40.000Z</time>
      </trkpt>
      <trkpt lat="48.05636" lon="-4.40688">
        <ele>69.199996948242</ele>
        <time>2013-08-13T09:22:46.000Z</time>
      </trkpt>
      <trkpt lat="48.05633" lon="-4.40689">
        <ele>70.199996948242</ele>
        <time>2013-08-13T09:22:49.000Z</time>
      </trkpt>
      <trkpt lat="48.05627" lon="-4.40692">
        <ele>70.199996948242</ele>
        <time>2013-08-13T09:22:55.000Z</time>
      </trkpt>
      <trkpt lat="48.05623" lon="-4.40695">
        <ele>69.800003051758</ele>
        <time>2013-08-13T09:23:02.000Z</time>
      </trkpt>
      <trkpt lat="48.05618" lon="-4.40699">
        <ele>68.199996948242</ele>
        <time>2013-08-13T09:23:08.000Z</time>
      </trkpt>
      <trkpt lat="48.05612" lon="-4.40702">
        <ele>68.199996948242</ele>
        <time>2013-08-13T09:23:15.000Z</time>
      </trkpt>
      <trkpt lat="48.05607" lon="-4.40703">
        <ele>69.199996948242</ele>
        <time>2013-08-13T09:23:21.000Z</time>
      </trkpt>
      <trkpt lat="48.05598" lon="-4.40708">
        <ele>66.400001525879</ele>
        <time>2013-08-13T09:23:30.000Z</time>
      </trkpt>
      <trkpt lat="48.0559" lon="-4.40713">
        <ele>65.800003051758</ele>
        <time>2013-08-13T09:23:39.000Z</time>
      </trkpt>
      <trkpt lat="48.05582" lon="-4.40716">
        <ele>66.400001525879</ele>
        <time>2013-08-13T09:23:47.000Z</time>
      </trkpt>
      <trkpt lat="48.05573" lon="-4.40717">
        <ele>67.400001525879</ele>
        <time>2013-08-13T09:23:55.000Z</time>
      </trkpt>
      <trkpt lat="48.05564" lon="-4.4072">
        <ele>67.400001525879</ele>
        <time>2013-08-13T09:24:04.000Z</time>
      </trkpt>
      <trkpt lat="48.05553" lon="-4.40723">
        <ele>68.800003051758</ele>
        <time>2013-08-13T09:24:14.000Z</time>
      </trkpt>
      <trkpt lat="48.05545" lon="-4.40726">
        <ele>70.599998474121</ele>
        <time>2013-08-13T09:24:21.000Z</time>
      </trkpt>
      <trkpt lat="48.05543" lon="-4.40727">
        <ele>70.599998474121</ele>
        <time>2013-08-13T09:24:22.000Z</time>
      </trkpt>
      <trkpt lat="48.05535" lon="-4.40728">
        <ele>71.199996948242</ele>
        <time>2013-08-13T09:24:28.000Z</time>
      </trkpt>
      <trkpt lat="48.05531" lon="-4.40729">
        <ele>74</ele>
        <time>2013-08-13T09:24:33.000Z</time>
      </trkpt>
      <trkpt lat="48.05528" lon="-4.40728">
        <ele>74.599998474121</ele>
        <time>2013-08-13T09:24:38.000Z</time>
      </trkpt>
      <trkpt lat="48.05525" lon="-4.40728">
        <ele>75</ele>
        <time>2013-08-13T09:24:40.000Z</time>
      </trkpt>
      <trkpt lat="48.05517" lon="-4.40728">
        <ele>76</ele>
        <time>2013-08-13T09:24:48.000Z</time>
      </trkpt>
      <trkpt lat="48.05515" lon="-4.40728">
        <ele>76.400001525879</ele>
        <time>2013-08-13T09:24:52.000Z</time>
      </trkpt>
      <trkpt lat="48.05512" lon="-4.40728">
        <ele>76</ele>
        <time>2013-08-13T09:24:56.000Z</time>
      </trkpt>
      <trkpt lat="48.05509" lon="-4.40728">
        <ele>76.400001525879</ele>
        <time>2013-08-13T09:25:01.000Z</time>
      </trkpt>
      <trkpt lat="48.05509" lon="-4.40727">
        <ele>76.400001525879</ele>
        <time>2013-08-13T09:25:12.000Z</time>
      </trkpt>
      <trkpt lat="48.05506" lon="-4.40728">
        <ele>75.599998474121</ele>
        <time>2013-08-13T09:25:17.000Z</time>
      </trkpt>
      <trkpt lat="48.055" lon="-4.40727">
        <ele>76</ele>
        <time>2013-08-13T09:25:24.000Z</time>
      </trkpt>
      <trkpt lat="48.05495" lon="-4.40727">
        <ele>75.599998474121</ele>
        <time>2013-08-13T09:25:31.000Z</time>
      </trkpt>
      <trkpt lat="48.05488" lon="-4.40726">
        <ele>77</ele>
        <time>2013-08-13T09:25:37.000Z</time>
      </trkpt>
      <trkpt lat="48.05482" lon="-4.40726">
        <ele>78</ele>
        <time>2013-08-13T09:25:44.000Z</time>
      </trkpt>
      <trkpt lat="48.05477" lon="-4.40727">
        <ele>78.400001525879</ele>
        <time>2013-08-13T09:25:50.000Z</time>
      </trkpt>
      <trkpt lat="48.0547" lon="-4.40725">
        <ele>78</ele>
        <time>2013-08-13T09:25:57.000Z</time>
      </trkpt>
      <trkpt lat="48.05464" lon="-4.40726">
        <ele>77</ele>
        <time>2013-08-13T09:26:03.000Z</time>
      </trkpt>
      <trkpt lat="48.05458" lon="-4.40725">
        <ele>78</ele>
        <time>2013-08-13T09:26:08.000Z</time>
      </trkpt>
      <trkpt lat="48.05448" lon="-4.40724">
        <ele>78.400001525879</ele>
        <time>2013-08-13T09:26:16.000Z</time>
      </trkpt>
      <trkpt lat="48.0544" lon="-4.40723">
        <ele>78.400001525879</ele>
        <time>2013-08-13T09:26:23.000Z</time>
      </trkpt>
      <trkpt lat="48.05432" lon="-4.40723">
        <ele>78.800003051758</ele>
        <time>2013-08-13T09:26:30.000Z</time>
      </trkpt>
      <trkpt lat="48.05428" lon="-4.40723">
        <ele>78.800003051758</ele>
        <time>2013-08-13T09:26:34.000Z</time>
      </trkpt>
      <trkpt lat="48.05423" lon="-4.40722">
        <ele>78</ele>
        <time>2013-08-13T09:26:39.000Z</time>
      </trkpt>
      <trkpt lat="48.05417" lon="-4.40721">
        <ele>78.400001525879</ele>
        <time>2013-08-13T09:26:44.000Z</time>
      </trkpt>
      <trkpt lat="48.05412" lon="-4.40721">
        <ele>77.400001525879</ele>
        <time>2013-08-13T09:26:48.000Z</time>
      </trkpt>
      <trkpt lat="48.05405" lon="-4.40721">
        <ele>77.400001525879</ele>
        <time>2013-08-13T09:26:54.000Z</time>
      </trkpt>
      <trkpt lat="48.054" lon="-4.40719">
        <ele>78</ele>
        <time>2013-08-13T09:27:00.000Z</time>
      </trkpt>
      <trkpt lat="48.0539" lon="-4.40718">
        <ele>77.400001525879</ele>
        <time>2013-08-13T09:27:09.000Z</time>
      </trkpt>
      <trkpt lat="48.05382" lon="-4.40716">
        <ele>77.400001525879</ele>
        <time>2013-08-13T09:27:16.000Z</time>
      </trkpt>
      <trkpt lat="48.0538" lon="-4.40714">
        <ele>76</ele>
        <time>2013-08-13T09:27:19.000Z</time>
      </trkpt>
      <trkpt lat="48.05376" lon="-4.40715">
        <ele>74</ele>
        <time>2013-08-13T09:27:23.000Z</time>
      </trkpt>
      <trkpt lat="48.05373" lon="-4.40714">
        <ele>74</ele>
        <time>2013-08-13T09:27:25.000Z</time>
      </trkpt>
      <trkpt lat="48.05367" lon="-4.40712">
        <ele>73</ele>
        <time>2013-08-13T09:27:31.000Z</time>
      </trkpt>
      <trkpt lat="48.05364" lon="-4.4071">
        <ele>73.599998474121</ele>
        <time>2013-08-13T09:27:34.000Z</time>
      </trkpt>
      <trkpt lat="48.05359" lon="-4.40707">
        <ele>72.599998474121</ele>
        <time>2013-08-13T09:27:40.000Z</time>
      </trkpt>
      <trkpt lat="48.05354" lon="-4.40705">
        <ele>72.199996948242</ele>
        <time>2013-08-13T09:27:46.000Z</time>
      </trkpt>
      <trkpt lat="48.0535" lon="-4.40703">
        <ele>71.199996948242</ele>
        <time>2013-08-13T09:27:49.000Z</time>
      </trkpt>
      <trkpt lat="48.05341" lon="-4.40699">
        <ele>70.199996948242</ele>
        <time>2013-08-13T09:27:56.000Z</time>
      </trkpt>
      <trkpt lat="48.05334" lon="-4.40697">
        <ele>67.800003051758</ele>
        <time>2013-08-13T09:28:03.000Z</time>
      </trkpt>
      <trkpt lat="48.05331" lon="-4.40695">
        <ele>68.199996948242</ele>
        <time>2013-08-13T09:28:05.000Z</time>
      </trkpt>
      <trkpt lat="48.05325" lon="-4.4069">
        <ele>66.800003051758</ele>
        <time>2013-08-13T09:28:11.000Z</time>
      </trkpt>
      <trkpt lat="48.05319" lon="-4.40682">
        <ele>66.800003051758</ele>
        <time>2013-08-13T09:28:19.000Z</time>
      </trkpt>
      <trkpt lat="48.05317" lon="-4.4068">
        <ele>66.800003051758</ele>
        <time>2013-08-13T09:28:21.000Z</time>
      </trkpt>
      <trkpt lat="48.05312" lon="-4.4067">
        <ele>69.199996948242</ele>
        <time>2013-08-13T09:28:27.000Z</time>
      </trkpt>
      <trkpt lat="48.05307" lon="-4.40662">
        <ele>70.599998474121</ele>
        <time>2013-08-13T09:28:33.000Z</time>
      </trkpt>
      <trkpt lat="48.05303" lon="-4.40659">
        <ele>68.199996948242</ele>
        <time>2013-08-13T09:28:38.000Z</time>
      </trkpt>
      <trkpt lat="48.05299" lon="-4.40655">
        <ele>65.400001525879</ele>
        <time>2013-08-13T09:28:45.000Z</time>
      </trkpt>
      <trkpt lat="48.05296" lon="-4.40653">
        <ele>63.400001525879</ele>
        <time>2013-08-13T09:28:49.000Z</time>
      </trkpt>
      <trkpt lat="48.05293" lon="-4.4065">
        <ele>62</ele>
        <time>2013-08-13T09:28:53.000Z</time>
      </trkpt>
      <trkpt lat="48.05287" lon="-4.40645">
        <ele>62.599998474121</ele>
        <time>2013-08-13T09:28:58.000Z</time>
      </trkpt>
      <trkpt lat="48.05284" lon="-4.40644">
        <ele>64</ele>
        <time>2013-08-13T09:29:01.000Z</time>
      </trkpt>
      <trkpt lat="48.0528" lon="-4.40642">
        <ele>65.400001525879</ele>
        <time>2013-08-13T09:29:07.000Z</time>
      </trkpt>
      <trkpt lat="48.05273" lon="-4.4064">
        <ele>65.800003051758</ele>
        <time>2013-08-13T09:29:13.000Z</time>
      </trkpt>
      <trkpt lat="48.05265" lon="-4.40637">
        <ele>65.800003051758</ele>
        <time>2013-08-13T09:29:20.000Z</time>
      </trkpt>
      <trkpt lat="48.05257" lon="-4.40633">
        <ele>64</ele>
        <time>2013-08-13T09:29:28.000Z</time>
      </trkpt>
      <trkpt lat="48.05246" lon="-4.40629">
        <ele>61.599998474121</ele>
        <time>2013-08-13T09:29:39.000Z</time>
      </trkpt>
      <trkpt lat="48.05236" lon="-4.40625">
        <ele>59.599998474121</ele>
        <time>2013-08-13T09:29:49.000Z</time>
      </trkpt>
      <trkpt lat="48.05228" lon="-4.40623">
        <ele>58.599998474121</ele>
        <time>2013-08-13T09:29:56.000Z</time>
      </trkpt>
      <trkpt lat="48.05225" lon="-4.40621">
        <ele>58.599998474121</ele>
        <time>2013-08-13T09:29:59.000Z</time>
      </trkpt>
      <trkpt lat="48.05218" lon="-4.40619">
        <ele>59.200000762939</ele>
        <time>2013-08-13T09:30:05.000Z</time>
      </trkpt>
      <trkpt lat="48.0521" lon="-4.40616">
        <ele>59.200000762939</ele>
        <time>2013-08-13T09:30:12.000Z</time>
      </trkpt>
      <trkpt lat="48.05207" lon="-4.40614">
        <ele>60.200000762939</ele>
        <time>2013-08-13T09:30:15.000Z</time>
      </trkpt>
      <trkpt lat="48.05202" lon="-4.4061">
        <ele>60.200000762939</ele>
        <time>2013-08-13T09:30:20.000Z</time>
      </trkpt>
      <trkpt lat="48.05199" lon="-4.40608">
        <ele>59.599998474121</ele>
        <time>2013-08-13T09:30:23.000Z</time>
      </trkpt>
      <trkpt lat="48.05197" lon="-4.40607">
        <ele>59.599998474121</ele>
        <time>2013-08-13T09:30:26.000Z</time>
      </trkpt>
      <trkpt lat="48.0519" lon="-4.40603">
        <ele>60.599998474121</ele>
        <time>2013-08-13T09:30:34.000Z</time>
      </trkpt>
      <trkpt lat="48.05186" lon="-4.40601">
        <ele>61</ele>
        <time>2013-08-13T09:30:40.000Z</time>
      </trkpt>
      <trkpt lat="48.05184" lon="-4.40599">
        <ele>61.599998474121</ele>
        <time>2013-08-13T09:30:47.000Z</time>
      </trkpt>
      <trkpt lat="48.05187" lon="-4.40598">
        <ele>63</ele>
        <time>2013-08-13T09:30:57.000Z</time>
      </trkpt>
      <trkpt lat="48.05185" lon="-4.40597">
        <ele>64</ele>
        <time>2013-08-13T09:31:06.000Z</time>
      </trkpt>
      <trkpt lat="48.05182" lon="-4.40597">
        <ele>64</ele>
        <time>2013-08-13T09:31:15.000Z</time>
      </trkpt>
      <trkpt lat="48.05181" lon="-4.40596">
        <ele>65</ele>
        <time>2013-08-13T09:31:21.000Z</time>
      </trkpt>
      <trkpt lat="48.05179" lon="-4.40598">
        <ele>65.400001525879</ele>
        <time>2013-08-13T09:31:27.000Z</time>
      </trkpt>
      <trkpt lat="48.05175" lon="-4.40603">
        <ele>66.800003051758</ele>
        <time>2013-08-13T09:31:32.000Z</time>
      </trkpt>
      <trkpt lat="48.05175" lon="-4.40619">
        <ele>65.400001525879</ele>
        <time>2013-08-13T09:31:40.000Z</time>
      </trkpt>
      <trkpt lat="48.05176" lon="-4.40631">
        <ele>64.400001525879</ele>
        <time>2013-08-13T09:31:46.000Z</time>
      </trkpt>
      <trkpt lat="48.05176" lon="-4.40633">
        <ele>64</ele>
        <time>2013-08-13T09:31:47.000Z</time>
      </trkpt>
      <trkpt lat="48.05177" lon="-4.40645">
        <ele>63</ele>
        <time>2013-08-13T09:31:54.000Z</time>
      </trkpt>
      <trkpt lat="48.05178" lon="-4.40649">
        <ele>63</ele>
        <time>2013-08-13T09:31:56.000Z</time>
      </trkpt>
      <trkpt lat="48.05177" lon="-4.40652">
        <ele>62.599998474121</ele>
        <time>2013-08-13T09:31:58.000Z</time>
      </trkpt>
      <trkpt lat="48.05178" lon="-4.40661">
        <ele>62.599998474121</ele>
        <time>2013-08-13T09:32:03.000Z</time>
      </trkpt>
      <trkpt lat="48.05179" lon="-4.40673">
        <ele>63</ele>
        <time>2013-08-13T09:32:10.000Z</time>
      </trkpt>
      <trkpt lat="48.05179" lon="-4.40684">
        <ele>62.599998474121</ele>
        <time>2013-08-13T09:32:17.000Z</time>
      </trkpt>
      <trkpt lat="48.05179" lon="-4.40695">
        <ele>62</ele>
        <time>2013-08-13T09:32:23.000Z</time>
      </trkpt>
      <trkpt lat="48.05177" lon="-4.407">
        <ele>62</ele>
        <time>2013-08-13T09:32:26.000Z</time>
      </trkpt>
      <trkpt lat="48.0517" lon="-4.40705">
        <ele>62.599998474121</ele>
        <time>2013-08-13T09:32:32.000Z</time>
      </trkpt>
      <trkpt lat="48.05164" lon="-4.40706">
        <ele>62.599998474121</ele>
        <time>2013-08-13T09:32:36.000Z</time>
      </trkpt>
      <trkpt lat="48.05153" lon="-4.40708">
        <ele>63</ele>
        <time>2013-08-13T09:32:45.000Z</time>
      </trkpt>
      <trkpt lat="48.05149" lon="-4.40709">
        <ele>64</ele>
        <time>2013-08-13T09:32:51.000Z</time>
      </trkpt>
      <trkpt lat="48.05145" lon="-4.40709">
        <ele>63.400001525879</ele>
        <time>2013-08-13T09:32:55.000Z</time>
      </trkpt>
      <trkpt lat="48.05139" lon="-4.40711">
        <ele>63</ele>
        <time>2013-08-13T09:32:59.000Z</time>
      </trkpt>
      <trkpt lat="48.05135" lon="-4.40711">
        <ele>63</ele>
        <time>2013-08-13T09:33:02.000Z</time>
      </trkpt>
      <trkpt lat="48.05129" lon="-4.40712">
        <ele>63</ele>
        <time>2013-08-13T09:33:06.000Z</time>
      </trkpt>
      <trkpt lat="48.05126" lon="-4.40712">
        <ele>63</ele>
        <time>2013-08-13T09:33:09.000Z</time>
      </trkpt>
      <trkpt lat="48.05118" lon="-4.40712">
        <ele>64.400001525879</ele>
        <time>2013-08-13T09:33:16.000Z</time>
      </trkpt>
      <trkpt lat="48.05111" lon="-4.40713">
        <ele>65.800003051758</ele>
        <time>2013-08-13T09:33:22.000Z</time>
      </trkpt>
      <trkpt lat="48.05104" lon="-4.40713">
        <ele>65.400001525879</ele>
        <time>2013-08-13T09:33:29.000Z</time>
      </trkpt>
      <trkpt lat="48.05097" lon="-4.40714">
        <ele>66.400001525879</ele>
        <time>2013-08-13T09:33:36.000Z</time>
      </trkpt>
      <trkpt lat="48.05089" lon="-4.40715">
        <ele>66.400001525879</ele>
        <time>2013-08-13T09:33:42.000Z</time>
      </trkpt>
      <trkpt lat="48.05081" lon="-4.40716">
        <ele>65.400001525879</ele>
        <time>2013-08-13T09:33:50.000Z</time>
      </trkpt>
      <trkpt lat="48.05074" lon="-4.40717">
        <ele>66.400001525879</ele>
        <time>2013-08-13T09:33:56.000Z</time>
      </trkpt>
      <trkpt lat="48.05068" lon="-4.40716">
        <ele>66.800003051758</ele>
        <time>2013-08-13T09:34:01.000Z</time>
      </trkpt>
      <trkpt lat="48.05061" lon="-4.40718">
        <ele>66.400001525879</ele>
        <time>2013-08-13T09:34:07.000Z</time>
      </trkpt>
      <trkpt lat="48.05056" lon="-4.40719">
        <ele>66.400001525879</ele>
        <time>2013-08-13T09:34:11.000Z</time>
      </trkpt>
      <trkpt lat="48.05048" lon="-4.40719">
        <ele>67.800003051758</ele>
        <time>2013-08-13T09:34:18.000Z</time>
      </trkpt>
      <trkpt lat="48.05042" lon="-4.4072">
        <ele>67.400001525879</ele>
        <time>2013-08-13T09:34:23.000Z</time>
      </trkpt>
      <trkpt lat="48.05035" lon="-4.40721">
        <ele>68.199996948242</ele>
        <time>2013-08-13T09:34:29.000Z</time>
      </trkpt>
      <trkpt lat="48.05029" lon="-4.40722">
        <ele>69.199996948242</ele>
        <time>2013-08-13T09:34:35.000Z</time>
      </trkpt>
      <trkpt lat="48.05019" lon="-4.40722">
        <ele>69.199996948242</ele>
        <time>2013-08-13T09:34:43.000Z</time>
      </trkpt>
      <trkpt lat="48.05011" lon="-4.40722">
        <ele>70.199996948242</ele>
        <time>2013-08-13T09:34:50.000Z</time>
      </trkpt>
      <trkpt lat="48.05003" lon="-4.40723">
        <ele>70.599998474121</ele>
        <time>2013-08-13T09:34:57.000Z</time>
      </trkpt>
      <trkpt lat="48.04995" lon="-4.40723">
        <ele>71.199996948242</ele>
        <time>2013-08-13T09:35:04.000Z</time>
      </trkpt>
      <trkpt lat="48.04984" lon="-4.40724">
        <ele>72.199996948242</ele>
        <time>2013-08-13T09:35:12.000Z</time>
      </trkpt>
      <trkpt lat="48.04975" lon="-4.40725">
        <ele>72.599998474121</ele>
        <time>2013-08-13T09:35:20.000Z</time>
      </trkpt>
      <trkpt lat="48.04962" lon="-4.40726">
        <ele>71.599998474121</ele>
        <time>2013-08-13T09:35:31.000Z</time>
      </trkpt>
      <trkpt lat="48.04952" lon="-4.40727">
        <ele>70.599998474121</ele>
        <time>2013-08-13T09:35:40.000Z</time>
      </trkpt>
      <trkpt lat="48.04941" lon="-4.4073">
        <ele>68.800003051758</ele>
        <time>2013-08-13T09:35:49.000Z</time>
      </trkpt>
      <trkpt lat="48.04935" lon="-4.40731">
        <ele>68.800003051758</ele>
        <time>2013-08-13T09:35:54.000Z</time>
      </trkpt>
      <trkpt lat="48.04926" lon="-4.40732">
        <ele>68.199996948242</ele>
        <time>2013-08-13T09:36:01.000Z</time>
      </trkpt>
      <trkpt lat="48.04917" lon="-4.40735">
        <ele>67.400001525879</ele>
        <time>2013-08-13T09:36:08.000Z</time>
      </trkpt>
      <trkpt lat="48.04915" lon="-4.40735">
        <ele>67.400001525879</ele>
        <time>2013-08-13T09:36:09.000Z</time>
      </trkpt>
      <trkpt lat="48.04911" lon="-4.40735">
        <ele>67.400001525879</ele>
        <time>2013-08-13T09:36:13.000Z</time>
      </trkpt>
      <trkpt lat="48.04908" lon="-4.40736">
        <ele>66.800003051758</ele>
        <time>2013-08-13T09:36:15.000Z</time>
      </trkpt>
      <trkpt lat="48.049" lon="-4.40736">
        <ele>67.400001525879</ele>
        <time>2013-08-13T09:36:22.000Z</time>
      </trkpt>
      <trkpt lat="48.04893" lon="-4.40735">
        <ele>66.800003051758</ele>
        <time>2013-08-13T09:36:28.000Z</time>
      </trkpt>
      <trkpt lat="48.04886" lon="-4.40736">
        <ele>66.400001525879</ele>
        <time>2013-08-13T09:36:34.000Z</time>
      </trkpt>
      <trkpt lat="48.04879" lon="-4.40738">
        <ele>66.800003051758</ele>
        <time>2013-08-13T09:36:40.000Z</time>
      </trkpt>
      <trkpt lat="48.04873" lon="-4.40739">
        <ele>67.800003051758</ele>
        <time>2013-08-13T09:36:45.000Z</time>
      </trkpt>
      <trkpt lat="48.04867" lon="-4.4074">
        <ele>68.800003051758</ele>
        <time>2013-08-13T09:36:51.000Z</time>
      </trkpt>
      <trkpt lat="48.0486" lon="-4.40742">
        <ele>66.400001525879</ele>
        <time>2013-08-13T09:36:58.000Z</time>
      </trkpt>
      <trkpt lat="48.04852" lon="-4.40746">
        <ele>65.800003051758</ele>
        <time>2013-08-13T09:37:05.000Z</time>
      </trkpt>
      <trkpt lat="48.04844" lon="-4.40751">
        <ele>66.800003051758</ele>
        <time>2013-08-13T09:37:12.000Z</time>
      </trkpt>
      <trkpt lat="48.04838" lon="-4.40754">
        <ele>66.800003051758</ele>
        <time>2013-08-13T09:37:16.000Z</time>
      </trkpt>
      <trkpt lat="48.04831" lon="-4.40757">
        <ele>66.800003051758</ele>
        <time>2013-08-13T09:37:21.000Z</time>
      </trkpt>
      <trkpt lat="48.04826" lon="-4.40761">
        <ele>66.800003051758</ele>
        <time>2013-08-13T09:37:26.000Z</time>
      </trkpt>
      <trkpt lat="48.04821" lon="-4.40763">
        <ele>63</ele>
        <time>2013-08-13T09:37:31.000Z</time>
      </trkpt>
      <trkpt lat="48.0482" lon="-4.40765">
        <ele>62.599998474121</ele>
        <time>2013-08-13T09:37:33.000Z</time>
      </trkpt>
      <trkpt lat="48.04815" lon="-4.4077">
        <ele>60.200000762939</ele>
        <time>2013-08-13T09:37:38.000Z</time>
      </trkpt>
      <trkpt lat="48.04812" lon="-4.40772">
        <ele>59.200000762939</ele>
        <time>2013-08-13T09:37:41.000Z</time>
      </trkpt>
      <trkpt lat="48.04803" lon="-4.4078">
        <ele>61.599998474121</ele>
        <time>2013-08-13T09:37:49.000Z</time>
      </trkpt>
      <trkpt lat="48.04796" lon="-4.40784">
        <ele>65</ele>
        <time>2013-08-13T09:37:56.000Z</time>
      </trkpt>
      <trkpt lat="48.04794" lon="-4.40787">
        <ele>65.400001525879</ele>
        <time>2013-08-13T09:37:58.000Z</time>
      </trkpt>
      <trkpt lat="48.04787" lon="-4.40791">
        <ele>65.800003051758</ele>
        <time>2013-08-13T09:38:05.000Z</time>
      </trkpt>
      <trkpt lat="48.04785" lon="-4.40791">
        <ele>65.800003051758</ele>
        <time>2013-08-13T09:38:06.000Z</time>
      </trkpt>
      <trkpt lat="48.04781" lon="-4.40797">
        <ele>63.400001525879</ele>
        <time>2013-08-13T09:38:11.000Z</time>
      </trkpt>
      <trkpt lat="48.04779" lon="-4.40799">
        <ele>63.400001525879</ele>
        <time>2013-08-13T09:38:13.000Z</time>
      </trkpt>
      <trkpt lat="48.04773" lon="-4.40804">
        <ele>63</ele>
        <time>2013-08-13T09:38:18.000Z</time>
      </trkpt>
      <trkpt lat="48.04769" lon="-4.40808">
        <ele>61.599998474121</ele>
        <time>2013-08-13T09:38:23.000Z</time>
      </trkpt>
      <trkpt lat="48.04761" lon="-4.40813">
        <ele>61.599998474121</ele>
        <time>2013-08-13T09:38:30.000Z</time>
      </trkpt>
      <trkpt lat="48.04758" lon="-4.40816">
        <ele>61.599998474121</ele>
        <time>2013-08-13T09:38:34.000Z</time>
      </trkpt>
      <trkpt lat="48.04755" lon="-4.40818">
        <ele>61.599998474121</ele>
        <time>2013-08-13T09:38:37.000Z</time>
      </trkpt>
      <trkpt lat="48.04747" lon="-4.40828">
        <ele>61</ele>
        <time>2013-08-13T09:38:44.000Z</time>
      </trkpt>
      <trkpt lat="48.04744" lon="-4.40833">
        <ele>61</ele>
        <time>2013-08-13T09:38:48.000Z</time>
      </trkpt>
      <trkpt lat="48.04739" lon="-4.40839">
        <ele>60.599998474121</ele>
        <time>2013-08-13T09:38:53.000Z</time>
      </trkpt>
      <trkpt lat="48.04735" lon="-4.40841">
        <ele>61.599998474121</ele>
        <time>2013-08-13T09:38:56.000Z</time>
      </trkpt>
      <trkpt lat="48.04732" lon="-4.40846">
        <ele>62</ele>
        <time>2013-08-13T09:39:00.000Z</time>
      </trkpt>
      <trkpt lat="48.04724" lon="-4.40854">
        <ele>62</ele>
        <time>2013-08-13T09:39:08.000Z</time>
      </trkpt>
      <trkpt lat="48.04719" lon="-4.40857">
        <ele>62.599998474121</ele>
        <time>2013-08-13T09:39:12.000Z</time>
      </trkpt>
      <trkpt lat="48.04711" lon="-4.40855">
        <ele>65.400001525879</ele>
        <time>2013-08-13T09:39:18.000Z</time>
      </trkpt>
      <trkpt lat="48.04703" lon="-4.40854">
        <ele>67.400001525879</ele>
        <time>2013-08-13T09:39:24.000Z</time>
      </trkpt>
      <trkpt lat="48.047" lon="-4.40853">
        <ele>66.800003051758</ele>
        <time>2013-08-13T09:39:27.000Z</time>
      </trkpt>
      <trkpt lat="48.04693" lon="-4.40852">
        <ele>65.400001525879</ele>
        <time>2013-08-13T09:39:34.000Z</time>
      </trkpt>
      <trkpt lat="48.0469" lon="-4.40854">
        <ele>64</ele>
        <time>2013-08-13T09:39:40.000Z</time>
      </trkpt>
      <trkpt lat="48.04686" lon="-4.40854">
        <ele>62</ele>
        <time>2013-08-13T09:39:47.000Z</time>
      </trkpt>
      <trkpt lat="48.04681" lon="-4.40853">
        <ele>59.599998474121</ele>
        <time>2013-08-13T09:39:53.000Z</time>
      </trkpt>
      <trkpt lat="48.04676" lon="-4.40852">
        <ele>58.200000762939</ele>
        <time>2013-08-13T09:39:58.000Z</time>
      </trkpt>
      <trkpt lat="48.04674" lon="-4.40854">
        <ele>55.400001525879</ele>
        <time>2013-08-13T09:40:04.000Z</time>
      </trkpt>
      <trkpt lat="48.04669" lon="-4.40854">
        <ele>53.400001525879</ele>
        <time>2013-08-13T09:40:11.000Z</time>
      </trkpt>
      <trkpt lat="48.04665" lon="-4.40854">
        <ele>52.400001525879</ele>
        <time>2013-08-13T09:40:16.000Z</time>
      </trkpt>
      <trkpt lat="48.04659" lon="-4.40855">
        <ele>50</ele>
        <time>2013-08-13T09:40:23.000Z</time>
      </trkpt>
      <trkpt lat="48.04658" lon="-4.40855">
        <ele>50</ele>
        <time>2013-08-13T09:40:24.000Z</time>
      </trkpt>
      <trkpt lat="48.04648" lon="-4.40856">
        <ele>49</ele>
        <time>2013-08-13T09:40:32.000Z</time>
      </trkpt>
      <trkpt lat="48.0464" lon="-4.40855">
        <ele>48.599998474121</ele>
        <time>2013-08-13T09:40:39.000Z</time>
      </trkpt>
      <trkpt lat="48.04639" lon="-4.40855">
        <ele>49</ele>
        <time>2013-08-13T09:40:40.000Z</time>
      </trkpt>
      <trkpt lat="48.04633" lon="-4.40855">
        <ele>53</ele>
        <time>2013-08-13T09:40:44.000Z</time>
      </trkpt>
      <trkpt lat="48.04629" lon="-4.40855">
        <ele>57.200000762939</ele>
        <time>2013-08-13T09:40:47.000Z</time>
      </trkpt>
      <trkpt lat="48.04625" lon="-4.40858">
        <ele>60.599998474121</ele>
        <time>2013-08-13T09:40:53.000Z</time>
      </trkpt>
      <trkpt lat="48.04619" lon="-4.40861">
        <ele>57.200000762939</ele>
        <time>2013-08-13T09:41:00.000Z</time>
      </trkpt>
      <trkpt lat="48.04615" lon="-4.4086">
        <ele>53.400001525879</ele>
        <time>2013-08-13T09:41:06.000Z</time>
      </trkpt>
      <trkpt lat="48.04609" lon="-4.40862">
        <ele>51.400001525879</ele>
        <time>2013-08-13T09:41:12.000Z</time>
      </trkpt>
      <trkpt lat="48.04608" lon="-4.40861">
        <ele>51.400001525879</ele>
        <time>2013-08-13T09:41:13.000Z</time>
      </trkpt>
      <trkpt lat="48.046" lon="-4.40859">
        <ele>48.599998474121</ele>
        <time>2013-08-13T09:41:18.000Z</time>
      </trkpt>
      <trkpt lat="48.04596" lon="-4.40858">
        <ele>47.599998474121</ele>
        <time>2013-08-13T09:41:22.000Z</time>
      </trkpt>
      <trkpt lat="48.04587" lon="-4.40854">
        <ele>50</ele>
        <time>2013-08-13T09:41:29.000Z</time>
      </trkpt>
      <trkpt lat="48.04581" lon="-4.40851">
        <ele>52.400001525879</ele>
        <time>2013-08-13T09:41:35.000Z</time>
      </trkpt>
      <trkpt lat="48.04577" lon="-4.40847">
        <ele>52.400001525879</ele>
        <time>2013-08-13T09:41:41.000Z</time>
      </trkpt>
      <trkpt lat="48.04576" lon="-4.40844">
        <ele>47.200000762939</ele>
        <time>2013-08-13T09:41:46.000Z</time>
      </trkpt>
      <trkpt lat="48.04572" lon="-4.40838">
        <ele>45.599998474121</ele>
        <time>2013-08-13T09:41:51.000Z</time>
      </trkpt>
      <trkpt lat="48.04569" lon="-4.40834">
        <ele>42.799999237061</ele>
        <time>2013-08-13T09:41:56.000Z</time>
      </trkpt>
      <trkpt lat="48.04568" lon="-4.40826">
        <ele>38</ele>
        <time>2013-08-13T09:42:01.000Z</time>
      </trkpt>
      <trkpt lat="48.04565" lon="-4.40821">
        <ele>37</ele>
        <time>2013-08-13T09:42:06.000Z</time>
      </trkpt>
      <trkpt lat="48.04561" lon="-4.40815">
        <ele>32.200000762939</ele>
        <time>2013-08-13T09:42:12.000Z</time>
      </trkpt>
      <trkpt lat="48.04556" lon="-4.40811">
        <ele>32.200000762939</ele>
        <time>2013-08-13T09:42:17.000Z</time>
      </trkpt>
      <trkpt lat="48.04553" lon="-4.40809">
        <ele>32.799999237061</ele>
        <time>2013-08-13T09:42:20.000Z</time>
      </trkpt>
      <trkpt lat="48.04547" lon="-4.40813">
        <ele>41.400001525879</ele>
        <time>2013-08-13T09:42:26.000Z</time>
      </trkpt>
      <trkpt lat="48.04547" lon="-4.40815">
        <ele>42.400001525879</ele>
        <time>2013-08-13T09:42:28.000Z</time>
      </trkpt>
      <trkpt lat="48.04543" lon="-4.4082">
        <ele>50</ele>
        <time>2013-08-13T09:42:35.000Z</time>
      </trkpt>
      <trkpt lat="48.04544" lon="-4.40828">
        <ele>53.799999237061</ele>
        <time>2013-08-13T09:42:43.000Z</time>
      </trkpt>
      <trkpt lat="48.04538" lon="-4.40829">
        <ele>59.599998474121</ele>
        <time>2013-08-13T09:42:52.000Z</time>
      </trkpt>
      <trkpt lat="48.04537" lon="-4.4083">
        <ele>62</ele>
        <time>2013-08-13T09:43:12.000Z</time>
      </trkpt>
      <trkpt lat="48.04544" lon="-4.40837">
        <ele>57.200000762939</ele>
        <time>2013-08-13T09:43:17.000Z</time>
      </trkpt>
      <trkpt lat="48.04548" lon="-4.40845">
        <ele>50</ele>
        <time>2013-08-13T09:43:22.000Z</time>
      </trkpt>
      <trkpt lat="48.04553" lon="-4.40853">
        <ele>45.599998474121</ele>
        <time>2013-08-13T09:43:27.000Z</time>
      </trkpt>
      <trkpt lat="48.04555" lon="-4.4086">
        <ele>44.200000762939</ele>
        <time>2013-08-13T09:43:33.000Z</time>
      </trkpt>
      <trkpt lat="48.04555" lon="-4.40863">
        <ele>42.799999237061</ele>
        <time>2013-08-13T09:43:35.000Z</time>
      </trkpt>
      <trkpt lat="48.04561" lon="-4.40874">
        <ele>40.400001525879</ele>
        <time>2013-08-13T09:43:42.000Z</time>
      </trkpt>
      <trkpt lat="48.04565" lon="-4.40883">
        <ele>37</ele>
        <time>2013-08-13T09:43:47.000Z</time>
      </trkpt>
      <trkpt lat="48.04566" lon="-4.40894">
        <ele>41.400001525879</ele>
        <time>2013-08-13T09:43:54.000Z</time>
      </trkpt>
      <trkpt lat="48.04566" lon="-4.409">
        <ele>43.799999237061</ele>
        <time>2013-08-13T09:43:59.000Z</time>
      </trkpt>
      <trkpt lat="48.04567" lon="-4.40894">
        <ele>52</ele>
        <time>2013-08-13T09:44:14.000Z</time>
      </trkpt>
      <trkpt lat="48.04564" lon="-4.40886">
        <ele>53.400001525879</ele>
        <time>2013-08-13T09:44:19.000Z</time>
      </trkpt>
      <trkpt lat="48.04563" lon="-4.40877">
        <ele>49.599998474121</ele>
        <time>2013-08-13T09:44:24.000Z</time>
      </trkpt>
      <trkpt lat="48.0456" lon="-4.40873">
        <ele>48.200000762939</ele>
        <time>2013-08-13T09:44:28.000Z</time>
      </trkpt>
      <trkpt lat="48.04556" lon="-4.40862">
        <ele>43.799999237061</ele>
        <time>2013-08-13T09:44:34.000Z</time>
      </trkpt>
      <trkpt lat="48.04556" lon="-4.40851">
        <ele>46.200000762939</ele>
        <time>2013-08-13T09:44:39.000Z</time>
      </trkpt>
      <trkpt lat="48.04556" lon="-4.40844">
        <ele>43.799999237061</ele>
        <time>2013-08-13T09:44:45.000Z</time>
      </trkpt>
      <trkpt lat="48.04552" lon="-4.40836">
        <ele>45.599998474121</ele>
        <time>2013-08-13T09:44:51.000Z</time>
      </trkpt>
      <trkpt lat="48.04547" lon="-4.40825">
        <ele>41.400001525879</ele>
        <time>2013-08-13T09:44:58.000Z</time>
      </trkpt>
      <trkpt lat="48.04546" lon="-4.40824">
        <ele>41.400001525879</ele>
        <time>2013-08-13T09:44:59.000Z</time>
      </trkpt>
      <trkpt lat="48.04543" lon="-4.40812">
        <ele>50</ele>
        <time>2013-08-13T09:45:05.000Z</time>
      </trkpt>
      <trkpt lat="48.04537" lon="-4.4081">
        <ele>56.200000762939</ele>
        <time>2013-08-13T09:45:12.000Z</time>
      </trkpt>
      <trkpt lat="48.04535" lon="-4.40815">
        <ele>52</ele>
        <time>2013-08-13T09:45:16.000Z</time>
      </trkpt>
      <trkpt lat="48.04535" lon="-4.40825">
        <ele>44.200000762939</ele>
        <time>2013-08-13T09:45:23.000Z</time>
      </trkpt>
      <trkpt lat="48.04535" lon="-4.40826">
        <ele>42.799999237061</ele>
        <time>2013-08-13T09:45:24.000Z</time>
      </trkpt>
      <trkpt lat="48.04536" lon="-4.40839">
        <ele>38</ele>
        <time>2013-08-13T09:45:30.000Z</time>
      </trkpt>
      <trkpt lat="48.04537" lon="-4.40844">
        <ele>35.200000762939</ele>
        <time>2013-08-13T09:45:33.000Z</time>
      </trkpt>
      <trkpt lat="48.0454" lon="-4.40853">
        <ele>35.200000762939</ele>
        <time>2013-08-13T09:45:40.000Z</time>
      </trkpt>
      <trkpt lat="48.04539" lon="-4.40866">
        <ele>50.599998474121</ele>
        <time>2013-08-13T09:46:09.000Z</time>
      </trkpt>
      <trkpt lat="48.04534" lon="-4.40872">
        <ele>48.200000762939</ele>
        <time>2013-08-13T09:46:39.000Z</time>
      </trkpt>
      <trkpt lat="48.04536" lon="-4.40871">
        <ele>50.599998474121</ele>
        <time>2013-08-13T09:47:06.000Z</time>
      </trkpt>
      <trkpt lat="48.04529" lon="-4.40864">
        <ele>43.200000762939</ele>
        <time>2013-08-13T09:47:56.000Z</time>
      </trkpt>
      <trkpt lat="48.04529" lon="-4.40857">
        <ele>44.799999237061</ele>
        <time>2013-08-13T09:48:03.000Z</time>
      </trkpt>
      <trkpt lat="48.0453" lon="-4.4086">
        <ele>42.400001525879</ele>
        <time>2013-08-13T09:48:30.000Z</time>
      </trkpt>
      <trkpt lat="48.04533" lon="-4.40868">
        <ele>40</ele>
        <time>2013-08-13T09:48:36.000Z</time>
      </trkpt>
      <trkpt lat="48.04535" lon="-4.40876">
        <ele>36.599998474121</ele>
        <time>2013-08-13T09:48:41.000Z</time>
      </trkpt>
      <trkpt lat="48.04537" lon="-4.40879">
        <ele>36</ele>
        <time>2013-08-13T09:48:43.000Z</time>
      </trkpt>
      <trkpt lat="48.04538" lon="-4.40887">
        <ele>34.200000762939</ele>
        <time>2013-08-13T09:48:49.000Z</time>
      </trkpt>
      <trkpt lat="48.04539" lon="-4.40897">
        <ele>29.799999237061</ele>
        <time>2013-08-13T09:48:55.000Z</time>
      </trkpt>
      <trkpt lat="48.04539" lon="-4.40902">
        <ele>28.39999961853</ele>
        <time>2013-08-13T09:48:58.000Z</time>
      </trkpt>
      <trkpt lat="48.0454" lon="-4.40909">
        <ele>28.39999961853</ele>
        <time>2013-08-13T09:49:02.000Z</time>
      </trkpt>
      <trkpt lat="48.04541" lon="-4.40914">
        <ele>29.799999237061</ele>
        <time>2013-08-13T09:49:05.000Z</time>
      </trkpt>
      <trkpt lat="48.0454" lon="-4.40924">
        <ele>28.799999237061</ele>
        <time>2013-08-13T09:49:11.000Z</time>
      </trkpt>
      <trkpt lat="48.04541" lon="-4.40937">
        <ele>28.39999961853</ele>
        <time>2013-08-13T09:49:18.000Z</time>
      </trkpt>
      <trkpt lat="48.04541" lon="-4.40945">
        <ele>29.39999961853</ele>
        <time>2013-08-13T09:49:24.000Z</time>
      </trkpt>
      <trkpt lat="48.04542" lon="-4.40953">
        <ele>30.799999237061</ele>
        <time>2013-08-13T09:49:29.000Z</time>
      </trkpt>
      <trkpt lat="48.04546" lon="-4.40965">
        <ele>42.400001525879</ele>
        <time>2013-08-13T09:50:05.000Z</time>
      </trkpt>
      <trkpt lat="48.04547" lon="-4.40966">
        <ele>42.799999237061</ele>
        <time>2013-08-13T09:50:25.000Z</time>
      </trkpt>
      <trkpt lat="48.04546" lon="-4.40963">
        <ele>41.400001525879</ele>
        <time>2013-08-13T09:50:40.000Z</time>
      </trkpt>
      <trkpt lat="48.04543" lon="-4.40959">
        <ele>38</ele>
        <time>2013-08-13T09:50:56.000Z</time>
      </trkpt>
      <trkpt lat="48.0454" lon="-4.40958">
        <ele>36.599998474121</ele>
        <time>2013-08-13T09:51:06.000Z</time>
      </trkpt>
      <trkpt lat="48.04543" lon="-4.40958">
        <ele>35.599998474121</ele>
        <time>2013-08-13T09:51:16.000Z</time>
      </trkpt>
      <trkpt lat="48.04556" lon="-4.40959">
        <ele>31.799999237061</ele>
        <time>2013-08-13T09:51:31.000Z</time>
      </trkpt>
      <trkpt lat="48.04553" lon="-4.40956">
        <ele>36</ele>
        <time>2013-08-13T09:51:45.000Z</time>
      </trkpt>
      <trkpt lat="48.04546" lon="-4.40961">
        <ele>34.200000762939</ele>
        <time>2013-08-13T09:52:11.000Z</time>
      </trkpt>
      <trkpt lat="48.04549" lon="-4.40966">
        <ele>41.799999237061</ele>
        <time>2013-08-13T09:52:23.000Z</time>
      </trkpt>
      <trkpt lat="48.04552" lon="-4.40964">
        <ele>49</ele>
        <time>2013-08-13T09:52:42.000Z</time>
      </trkpt>
      <trkpt lat="48.04547" lon="-4.40971">
        <ele>43.200000762939</ele>
        <time>2013-08-13T09:52:51.000Z</time>
      </trkpt>
      <trkpt lat="48.04544" lon="-4.40977">
        <ele>38</ele>
        <time>2013-08-13T09:53:00.000Z</time>
      </trkpt>
      <trkpt lat="48.04542" lon="-4.4099">
        <ele>32.200000762939</ele>
        <time>2013-08-13T09:53:09.000Z</time>
      </trkpt>
      <trkpt lat="48.04541" lon="-4.40993">
        <ele>31.200000762939</ele>
        <time>2013-08-13T09:53:11.000Z</time>
      </trkpt>
      <trkpt lat="48.04538" lon="-4.41004">
        <ele>27.39999961853</ele>
        <time>2013-08-13T09:53:19.000Z</time>
      </trkpt>
      <trkpt lat="48.04536" lon="-4.41011">
        <ele>26.39999961853</ele>
        <time>2013-08-13T09:53:25.000Z</time>
      </trkpt>
      <trkpt lat="48.04536" lon="-4.41016">
        <ele>26</ele>
        <time>2013-08-13T09:53:28.000Z</time>
      </trkpt>
      <trkpt lat="48.04534" lon="-4.41032">
        <ele>29.39999961853</ele>
        <time>2013-08-13T09:53:37.000Z</time>
      </trkpt>
      <trkpt lat="48.04533" lon="-4.41034">
        <ele>28.799999237061</ele>
        <time>2013-08-13T09:53:38.000Z</time>
      </trkpt>
      <trkpt lat="48.04533" lon="-4.41042">
        <ele>28.799999237061</ele>
        <time>2013-08-13T09:53:43.000Z</time>
      </trkpt>
      <trkpt lat="48.04531" lon="-4.41053">
        <ele>27</ele>
        <time>2013-08-13T09:53:50.000Z</time>
      </trkpt>
      <trkpt lat="48.04528" lon="-4.41067">
        <ele>23.200000762939</ele>
        <time>2013-08-13T09:53:59.000Z</time>
      </trkpt>
      <trkpt lat="48.04527" lon="-4.41071">
        <ele>23.60000038147</ele>
        <time>2013-08-13T09:54:01.000Z</time>
      </trkpt>
      <trkpt lat="48.04525" lon="-4.41078">
        <ele>24.60000038147</ele>
        <time>2013-08-13T09:54:08.000Z</time>
      </trkpt>
      <trkpt lat="48.04523" lon="-4.41087">
        <ele>23.60000038147</ele>
        <time>2013-08-13T09:54:13.000Z</time>
      </trkpt>
      <trkpt lat="48.0452" lon="-4.41095">
        <ele>24</ele>
        <time>2013-08-13T09:54:18.000Z</time>
      </trkpt>
      <trkpt lat="48.04515" lon="-4.41111">
        <ele>27</ele>
        <time>2013-08-13T09:54:28.000Z</time>
      </trkpt>
      <trkpt lat="48.04509" lon="-4.41129">
        <ele>29.39999961853</ele>
        <time>2013-08-13T09:54:39.000Z</time>
      </trkpt>
      <trkpt lat="48.04504" lon="-4.41145">
        <ele>28.799999237061</ele>
        <time>2013-08-13T09:54:50.000Z</time>
      </trkpt>
      <trkpt lat="48.04501" lon="-4.41154">
        <ele>29.39999961853</ele>
        <time>2013-08-13T09:54:56.000Z</time>
      </trkpt>
      <trkpt lat="48.04496" lon="-4.41168">
        <ele>29.799999237061</ele>
        <time>2013-08-13T09:55:04.000Z</time>
      </trkpt>
      <trkpt lat="48.04494" lon="-4.41179">
        <ele>30.799999237061</ele>
        <time>2013-08-13T09:55:10.000Z</time>
      </trkpt>
      <trkpt lat="48.04491" lon="-4.41189">
        <ele>31.200000762939</ele>
        <time>2013-08-13T09:55:16.000Z</time>
      </trkpt>
      <trkpt lat="48.04489" lon="-4.41195">
        <ele>32.200000762939</ele>
        <time>2013-08-13T09:55:22.000Z</time>
      </trkpt>
      <trkpt lat="48.04486" lon="-4.41204">
        <ele>34.200000762939</ele>
        <time>2013-08-13T09:55:28.000Z</time>
      </trkpt>
      <trkpt lat="48.04483" lon="-4.4121">
        <ele>34.200000762939</ele>
        <time>2013-08-13T09:55:32.000Z</time>
      </trkpt>
      <trkpt lat="48.0448" lon="-4.41214">
        <ele>35.599998474121</ele>
        <time>2013-08-13T09:55:36.000Z</time>
      </trkpt>
      <trkpt lat="48.04479" lon="-4.41224">
        <ele>35.200000762939</ele>
        <time>2013-08-13T09:55:43.000Z</time>
      </trkpt>
      <trkpt lat="48.0448" lon="-4.41229">
        <ele>35.599998474121</ele>
        <time>2013-08-13T09:55:54.000Z</time>
      </trkpt>
      <trkpt lat="48.0448" lon="-4.4124">
        <ele>35.599998474121</ele>
        <time>2013-08-13T09:56:01.000Z</time>
      </trkpt>
      <trkpt lat="48.04479" lon="-4.41251">
        <ele>35.599998474121</ele>
        <time>2013-08-13T09:56:07.000Z</time>
      </trkpt>
      <trkpt lat="48.04475" lon="-4.41263">
        <ele>37.599998474121</ele>
        <time>2013-08-13T09:56:15.000Z</time>
      </trkpt>
      <trkpt lat="48.04472" lon="-4.41276">
        <ele>37.599998474121</ele>
        <time>2013-08-13T09:56:22.000Z</time>
      </trkpt>
      <trkpt lat="48.04468" lon="-4.41287">
        <ele>37.599998474121</ele>
        <time>2013-08-13T09:56:30.000Z</time>
      </trkpt>
      <trkpt lat="48.04465" lon="-4.41297">
        <ele>38</ele>
        <time>2013-08-13T09:56:36.000Z</time>
      </trkpt>
      <trkpt lat="48.04461" lon="-4.41309">
        <ele>36.599998474121</ele>
        <time>2013-08-13T09:56:43.000Z</time>
      </trkpt>
      <trkpt lat="48.04458" lon="-4.41322">
        <ele>33.599998474121</ele>
        <time>2013-08-13T09:56:51.000Z</time>
      </trkpt>
      <trkpt lat="48.04454" lon="-4.41336">
        <ele>32.799999237061</ele>
        <time>2013-08-13T09:56:59.000Z</time>
      </trkpt>
      <trkpt lat="48.0445" lon="-4.4135">
        <ele>32.799999237061</ele>
        <time>2013-08-13T09:57:07.000Z</time>
      </trkpt>
      <trkpt lat="48.04446" lon="-4.41365">
        <ele>32.799999237061</ele>
        <time>2013-08-13T09:57:16.000Z</time>
      </trkpt>
      <trkpt lat="48.04441" lon="-4.4138">
        <ele>33.200000762939</ele>
        <time>2013-08-13T09:57:25.000Z</time>
      </trkpt>
      <trkpt lat="48.04437" lon="-4.41395">
        <ele>34.200000762939</ele>
        <time>2013-08-13T09:57:33.000Z</time>
      </trkpt>
      <trkpt lat="48.04433" lon="-4.41408">
        <ele>34.200000762939</ele>
        <time>2013-08-13T09:57:41.000Z</time>
      </trkpt>
      <trkpt lat="48.04431" lon="-4.4142">
        <ele>31.799999237061</ele>
        <time>2013-08-13T09:57:49.000Z</time>
      </trkpt>
      <trkpt lat="48.04428" lon="-4.41428">
        <ele>32.200000762939</ele>
        <time>2013-08-13T09:57:55.000Z</time>
      </trkpt>
      <trkpt lat="48.04424" lon="-4.4144">
        <ele>33.200000762939</ele>
        <time>2013-08-13T09:58:02.000Z</time>
      </trkpt>
      <trkpt lat="48.04421" lon="-4.41455">
        <ele>33.200000762939</ele>
        <time>2013-08-13T09:58:11.000Z</time>
      </trkpt>
      <trkpt lat="48.04418" lon="-4.41469">
        <ele>32.799999237061</ele>
        <time>2013-08-13T09:58:19.000Z</time>
      </trkpt>
      <trkpt lat="48.04416" lon="-4.41483">
        <ele>32.200000762939</ele>
        <time>2013-08-13T09:58:26.000Z</time>
      </trkpt>
      <trkpt lat="48.04414" lon="-4.41495">
        <ele>32.200000762939</ele>
        <time>2013-08-13T09:58:33.000Z</time>
      </trkpt>
      <trkpt lat="48.04413" lon="-4.415">
        <ele>32.200000762939</ele>
        <time>2013-08-13T09:58:36.000Z</time>
      </trkpt>
      <trkpt lat="48.0441" lon="-4.41512">
        <ele>31.799999237061</ele>
        <time>2013-08-13T09:58:43.000Z</time>
      </trkpt>
      <trkpt lat="48.04408" lon="-4.41525">
        <ele>29.39999961853</ele>
        <time>2013-08-13T09:58:50.000Z</time>
      </trkpt>
      <trkpt lat="48.04407" lon="-4.4153">
        <ele>28.39999961853</ele>
        <time>2013-08-13T09:58:56.000Z</time>
      </trkpt>
      <trkpt lat="48.04406" lon="-4.41535">
        <ele>27</ele>
        <time>2013-08-13T09:59:10.000Z</time>
      </trkpt>
      <trkpt lat="48.04404" lon="-4.41541">
        <ele>27</ele>
        <time>2013-08-13T09:59:15.000Z</time>
      </trkpt>
      <trkpt lat="48.04404" lon="-4.41546">
        <ele>26</ele>
        <time>2013-08-13T09:59:20.000Z</time>
      </trkpt>
      <trkpt lat="48.04404" lon="-4.41552">
        <ele>25</ele>
        <time>2013-08-13T09:59:26.000Z</time>
      </trkpt>
      <trkpt lat="48.04402" lon="-4.41569">
        <ele>24</ele>
        <time>2013-08-13T09:59:37.000Z</time>
      </trkpt>
      <trkpt lat="48.04402" lon="-4.41584">
        <ele>24</ele>
        <time>2013-08-13T09:59:47.000Z</time>
      </trkpt>
      <trkpt lat="48.04403" lon="-4.41599">
        <ele>24</ele>
        <time>2013-08-13T09:59:56.000Z</time>
      </trkpt>
      <trkpt lat="48.04405" lon="-4.4161">
        <ele>22.60000038147</ele>
        <time>2013-08-13T10:00:02.000Z</time>
      </trkpt>
      <trkpt lat="48.04405" lon="-4.41611">
        <ele>22.200000762939</ele>
        <time>2013-08-13T10:00:03.000Z</time>
      </trkpt>
      <trkpt lat="48.04408" lon="-4.4162">
        <ele>21.60000038147</ele>
        <time>2013-08-13T10:00:08.000Z</time>
      </trkpt>
      <trkpt lat="48.04412" lon="-4.41631">
        <ele>22.200000762939</ele>
        <time>2013-08-13T10:00:15.000Z</time>
      </trkpt>
      <trkpt lat="48.04417" lon="-4.41641">
        <ele>23.200000762939</ele>
        <time>2013-08-13T10:00:22.000Z</time>
      </trkpt>
      <trkpt lat="48.04418" lon="-4.41644">
        <ele>23.200000762939</ele>
        <time>2013-08-13T10:00:24.000Z</time>
      </trkpt>
      <trkpt lat="48.04418" lon="-4.41645">
        <ele>23.60000038147</ele>
        <time>2013-08-13T10:00:27.000Z</time>
      </trkpt>
      <trkpt lat="48.04421" lon="-4.41651">
        <ele>24</ele>
        <time>2013-08-13T10:00:32.000Z</time>
      </trkpt>
      <trkpt lat="48.04424" lon="-4.41658">
        <ele>24</ele>
        <time>2013-08-13T10:00:37.000Z</time>
      </trkpt>
      <trkpt lat="48.04427" lon="-4.41663">
        <ele>25</ele>
        <time>2013-08-13T10:00:41.000Z</time>
      </trkpt>
      <trkpt lat="48.04431" lon="-4.41669">
        <ele>25</ele>
        <time>2013-08-13T10:00:45.000Z</time>
      </trkpt>
      <trkpt lat="48.04437" lon="-4.41681">
        <ele>25</ele>
        <time>2013-08-13T10:00:53.000Z</time>
      </trkpt>
      <trkpt lat="48.04443" lon="-4.4169">
        <ele>23.60000038147</ele>
        <time>2013-08-13T10:00:59.000Z</time>
      </trkpt>
      <trkpt lat="48.04448" lon="-4.417">
        <ele>23.60000038147</ele>
        <time>2013-08-13T10:01:07.000Z</time>
      </trkpt>
      <trkpt lat="48.0445" lon="-4.41707">
        <ele>24</ele>
        <time>2013-08-13T10:01:11.000Z</time>
      </trkpt>
      <trkpt lat="48.04455" lon="-4.41715">
        <ele>24</ele>
        <time>2013-08-13T10:01:18.000Z</time>
      </trkpt>
      <trkpt lat="48.04459" lon="-4.41726">
        <ele>25</ele>
        <time>2013-08-13T10:01:25.000Z</time>
      </trkpt>
      <trkpt lat="48.04462" lon="-4.41736">
        <ele>24.60000038147</ele>
        <time>2013-08-13T10:01:32.000Z</time>
      </trkpt>
      <trkpt lat="48.04464" lon="-4.41743">
        <ele>23.60000038147</ele>
        <time>2013-08-13T10:01:36.000Z</time>
      </trkpt>
      <trkpt lat="48.04464" lon="-4.41744">
        <ele>23.60000038147</ele>
        <time>2013-08-13T10:01:37.000Z</time>
      </trkpt>
      <trkpt lat="48.04463" lon="-4.41749">
        <ele>23.200000762939</ele>
        <time>2013-08-13T10:01:40.000Z</time>
      </trkpt>
      <trkpt lat="48.04463" lon="-4.41755">
        <ele>23.200000762939</ele>
        <time>2013-08-13T10:01:43.000Z</time>
      </trkpt>
      <trkpt lat="48.04466" lon="-4.41766">
        <ele>25</ele>
        <time>2013-08-13T10:01:50.000Z</time>
      </trkpt>
      <trkpt lat="48.0447" lon="-4.41774">
        <ele>26</ele>
        <time>2013-08-13T10:01:55.000Z</time>
      </trkpt>
      <trkpt lat="48.04474" lon="-4.41778">
        <ele>26</ele>
        <time>2013-08-13T10:02:00.000Z</time>
      </trkpt>
      <trkpt lat="48.0448" lon="-4.41786">
        <ele>25.60000038147</ele>
        <time>2013-08-13T10:02:07.000Z</time>
      </trkpt>
      <trkpt lat="48.04483" lon="-4.41792">
        <ele>26.39999961853</ele>
        <time>2013-08-13T10:02:12.000Z</time>
      </trkpt>
      <trkpt lat="48.04488" lon="-4.418">
        <ele>26</ele>
        <time>2013-08-13T10:02:19.000Z</time>
      </trkpt>
      <trkpt lat="48.04492" lon="-4.41805">
        <ele>26.39999961853</ele>
        <time>2013-08-13T10:02:24.000Z</time>
      </trkpt>
      <trkpt lat="48.04494" lon="-4.41807">
        <ele>26.39999961853</ele>
        <time>2013-08-13T10:02:27.000Z</time>
      </trkpt>
      <trkpt lat="48.045" lon="-4.41814">
        <ele>27</ele>
        <time>2013-08-13T10:02:33.000Z</time>
      </trkpt>
      <trkpt lat="48.04506" lon="-4.4182">
        <ele>27.39999961853</ele>
        <time>2013-08-13T10:02:39.000Z</time>
      </trkpt>
      <trkpt lat="48.04507" lon="-4.41821">
        <ele>28</ele>
        <time>2013-08-13T10:02:40.000Z</time>
      </trkpt>
      <trkpt lat="48.04512" lon="-4.41828">
        <ele>28.39999961853</ele>
        <time>2013-08-13T10:02:46.000Z</time>
      </trkpt>
      <trkpt lat="48.04518" lon="-4.41835">
        <ele>29.39999961853</ele>
        <time>2013-08-13T10:02:53.000Z</time>
      </trkpt>
      <trkpt lat="48.04521" lon="-4.41836">
        <ele>28.799999237061</ele>
        <time>2013-08-13T10:02:55.000Z</time>
      </trkpt>
      <trkpt lat="48.04527" lon="-4.41842">
        <ele>29.39999961853</ele>
        <time>2013-08-13T10:03:01.000Z</time>
      </trkpt>
      <trkpt lat="48.04532" lon="-4.41846">
        <ele>29.799999237061</ele>
        <time>2013-08-13T10:03:06.000Z</time>
      </trkpt>
      <trkpt lat="48.04539" lon="-4.41853">
        <ele>30.39999961853</ele>
        <time>2013-08-13T10:03:13.000Z</time>
      </trkpt>
      <trkpt lat="48.04542" lon="-4.41855">
        <ele>30.39999961853</ele>
        <time>2013-08-13T10:03:16.000Z</time>
      </trkpt>
      <trkpt lat="48.04549" lon="-4.41862">
        <ele>30.39999961853</ele>
        <time>2013-08-13T10:03:23.000Z</time>
      </trkpt>
      <trkpt lat="48.04554" lon="-4.41867">
        <ele>30.39999961853</ele>
        <time>2013-08-13T10:03:29.000Z</time>
      </trkpt>
      <trkpt lat="48.04558" lon="-4.41871">
        <ele>30.799999237061</ele>
        <time>2013-08-13T10:03:33.000Z</time>
      </trkpt>
      <trkpt lat="48.04565" lon="-4.41876">
        <ele>31.799999237061</ele>
        <time>2013-08-13T10:03:39.000Z</time>
      </trkpt>
      <trkpt lat="48.04571" lon="-4.41881">
        <ele>31.200000762939</ele>
        <time>2013-08-13T10:03:45.000Z</time>
      </trkpt>
      <trkpt lat="48.04576" lon="-4.41885">
        <ele>30.799999237061</ele>
        <time>2013-08-13T10:03:51.000Z</time>
      </trkpt>
      <trkpt lat="48.04578" lon="-4.41887">
        <ele>30.799999237061</ele>
        <time>2013-08-13T10:03:53.000Z</time>
      </trkpt>
      <trkpt lat="48.04585" lon="-4.41893">
        <ele>30.39999961853</ele>
        <time>2013-08-13T10:04:00.000Z</time>
      </trkpt>
      <trkpt lat="48.04586" lon="-4.41893">
        <ele>30.39999961853</ele>
        <time>2013-08-13T10:04:01.000Z</time>
      </trkpt>
      <trkpt lat="48.04591" lon="-4.41897">
        <ele>30.39999961853</ele>
        <time>2013-08-13T10:04:06.000Z</time>
      </trkpt>
      <trkpt lat="48.04598" lon="-4.41906">
        <ele>30.39999961853</ele>
        <time>2013-08-13T10:04:15.000Z</time>
      </trkpt>
      <trkpt lat="48.04602" lon="-4.41908">
        <ele>31.200000762939</ele>
        <time>2013-08-13T10:04:20.000Z</time>
      </trkpt>
      <trkpt lat="48.04608" lon="-4.41912">
        <ele>33.599998474121</ele>
        <time>2013-08-13T10:04:26.000Z</time>
      </trkpt>
      <trkpt lat="48.04611" lon="-4.41915">
        <ele>34.200000762939</ele>
        <time>2013-08-13T10:04:29.000Z</time>
      </trkpt>
      <trkpt lat="48.04618" lon="-4.41923">
        <ele>34.599998474121</ele>
        <time>2013-08-13T10:04:36.000Z</time>
      </trkpt>
      <trkpt lat="48.04622" lon="-4.41928">
        <ele>35.599998474121</ele>
        <time>2013-08-13T10:04:41.000Z</time>
      </trkpt>
      <trkpt lat="48.04627" lon="-4.41934">
        <ele>37</ele>
        <time>2013-08-13T10:04:46.000Z</time>
      </trkpt>
      <trkpt lat="48.04629" lon="-4.41941">
        <ele>35.599998474121</ele>
        <time>2013-08-13T10:04:51.000Z</time>
      </trkpt>
      <trkpt lat="48.04631" lon="-4.41946">
        <ele>33.599998474121</ele>
        <time>2013-08-13T10:04:54.000Z</time>
      </trkpt>
      <trkpt lat="48.04639" lon="-4.41953">
        <ele>37</ele>
        <time>2013-08-13T10:05:02.000Z</time>
      </trkpt>
      <trkpt lat="48.04643" lon="-4.41957">
        <ele>36.599998474121</ele>
        <time>2013-08-13T10:05:06.000Z</time>
      </trkpt>
      <trkpt lat="48.04645" lon="-4.41961">
        <ele>36</ele>
        <time>2013-08-13T10:05:10.000Z</time>
      </trkpt>
      <trkpt lat="48.04651" lon="-4.41967">
        <ele>40.400001525879</ele>
        <time>2013-08-13T10:05:17.000Z</time>
      </trkpt>
      <trkpt lat="48.04655" lon="-4.41974">
        <ele>39</ele>
        <time>2013-08-13T10:05:22.000Z</time>
      </trkpt>
      <trkpt lat="48.04659" lon="-4.41979">
        <ele>40</ele>
        <time>2013-08-13T10:05:27.000Z</time>
      </trkpt>
      <trkpt lat="48.04663" lon="-4.41984">
        <ele>39</ele>
        <time>2013-08-13T10:05:32.000Z</time>
      </trkpt>
      <trkpt lat="48.04666" lon="-4.41985">
        <ele>40.799999237061</ele>
        <time>2013-08-13T10:05:34.000Z</time>
      </trkpt>
      <trkpt lat="48.04669" lon="-4.41993">
        <ele>38</ele>
        <time>2013-08-13T10:05:40.000Z</time>
      </trkpt>
      <trkpt lat="48.04672" lon="-4.41997">
        <ele>35.599998474121</ele>
        <time>2013-08-13T10:05:43.000Z</time>
      </trkpt>
      <trkpt lat="48.04676" lon="-4.42003">
        <ele>34.599998474121</ele>
        <time>2013-08-13T10:05:48.000Z</time>
      </trkpt>
      <trkpt lat="48.04677" lon="-4.42006">
        <ele>34.599998474121</ele>
        <time>2013-08-13T10:05:50.000Z</time>
      </trkpt>
      <trkpt lat="48.0468" lon="-4.42009">
        <ele>34.599998474121</ele>
        <time>2013-08-13T10:05:54.000Z</time>
      </trkpt>
      <trkpt lat="48.04687" lon="-4.42022">
        <ele>38.400001525879</ele>
        <time>2013-08-13T10:06:03.000Z</time>
      </trkpt>
      <trkpt lat="48.0469" lon="-4.42028">
        <ele>40</ele>
        <time>2013-08-13T10:06:08.000Z</time>
      </trkpt>
      <trkpt lat="48.04692" lon="-4.42033">
        <ele>42.400001525879</ele>
        <time>2013-08-13T10:06:11.000Z</time>
      </trkpt>
      <trkpt lat="48.04697" lon="-4.42045">
        <ele>44.200000762939</ele>
        <time>2013-08-13T10:06:17.000Z</time>
      </trkpt>
      <trkpt lat="48.04699" lon="-4.42054">
        <ele>43.799999237061</ele>
        <time>2013-08-13T10:06:22.000Z</time>
      </trkpt>
      <trkpt lat="48.047" lon="-4.42055">
        <ele>43.200000762939</ele>
        <time>2013-08-13T10:06:23.000Z</time>
      </trkpt>
      <trkpt lat="48.04702" lon="-4.42058">
        <ele>42.400001525879</ele>
        <time>2013-08-13T10:06:26.000Z</time>
      </trkpt>
      <trkpt lat="48.04706" lon="-4.42066">
        <ele>42.400001525879</ele>
        <time>2013-08-13T10:06:33.000Z</time>
      </trkpt>
      <trkpt lat="48.0471" lon="-4.42077">
        <ele>41.799999237061</ele>
        <time>2013-08-13T10:06:39.000Z</time>
      </trkpt>
      <trkpt lat="48.04714" lon="-4.42085">
        <ele>42.400001525879</ele>
        <time>2013-08-13T10:06:45.000Z</time>
      </trkpt>
      <trkpt lat="48.04715" lon="-4.42087">
        <ele>42.400001525879</ele>
        <time>2013-08-13T10:06:47.000Z</time>
      </trkpt>
      <trkpt lat="48.04718" lon="-4.42094">
        <ele>42.400001525879</ele>
        <time>2013-08-13T10:06:53.000Z</time>
      </trkpt>
      <trkpt lat="48.0472" lon="-4.42097">
        <ele>40.799999237061</ele>
        <time>2013-08-13T10:06:56.000Z</time>
      </trkpt>
      <trkpt lat="48.04725" lon="-4.42104">
        <ele>40</ele>
        <time>2013-08-13T10:07:02.000Z</time>
      </trkpt>
      <trkpt lat="48.04728" lon="-4.42106">
        <ele>40</ele>
        <time>2013-08-13T10:07:05.000Z</time>
      </trkpt>
      <trkpt lat="48.04735" lon="-4.42116">
        <ele>41.400001525879</ele>
        <time>2013-08-13T10:07:12.000Z</time>
      </trkpt>
      <trkpt lat="48.04738" lon="-4.42124">
        <ele>42.400001525879</ele>
        <time>2013-08-13T10:07:18.000Z</time>
      </trkpt>
      <trkpt lat="48.0474" lon="-4.42129">
        <ele>43.799999237061</ele>
        <time>2013-08-13T10:07:21.000Z</time>
      </trkpt>
      <trkpt lat="48.04741" lon="-4.42135">
        <ele>44.799999237061</ele>
        <time>2013-08-13T10:07:25.000Z</time>
      </trkpt>
      <trkpt lat="48.04744" lon="-4.42141">
        <ele>45.599998474121</ele>
        <time>2013-08-13T10:07:29.000Z</time>
      </trkpt>
      <trkpt lat="48.04748" lon="-4.4215">
        <ele>46.599998474121</ele>
        <time>2013-08-13T10:07:36.000Z</time>
      </trkpt>
      <trkpt lat="48.04749" lon="-4.42153">
        <ele>46.599998474121</ele>
        <time>2013-08-13T10:07:38.000Z</time>
      </trkpt>
      <trkpt lat="48.04755" lon="-4.4216">
        <ele>47.200000762939</ele>
        <time>2013-08-13T10:07:45.000Z</time>
      </trkpt>
      <trkpt lat="48.04761" lon="-4.4217">
        <ele>47.200000762939</ele>
        <time>2013-08-13T10:07:53.000Z</time>
      </trkpt>
      <trkpt lat="48.04762" lon="-4.42171">
        <ele>47.599998474121</ele>
        <time>2013-08-13T10:07:54.000Z</time>
      </trkpt>
      <trkpt lat="48.04768" lon="-4.4218">
        <ele>47.599998474121</ele>
        <time>2013-08-13T10:08:02.000Z</time>
      </trkpt>
      <trkpt lat="48.04773" lon="-4.42187">
        <ele>50</ele>
        <time>2013-08-13T10:08:08.000Z</time>
      </trkpt>
      <trkpt lat="48.04777" lon="-4.42192">
        <ele>51.400001525879</ele>
        <time>2013-08-13T10:08:13.000Z</time>
      </trkpt>
      <trkpt lat="48.04778" lon="-4.42194">
        <ele>51.400001525879</ele>
        <time>2013-08-13T10:08:15.000Z</time>
      </trkpt>
      <trkpt lat="48.04782" lon="-4.42201">
        <ele>51.400001525879</ele>
        <time>2013-08-13T10:08:22.000Z</time>
      </trkpt>
      <trkpt lat="48.04785" lon="-4.42207">
        <ele>52</ele>
        <time>2013-08-13T10:08:27.000Z</time>
      </trkpt>
      <trkpt lat="48.04786" lon="-4.42209">
        <ele>52.400001525879</ele>
        <time>2013-08-13T10:08:29.000Z</time>
      </trkpt>
      <trkpt lat="48.04789" lon="-4.42217">
        <ele>53</ele>
        <time>2013-08-13T10:08:35.000Z</time>
      </trkpt>
      <trkpt lat="48.04793" lon="-4.42222">
        <ele>53.400001525879</ele>
        <time>2013-08-13T10:08:39.000Z</time>
      </trkpt>
      <trkpt lat="48.04797" lon="-4.42228">
        <ele>53.400001525879</ele>
        <time>2013-08-13T10:08:44.000Z</time>
      </trkpt>
      <trkpt lat="48.04798" lon="-4.42234">
        <ele>52.400001525879</ele>
        <time>2013-08-13T10:08:49.000Z</time>
      </trkpt>
      <trkpt lat="48.04801" lon="-4.42243">
        <ele>53</ele>
        <time>2013-08-13T10:08:57.000Z</time>
      </trkpt>
      <trkpt lat="48.04799" lon="-4.4225">
        <ele>53.799999237061</ele>
        <time>2013-08-13T10:09:04.000Z</time>
      </trkpt>
      <trkpt lat="48.04797" lon="-4.4225">
        <ele>56.200000762939</ele>
        <time>2013-08-13T10:09:10.000Z</time>
      </trkpt>
      <trkpt lat="48.04794" lon="-4.42256">
        <ele>55.400001525879</ele>
        <time>2013-08-13T10:09:15.000Z</time>
      </trkpt>
      <trkpt lat="48.04791" lon="-4.4226">
        <ele>55.799999237061</ele>
        <time>2013-08-13T10:09:20.000Z</time>
      </trkpt>
      <trkpt lat="48.04787" lon="-4.42264">
        <ele>56.799999237061</ele>
        <time>2013-08-13T10:09:25.000Z</time>
      </trkpt>
      <trkpt lat="48.04785" lon="-4.42267">
        <ele>58.599998474121</ele>
        <time>2013-08-13T10:09:30.000Z</time>
      </trkpt>
      <trkpt lat="48.04781" lon="-4.42271">
        <ele>60.200000762939</ele>
        <time>2013-08-13T10:09:35.000Z</time>
      </trkpt>
      <trkpt lat="48.0478" lon="-4.42271">
        <ele>60.200000762939</ele>
        <time>2013-08-13T10:09:36.000Z</time>
      </trkpt>
      <trkpt lat="48.04776" lon="-4.42273">
        <ele>60.599998474121</ele>
        <time>2013-08-13T10:09:39.000Z</time>
      </trkpt>
      <trkpt lat="48.04767" lon="-4.42276">
        <ele>62.599998474121</ele>
        <time>2013-08-13T10:09:46.000Z</time>
      </trkpt>
      <trkpt lat="48.04766" lon="-4.42276">
        <ele>61.599998474121</ele>
        <time>2013-08-13T10:09:47.000Z</time>
      </trkpt>
      <trkpt lat="48.04765" lon="-4.42276">
        <ele>60.200000762939</ele>
        <time>2013-08-13T10:09:54.000Z</time>
      </trkpt>
      <trkpt lat="48.04764" lon="-4.42276">
        <ele>59.599998474121</ele>
        <time>2013-08-13T10:09:56.000Z</time>
      </trkpt>
      <trkpt lat="48.04758" lon="-4.42279">
        <ele>58.599998474121</ele>
        <time>2013-08-13T10:10:01.000Z</time>
      </trkpt>
      <trkpt lat="48.04758" lon="-4.42279">
        <ele>58.599998474121</ele>
        <time>2013-08-13T10:10:02.000Z</time>
      </trkpt>
      <trkpt lat="48.04752" lon="-4.42281">
        <ele>57.799999237061</ele>
        <time>2013-08-13T10:10:09.000Z</time>
      </trkpt>
      <trkpt lat="48.04745" lon="-4.42282">
        <ele>56.799999237061</ele>
        <time>2013-08-13T10:10:15.000Z</time>
      </trkpt>
      <trkpt lat="48.04738" lon="-4.42281">
        <ele>56.200000762939</ele>
        <time>2013-08-13T10:10:21.000Z</time>
      </trkpt>
      <trkpt lat="48.04733" lon="-4.42281">
        <ele>56.200000762939</ele>
        <time>2013-08-13T10:10:26.000Z</time>
      </trkpt>
      <trkpt lat="48.04728" lon="-4.42282">
        <ele>54.400001525879</ele>
        <time>2013-08-13T10:10:30.000Z</time>
      </trkpt>
      <trkpt lat="48.04727" lon="-4.42283">
        <ele>53.400001525879</ele>
        <time>2013-08-13T10:10:31.000Z</time>
      </trkpt>
      <trkpt lat="48.04723" lon="-4.42283">
        <ele>52.400001525879</ele>
        <time>2013-08-13T10:10:35.000Z</time>
      </trkpt>
      <trkpt lat="48.04718" lon="-4.42285">
        <ele>51</ele>
        <time>2013-08-13T10:10:40.000Z</time>
      </trkpt>
      <trkpt lat="48.0471" lon="-4.42289">
        <ele>50.599998474121</ele>
        <time>2013-08-13T10:10:48.000Z</time>
      </trkpt>
      <trkpt lat="48.04703" lon="-4.42291">
        <ele>50</ele>
        <time>2013-08-13T10:10:54.000Z</time>
      </trkpt>
      <trkpt lat="48.04696" lon="-4.42292">
        <ele>49.599998474121</ele>
        <time>2013-08-13T10:10:59.000Z</time>
      </trkpt>
      <trkpt lat="48.04687" lon="-4.42291">
        <ele>51.400001525879</ele>
        <time>2013-08-13T10:11:06.000Z</time>
      </trkpt>
      <trkpt lat="48.0468" lon="-4.42293">
        <ele>51.400001525879</ele>
        <time>2013-08-13T10:11:13.000Z</time>
      </trkpt>
      <trkpt lat="48.04675" lon="-4.42297">
        <ele>51.400001525879</ele>
        <time>2013-08-13T10:11:18.000Z</time>
      </trkpt>
      <trkpt lat="48.04671" lon="-4.42307">
        <ele>50</ele>
        <time>2013-08-13T10:11:25.000Z</time>
      </trkpt>
      <trkpt lat="48.04671" lon="-4.4231">
        <ele>50</ele>
        <time>2013-08-13T10:11:27.000Z</time>
      </trkpt>
      <trkpt lat="48.0467" lon="-4.42315">
        <ele>51</ele>
        <time>2013-08-13T10:11:34.000Z</time>
      </trkpt>
      <trkpt lat="48.04669" lon="-4.42325">
        <ele>49.599998474121</ele>
        <time>2013-08-13T10:11:40.000Z</time>
      </trkpt>
      <trkpt lat="48.04667" lon="-4.42335">
        <ele>50</ele>
        <time>2013-08-13T10:11:46.000Z</time>
      </trkpt>
      <trkpt lat="48.04665" lon="-4.42345">
        <ele>51</ele>
        <time>2013-08-13T10:11:53.000Z</time>
      </trkpt>
      <trkpt lat="48.04663" lon="-4.42358">
        <ele>51.400001525879</ele>
        <time>2013-08-13T10:12:01.000Z</time>
      </trkpt>
      <trkpt lat="48.0466" lon="-4.42369">
        <ele>52</ele>
        <time>2013-08-13T10:12:08.000Z</time>
      </trkpt>
      <trkpt lat="48.04657" lon="-4.42381">
        <ele>53</ele>
        <time>2013-08-13T10:12:15.000Z</time>
      </trkpt>
      <trkpt lat="48.04655" lon="-4.4239">
        <ele>50</ele>
        <time>2013-08-13T10:12:23.000Z</time>
      </trkpt>
      <trkpt lat="48.04656" lon="-4.42391">
        <ele>49.599998474121</ele>
        <time>2013-08-13T10:12:30.000Z</time>
      </trkpt>
      <trkpt lat="48.04654" lon="-4.42398">
        <ele>48.200000762939</ele>
        <time>2013-08-13T10:12:36.000Z</time>
      </trkpt>
      <trkpt lat="48.04654" lon="-4.424">
        <ele>46.599998474121</ele>
        <time>2013-08-13T10:12:42.000Z</time>
      </trkpt>
      <trkpt lat="48.04653" lon="-4.42406">
        <ele>45.200000762939</ele>
        <time>2013-08-13T10:12:51.000Z</time>
      </trkpt>
      <trkpt lat="48.0465" lon="-4.42422">
        <ele>41.799999237061</ele>
        <time>2013-08-13T10:13:01.000Z</time>
      </trkpt>
      <trkpt lat="48.04648" lon="-4.42434">
        <ele>40</ele>
        <time>2013-08-13T10:13:09.000Z</time>
      </trkpt>
      <trkpt lat="48.04644" lon="-4.42449">
        <ele>40.400001525879</ele>
        <time>2013-08-13T10:13:19.000Z</time>
      </trkpt>
      <trkpt lat="48.04644" lon="-4.4245">
        <ele>40.400001525879</ele>
        <time>2013-08-13T10:13:20.000Z</time>
      </trkpt>
      <trkpt lat="48.04643" lon="-4.42453">
        <ele>40.400001525879</ele>
        <time>2013-08-13T10:13:25.000Z</time>
      </trkpt>
      <trkpt lat="48.04642" lon="-4.42456">
        <ele>41.400001525879</ele>
        <time>2013-08-13T10:13:32.000Z</time>
      </trkpt>
      <trkpt lat="48.04641" lon="-4.42459">
        <ele>41.400001525879</ele>
        <time>2013-08-13T10:13:40.000Z</time>
      </trkpt>
      <trkpt lat="48.0464" lon="-4.42466">
        <ele>40.799999237061</ele>
        <time>2013-08-13T10:13:44.000Z</time>
      </trkpt>
      <trkpt lat="48.04638" lon="-4.42481">
        <ele>42.400001525879</ele>
        <time>2013-08-13T10:13:53.000Z</time>
      </trkpt>
      <trkpt lat="48.04637" lon="-4.42492">
        <ele>41.799999237061</ele>
        <time>2013-08-13T10:14:00.000Z</time>
      </trkpt>
      <trkpt lat="48.04636" lon="-4.42498">
        <ele>41.400001525879</ele>
        <time>2013-08-13T10:14:04.000Z</time>
      </trkpt>
      <trkpt lat="48.04634" lon="-4.42507">
        <ele>40</ele>
        <time>2013-08-13T10:14:10.000Z</time>
      </trkpt>
      <trkpt lat="48.04632" lon="-4.42517">
        <ele>39</ele>
        <time>2013-08-13T10:14:16.000Z</time>
      </trkpt>
      <trkpt lat="48.04631" lon="-4.4252">
        <ele>38</ele>
        <time>2013-08-13T10:14:18.000Z</time>
      </trkpt>
      <trkpt lat="48.0463" lon="-4.42527">
        <ele>36.599998474121</ele>
        <time>2013-08-13T10:14:22.000Z</time>
      </trkpt>
      <trkpt lat="48.04626" lon="-4.42538">
        <ele>33.599998474121</ele>
        <time>2013-08-13T10:14:29.000Z</time>
      </trkpt>
      <trkpt lat="48.04624" lon="-4.4255">
        <ele>32.200000762939</ele>
        <time>2013-08-13T10:14:36.000Z</time>
      </trkpt>
      <trkpt lat="48.04621" lon="-4.42561">
        <ele>31.200000762939</ele>
        <time>2013-08-13T10:14:42.000Z</time>
      </trkpt>
      <trkpt lat="48.04618" lon="-4.42574">
        <ele>32.799999237061</ele>
        <time>2013-08-13T10:14:49.000Z</time>
      </trkpt>
      <trkpt lat="48.04615" lon="-4.42589">
        <ele>36</ele>
        <time>2013-08-13T10:14:57.000Z</time>
      </trkpt>
      <trkpt lat="48.04611" lon="-4.42605">
        <ele>37</ele>
        <time>2013-08-13T10:15:06.000Z</time>
      </trkpt>
      <trkpt lat="48.04608" lon="-4.42619">
        <ele>38</ele>
        <time>2013-08-13T10:15:13.000Z</time>
      </trkpt>
      <trkpt lat="48.04606" lon="-4.4263">
        <ele>38.400001525879</ele>
        <time>2013-08-13T10:15:19.000Z</time>
      </trkpt>
      <trkpt lat="48.04602" lon="-4.42643">
        <ele>39</ele>
        <time>2013-08-13T10:15:26.000Z</time>
      </trkpt>
      <trkpt lat="48.04599" lon="-4.42655">
        <ele>39.400001525879</ele>
        <time>2013-08-13T10:15:33.000Z</time>
      </trkpt>
      <trkpt lat="48.04596" lon="-4.42667">
        <ele>39.400001525879</ele>
        <time>2013-08-13T10:15:40.000Z</time>
      </trkpt>
      <trkpt lat="48.04592" lon="-4.4268">
        <ele>40</ele>
        <time>2013-08-13T10:15:47.000Z</time>
      </trkpt>
      <trkpt lat="48.04589" lon="-4.42694">
        <ele>40.799999237061</ele>
        <time>2013-08-13T10:15:55.000Z</time>
      </trkpt>
      <trkpt lat="48.04585" lon="-4.42708">
        <ele>41.400001525879</ele>
        <time>2013-08-13T10:16:03.000Z</time>
      </trkpt>
      <trkpt lat="48.04583" lon="-4.42719">
        <ele>41.799999237061</ele>
        <time>2013-08-13T10:16:09.000Z</time>
      </trkpt>
      <trkpt lat="48.0458" lon="-4.42735">
        <ele>43.799999237061</ele>
        <time>2013-08-13T10:16:18.000Z</time>
      </trkpt>
      <trkpt lat="48.04576" lon="-4.42748">
        <ele>44.799999237061</ele>
        <time>2013-08-13T10:16:26.000Z</time>
      </trkpt>
      <trkpt lat="48.04573" lon="-4.42762">
        <ele>45.599998474121</ele>
        <time>2013-08-13T10:16:34.000Z</time>
      </trkpt>
      <trkpt lat="48.0457" lon="-4.42775">
        <ele>46.200000762939</ele>
        <time>2013-08-13T10:16:42.000Z</time>
      </trkpt>
      <trkpt lat="48.04567" lon="-4.42788">
        <ele>46.200000762939</ele>
        <time>2013-08-13T10:16:50.000Z</time>
      </trkpt>
      <trkpt lat="48.04564" lon="-4.42799">
        <ele>48.599998474121</ele>
        <time>2013-08-13T10:16:57.000Z</time>
      </trkpt>
      <trkpt lat="48.04562" lon="-4.4281">
        <ele>50</ele>
        <time>2013-08-13T10:17:04.000Z</time>
      </trkpt>
      <trkpt lat="48.0456" lon="-4.42818">
        <ele>50.599998474121</ele>
        <time>2013-08-13T10:17:09.000Z</time>
      </trkpt>
      <trkpt lat="48.04557" lon="-4.42828">
        <ele>52</ele>
        <time>2013-08-13T10:17:15.000Z</time>
      </trkpt>
      <trkpt lat="48.04554" lon="-4.4284">
        <ele>52.400001525879</ele>
        <time>2013-08-13T10:17:23.000Z</time>
      </trkpt>
      <trkpt lat="48.0455" lon="-4.4285">
        <ele>52.400001525879</ele>
        <time>2013-08-13T10:17:30.000Z</time>
      </trkpt>
      <trkpt lat="48.04543" lon="-4.42855">
        <ele>50.599998474121</ele>
        <time>2013-08-13T10:17:37.000Z</time>
      </trkpt>
      <trkpt lat="48.04536" lon="-4.42854">
        <ele>50</ele>
        <time>2013-08-13T10:17:43.000Z</time>
      </trkpt>
      <trkpt lat="48.0453" lon="-4.42849">
        <ele>50</ele>
        <time>2013-08-13T10:17:49.000Z</time>
      </trkpt>
      <trkpt lat="48.04521" lon="-4.42846">
        <ele>50</ele>
        <time>2013-08-13T10:17:57.000Z</time>
      </trkpt>
      <trkpt lat="48.04513" lon="-4.42842">
        <ele>50</ele>
        <time>2013-08-13T10:18:04.000Z</time>
      </trkpt>
      <trkpt lat="48.0451" lon="-4.42841">
        <ele>50</ele>
        <time>2013-08-13T10:18:06.000Z</time>
      </trkpt>
      <trkpt lat="48.04505" lon="-4.42837">
        <ele>50.599998474121</ele>
        <time>2013-08-13T10:18:11.000Z</time>
      </trkpt>
      <trkpt lat="48.04497" lon="-4.42835">
        <ele>50</ele>
        <time>2013-08-13T10:18:18.000Z</time>
      </trkpt>
      <trkpt lat="48.04489" lon="-4.42831">
        <ele>50.599998474121</ele>
        <time>2013-08-13T10:18:25.000Z</time>
      </trkpt>
      <trkpt lat="48.04483" lon="-4.42827">
        <ele>49.599998474121</ele>
        <time>2013-08-13T10:18:31.000Z</time>
      </trkpt>
      <trkpt lat="48.04479" lon="-4.42826">
        <ele>50</ele>
        <time>2013-08-13T10:18:35.000Z</time>
      </trkpt>
      <trkpt lat="48.04467" lon="-4.42821">
        <ele>51</ele>
        <time>2013-08-13T10:18:44.000Z</time>
      </trkpt>
      <trkpt lat="48.04459" lon="-4.42819">
        <ele>51</ele>
        <time>2013-08-13T10:18:51.000Z</time>
      </trkpt>
      <trkpt lat="48.04451" lon="-4.42819">
        <ele>50</ele>
        <time>2013-08-13T10:18:58.000Z</time>
      </trkpt>
      <trkpt lat="48.04444" lon="-4.42818">
        <ele>49</ele>
        <time>2013-08-13T10:19:04.000Z</time>
      </trkpt>
      <trkpt lat="48.04441" lon="-4.42818">
        <ele>49</ele>
        <time>2013-08-13T10:19:06.000Z</time>
      </trkpt>
      <trkpt lat="48.04434" lon="-4.42816">
        <ele>47.599998474121</ele>
        <time>2013-08-13T10:19:13.000Z</time>
      </trkpt>
      <trkpt lat="48.04433" lon="-4.42816">
        <ele>47.599998474121</ele>
        <time>2013-08-13T10:19:14.000Z</time>
      </trkpt>
      <trkpt lat="48.04429" lon="-4.42816">
        <ele>48.200000762939</ele>
        <time>2013-08-13T10:19:18.000Z</time>
      </trkpt>
      <trkpt lat="48.04425" lon="-4.42818">
        <ele>49</ele>
        <time>2013-08-13T10:19:21.000Z</time>
      </trkpt>
      <trkpt lat="48.04419" lon="-4.42822">
        <ele>49.599998474121</ele>
        <time>2013-08-13T10:19:27.000Z</time>
      </trkpt>
      <trkpt lat="48.04415" lon="-4.42828">
        <ele>50</ele>
        <time>2013-08-13T10:19:32.000Z</time>
      </trkpt>
      <trkpt lat="48.04414" lon="-4.42829">
        <ele>49.599998474121</ele>
        <time>2013-08-13T10:19:33.000Z</time>
      </trkpt>
      <trkpt lat="48.04408" lon="-4.42839">
        <ele>49.599998474121</ele>
        <time>2013-08-13T10:19:40.000Z</time>
      </trkpt>
      <trkpt lat="48.04403" lon="-4.4285">
        <ele>48.200000762939</ele>
        <time>2013-08-13T10:19:48.000Z</time>
      </trkpt>
      <trkpt lat="48.04398" lon="-4.42855">
        <ele>47.200000762939</ele>
        <time>2013-08-13T10:19:53.000Z</time>
      </trkpt>
      <trkpt lat="48.04394" lon="-4.42858">
        <ele>47.599998474121</ele>
        <time>2013-08-13T10:19:59.000Z</time>
      </trkpt>
      <trkpt lat="48.04393" lon="-4.42861">
        <ele>46.599998474121</ele>
        <time>2013-08-13T10:20:01.000Z</time>
      </trkpt>
      <trkpt lat="48.04389" lon="-4.42865">
        <ele>46.200000762939</ele>
        <time>2013-08-13T10:20:06.000Z</time>
      </trkpt>
      <trkpt lat="48.0438" lon="-4.42874">
        <ele>48.200000762939</ele>
        <time>2013-08-13T10:20:15.000Z</time>
      </trkpt>
      <trkpt lat="48.04374" lon="-4.42883">
        <ele>48.599998474121</ele>
        <time>2013-08-13T10:20:23.000Z</time>
      </trkpt>
      <trkpt lat="48.04372" lon="-4.42886">
        <ele>49</ele>
        <time>2013-08-13T10:20:26.000Z</time>
      </trkpt>
      <trkpt lat="48.04365" lon="-4.42894">
        <ele>47.200000762939</ele>
        <time>2013-08-13T10:20:34.000Z</time>
      </trkpt>
      <trkpt lat="48.04359" lon="-4.42901">
        <ele>44.200000762939</ele>
        <time>2013-08-13T10:20:42.000Z</time>
      </trkpt>
      <trkpt lat="48.04357" lon="-4.42902">
        <ele>44.200000762939</ele>
        <time>2013-08-13T10:20:43.000Z</time>
      </trkpt>
      <trkpt lat="48.04354" lon="-4.42905">
        <ele>43.200000762939</ele>
        <time>2013-08-13T10:20:47.000Z</time>
      </trkpt>
      <trkpt lat="48.04352" lon="-4.42907">
        <ele>43.200000762939</ele>
        <time>2013-08-13T10:20:49.000Z</time>
      </trkpt>
      <trkpt lat="48.04346" lon="-4.42914">
        <ele>44.799999237061</ele>
        <time>2013-08-13T10:20:55.000Z</time>
      </trkpt>
      <trkpt lat="48.0434" lon="-4.4292">
        <ele>46.200000762939</ele>
        <time>2013-08-13T10:21:01.000Z</time>
      </trkpt>
      <trkpt lat="48.04336" lon="-4.42925">
        <ele>46.599998474121</ele>
        <time>2013-08-13T10:21:05.000Z</time>
      </trkpt>
      <trkpt lat="48.0433" lon="-4.42934">
        <ele>46.200000762939</ele>
        <time>2013-08-13T10:21:13.000Z</time>
      </trkpt>
      <trkpt lat="48.04327" lon="-4.42941">
        <ele>46.599998474121</ele>
        <time>2013-08-13T10:21:18.000Z</time>
      </trkpt>
      <trkpt lat="48.04324" lon="-4.42944">
        <ele>46.599998474121</ele>
        <time>2013-08-13T10:21:21.000Z</time>
      </trkpt>
      <trkpt lat="48.0432" lon="-4.42949">
        <ele>45.599998474121</ele>
        <time>2013-08-13T10:21:25.000Z</time>
      </trkpt>
      <trkpt lat="48.04318" lon="-4.42952">
        <ele>45.200000762939</ele>
        <time>2013-08-13T10:21:28.000Z</time>
      </trkpt>
      <trkpt lat="48.04309" lon="-4.4296">
        <ele>43.200000762939</ele>
        <time>2013-08-13T10:21:37.000Z</time>
      </trkpt>
      <trkpt lat="48.04303" lon="-4.42966">
        <ele>40</ele>
        <time>2013-08-13T10:21:44.000Z</time>
      </trkpt>
      <trkpt lat="48.043" lon="-4.42967">
        <ele>40</ele>
        <time>2013-08-13T10:21:46.000Z</time>
      </trkpt>
      <trkpt lat="48.04292" lon="-4.42974">
        <ele>42.400001525879</ele>
        <time>2013-08-13T10:21:54.000Z</time>
      </trkpt>
      <trkpt lat="48.04287" lon="-4.42979">
        <ele>41.400001525879</ele>
        <time>2013-08-13T10:22:01.000Z</time>
      </trkpt>
      <trkpt lat="48.04283" lon="-4.42985">
        <ele>40.799999237061</ele>
        <time>2013-08-13T10:22:06.000Z</time>
      </trkpt>
      <trkpt lat="48.04279" lon="-4.42985">
        <ele>40.799999237061</ele>
        <time>2013-08-13T10:22:08.000Z</time>
      </trkpt>
      <trkpt lat="48.04273" lon="-4.42992">
        <ele>40.799999237061</ele>
        <time>2013-08-13T10:22:15.000Z</time>
      </trkpt>
      <trkpt lat="48.04267" lon="-4.42995">
        <ele>39</ele>
        <time>2013-08-13T10:22:21.000Z</time>
      </trkpt>
      <trkpt lat="48.04264" lon="-4.42999">
        <ele>36.599998474121</ele>
        <time>2013-08-13T10:22:25.000Z</time>
      </trkpt>
      <trkpt lat="48.04258" lon="-4.43004">
        <ele>33.200000762939</ele>
        <time>2013-08-13T10:22:32.000Z</time>
      </trkpt>
      <trkpt lat="48.04253" lon="-4.43011">
        <ele>31.799999237061</ele>
        <time>2013-08-13T10:22:38.000Z</time>
      </trkpt>
      <trkpt lat="48.04247" lon="-4.43022">
        <ele>31.200000762939</ele>
        <time>2013-08-13T10:22:46.000Z</time>
      </trkpt>
      <trkpt lat="48.04242" lon="-4.43037">
        <ele>31.799999237061</ele>
        <time>2013-08-13T10:22:54.000Z</time>
      </trkpt>
      <trkpt lat="48.04242" lon="-4.4304">
        <ele>31.799999237061</ele>
        <time>2013-08-13T10:22:55.000Z</time>
      </trkpt>
      <trkpt lat="48.0424" lon="-4.43057">
        <ele>34.599998474121</ele>
        <time>2013-08-13T10:23:03.000Z</time>
      </trkpt>
      <trkpt lat="48.04237" lon="-4.43071">
        <ele>33.599998474121</ele>
        <time>2013-08-13T10:23:10.000Z</time>
      </trkpt>
      <trkpt lat="48.04237" lon="-4.43075">
        <ele>34.200000762939</ele>
        <time>2013-08-13T10:23:12.000Z</time>
      </trkpt>
      <trkpt lat="48.04236" lon="-4.4309">
        <ele>31.799999237061</ele>
        <time>2013-08-13T10:23:20.000Z</time>
      </trkpt>
      <trkpt lat="48.04234" lon="-4.43098">
        <ele>30.799999237061</ele>
        <time>2013-08-13T10:23:25.000Z</time>
      </trkpt>
      <trkpt lat="48.04232" lon="-4.4311">
        <ele>30.799999237061</ele>
        <time>2013-08-13T10:23:32.000Z</time>
      </trkpt>
      <trkpt lat="48.04232" lon="-4.43114">
        <ele>30.799999237061</ele>
        <time>2013-08-13T10:23:34.000Z</time>
      </trkpt>
      <trkpt lat="48.0423" lon="-4.4312">
        <ele>31.799999237061</ele>
        <time>2013-08-13T10:23:38.000Z</time>
      </trkpt>
      <trkpt lat="48.04228" lon="-4.43131">
        <ele>29.799999237061</ele>
        <time>2013-08-13T10:23:45.000Z</time>
      </trkpt>
      <trkpt lat="48.04227" lon="-4.43134">
        <ele>30.39999961853</ele>
        <time>2013-08-13T10:23:47.000Z</time>
      </trkpt>
      <trkpt lat="48.04226" lon="-4.43138">
        <ele>30.799999237061</ele>
        <time>2013-08-13T10:23:50.000Z</time>
      </trkpt>
      <trkpt lat="48.04224" lon="-4.43146">
        <ele>28.799999237061</ele>
        <time>2013-08-13T10:23:55.000Z</time>
      </trkpt>
      <trkpt lat="48.04226" lon="-4.43156">
        <ele>27</ele>
        <time>2013-08-13T10:24:00.000Z</time>
      </trkpt>
      <trkpt lat="48.04224" lon="-4.43163">
        <ele>26.39999961853</ele>
        <time>2013-08-13T10:24:04.000Z</time>
      </trkpt>
      <trkpt lat="48.04222" lon="-4.43168">
        <ele>25.60000038147</ele>
        <time>2013-08-13T10:24:09.000Z</time>
      </trkpt>
      <trkpt lat="48.0422" lon="-4.43174">
        <ele>26</ele>
        <time>2013-08-13T10:24:12.000Z</time>
      </trkpt>
      <trkpt lat="48.04216" lon="-4.43189">
        <ele>21.60000038147</ele>
        <time>2013-08-13T10:24:21.000Z</time>
      </trkpt>
      <trkpt lat="48.04214" lon="-4.432">
        <ele>22.200000762939</ele>
        <time>2013-08-13T10:24:28.000Z</time>
      </trkpt>
      <trkpt lat="48.04213" lon="-4.43212">
        <ele>22.200000762939</ele>
        <time>2013-08-13T10:24:35.000Z</time>
      </trkpt>
      <trkpt lat="48.0421" lon="-4.43221">
        <ele>21.200000762939</ele>
        <time>2013-08-13T10:24:40.000Z</time>
      </trkpt>
      <trkpt lat="48.04209" lon="-4.4323">
        <ele>21.60000038147</ele>
        <time>2013-08-13T10:24:46.000Z</time>
      </trkpt>
      <trkpt lat="48.04205" lon="-4.43237">
        <ele>23.60000038147</ele>
        <time>2013-08-13T10:24:51.000Z</time>
      </trkpt>
      <trkpt lat="48.04201" lon="-4.43242">
        <ele>24</ele>
        <time>2013-08-13T10:24:55.000Z</time>
      </trkpt>
      <trkpt lat="48.04197" lon="-4.43243">
        <ele>24.60000038147</ele>
        <time>2013-08-13T10:24:59.000Z</time>
      </trkpt>
      <trkpt lat="48.04194" lon="-4.43245">
        <ele>23.60000038147</ele>
        <time>2013-08-13T10:25:02.000Z</time>
      </trkpt>
      <trkpt lat="48.04187" lon="-4.43249">
        <ele>24.60000038147</ele>
        <time>2013-08-13T10:25:08.000Z</time>
      </trkpt>
      <trkpt lat="48.04186" lon="-4.43249">
        <ele>24.60000038147</ele>
        <time>2013-08-13T10:25:09.000Z</time>
      </trkpt>
      <trkpt lat="48.0418" lon="-4.43251">
        <ele>23.60000038147</ele>
        <time>2013-08-13T10:25:14.000Z</time>
      </trkpt>
      <trkpt lat="48.04174" lon="-4.43255">
        <ele>22.200000762939</ele>
        <time>2013-08-13T10:25:20.000Z</time>
      </trkpt>
      <trkpt lat="48.04169" lon="-4.43255">
        <ele>21.200000762939</ele>
        <time>2013-08-13T10:25:24.000Z</time>
      </trkpt>
      <trkpt lat="48.04163" lon="-4.43256">
        <ele>18.39999961853</ele>
        <time>2013-08-13T10:25:30.000Z</time>
      </trkpt>
      <trkpt lat="48.04159" lon="-4.43254">
        <ele>16.799999237061</ele>
        <time>2013-08-13T10:25:34.000Z</time>
      </trkpt>
      <trkpt lat="48.0415" lon="-4.43252">
        <ele>15</ele>
        <time>2013-08-13T10:25:41.000Z</time>
      </trkpt>
      <trkpt lat="48.04144" lon="-4.43251">
        <ele>14.39999961853</ele>
        <time>2013-08-13T10:25:46.000Z</time>
      </trkpt>
      <trkpt lat="48.04143" lon="-4.43252">
        <ele>14</ele>
        <time>2013-08-13T10:25:48.000Z</time>
      </trkpt>
      <trkpt lat="48.04139" lon="-4.43254">
        <ele>13.39999961853</ele>
        <time>2013-08-13T10:25:51.000Z</time>
      </trkpt>
      <trkpt lat="48.0413" lon="-4.43253">
        <ele>15.800000190735</ele>
        <time>2013-08-13T10:25:58.000Z</time>
      </trkpt>
      <trkpt lat="48.04123" lon="-4.43251">
        <ele>16.39999961853</ele>
        <time>2013-08-13T10:26:03.000Z</time>
      </trkpt>
      <trkpt lat="48.04121" lon="-4.43253">
        <ele>14.39999961853</ele>
        <time>2013-08-13T10:26:08.000Z</time>
      </trkpt>
      <trkpt lat="48.04123" lon="-4.43257">
        <ele>14</ele>
        <time>2013-08-13T10:26:11.000Z</time>
      </trkpt>
      <trkpt lat="48.04122" lon="-4.43257">
        <ele>18.39999961853</ele>
        <time>2013-08-13T10:26:22.000Z</time>
      </trkpt>
      <trkpt lat="48.04116" lon="-4.43255">
        <ele>18.39999961853</ele>
        <time>2013-08-13T10:26:28.000Z</time>
      </trkpt>
      <trkpt lat="48.04107" lon="-4.43253">
        <ele>18.799999237061</ele>
        <time>2013-08-13T10:26:35.000Z</time>
      </trkpt>
      <trkpt lat="48.04098" lon="-4.43251">
        <ele>19.200000762939</ele>
        <time>2013-08-13T10:26:42.000Z</time>
      </trkpt>
      <trkpt lat="48.04089" lon="-4.43249">
        <ele>20.200000762939</ele>
        <time>2013-08-13T10:26:49.000Z</time>
      </trkpt>
      <trkpt lat="48.0408" lon="-4.43247">
        <ele>20.200000762939</ele>
        <time>2013-08-13T10:26:56.000Z</time>
      </trkpt>
      <trkpt lat="48.04071" lon="-4.43246">
        <ele>19.200000762939</ele>
        <time>2013-08-13T10:27:03.000Z</time>
      </trkpt>
      <trkpt lat="48.04064" lon="-4.43246">
        <ele>19.200000762939</ele>
        <time>2013-08-13T10:27:09.000Z</time>
      </trkpt>
      <trkpt lat="48.04054" lon="-4.43247">
        <ele>17.39999961853</ele>
        <time>2013-08-13T10:27:17.000Z</time>
      </trkpt>
      <trkpt lat="48.04046" lon="-4.43246">
        <ele>17.39999961853</ele>
        <time>2013-08-13T10:27:24.000Z</time>
      </trkpt>
      <trkpt lat="48.0404" lon="-4.43246">
        <ele>16.39999961853</ele>
        <time>2013-08-13T10:27:29.000Z</time>
      </trkpt>
      <trkpt lat="48.0403" lon="-4.43245">
        <ele>16.39999961853</ele>
        <time>2013-08-13T10:27:37.000Z</time>
      </trkpt>
      <trkpt lat="48.04022" lon="-4.43245">
        <ele>15.39999961853</ele>
        <time>2013-08-13T10:27:44.000Z</time>
      </trkpt>
      <trkpt lat="48.0402" lon="-4.43245">
        <ele>15.39999961853</ele>
        <time>2013-08-13T10:27:49.000Z</time>
      </trkpt>
      <trkpt lat="48.04018" lon="-4.43245">
        <ele>15.39999961853</ele>
        <time>2013-08-13T10:27:50.000Z</time>
      </trkpt>
      <trkpt lat="48.0401" lon="-4.43246">
        <ele>15</ele>
        <time>2013-08-13T10:27:57.000Z</time>
      </trkpt>
      <trkpt lat="48.04002" lon="-4.43248">
        <ele>13</ele>
        <time>2013-08-13T10:28:04.000Z</time>
      </trkpt>
      <trkpt lat="48.04" lon="-4.43248">
        <ele>14</ele>
        <time>2013-08-13T10:28:06.000Z</time>
      </trkpt>
      <trkpt lat="48.03992" lon="-4.43253">
        <ele>13.39999961853</ele>
        <time>2013-08-13T10:28:13.000Z</time>
      </trkpt>
      <trkpt lat="48.03987" lon="-4.43255">
        <ele>14</ele>
        <time>2013-08-13T10:28:17.000Z</time>
      </trkpt>
      <trkpt lat="48.03982" lon="-4.43261">
        <ele>12.60000038147</ele>
        <time>2013-08-13T10:28:23.000Z</time>
      </trkpt>
      <trkpt lat="48.03979" lon="-4.43269">
        <ele>13</ele>
        <time>2013-08-13T10:28:28.000Z</time>
      </trkpt>
      <trkpt lat="48.03979" lon="-4.43279">
        <ele>12.60000038147</ele>
        <time>2013-08-13T10:28:34.000Z</time>
      </trkpt>
      <trkpt lat="48.03978" lon="-4.43283">
        <ele>12</ele>
        <time>2013-08-13T10:28:37.000Z</time>
      </trkpt>
      <trkpt lat="48.03977" lon="-4.43285">
        <ele>13</ele>
        <time>2013-08-13T10:28:39.000Z</time>
      </trkpt>
      <trkpt lat="48.03976" lon="-4.43291">
        <ele>16.799999237061</ele>
        <time>2013-08-13T10:28:45.000Z</time>
      </trkpt>
      <trkpt lat="48.03975" lon="-4.43295">
        <ele>18.39999961853</ele>
        <time>2013-08-13T10:28:54.000Z</time>
      </trkpt>
      <trkpt lat="48.03975" lon="-4.43296">
        <ele>18.799999237061</ele>
        <time>2013-08-13T10:28:55.000Z</time>
      </trkpt>
      <trkpt lat="48.03975" lon="-4.43308">
        <ele>14.39999961853</ele>
        <time>2013-08-13T10:29:02.000Z</time>
      </trkpt>
      <trkpt lat="48.03972" lon="-4.43316">
        <ele>15</ele>
        <time>2013-08-13T10:29:07.000Z</time>
      </trkpt>
      <trkpt lat="48.03972" lon="-4.43319">
        <ele>13.39999961853</ele>
        <time>2013-08-13T10:29:09.000Z</time>
      </trkpt>
      <trkpt lat="48.03971" lon="-4.4333">
        <ele>17.39999961853</ele>
        <time>2013-08-13T10:29:16.000Z</time>
      </trkpt>
      <trkpt lat="48.0397" lon="-4.43333">
        <ele>18.39999961853</ele>
        <time>2013-08-13T10:29:18.000Z</time>
      </trkpt>
      <trkpt lat="48.0397" lon="-4.43339">
        <ele>17.799999237061</ele>
        <time>2013-08-13T10:29:21.000Z</time>
      </trkpt>
      <trkpt lat="48.03969" lon="-4.4335">
        <ele>18.39999961853</ele>
        <time>2013-08-13T10:29:27.000Z</time>
      </trkpt>
      <trkpt lat="48.03967" lon="-4.43365">
        <ele>19.200000762939</ele>
        <time>2013-08-13T10:29:35.000Z</time>
      </trkpt>
      <trkpt lat="48.03965" lon="-4.43377">
        <ele>20.799999237061</ele>
        <time>2013-08-13T10:29:42.000Z</time>
      </trkpt>
      <trkpt lat="48.03963" lon="-4.43389">
        <ele>21.200000762939</ele>
        <time>2013-08-13T10:29:49.000Z</time>
      </trkpt>
      <trkpt lat="48.0396" lon="-4.43401">
        <ele>22.200000762939</ele>
        <time>2013-08-13T10:29:56.000Z</time>
      </trkpt>
      <trkpt lat="48.03959" lon="-4.43413">
        <ele>24.60000038147</ele>
        <time>2013-08-13T10:30:03.000Z</time>
      </trkpt>
      <trkpt lat="48.03958" lon="-4.43424">
        <ele>26</ele>
        <time>2013-08-13T10:30:10.000Z</time>
      </trkpt>
      <trkpt lat="48.03958" lon="-4.43434">
        <ele>26</ele>
        <time>2013-08-13T10:30:16.000Z</time>
      </trkpt>
      <trkpt lat="48.03956" lon="-4.43443">
        <ele>25.60000038147</ele>
        <time>2013-08-13T10:30:22.000Z</time>
      </trkpt>
      <trkpt lat="48.03953" lon="-4.43449">
        <ele>26.39999961853</ele>
        <time>2013-08-13T10:30:28.000Z</time>
      </trkpt>
      <trkpt lat="48.0395" lon="-4.43454">
        <ele>27</ele>
        <time>2013-08-13T10:30:32.000Z</time>
      </trkpt>
      <trkpt lat="48.03945" lon="-4.43462">
        <ele>27.39999961853</ele>
        <time>2013-08-13T10:30:39.000Z</time>
      </trkpt>
      <trkpt lat="48.0394" lon="-4.43469">
        <ele>28.39999961853</ele>
        <time>2013-08-13T10:30:46.000Z</time>
      </trkpt>
      <trkpt lat="48.03938" lon="-4.43469">
        <ele>31.200000762939</ele>
        <time>2013-08-13T10:30:52.000Z</time>
      </trkpt>
      <trkpt lat="48.03937" lon="-4.43469">
        <ele>31.200000762939</ele>
        <time>2013-08-13T10:30:54.000Z</time>
      </trkpt>
      <trkpt lat="48.03933" lon="-4.43471">
        <ele>30.799999237061</ele>
        <time>2013-08-13T10:30:58.000Z</time>
      </trkpt>
      <trkpt lat="48.03927" lon="-4.43474">
        <ele>29.39999961853</ele>
        <time>2013-08-13T10:31:05.000Z</time>
      </trkpt>
      <trkpt lat="48.03923" lon="-4.43475">
        <ele>29.39999961853</ele>
        <time>2013-08-13T10:31:09.000Z</time>
      </trkpt>
      <trkpt lat="48.0392" lon="-4.43475">
        <ele>29.799999237061</ele>
        <time>2013-08-13T10:31:11.000Z</time>
      </trkpt>
      <trkpt lat="48.03913" lon="-4.43475">
        <ele>31.200000762939</ele>
        <time>2013-08-13T10:31:18.000Z</time>
      </trkpt>
      <trkpt lat="48.03906" lon="-4.43476">
        <ele>33.200000762939</ele>
        <time>2013-08-13T10:31:25.000Z</time>
      </trkpt>
      <trkpt lat="48.03905" lon="-4.43476">
        <ele>33.200000762939</ele>
        <time>2013-08-13T10:31:26.000Z</time>
      </trkpt>
      <trkpt lat="48.03896" lon="-4.43478">
        <ele>33.599998474121</ele>
        <time>2013-08-13T10:31:34.000Z</time>
      </trkpt>
      <trkpt lat="48.03889" lon="-4.43479">
        <ele>33.599998474121</ele>
        <time>2013-08-13T10:31:40.000Z</time>
      </trkpt>
      <trkpt lat="48.03883" lon="-4.43479">
        <ele>33.599998474121</ele>
        <time>2013-08-13T10:31:46.000Z</time>
      </trkpt>
      <trkpt lat="48.03877" lon="-4.43479">
        <ele>35.200000762939</ele>
        <time>2013-08-13T10:31:52.000Z</time>
      </trkpt>
      <trkpt lat="48.03869" lon="-4.43478">
        <ele>37</ele>
        <time>2013-08-13T10:31:59.000Z</time>
      </trkpt>
      <trkpt lat="48.03862" lon="-4.43478">
        <ele>38.400001525879</ele>
        <time>2013-08-13T10:32:05.000Z</time>
      </trkpt>
      <trkpt lat="48.03857" lon="-4.43477">
        <ele>39.400001525879</ele>
        <time>2013-08-13T10:32:09.000Z</time>
      </trkpt>
      <trkpt lat="48.03852" lon="-4.43478">
        <ele>39.400001525879</ele>
        <time>2013-08-13T10:32:14.000Z</time>
      </trkpt>
      <trkpt lat="48.03844" lon="-4.43477">
        <ele>39</ele>
        <time>2013-08-13T10:32:21.000Z</time>
      </trkpt>
      <trkpt lat="48.03836" lon="-4.43478">
        <ele>37.599998474121</ele>
        <time>2013-08-13T10:32:28.000Z</time>
      </trkpt>
      <trkpt lat="48.03835" lon="-4.43478">
        <ele>37.599998474121</ele>
        <time>2013-08-13T10:32:29.000Z</time>
      </trkpt>
      <trkpt lat="48.03828" lon="-4.43478">
        <ele>38</ele>
        <time>2013-08-13T10:32:35.000Z</time>
      </trkpt>
      <trkpt lat="48.03824" lon="-4.43478">
        <ele>37.599998474121</ele>
        <time>2013-08-13T10:32:39.000Z</time>
      </trkpt>
      <trkpt lat="48.03814" lon="-4.43477">
        <ele>39</ele>
        <time>2013-08-13T10:32:46.000Z</time>
      </trkpt>
      <trkpt lat="48.03809" lon="-4.43478">
        <ele>39.400001525879</ele>
        <time>2013-08-13T10:32:50.000Z</time>
      </trkpt>
      <trkpt lat="48.038" lon="-4.43478">
        <ele>39.400001525879</ele>
        <time>2013-08-13T10:32:57.000Z</time>
      </trkpt>
      <trkpt lat="48.03792" lon="-4.43478">
        <ele>40</ele>
        <time>2013-08-13T10:33:04.000Z</time>
      </trkpt>
      <trkpt lat="48.03783" lon="-4.43478">
        <ele>40.400001525879</ele>
        <time>2013-08-13T10:33:11.000Z</time>
      </trkpt>
      <trkpt lat="48.03778" lon="-4.43478">
        <ele>40.400001525879</ele>
        <time>2013-08-13T10:33:16.000Z</time>
      </trkpt>
      <trkpt lat="48.03772" lon="-4.43478">
        <ele>40.799999237061</ele>
        <time>2013-08-13T10:33:20.000Z</time>
      </trkpt>
      <trkpt lat="48.03765" lon="-4.43481">
        <ele>41.400001525879</ele>
        <time>2013-08-13T10:33:26.000Z</time>
      </trkpt>
      <trkpt lat="48.03764" lon="-4.43481">
        <ele>41.400001525879</ele>
        <time>2013-08-13T10:33:27.000Z</time>
      </trkpt>
      <trkpt lat="48.03756" lon="-4.43483">
        <ele>39.400001525879</ele>
        <time>2013-08-13T10:33:34.000Z</time>
      </trkpt>
      <trkpt lat="48.03749" lon="-4.43485">
        <ele>39.400001525879</ele>
        <time>2013-08-13T10:33:41.000Z</time>
      </trkpt>
      <trkpt lat="48.03741" lon="-4.43485">
        <ele>40.400001525879</ele>
        <time>2013-08-13T10:33:48.000Z</time>
      </trkpt>
      <trkpt lat="48.03734" lon="-4.43486">
        <ele>41.400001525879</ele>
        <time>2013-08-13T10:33:54.000Z</time>
      </trkpt>
      <trkpt lat="48.03724" lon="-4.43488">
        <ele>41.799999237061</ele>
        <time>2013-08-13T10:34:02.000Z</time>
      </trkpt>
      <trkpt lat="48.03715" lon="-4.4349">
        <ele>40.799999237061</ele>
        <time>2013-08-13T10:34:11.000Z</time>
      </trkpt>
      <trkpt lat="48.03709" lon="-4.43491">
        <ele>40.400001525879</ele>
        <time>2013-08-13T10:34:18.000Z</time>
      </trkpt>
      <trkpt lat="48.03701" lon="-4.43492">
        <ele>39.400001525879</ele>
        <time>2013-08-13T10:34:25.000Z</time>
      </trkpt>
      <trkpt lat="48.03696" lon="-4.43492">
        <ele>40.400001525879</ele>
        <time>2013-08-13T10:34:30.000Z</time>
      </trkpt>
      <trkpt lat="48.03686" lon="-4.43493">
        <ele>41.799999237061</ele>
        <time>2013-08-13T10:34:39.000Z</time>
      </trkpt>
      <trkpt lat="48.03676" lon="-4.43494">
        <ele>41.400001525879</ele>
        <time>2013-08-13T10:34:48.000Z</time>
      </trkpt>
      <trkpt lat="48.03666" lon="-4.43496">
        <ele>40</ele>
        <time>2013-08-13T10:34:57.000Z</time>
      </trkpt>
      <trkpt lat="48.03654" lon="-4.43498">
        <ele>39</ele>
        <time>2013-08-13T10:35:07.000Z</time>
      </trkpt>
      <trkpt lat="48.03642" lon="-4.43499">
        <ele>40.400001525879</ele>
        <time>2013-08-13T10:35:17.000Z</time>
      </trkpt>
      <trkpt lat="48.0363" lon="-4.435">
        <ele>40.400001525879</ele>
        <time>2013-08-13T10:35:28.000Z</time>
      </trkpt>
      <trkpt lat="48.03624" lon="-4.43505">
        <ele>41.400001525879</ele>
        <time>2013-08-13T10:35:35.000Z</time>
      </trkpt>
      <trkpt lat="48.03619" lon="-4.43517">
        <ele>41.400001525879</ele>
        <time>2013-08-13T10:35:44.000Z</time>
      </trkpt>
      <trkpt lat="48.03618" lon="-4.43518">
        <ele>41.400001525879</ele>
        <time>2013-08-13T10:35:45.000Z</time>
      </trkpt>
      <trkpt lat="48.03615" lon="-4.43532">
        <ele>42.400001525879</ele>
        <time>2013-08-13T10:35:53.000Z</time>
      </trkpt>
      <trkpt lat="48.03615" lon="-4.43534">
        <ele>42.799999237061</ele>
        <time>2013-08-13T10:35:54.000Z</time>
      </trkpt>
      <trkpt lat="48.03611" lon="-4.4354">
        <ele>43.799999237061</ele>
        <time>2013-08-13T10:36:00.000Z</time>
      </trkpt>
      <trkpt lat="48.03608" lon="-4.43546">
        <ele>43.799999237061</ele>
        <time>2013-08-13T10:36:04.000Z</time>
      </trkpt>
      <trkpt lat="48.03607" lon="-4.43548">
        <ele>43.799999237061</ele>
        <time>2013-08-13T10:36:06.000Z</time>
      </trkpt>
      <trkpt lat="48.03604" lon="-4.43557">
        <ele>44.200000762939</ele>
        <time>2013-08-13T10:36:12.000Z</time>
      </trkpt>
      <trkpt lat="48.03603" lon="-4.4356">
        <ele>44.799999237061</ele>
        <time>2013-08-13T10:36:14.000Z</time>
      </trkpt>
      <trkpt lat="48.03599" lon="-4.43569">
        <ele>44.799999237061</ele>
        <time>2013-08-13T10:36:20.000Z</time>
      </trkpt>
      <trkpt lat="48.03595" lon="-4.43579">
        <ele>44.799999237061</ele>
        <time>2013-08-13T10:36:27.000Z</time>
      </trkpt>
      <trkpt lat="48.03592" lon="-4.43589">
        <ele>45.599998474121</ele>
        <time>2013-08-13T10:36:33.000Z</time>
      </trkpt>
      <trkpt lat="48.03591" lon="-4.43593">
        <ele>46.200000762939</ele>
        <time>2013-08-13T10:36:35.000Z</time>
      </trkpt>
      <trkpt lat="48.03588" lon="-4.43599">
        <ele>47.200000762939</ele>
        <time>2013-08-13T10:36:40.000Z</time>
      </trkpt>
      <trkpt lat="48.03583" lon="-4.43605">
        <ele>47.200000762939</ele>
        <time>2013-08-13T10:36:46.000Z</time>
      </trkpt>
      <trkpt lat="48.03581" lon="-4.43608">
        <ele>45.599998474121</ele>
        <time>2013-08-13T10:36:49.000Z</time>
      </trkpt>
      <trkpt lat="48.03573" lon="-4.43619">
        <ele>45.200000762939</ele>
        <time>2013-08-13T10:36:57.000Z</time>
      </trkpt>
      <trkpt lat="48.03568" lon="-4.43628">
        <ele>46.599998474121</ele>
        <time>2013-08-13T10:37:04.000Z</time>
      </trkpt>
      <trkpt lat="48.03566" lon="-4.43636">
        <ele>45.599998474121</ele>
        <time>2013-08-13T10:37:10.000Z</time>
      </trkpt>
      <trkpt lat="48.03564" lon="-4.43643">
        <ele>43.799999237061</ele>
        <time>2013-08-13T10:37:18.000Z</time>
      </trkpt>
      <trkpt lat="48.03561" lon="-4.4365">
        <ele>42.799999237061</ele>
        <time>2013-08-13T10:37:24.000Z</time>
      </trkpt>
      <trkpt lat="48.03559" lon="-4.43653">
        <ele>43.200000762939</ele>
        <time>2013-08-13T10:37:27.000Z</time>
      </trkpt>
      <trkpt lat="48.03556" lon="-4.43657">
        <ele>43.799999237061</ele>
        <time>2013-08-13T10:37:31.000Z</time>
      </trkpt>
      <trkpt lat="48.03552" lon="-4.43663">
        <ele>43.799999237061</ele>
        <time>2013-08-13T10:37:36.000Z</time>
      </trkpt>
      <trkpt lat="48.03548" lon="-4.43666">
        <ele>44.799999237061</ele>
        <time>2013-08-13T10:37:40.000Z</time>
      </trkpt>
      <trkpt lat="48.03545" lon="-4.43668">
        <ele>46.200000762939</ele>
        <time>2013-08-13T10:37:44.000Z</time>
      </trkpt>
      <trkpt lat="48.03539" lon="-4.43673">
        <ele>45.200000762939</ele>
        <time>2013-08-13T10:37:50.000Z</time>
      </trkpt>
      <trkpt lat="48.03535" lon="-4.43676">
        <ele>48.200000762939</ele>
        <time>2013-08-13T10:37:54.000Z</time>
      </trkpt>
      <trkpt lat="48.0353" lon="-4.43674">
        <ele>49</ele>
        <time>2013-08-13T10:37:59.000Z</time>
      </trkpt>
      <trkpt lat="48.03524" lon="-4.43671">
        <ele>50</ele>
        <time>2013-08-13T10:38:05.000Z</time>
      </trkpt>
      <trkpt lat="48.03519" lon="-4.43664">
        <ele>51</ele>
        <time>2013-08-13T10:38:13.000Z</time>
      </trkpt>
      <trkpt lat="48.03517" lon="-4.4366">
        <ele>49.599998474121</ele>
        <time>2013-08-13T10:38:16.000Z</time>
      </trkpt>
      <trkpt lat="48.03517" lon="-4.43655">
        <ele>50.599998474121</ele>
        <time>2013-08-13T10:38:19.000Z</time>
      </trkpt>
      <trkpt lat="48.03514" lon="-4.43651">
        <ele>51</ele>
        <time>2013-08-13T10:38:25.000Z</time>
      </trkpt>
      <trkpt lat="48.03512" lon="-4.43648">
        <ele>51</ele>
        <time>2013-08-13T10:38:29.000Z</time>
      </trkpt>
      <trkpt lat="48.03507" lon="-4.43642">
        <ele>50.599998474121</ele>
        <time>2013-08-13T10:38:35.000Z</time>
      </trkpt>
      <trkpt lat="48.03506" lon="-4.43637">
        <ele>51</ele>
        <time>2013-08-13T10:38:38.000Z</time>
      </trkpt>
      <trkpt lat="48.03504" lon="-4.43629">
        <ele>50.599998474121</ele>
        <time>2013-08-13T10:38:44.000Z</time>
      </trkpt>
      <trkpt lat="48.03501" lon="-4.43626">
        <ele>51</ele>
        <time>2013-08-13T10:38:47.000Z</time>
      </trkpt>
      <trkpt lat="48.03495" lon="-4.43621">
        <ele>52</ele>
        <time>2013-08-13T10:38:54.000Z</time>
      </trkpt>
      <trkpt lat="48.03486" lon="-4.43617">
        <ele>53</ele>
        <time>2013-08-13T10:39:02.000Z</time>
      </trkpt>
      <trkpt lat="48.03478" lon="-4.43614">
        <ele>53.400001525879</ele>
        <time>2013-08-13T10:39:10.000Z</time>
      </trkpt>
      <trkpt lat="48.03469" lon="-4.4361">
        <ele>53.400001525879</ele>
        <time>2013-08-13T10:39:19.000Z</time>
      </trkpt>
      <trkpt lat="48.03462" lon="-4.43601">
        <ele>55.400001525879</ele>
        <time>2013-08-13T10:39:27.000Z</time>
      </trkpt>
      <trkpt lat="48.03454" lon="-4.43602">
        <ele>53.400001525879</ele>
        <time>2013-08-13T10:39:35.000Z</time>
      </trkpt>
      <trkpt lat="48.03447" lon="-4.436">
        <ele>54.799999237061</ele>
        <time>2013-08-13T10:39:42.000Z</time>
      </trkpt>
      <trkpt lat="48.0344" lon="-4.43598">
        <ele>57.200000762939</ele>
        <time>2013-08-13T10:39:48.000Z</time>
      </trkpt>
      <trkpt lat="48.03438" lon="-4.43598">
        <ele>57.200000762939</ele>
        <time>2013-08-13T10:39:49.000Z</time>
      </trkpt>
      <trkpt lat="48.03432" lon="-4.43596">
        <ele>59.200000762939</ele>
        <time>2013-08-13T10:39:54.000Z</time>
      </trkpt>
      <trkpt lat="48.03428" lon="-4.43596">
        <ele>60.200000762939</ele>
        <time>2013-08-13T10:39:58.000Z</time>
      </trkpt>
      <trkpt lat="48.03421" lon="-4.43596">
        <ele>60.599998474121</ele>
        <time>2013-08-13T10:40:04.000Z</time>
      </trkpt>
      <trkpt lat="48.03415" lon="-4.43599">
        <ele>60.200000762939</ele>
        <time>2013-08-13T10:40:10.000Z</time>
      </trkpt>
      <trkpt lat="48.03409" lon="-4.43598">
        <ele>60.200000762939</ele>
        <time>2013-08-13T10:40:16.000Z</time>
      </trkpt>
      <trkpt lat="48.03403" lon="-4.43596">
        <ele>60.200000762939</ele>
        <time>2013-08-13T10:40:22.000Z</time>
      </trkpt>
      <trkpt lat="48.03398" lon="-4.43597">
        <ele>60.599998474121</ele>
        <time>2013-08-13T10:40:27.000Z</time>
      </trkpt>
      <trkpt lat="48.03395" lon="-4.43604">
        <ele>59.200000762939</ele>
        <time>2013-08-13T10:40:32.000Z</time>
      </trkpt>
      <trkpt lat="48.03395" lon="-4.43605">
        <ele>58.200000762939</ele>
        <time>2013-08-13T10:40:33.000Z</time>
      </trkpt>
      <trkpt lat="48.03393" lon="-4.43608">
        <ele>57.200000762939</ele>
        <time>2013-08-13T10:40:35.000Z</time>
      </trkpt>
      <trkpt lat="48.0339" lon="-4.43623">
        <ele>56.200000762939</ele>
        <time>2013-08-13T10:40:45.000Z</time>
      </trkpt>
      <trkpt lat="48.03386" lon="-4.43632">
        <ele>55.400001525879</ele>
        <time>2013-08-13T10:40:54.000Z</time>
      </trkpt>
      <trkpt lat="48.03384" lon="-4.43634">
        <ele>53</ele>
        <time>2013-08-13T10:41:04.000Z</time>
      </trkpt>
      <trkpt lat="48.03384" lon="-4.43634">
        <ele>49</ele>
        <time>2013-08-13T10:41:16.000Z</time>
      </trkpt>
      <trkpt lat="48.03384" lon="-4.43637">
        <ele>41.799999237061</ele>
        <time>2013-08-13T10:41:29.000Z</time>
      </trkpt>
      <trkpt lat="48.03391" lon="-4.43633">
        <ele>50.599998474121</ele>
        <time>2013-08-13T10:41:43.000Z</time>
      </trkpt>
      <trkpt lat="48.03389" lon="-4.43633">
        <ele>57.200000762939</ele>
        <time>2013-08-13T10:41:57.000Z</time>
      </trkpt>
      <trkpt lat="48.03387" lon="-4.43635">
        <ele>54.799999237061</ele>
        <time>2013-08-13T10:42:19.000Z</time>
      </trkpt>
      <trkpt lat="48.03386" lon="-4.43635">
        <ele>54.400001525879</ele>
        <time>2013-08-13T10:42:33.000Z</time>
      </trkpt>
      <trkpt lat="48.03387" lon="-4.43632">
        <ele>55.400001525879</ele>
        <time>2013-08-13T10:42:48.000Z</time>
      </trkpt>
      <trkpt lat="48.034" lon="-4.43613">
        <ele>65</ele>
        <time>2013-08-13T11:51:03.000Z</time>
      </trkpt>
      <trkpt lat="48.034" lon="-4.43612">
        <ele>64</ele>
        <time>2013-08-13T11:51:04.000Z</time>
      </trkpt>
      <trkpt lat="48.03399" lon="-4.43607">
        <ele>60.200000762939</ele>
        <time>2013-08-13T11:51:08.000Z</time>
      </trkpt>
      <trkpt lat="48.03401" lon="-4.436">
        <ele>60.599998474121</ele>
        <time>2013-08-13T11:51:12.000Z</time>
      </trkpt>
      <trkpt lat="48.03396" lon="-4.43591">
        <ele>63</ele>
        <time>2013-08-13T11:51:18.000Z</time>
      </trkpt>
      <trkpt lat="48.03394" lon="-4.43589">
        <ele>63</ele>
        <time>2013-08-13T11:51:20.000Z</time>
      </trkpt>
      <trkpt lat="48.03387" lon="-4.43589">
        <ele>64</ele>
        <time>2013-08-13T11:51:26.000Z</time>
      </trkpt>
      <trkpt lat="48.03387" lon="-4.43588">
        <ele>64</ele>
        <time>2013-08-13T11:51:27.000Z</time>
      </trkpt>
      <trkpt lat="48.03382" lon="-4.43589">
        <ele>66.400001525879</ele>
        <time>2013-08-13T11:51:36.000Z</time>
      </trkpt>
      <trkpt lat="48.0338" lon="-4.43587">
        <ele>67.800003051758</ele>
        <time>2013-08-13T11:51:44.000Z</time>
      </trkpt>
      <trkpt lat="48.03375" lon="-4.43585">
        <ele>67.800003051758</ele>
        <time>2013-08-13T11:51:49.000Z</time>
      </trkpt>
      <trkpt lat="48.03373" lon="-4.43584">
        <ele>67.400001525879</ele>
        <time>2013-08-13T11:51:56.000Z</time>
      </trkpt>
      <trkpt lat="48.03372" lon="-4.43582">
        <ele>66.800003051758</ele>
        <time>2013-08-13T11:51:58.000Z</time>
      </trkpt>
      <trkpt lat="48.03367" lon="-4.43583">
        <ele>65.800003051758</ele>
        <time>2013-08-13T11:52:03.000Z</time>
      </trkpt>
      <trkpt lat="48.03356" lon="-4.43586">
        <ele>65</ele>
        <time>2013-08-13T11:52:12.000Z</time>
      </trkpt>
      <trkpt lat="48.03352" lon="-4.43586">
        <ele>66.800003051758</ele>
        <time>2013-08-13T11:52:19.000Z</time>
      </trkpt>
      <trkpt lat="48.03347" lon="-4.43584">
        <ele>66.400001525879</ele>
        <time>2013-08-13T11:52:26.000Z</time>
      </trkpt>
      <trkpt lat="48.03345" lon="-4.43582">
        <ele>67.400001525879</ele>
        <time>2013-08-13T11:52:32.000Z</time>
      </trkpt>
      <trkpt lat="48.03343" lon="-4.43582">
        <ele>69.800003051758</ele>
        <time>2013-08-13T11:52:40.000Z</time>
      </trkpt>
      <trkpt lat="48.0334" lon="-4.4358">
        <ele>71.199996948242</ele>
        <time>2013-08-13T11:52:47.000Z</time>
      </trkpt>
      <trkpt lat="48.0333" lon="-4.43579">
        <ele>70.599998474121</ele>
        <time>2013-08-13T11:52:56.000Z</time>
      </trkpt>
      <trkpt lat="48.03325" lon="-4.43578">
        <ele>67.800003051758</ele>
        <time>2013-08-13T11:53:02.000Z</time>
      </trkpt>
      <trkpt lat="48.03323" lon="-4.43573">
        <ele>67.800003051758</ele>
        <time>2013-08-13T11:53:07.000Z</time>
      </trkpt>
      <trkpt lat="48.03324" lon="-4.43571">
        <ele>68.199996948242</ele>
        <time>2013-08-13T11:53:08.000Z</time>
      </trkpt>
      <trkpt lat="48.03327" lon="-4.43566">
        <ele>69.800003051758</ele>
        <time>2013-08-13T11:53:12.000Z</time>
      </trkpt>
      <trkpt lat="48.03326" lon="-4.43562">
        <ele>70.599998474121</ele>
        <time>2013-08-13T11:53:14.000Z</time>
      </trkpt>
      <trkpt lat="48.03318" lon="-4.4356">
        <ele>67.800003051758</ele>
        <time>2013-08-13T11:53:23.000Z</time>
      </trkpt>
      <trkpt lat="48.03318" lon="-4.4355">
        <ele>64.400001525879</ele>
        <time>2013-08-13T11:53:38.000Z</time>
      </trkpt>
      <trkpt lat="48.03323" lon="-4.4355">
        <ele>72.199996948242</ele>
        <time>2013-08-13T11:54:17.000Z</time>
      </trkpt>
      <trkpt lat="48.03314" lon="-4.43544">
        <ele>70.199996948242</ele>
        <time>2013-08-13T11:54:22.000Z</time>
      </trkpt>
      <trkpt lat="48.0332" lon="-4.43553">
        <ele>67.400001525879</ele>
        <time>2013-08-13T11:54:50.000Z</time>
      </trkpt>
      <trkpt lat="48.03316" lon="-4.4355">
        <ele>75</ele>
        <time>2013-08-13T11:54:55.000Z</time>
      </trkpt>
      <trkpt lat="48.03321" lon="-4.43553">
        <ele>80.800003051758</ele>
        <time>2013-08-13T11:54:59.000Z</time>
      </trkpt>
      <trkpt lat="48.03333" lon="-4.43553">
        <ele>83.599998474121</ele>
        <time>2013-08-13T11:55:07.000Z</time>
      </trkpt>
      <trkpt lat="48.03334" lon="-4.43551">
        <ele>88.400001525879</ele>
        <time>2013-08-13T11:55:13.000Z</time>
      </trkpt>
      <trkpt lat="48.03321" lon="-4.43561">
        <ele>82.199996948242</ele>
        <time>2013-08-13T11:55:19.000Z</time>
      </trkpt>
      <trkpt lat="48.03322" lon="-4.43564">
        <ele>77</ele>
        <time>2013-08-13T11:55:27.000Z</time>
      </trkpt>
      <trkpt lat="48.03319" lon="-4.43573">
        <ele>74.599998474121</ele>
        <time>2013-08-13T11:55:46.000Z</time>
      </trkpt>
      <trkpt lat="48.03316" lon="-4.43579">
        <ele>67.400001525879</ele>
        <time>2013-08-13T11:55:52.000Z</time>
      </trkpt>
      <trkpt lat="48.03314" lon="-4.43582">
        <ele>65.800003051758</ele>
        <time>2013-08-13T11:55:59.000Z</time>
      </trkpt>
      <trkpt lat="48.03315" lon="-4.43582">
        <ele>66.800003051758</ele>
        <time>2013-08-13T11:56:07.000Z</time>
      </trkpt>
      <trkpt lat="48.03317" lon="-4.43578">
        <ele>68.800003051758</ele>
        <time>2013-08-13T11:56:15.000Z</time>
      </trkpt>
      <trkpt lat="48.03314" lon="-4.43578">
        <ele>68.800003051758</ele>
        <time>2013-08-13T11:56:20.000Z</time>
      </trkpt>
      <trkpt lat="48.03315" lon="-4.43578">
        <ele>77</ele>
        <time>2013-08-13T11:56:40.000Z</time>
      </trkpt>
      <trkpt lat="48.03309" lon="-4.43582">
        <ele>75.599998474121</ele>
        <time>2013-08-13T11:56:47.000Z</time>
      </trkpt>
      <trkpt lat="48.03306" lon="-4.43576">
        <ele>74</ele>
        <time>2013-08-13T11:57:02.000Z</time>
      </trkpt>
      <trkpt lat="48.03302" lon="-4.4357">
        <ele>74.599998474121</ele>
        <time>2013-08-13T11:57:09.000Z</time>
      </trkpt>
      <trkpt lat="48.03299" lon="-4.4357">
        <ele>73</ele>
        <time>2013-08-13T11:57:23.000Z</time>
      </trkpt>
      <trkpt lat="48.03299" lon="-4.43573">
        <ele>73.599998474121</ele>
        <time>2013-08-13T11:57:29.000Z</time>
      </trkpt>
      <trkpt lat="48.03299" lon="-4.43576">
        <ele>76</ele>
        <time>2013-08-13T11:57:36.000Z</time>
      </trkpt>
      <trkpt lat="48.03307" lon="-4.43581">
        <ele>77</ele>
        <time>2013-08-13T11:57:48.000Z</time>
      </trkpt>
      <trkpt lat="48.03309" lon="-4.43581">
        <ele>72.599998474121</ele>
        <time>2013-08-13T11:57:58.000Z</time>
      </trkpt>
      <trkpt lat="48.03301" lon="-4.43581">
        <ele>70.599998474121</ele>
        <time>2013-08-13T11:58:07.000Z</time>
      </trkpt>
      <trkpt lat="48.03298" lon="-4.43584">
        <ele>67.800003051758</ele>
        <time>2013-08-13T11:58:14.000Z</time>
      </trkpt>
      <trkpt lat="48.03297" lon="-4.43585">
        <ele>65.800003051758</ele>
        <time>2013-08-13T11:58:39.000Z</time>
      </trkpt>
      <trkpt lat="48.03294" lon="-4.43584">
        <ele>66.400001525879</ele>
        <time>2013-08-13T11:58:42.000Z</time>
      </trkpt>
      <trkpt lat="48.03289" lon="-4.43584">
        <ele>65.400001525879</ele>
        <time>2013-08-13T11:58:46.000Z</time>
      </trkpt>
      <trkpt lat="48.03284" lon="-4.43585">
        <ele>63.400001525879</ele>
        <time>2013-08-13T11:58:53.000Z</time>
      </trkpt>
      <trkpt lat="48.03277" lon="-4.43585">
        <ele>68.800003051758</ele>
        <time>2013-08-13T11:59:05.000Z</time>
      </trkpt>
      <trkpt lat="48.03268" lon="-4.43584">
        <ele>74</ele>
        <time>2013-08-13T11:59:10.000Z</time>
      </trkpt>
      <trkpt lat="48.03264" lon="-4.43587">
        <ele>73.599998474121</ele>
        <time>2013-08-13T11:59:14.000Z</time>
      </trkpt>
      <trkpt lat="48.0326" lon="-4.43593">
        <ele>72.199996948242</ele>
        <time>2013-08-13T11:59:20.000Z</time>
      </trkpt>
      <trkpt lat="48.03261" lon="-4.43594">
        <ele>70.199996948242</ele>
        <time>2013-08-13T11:59:27.000Z</time>
      </trkpt>
      <trkpt lat="48.03265" lon="-4.43593">
        <ele>71.199996948242</ele>
        <time>2013-08-13T11:59:33.000Z</time>
      </trkpt>
      <trkpt lat="48.03262" lon="-4.43593">
        <ele>70.599998474121</ele>
        <time>2013-08-13T11:59:39.000Z</time>
      </trkpt>
      <trkpt lat="48.03261" lon="-4.43593">
        <ele>70.599998474121</ele>
        <time>2013-08-13T11:59:40.000Z</time>
      </trkpt>
      <trkpt lat="48.03267" lon="-4.43592">
        <ele>70.199996948242</ele>
        <time>2013-08-13T11:59:44.000Z</time>
      </trkpt>
      <trkpt lat="48.03266" lon="-4.4359">
        <ele>68.800003051758</ele>
        <time>2013-08-13T11:59:47.000Z</time>
      </trkpt>
      <trkpt lat="48.03264" lon="-4.43588">
        <ele>68.199996948242</ele>
        <time>2013-08-13T11:59:49.000Z</time>
      </trkpt>
      <trkpt lat="48.03257" lon="-4.43589">
        <ele>65.800003051758</ele>
        <time>2013-08-13T11:59:57.000Z</time>
      </trkpt>
      <trkpt lat="48.03253" lon="-4.43587">
        <ele>64.400001525879</ele>
        <time>2013-08-13T12:00:05.000Z</time>
      </trkpt>
      <trkpt lat="48.03248" lon="-4.43586">
        <ele>64.400001525879</ele>
        <time>2013-08-13T12:00:09.000Z</time>
      </trkpt>
      <trkpt lat="48.03235" lon="-4.43584">
        <ele>64</ele>
        <time>2013-08-13T12:00:21.000Z</time>
      </trkpt>
      <trkpt lat="48.03226" lon="-4.43583">
        <ele>64</ele>
        <time>2013-08-13T12:00:28.000Z</time>
      </trkpt>
      <trkpt lat="48.03216" lon="-4.43582">
        <ele>63.400001525879</ele>
        <time>2013-08-13T12:00:36.000Z</time>
      </trkpt>
      <trkpt lat="48.03207" lon="-4.43582">
        <ele>65</ele>
        <time>2013-08-13T12:00:43.000Z</time>
      </trkpt>
      <trkpt lat="48.03198" lon="-4.43578">
        <ele>65</ele>
        <time>2013-08-13T12:00:50.000Z</time>
      </trkpt>
      <trkpt lat="48.03191" lon="-4.43576">
        <ele>64</ele>
        <time>2013-08-13T12:00:56.000Z</time>
      </trkpt>
      <trkpt lat="48.03185" lon="-4.43576">
        <ele>64</ele>
        <time>2013-08-13T12:01:01.000Z</time>
      </trkpt>
      <trkpt lat="48.03183" lon="-4.43578">
        <ele>63.400001525879</ele>
        <time>2013-08-13T12:01:03.000Z</time>
      </trkpt>
      <trkpt lat="48.03178" lon="-4.43578">
        <ele>64</ele>
        <time>2013-08-13T12:01:07.000Z</time>
      </trkpt>
      <trkpt lat="48.03174" lon="-4.43579">
        <ele>64</ele>
        <time>2013-08-13T12:01:12.000Z</time>
      </trkpt>
      <trkpt lat="48.03167" lon="-4.43582">
        <ele>64.400001525879</ele>
        <time>2013-08-13T12:01:18.000Z</time>
      </trkpt>
      <trkpt lat="48.0316" lon="-4.43585">
        <ele>65.400001525879</ele>
        <time>2013-08-13T12:01:24.000Z</time>
      </trkpt>
      <trkpt lat="48.03153" lon="-4.43589">
        <ele>65.800003051758</ele>
        <time>2013-08-13T12:01:31.000Z</time>
      </trkpt>
      <trkpt lat="48.03144" lon="-4.43591">
        <ele>66.800003051758</ele>
        <time>2013-08-13T12:01:39.000Z</time>
      </trkpt>
      <trkpt lat="48.03142" lon="-4.43592">
        <ele>66.800003051758</ele>
        <time>2013-08-13T12:01:40.000Z</time>
      </trkpt>
      <trkpt lat="48.03133" lon="-4.43593">
        <ele>67.400001525879</ele>
        <time>2013-08-13T12:01:49.000Z</time>
      </trkpt>
      <trkpt lat="48.03125" lon="-4.43595">
        <ele>67.800003051758</ele>
        <time>2013-08-13T12:01:56.000Z</time>
      </trkpt>
      <trkpt lat="48.03119" lon="-4.43595">
        <ele>66.800003051758</ele>
        <time>2013-08-13T12:02:02.000Z</time>
      </trkpt>
      <trkpt lat="48.03108" lon="-4.43596">
        <ele>68.199996948242</ele>
        <time>2013-08-13T12:02:11.000Z</time>
      </trkpt>
      <trkpt lat="48.03107" lon="-4.43596">
        <ele>68.800003051758</ele>
        <time>2013-08-13T12:02:12.000Z</time>
      </trkpt>
      <trkpt lat="48.03102" lon="-4.43596">
        <ele>68.199996948242</ele>
        <time>2013-08-13T12:02:16.000Z</time>
      </trkpt>
      <trkpt lat="48.03094" lon="-4.43597">
        <ele>67.800003051758</ele>
        <time>2013-08-13T12:02:24.000Z</time>
      </trkpt>
      <trkpt lat="48.03083" lon="-4.43597">
        <ele>67.400001525879</ele>
        <time>2013-08-13T12:02:34.000Z</time>
      </trkpt>
      <trkpt lat="48.03074" lon="-4.43598">
        <ele>66.800003051758</ele>
        <time>2013-08-13T12:02:42.000Z</time>
      </trkpt>
      <trkpt lat="48.03068" lon="-4.43597">
        <ele>65.800003051758</ele>
        <time>2013-08-13T12:02:49.000Z</time>
      </trkpt>
      <trkpt lat="48.03059" lon="-4.43596">
        <ele>68.199996948242</ele>
        <time>2013-08-13T12:02:56.000Z</time>
      </trkpt>
      <trkpt lat="48.03048" lon="-4.43596">
        <ele>70.199996948242</ele>
        <time>2013-08-13T12:03:05.000Z</time>
      </trkpt>
      <trkpt lat="48.03038" lon="-4.43595">
        <ele>70.199996948242</ele>
        <time>2013-08-13T12:03:15.000Z</time>
      </trkpt>
      <trkpt lat="48.0303" lon="-4.43594">
        <ele>70.199996948242</ele>
        <time>2013-08-13T12:03:23.000Z</time>
      </trkpt>
      <trkpt lat="48.03022" lon="-4.43593">
        <ele>70.599998474121</ele>
        <time>2013-08-13T12:03:30.000Z</time>
      </trkpt>
      <trkpt lat="48.03016" lon="-4.43592">
        <ele>71.599998474121</ele>
        <time>2013-08-13T12:03:36.000Z</time>
      </trkpt>
      <trkpt lat="48.03011" lon="-4.43591">
        <ele>71.199996948242</ele>
        <time>2013-08-13T12:03:41.000Z</time>
      </trkpt>
      <trkpt lat="48.03002" lon="-4.4359">
        <ele>71.199996948242</ele>
        <time>2013-08-13T12:03:50.000Z</time>
      </trkpt>
      <trkpt lat="48.02993" lon="-4.4359">
        <ele>73.599998474121</ele>
        <time>2013-08-13T12:03:57.000Z</time>
      </trkpt>
      <trkpt lat="48.02985" lon="-4.43589">
        <ele>74.599998474121</ele>
        <time>2013-08-13T12:04:04.000Z</time>
      </trkpt>
      <trkpt lat="48.0298" lon="-4.4359">
        <ele>74.599998474121</ele>
        <time>2013-08-13T12:04:09.000Z</time>
      </trkpt>
      <trkpt lat="48.02974" lon="-4.43592">
        <ele>75</ele>
        <time>2013-08-13T12:04:16.000Z</time>
      </trkpt>
      <trkpt lat="48.02965" lon="-4.43592">
        <ele>75</ele>
        <time>2013-08-13T12:04:24.000Z</time>
      </trkpt>
      <trkpt lat="48.02958" lon="-4.43592">
        <ele>76</ele>
        <time>2013-08-13T12:04:30.000Z</time>
      </trkpt>
      <trkpt lat="48.02951" lon="-4.43589">
        <ele>76</ele>
        <time>2013-08-13T12:04:36.000Z</time>
      </trkpt>
      <trkpt lat="48.02943" lon="-4.43589">
        <ele>77.400001525879</ele>
        <time>2013-08-13T12:04:43.000Z</time>
      </trkpt>
      <trkpt lat="48.02938" lon="-4.43587">
        <ele>78.400001525879</ele>
        <time>2013-08-13T12:04:48.000Z</time>
      </trkpt>
      <trkpt lat="48.02934" lon="-4.43588">
        <ele>78.400001525879</ele>
        <time>2013-08-13T12:04:52.000Z</time>
      </trkpt>
      <trkpt lat="48.02929" lon="-4.43592">
        <ele>78</ele>
        <time>2013-08-13T12:04:58.000Z</time>
      </trkpt>
      <trkpt lat="48.02926" lon="-4.436">
        <ele>77.400001525879</ele>
        <time>2013-08-13T12:05:04.000Z</time>
      </trkpt>
      <trkpt lat="48.02926" lon="-4.43602">
        <ele>78</ele>
        <time>2013-08-13T12:05:05.000Z</time>
      </trkpt>
      <trkpt lat="48.02928" lon="-4.43616">
        <ele>80.400001525879</ele>
        <time>2013-08-13T12:05:14.000Z</time>
      </trkpt>
      <trkpt lat="48.02929" lon="-4.43626">
        <ele>82.800003051758</ele>
        <time>2013-08-13T12:05:21.000Z</time>
      </trkpt>
      <trkpt lat="48.02933" lon="-4.43637">
        <ele>82.199996948242</ele>
        <time>2013-08-13T12:05:28.000Z</time>
      </trkpt>
      <trkpt lat="48.02937" lon="-4.43648">
        <ele>80.800003051758</ele>
        <time>2013-08-13T12:05:35.000Z</time>
      </trkpt>
      <trkpt lat="48.02941" lon="-4.43659">
        <ele>79.400001525879</ele>
        <time>2013-08-13T12:05:41.000Z</time>
      </trkpt>
      <trkpt lat="48.02942" lon="-4.43661">
        <ele>79.800003051758</ele>
        <time>2013-08-13T12:05:43.000Z</time>
      </trkpt>
      <trkpt lat="48.02945" lon="-4.43674">
        <ele>77</ele>
        <time>2013-08-13T12:05:50.000Z</time>
      </trkpt>
      <trkpt lat="48.02949" lon="-4.43685">
        <ele>76</ele>
        <time>2013-08-13T12:05:57.000Z</time>
      </trkpt>
      <trkpt lat="48.0295" lon="-4.4369">
        <ele>76</ele>
        <time>2013-08-13T12:06:00.000Z</time>
      </trkpt>
      <trkpt lat="48.02951" lon="-4.43695">
        <ele>76.400001525879</ele>
        <time>2013-08-13T12:06:05.000Z</time>
      </trkpt>
      <trkpt lat="48.02952" lon="-4.43704">
        <ele>78</ele>
        <time>2013-08-13T12:06:11.000Z</time>
      </trkpt>
      <trkpt lat="48.02953" lon="-4.43706">
        <ele>78</ele>
        <time>2013-08-13T12:06:12.000Z</time>
      </trkpt>
      <trkpt lat="48.02956" lon="-4.43719">
        <ele>78</ele>
        <time>2013-08-13T12:06:20.000Z</time>
      </trkpt>
      <trkpt lat="48.02959" lon="-4.4373">
        <ele>79.400001525879</ele>
        <time>2013-08-13T12:06:28.000Z</time>
      </trkpt>
      <trkpt lat="48.02962" lon="-4.43743">
        <ele>79.800003051758</ele>
        <time>2013-08-13T12:06:36.000Z</time>
      </trkpt>
      <trkpt lat="48.02965" lon="-4.43755">
        <ele>80.400001525879</ele>
        <time>2013-08-13T12:06:44.000Z</time>
      </trkpt>
      <trkpt lat="48.02968" lon="-4.43763">
        <ele>80.400001525879</ele>
        <time>2013-08-13T12:06:50.000Z</time>
      </trkpt>
      <trkpt lat="48.0297" lon="-4.43772">
        <ele>79.400001525879</ele>
        <time>2013-08-13T12:06:56.000Z</time>
      </trkpt>
      <trkpt lat="48.02973" lon="-4.43785">
        <ele>78.800003051758</ele>
        <time>2013-08-13T12:07:03.000Z</time>
      </trkpt>
      <trkpt lat="48.02977" lon="-4.43798">
        <ele>78</ele>
        <time>2013-08-13T12:07:11.000Z</time>
      </trkpt>
      <trkpt lat="48.0298" lon="-4.43809">
        <ele>77</ele>
        <time>2013-08-13T12:07:17.000Z</time>
      </trkpt>
      <trkpt lat="48.02984" lon="-4.43822">
        <ele>78</ele>
        <time>2013-08-13T12:07:25.000Z</time>
      </trkpt>
      <trkpt lat="48.02987" lon="-4.43836">
        <ele>78.800003051758</ele>
        <time>2013-08-13T12:07:34.000Z</time>
      </trkpt>
      <trkpt lat="48.02987" lon="-4.43841">
        <ele>78.800003051758</ele>
        <time>2013-08-13T12:07:37.000Z</time>
      </trkpt>
      <trkpt lat="48.02987" lon="-4.43852">
        <ele>79.800003051758</ele>
        <time>2013-08-13T12:07:45.000Z</time>
      </trkpt>
      <trkpt lat="48.02986" lon="-4.43861">
        <ele>80.400001525879</ele>
        <time>2013-08-13T12:07:50.000Z</time>
      </trkpt>
      <trkpt lat="48.02988" lon="-4.43872">
        <ele>81.800003051758</ele>
        <time>2013-08-13T12:07:56.000Z</time>
      </trkpt>
      <trkpt lat="48.02987" lon="-4.43877">
        <ele>82.199996948242</ele>
        <time>2013-08-13T12:07:59.000Z</time>
      </trkpt>
      <trkpt lat="48.02987" lon="-4.43887">
        <ele>83.199996948242</ele>
        <time>2013-08-13T12:08:05.000Z</time>
      </trkpt>
      <trkpt lat="48.02986" lon="-4.439">
        <ele>82.800003051758</ele>
        <time>2013-08-13T12:08:13.000Z</time>
      </trkpt>
      <trkpt lat="48.02987" lon="-4.43905">
        <ele>83.599998474121</ele>
        <time>2013-08-13T12:08:16.000Z</time>
      </trkpt>
      <trkpt lat="48.02986" lon="-4.43914">
        <ele>82.199996948242</ele>
        <time>2013-08-13T12:08:21.000Z</time>
      </trkpt>
      <trkpt lat="48.02984" lon="-4.43926">
        <ele>80.400001525879</ele>
        <time>2013-08-13T12:08:28.000Z</time>
      </trkpt>
      <trkpt lat="48.02984" lon="-4.43935">
        <ele>79.400001525879</ele>
        <time>2013-08-13T12:08:34.000Z</time>
      </trkpt>
      <trkpt lat="48.02985" lon="-4.43941">
        <ele>78.400001525879</ele>
        <time>2013-08-13T12:08:37.000Z</time>
      </trkpt>
      <trkpt lat="48.02985" lon="-4.43946">
        <ele>78.400001525879</ele>
        <time>2013-08-13T12:08:40.000Z</time>
      </trkpt>
      <trkpt lat="48.02986" lon="-4.43953">
        <ele>78</ele>
        <time>2013-08-13T12:08:44.000Z</time>
      </trkpt>
      <trkpt lat="48.02986" lon="-4.43962">
        <ele>79.800003051758</ele>
        <time>2013-08-13T12:08:50.000Z</time>
      </trkpt>
      <trkpt lat="48.02985" lon="-4.43973">
        <ele>81.800003051758</ele>
        <time>2013-08-13T12:08:55.000Z</time>
      </trkpt>
      <trkpt lat="48.02983" lon="-4.43979">
        <ele>81.800003051758</ele>
        <time>2013-08-13T12:08:58.000Z</time>
      </trkpt>
      <trkpt lat="48.02981" lon="-4.43982">
        <ele>82.199996948242</ele>
        <time>2013-08-13T12:09:00.000Z</time>
      </trkpt>
      <trkpt lat="48.0298" lon="-4.43998">
        <ele>85.199996948242</ele>
        <time>2013-08-13T12:09:08.000Z</time>
      </trkpt>
      <trkpt lat="48.0298" lon="-4.44001">
        <ele>84.599998474121</ele>
        <time>2013-08-13T12:09:10.000Z</time>
      </trkpt>
      <trkpt lat="48.02978" lon="-4.44007">
        <ele>86</ele>
        <time>2013-08-13T12:09:13.000Z</time>
      </trkpt>
      <trkpt lat="48.02978" lon="-4.44012">
        <ele>88</ele>
        <time>2013-08-13T12:09:16.000Z</time>
      </trkpt>
      <trkpt lat="48.02979" lon="-4.4403">
        <ele>86</ele>
        <time>2013-08-13T12:09:27.000Z</time>
      </trkpt>
      <trkpt lat="48.02979" lon="-4.4404">
        <ele>85.199996948242</ele>
        <time>2013-08-13T12:09:32.000Z</time>
      </trkpt>
      <trkpt lat="48.02976" lon="-4.44048">
        <ele>84.199996948242</ele>
        <time>2013-08-13T12:09:38.000Z</time>
      </trkpt>
      <trkpt lat="48.02972" lon="-4.44049">
        <ele>82.199996948242</ele>
        <time>2013-08-13T12:09:45.000Z</time>
      </trkpt>
      <trkpt lat="48.02967" lon="-4.44047">
        <ele>82.199996948242</ele>
        <time>2013-08-13T12:09:51.000Z</time>
      </trkpt>
      <trkpt lat="48.02963" lon="-4.44047">
        <ele>80.800003051758</ele>
        <time>2013-08-13T12:09:56.000Z</time>
      </trkpt>
      <trkpt lat="48.0296" lon="-4.44047">
        <ele>78</ele>
        <time>2013-08-13T12:10:01.000Z</time>
      </trkpt>
      <trkpt lat="48.02957" lon="-4.44045">
        <ele>78</ele>
        <time>2013-08-13T12:10:08.000Z</time>
      </trkpt>
      <trkpt lat="48.02953" lon="-4.44045">
        <ele>78.800003051758</ele>
        <time>2013-08-13T12:10:14.000Z</time>
      </trkpt>
      <trkpt lat="48.0295" lon="-4.44044">
        <ele>80.800003051758</ele>
        <time>2013-08-13T12:10:17.000Z</time>
      </trkpt>
      <trkpt lat="48.02939" lon="-4.44041">
        <ele>83.199996948242</ele>
        <time>2013-08-13T12:10:26.000Z</time>
      </trkpt>
      <trkpt lat="48.02936" lon="-4.44041">
        <ele>83.199996948242</ele>
        <time>2013-08-13T12:10:30.000Z</time>
      </trkpt>
      <trkpt lat="48.02927" lon="-4.44039">
        <ele>82.199996948242</ele>
        <time>2013-08-13T12:10:37.000Z</time>
      </trkpt>
      <trkpt lat="48.02923" lon="-4.44038">
        <ele>80.800003051758</ele>
        <time>2013-08-13T12:10:40.000Z</time>
      </trkpt>
      <trkpt lat="48.02921" lon="-4.44036">
        <ele>79.400001525879</ele>
        <time>2013-08-13T12:10:42.000Z</time>
      </trkpt>
      <trkpt lat="48.02921" lon="-4.44031">
        <ele>79.400001525879</ele>
        <time>2013-08-13T12:10:45.000Z</time>
      </trkpt>
      <trkpt lat="48.02916" lon="-4.44029">
        <ele>79.400001525879</ele>
        <time>2013-08-13T12:10:52.000Z</time>
      </trkpt>
      <trkpt lat="48.02912" lon="-4.44028">
        <ele>80.400001525879</ele>
        <time>2013-08-13T12:10:59.000Z</time>
      </trkpt>
      <trkpt lat="48.02906" lon="-4.44026">
        <ele>80.800003051758</ele>
        <time>2013-08-13T12:11:05.000Z</time>
      </trkpt>
      <trkpt lat="48.02899" lon="-4.44027">
        <ele>79.800003051758</ele>
        <time>2013-08-13T12:11:12.000Z</time>
      </trkpt>
      <trkpt lat="48.02895" lon="-4.44031">
        <ele>78</ele>
        <time>2013-08-13T12:11:23.000Z</time>
      </trkpt>
      <trkpt lat="48.02897" lon="-4.44039">
        <ele>80.400001525879</ele>
        <time>2013-08-13T12:11:29.000Z</time>
      </trkpt>
      <trkpt lat="48.02896" lon="-4.44045">
        <ele>79.800003051758</ele>
        <time>2013-08-13T12:11:33.000Z</time>
      </trkpt>
      <trkpt lat="48.02894" lon="-4.44049">
        <ele>79.400001525879</ele>
        <time>2013-08-13T12:11:36.000Z</time>
      </trkpt>
      <trkpt lat="48.0289" lon="-4.4405">
        <ele>79.400001525879</ele>
        <time>2013-08-13T12:11:41.000Z</time>
      </trkpt>
      <trkpt lat="48.02883" lon="-4.4405">
        <ele>79.400001525879</ele>
        <time>2013-08-13T12:11:48.000Z</time>
      </trkpt>
      <trkpt lat="48.02878" lon="-4.44051">
        <ele>79.800003051758</ele>
        <time>2013-08-13T12:11:53.000Z</time>
      </trkpt>
      <trkpt lat="48.02876" lon="-4.44053">
        <ele>80.400001525879</ele>
        <time>2013-08-13T12:11:55.000Z</time>
      </trkpt>
      <trkpt lat="48.0287" lon="-4.44055">
        <ele>79.400001525879</ele>
        <time>2013-08-13T12:12:01.000Z</time>
      </trkpt>
      <trkpt lat="48.02863" lon="-4.44055">
        <ele>77</ele>
        <time>2013-08-13T12:12:09.000Z</time>
      </trkpt>
      <trkpt lat="48.02856" lon="-4.44056">
        <ele>77</ele>
        <time>2013-08-13T12:12:17.000Z</time>
      </trkpt>
      <trkpt lat="48.0285" lon="-4.44057">
        <ele>77</ele>
        <time>2013-08-13T12:12:22.000Z</time>
      </trkpt>
      <trkpt lat="48.02843" lon="-4.44059">
        <ele>77</ele>
        <time>2013-08-13T12:12:29.000Z</time>
      </trkpt>
      <trkpt lat="48.02831" lon="-4.44062">
        <ele>77.400001525879</ele>
        <time>2013-08-13T12:12:40.000Z</time>
      </trkpt>
      <trkpt lat="48.02823" lon="-4.44063">
        <ele>78</ele>
        <time>2013-08-13T12:12:47.000Z</time>
      </trkpt>
      <trkpt lat="48.02818" lon="-4.44066">
        <ele>78</ele>
        <time>2013-08-13T12:12:53.000Z</time>
      </trkpt>
      <trkpt lat="48.02815" lon="-4.44066">
        <ele>78.800003051758</ele>
        <time>2013-08-13T12:12:57.000Z</time>
      </trkpt>
      <trkpt lat="48.0281" lon="-4.44067">
        <ele>79.400001525879</ele>
        <time>2013-08-13T12:13:02.000Z</time>
      </trkpt>
      <trkpt lat="48.02802" lon="-4.44069">
        <ele>81.199996948242</ele>
        <time>2013-08-13T12:13:09.000Z</time>
      </trkpt>
      <trkpt lat="48.02796" lon="-4.44069">
        <ele>81.199996948242</ele>
        <time>2013-08-13T12:13:15.000Z</time>
      </trkpt>
      <trkpt lat="48.02786" lon="-4.44072">
        <ele>82.199996948242</ele>
        <time>2013-08-13T12:13:24.000Z</time>
      </trkpt>
      <trkpt lat="48.02783" lon="-4.44073">
        <ele>82.199996948242</ele>
        <time>2013-08-13T12:13:26.000Z</time>
      </trkpt>
      <trkpt lat="48.02779" lon="-4.44074">
        <ele>82.199996948242</ele>
        <time>2013-08-13T12:13:30.000Z</time>
      </trkpt>
      <trkpt lat="48.02772" lon="-4.44078">
        <ele>81.800003051758</ele>
        <time>2013-08-13T12:13:38.000Z</time>
      </trkpt>
      <trkpt lat="48.02765" lon="-4.44082">
        <ele>81.199996948242</ele>
        <time>2013-08-13T12:13:45.000Z</time>
      </trkpt>
      <trkpt lat="48.02762" lon="-4.44083">
        <ele>81.800003051758</ele>
        <time>2013-08-13T12:13:47.000Z</time>
      </trkpt>
      <trkpt lat="48.0276" lon="-4.44084">
        <ele>81.800003051758</ele>
        <time>2013-08-13T12:13:50.000Z</time>
      </trkpt>
      <trkpt lat="48.02754" lon="-4.44087">
        <ele>81.199996948242</ele>
        <time>2013-08-13T12:13:56.000Z</time>
      </trkpt>
      <trkpt lat="48.02747" lon="-4.4409">
        <ele>79.800003051758</ele>
        <time>2013-08-13T12:14:03.000Z</time>
      </trkpt>
      <trkpt lat="48.02741" lon="-4.44094">
        <ele>78.800003051758</ele>
        <time>2013-08-13T12:14:10.000Z</time>
      </trkpt>
      <trkpt lat="48.02732" lon="-4.441">
        <ele>79.800003051758</ele>
        <time>2013-08-13T12:14:18.000Z</time>
      </trkpt>
      <trkpt lat="48.02724" lon="-4.44102">
        <ele>80.800003051758</ele>
        <time>2013-08-13T12:14:25.000Z</time>
      </trkpt>
      <trkpt lat="48.0272" lon="-4.44102">
        <ele>81.800003051758</ele>
        <time>2013-08-13T12:14:29.000Z</time>
      </trkpt>
      <trkpt lat="48.02713" lon="-4.44108">
        <ele>83.199996948242</ele>
        <time>2013-08-13T12:14:37.000Z</time>
      </trkpt>
      <trkpt lat="48.02708" lon="-4.44109">
        <ele>82.199996948242</ele>
        <time>2013-08-13T12:14:44.000Z</time>
      </trkpt>
      <trkpt lat="48.02703" lon="-4.44109">
        <ele>81.800003051758</ele>
        <time>2013-08-13T12:14:50.000Z</time>
      </trkpt>
      <trkpt lat="48.02698" lon="-4.44109">
        <ele>80.400001525879</ele>
        <time>2013-08-13T12:14:55.000Z</time>
      </trkpt>
      <trkpt lat="48.0269" lon="-4.44111">
        <ele>81.800003051758</ele>
        <time>2013-08-13T12:15:01.000Z</time>
      </trkpt>
      <trkpt lat="48.02686" lon="-4.44111">
        <ele>80.800003051758</ele>
        <time>2013-08-13T12:15:04.000Z</time>
      </trkpt>
      <trkpt lat="48.02678" lon="-4.44112">
        <ele>79.800003051758</ele>
        <time>2013-08-13T12:15:11.000Z</time>
      </trkpt>
      <trkpt lat="48.02675" lon="-4.44113">
        <ele>80.400001525879</ele>
        <time>2013-08-13T12:15:13.000Z</time>
      </trkpt>
      <trkpt lat="48.02672" lon="-4.44113">
        <ele>79.400001525879</ele>
        <time>2013-08-13T12:15:20.000Z</time>
      </trkpt>
      <trkpt lat="48.02669" lon="-4.44113">
        <ele>79.400001525879</ele>
        <time>2013-08-13T12:15:22.000Z</time>
      </trkpt>
      <trkpt lat="48.0266" lon="-4.44119">
        <ele>79.400001525879</ele>
        <time>2013-08-13T12:15:30.000Z</time>
      </trkpt>
      <trkpt lat="48.02654" lon="-4.44123">
        <ele>78.800003051758</ele>
        <time>2013-08-13T12:15:34.000Z</time>
      </trkpt>
      <trkpt lat="48.02649" lon="-4.44127">
        <ele>78.800003051758</ele>
        <time>2013-08-13T12:15:39.000Z</time>
      </trkpt>
      <trkpt lat="48.02646" lon="-4.44131">
        <ele>79.800003051758</ele>
        <time>2013-08-13T12:15:43.000Z</time>
      </trkpt>
      <trkpt lat="48.02642" lon="-4.44136">
        <ele>80.400001525879</ele>
        <time>2013-08-13T12:15:50.000Z</time>
      </trkpt>
      <trkpt lat="48.02638" lon="-4.44136">
        <ele>78.800003051758</ele>
        <time>2013-08-13T12:15:55.000Z</time>
      </trkpt>
      <trkpt lat="48.02637" lon="-4.44137">
        <ele>78.800003051758</ele>
        <time>2013-08-13T12:15:56.000Z</time>
      </trkpt>
      <trkpt lat="48.0263" lon="-4.44139">
        <ele>76.400001525879</ele>
        <time>2013-08-13T12:16:01.000Z</time>
      </trkpt>
      <trkpt lat="48.02627" lon="-4.4414">
        <ele>75.599998474121</ele>
        <time>2013-08-13T12:16:04.000Z</time>
      </trkpt>
      <trkpt lat="48.02626" lon="-4.4414">
        <ele>75.599998474121</ele>
        <time>2013-08-13T12:16:06.000Z</time>
      </trkpt>
      <trkpt lat="48.02619" lon="-4.44141">
        <ele>75</ele>
        <time>2013-08-13T12:16:14.000Z</time>
      </trkpt>
      <trkpt lat="48.02616" lon="-4.44142">
        <ele>75.599998474121</ele>
        <time>2013-08-13T12:16:20.000Z</time>
      </trkpt>
      <trkpt lat="48.0261" lon="-4.44145">
        <ele>74</ele>
        <time>2013-08-13T12:16:27.000Z</time>
      </trkpt>
      <trkpt lat="48.02606" lon="-4.44149">
        <ele>73</ele>
        <time>2013-08-13T12:16:31.000Z</time>
      </trkpt>
      <trkpt lat="48.026" lon="-4.44149">
        <ele>72.599998474121</ele>
        <time>2013-08-13T12:16:37.000Z</time>
      </trkpt>
      <trkpt lat="48.02594" lon="-4.44154">
        <ele>72.599998474121</ele>
        <time>2013-08-13T12:16:46.000Z</time>
      </trkpt>
      <trkpt lat="48.0259" lon="-4.44155">
        <ele>72.199996948242</ele>
        <time>2013-08-13T12:16:48.000Z</time>
      </trkpt>
      <trkpt lat="48.02585" lon="-4.44154">
        <ele>71.599998474121</ele>
        <time>2013-08-13T12:16:52.000Z</time>
      </trkpt>
      <trkpt lat="48.02583" lon="-4.44155">
        <ele>70.199996948242</ele>
        <time>2013-08-13T12:16:54.000Z</time>
      </trkpt>
      <trkpt lat="48.02579" lon="-4.44155">
        <ele>70.199996948242</ele>
        <time>2013-08-13T12:16:58.000Z</time>
      </trkpt>
      <trkpt lat="48.02572" lon="-4.44159">
        <ele>68.199996948242</ele>
        <time>2013-08-13T12:17:06.000Z</time>
      </trkpt>
      <trkpt lat="48.02564" lon="-4.44159">
        <ele>68.199996948242</ele>
        <time>2013-08-13T12:17:13.000Z</time>
      </trkpt>
      <trkpt lat="48.02563" lon="-4.44159">
        <ele>68.800003051758</ele>
        <time>2013-08-13T12:17:15.000Z</time>
      </trkpt>
      <trkpt lat="48.02555" lon="-4.44159">
        <ele>70.199996948242</ele>
        <time>2013-08-13T12:17:23.000Z</time>
      </trkpt>
      <trkpt lat="48.02545" lon="-4.4416">
        <ele>70.199996948242</ele>
        <time>2013-08-13T12:17:31.000Z</time>
      </trkpt>
      <trkpt lat="48.0254" lon="-4.44162">
        <ele>69.800003051758</ele>
        <time>2013-08-13T12:17:37.000Z</time>
      </trkpt>
      <trkpt lat="48.02536" lon="-4.44164">
        <ele>70.599998474121</ele>
        <time>2013-08-13T12:17:41.000Z</time>
      </trkpt>
      <trkpt lat="48.02531" lon="-4.44164">
        <ele>71.199996948242</ele>
        <time>2013-08-13T12:17:45.000Z</time>
      </trkpt>
      <trkpt lat="48.02527" lon="-4.44166">
        <ele>71.599998474121</ele>
        <time>2013-08-13T12:17:47.000Z</time>
      </trkpt>
      <trkpt lat="48.02522" lon="-4.4417">
        <ele>71.199996948242</ele>
        <time>2013-08-13T12:17:52.000Z</time>
      </trkpt>
      <trkpt lat="48.02515" lon="-4.44178">
        <ele>70.599998474121</ele>
        <time>2013-08-13T12:17:59.000Z</time>
      </trkpt>
      <trkpt lat="48.02512" lon="-4.44176">
        <ele>68.800003051758</ele>
        <time>2013-08-13T12:18:05.000Z</time>
      </trkpt>
      <trkpt lat="48.02506" lon="-4.4418">
        <ele>67.800003051758</ele>
        <time>2013-08-13T12:18:12.000Z</time>
      </trkpt>
      <trkpt lat="48.02501" lon="-4.44182">
        <ele>69.199996948242</ele>
        <time>2013-08-13T12:18:17.000Z</time>
      </trkpt>
      <trkpt lat="48.02496" lon="-4.44187">
        <ele>70.199996948242</ele>
        <time>2013-08-13T12:18:23.000Z</time>
      </trkpt>
      <trkpt lat="48.02494" lon="-4.44188">
        <ele>70.199996948242</ele>
        <time>2013-08-13T12:18:26.000Z</time>
      </trkpt>
      <trkpt lat="48.02486" lon="-4.44192">
        <ele>71.199996948242</ele>
        <time>2013-08-13T12:18:32.000Z</time>
      </trkpt>
      <trkpt lat="48.0248" lon="-4.44192">
        <ele>70.599998474121</ele>
        <time>2013-08-13T12:18:36.000Z</time>
      </trkpt>
      <trkpt lat="48.02475" lon="-4.44193">
        <ele>70.199996948242</ele>
        <time>2013-08-13T12:18:41.000Z</time>
      </trkpt>
      <trkpt lat="48.02473" lon="-4.44188">
        <ele>71.199996948242</ele>
        <time>2013-08-13T12:18:46.000Z</time>
      </trkpt>
      <trkpt lat="48.02471" lon="-4.44183">
        <ele>70.199996948242</ele>
        <time>2013-08-13T12:18:49.000Z</time>
      </trkpt>
      <trkpt lat="48.02467" lon="-4.44188">
        <ele>69.800003051758</ele>
        <time>2013-08-13T12:18:54.000Z</time>
      </trkpt>
      <trkpt lat="48.02466" lon="-4.44189">
        <ele>69.199996948242</ele>
        <time>2013-08-13T12:18:55.000Z</time>
      </trkpt>
      <trkpt lat="48.02461" lon="-4.44201">
        <ele>69.199996948242</ele>
        <time>2013-08-13T12:19:02.000Z</time>
      </trkpt>
      <trkpt lat="48.0246" lon="-4.44207">
        <ele>70.599998474121</ele>
        <time>2013-08-13T12:19:06.000Z</time>
      </trkpt>
      <trkpt lat="48.02457" lon="-4.44215">
        <ele>71.199996948242</ele>
        <time>2013-08-13T12:19:13.000Z</time>
      </trkpt>
      <trkpt lat="48.02455" lon="-4.44216">
        <ele>72.199996948242</ele>
        <time>2013-08-13T12:19:14.000Z</time>
      </trkpt>
      <trkpt lat="48.02451" lon="-4.44223">
        <ele>74</ele>
        <time>2013-08-13T12:19:19.000Z</time>
      </trkpt>
      <trkpt lat="48.02449" lon="-4.4423">
        <ele>73</ele>
        <time>2013-08-13T12:19:27.000Z</time>
      </trkpt>
      <trkpt lat="48.02448" lon="-4.44231">
        <ele>73</ele>
        <time>2013-08-13T12:19:28.000Z</time>
      </trkpt>
      <trkpt lat="48.02441" lon="-4.4424">
        <ele>75.599998474121</ele>
        <time>2013-08-13T12:19:36.000Z</time>
      </trkpt>
      <trkpt lat="48.02435" lon="-4.44251">
        <ele>75</ele>
        <time>2013-08-13T12:19:45.000Z</time>
      </trkpt>
      <trkpt lat="48.0243" lon="-4.44261">
        <ele>74</ele>
        <time>2013-08-13T12:19:52.000Z</time>
      </trkpt>
      <trkpt lat="48.02423" lon="-4.4427">
        <ele>73.599998474121</ele>
        <time>2013-08-13T12:20:00.000Z</time>
      </trkpt>
      <trkpt lat="48.02423" lon="-4.44271">
        <ele>73</ele>
        <time>2013-08-13T12:20:01.000Z</time>
      </trkpt>
      <trkpt lat="48.02416" lon="-4.44278">
        <ele>74</ele>
        <time>2013-08-13T12:20:08.000Z</time>
      </trkpt>
      <trkpt lat="48.0241" lon="-4.44287">
        <ele>74.599998474121</ele>
        <time>2013-08-13T12:20:15.000Z</time>
      </trkpt>
      <trkpt lat="48.02403" lon="-4.44296">
        <ele>75</ele>
        <time>2013-08-13T12:20:23.000Z</time>
      </trkpt>
      <trkpt lat="48.02398" lon="-4.44304">
        <ele>74</ele>
        <time>2013-08-13T12:20:30.000Z</time>
      </trkpt>
      <trkpt lat="48.02396" lon="-4.44306">
        <ele>74.599998474121</ele>
        <time>2013-08-13T12:20:34.000Z</time>
      </trkpt>
      <trkpt lat="48.02387" lon="-4.44318">
        <ele>71.599998474121</ele>
        <time>2013-08-13T12:20:45.000Z</time>
      </trkpt>
      <trkpt lat="48.02383" lon="-4.44327">
        <ele>69.199996948242</ele>
        <time>2013-08-13T12:20:52.000Z</time>
      </trkpt>
      <trkpt lat="48.02375" lon="-4.44336">
        <ele>69.199996948242</ele>
        <time>2013-08-13T12:21:00.000Z</time>
      </trkpt>
      <trkpt lat="48.02365" lon="-4.44351">
        <ele>69.800003051758</ele>
        <time>2013-08-13T12:21:12.000Z</time>
      </trkpt>
      <trkpt lat="48.02357" lon="-4.44366">
        <ele>70.599998474121</ele>
        <time>2013-08-13T12:21:24.000Z</time>
      </trkpt>
      <trkpt lat="48.0235" lon="-4.44381">
        <ele>71.199996948242</ele>
        <time>2013-08-13T12:21:35.000Z</time>
      </trkpt>
      <trkpt lat="48.02344" lon="-4.44395">
        <ele>69.800003051758</ele>
        <time>2013-08-13T12:21:46.000Z</time>
      </trkpt>
      <trkpt lat="48.0234" lon="-4.44402">
        <ele>71.599998474121</ele>
        <time>2013-08-13T12:21:54.000Z</time>
      </trkpt>
      <trkpt lat="48.02338" lon="-4.44408">
        <ele>71.199996948242</ele>
        <time>2013-08-13T12:21:58.000Z</time>
      </trkpt>
      <trkpt lat="48.02333" lon="-4.44425">
        <ele>69.800003051758</ele>
        <time>2013-08-13T12:22:09.000Z</time>
      </trkpt>
      <trkpt lat="48.02328" lon="-4.44443">
        <ele>69.199996948242</ele>
        <time>2013-08-13T12:22:20.000Z</time>
      </trkpt>
      <trkpt lat="48.02321" lon="-4.44457">
        <ele>69.199996948242</ele>
        <time>2013-08-13T12:22:31.000Z</time>
      </trkpt>
      <trkpt lat="48.02316" lon="-4.4447">
        <ele>68.199996948242</ele>
        <time>2013-08-13T12:22:40.000Z</time>
      </trkpt>
      <trkpt lat="48.0231" lon="-4.44482">
        <ele>70.199996948242</ele>
        <time>2013-08-13T12:22:48.000Z</time>
      </trkpt>
      <trkpt lat="48.02306" lon="-4.44499">
        <ele>68.800003051758</ele>
        <time>2013-08-13T12:22:59.000Z</time>
      </trkpt>
      <trkpt lat="48.02301" lon="-4.44518">
        <ele>70.199996948242</ele>
        <time>2013-08-13T12:23:10.000Z</time>
      </trkpt>
      <trkpt lat="48.02299" lon="-4.4453">
        <ele>67.400001525879</ele>
        <time>2013-08-13T12:23:18.000Z</time>
      </trkpt>
      <trkpt lat="48.02296" lon="-4.44546">
        <ele>63</ele>
        <time>2013-08-13T12:23:28.000Z</time>
      </trkpt>
      <trkpt lat="48.02293" lon="-4.44556">
        <ele>63.400001525879</ele>
        <time>2013-08-13T12:23:35.000Z</time>
      </trkpt>
      <trkpt lat="48.02289" lon="-4.4457">
        <ele>63.400001525879</ele>
        <time>2013-08-13T12:23:44.000Z</time>
      </trkpt>
      <trkpt lat="48.02284" lon="-4.44584">
        <ele>63</ele>
        <time>2013-08-13T12:23:53.000Z</time>
      </trkpt>
      <trkpt lat="48.02282" lon="-4.44598">
        <ele>62</ele>
        <time>2013-08-13T12:24:01.000Z</time>
      </trkpt>
      <trkpt lat="48.02282" lon="-4.44599">
        <ele>62</ele>
        <time>2013-08-13T12:24:02.000Z</time>
      </trkpt>
      <trkpt lat="48.02279" lon="-4.44607">
        <ele>62</ele>
        <time>2013-08-13T12:24:06.000Z</time>
      </trkpt>
      <trkpt lat="48.02275" lon="-4.44616">
        <ele>62</ele>
        <time>2013-08-13T12:24:12.000Z</time>
      </trkpt>
      <trkpt lat="48.02274" lon="-4.44624">
        <ele>62.599998474121</ele>
        <time>2013-08-13T12:24:17.000Z</time>
      </trkpt>
      <trkpt lat="48.02267" lon="-4.44632">
        <ele>71.199996948242</ele>
        <time>2013-08-13T12:24:24.000Z</time>
      </trkpt>
      <trkpt lat="48.02263" lon="-4.44642">
        <ele>72.599998474121</ele>
        <time>2013-08-13T12:24:31.000Z</time>
      </trkpt>
      <trkpt lat="48.0226" lon="-4.44656">
        <ele>71.599998474121</ele>
        <time>2013-08-13T12:24:39.000Z</time>
      </trkpt>
      <trkpt lat="48.02255" lon="-4.44668">
        <ele>71.599998474121</ele>
        <time>2013-08-13T12:24:47.000Z</time>
      </trkpt>
      <trkpt lat="48.02252" lon="-4.44672">
        <ele>71.199996948242</ele>
        <time>2013-08-13T12:24:50.000Z</time>
      </trkpt>
      <trkpt lat="48.02244" lon="-4.44673">
        <ele>72.199996948242</ele>
        <time>2013-08-13T12:24:57.000Z</time>
      </trkpt>
      <trkpt lat="48.02234" lon="-4.44672">
        <ele>74.599998474121</ele>
        <time>2013-08-13T12:25:04.000Z</time>
      </trkpt>
      <trkpt lat="48.02228" lon="-4.44671">
        <ele>73.599998474121</ele>
        <time>2013-08-13T12:25:10.000Z</time>
      </trkpt>
      <trkpt lat="48.02225" lon="-4.44671">
        <ele>72.599998474121</ele>
        <time>2013-08-13T12:25:14.000Z</time>
      </trkpt>
      <trkpt lat="48.0222" lon="-4.4467">
        <ele>71.599998474121</ele>
        <time>2013-08-13T12:25:19.000Z</time>
      </trkpt>
      <trkpt lat="48.02218" lon="-4.44669">
        <ele>70.199996948242</ele>
        <time>2013-08-13T12:25:24.000Z</time>
      </trkpt>
      <trkpt lat="48.02214" lon="-4.44667">
        <ele>68.800003051758</ele>
        <time>2013-08-13T12:25:29.000Z</time>
      </trkpt>
      <trkpt lat="48.02209" lon="-4.44665">
        <ele>65.400001525879</ele>
        <time>2013-08-13T12:25:35.000Z</time>
      </trkpt>
      <trkpt lat="48.02201" lon="-4.44666">
        <ele>63</ele>
        <time>2013-08-13T12:25:43.000Z</time>
      </trkpt>
      <trkpt lat="48.02196" lon="-4.44666">
        <ele>62</ele>
        <time>2013-08-13T12:25:47.000Z</time>
      </trkpt>
      <trkpt lat="48.0219" lon="-4.44665">
        <ele>62</ele>
        <time>2013-08-13T12:25:53.000Z</time>
      </trkpt>
      <trkpt lat="48.02181" lon="-4.44664">
        <ele>60.599998474121</ele>
        <time>2013-08-13T12:26:02.000Z</time>
      </trkpt>
      <trkpt lat="48.02172" lon="-4.44661">
        <ele>60.599998474121</ele>
        <time>2013-08-13T12:26:10.000Z</time>
      </trkpt>
      <trkpt lat="48.02162" lon="-4.44657">
        <ele>62.599998474121</ele>
        <time>2013-08-13T12:26:19.000Z</time>
      </trkpt>
      <trkpt lat="48.0216" lon="-4.44655">
        <ele>65.400001525879</ele>
        <time>2013-08-13T12:26:25.000Z</time>
      </trkpt>
      <trkpt lat="48.02156" lon="-4.44653">
        <ele>65.800003051758</ele>
        <time>2013-08-13T12:26:31.000Z</time>
      </trkpt>
      <trkpt lat="48.02152" lon="-4.44652">
        <ele>66.400001525879</ele>
        <time>2013-08-13T12:26:36.000Z</time>
      </trkpt>
      <trkpt lat="48.02146" lon="-4.44651">
        <ele>66.400001525879</ele>
        <time>2013-08-13T12:26:41.000Z</time>
      </trkpt>
      <trkpt lat="48.02138" lon="-4.44648">
        <ele>64</ele>
        <time>2013-08-13T12:26:47.000Z</time>
      </trkpt>
      <trkpt lat="48.02137" lon="-4.44648">
        <ele>65</ele>
        <time>2013-08-13T12:26:48.000Z</time>
      </trkpt>
      <trkpt lat="48.02134" lon="-4.44646">
        <ele>64.400001525879</ele>
        <time>2013-08-13T12:26:50.000Z</time>
      </trkpt>
      <trkpt lat="48.02127" lon="-4.44642">
        <ele>63.400001525879</ele>
        <time>2013-08-13T12:26:56.000Z</time>
      </trkpt>
      <trkpt lat="48.0212" lon="-4.44641">
        <ele>62.599998474121</ele>
        <time>2013-08-13T12:27:02.000Z</time>
      </trkpt>
      <trkpt lat="48.02114" lon="-4.44638">
        <ele>62</ele>
        <time>2013-08-13T12:27:08.000Z</time>
      </trkpt>
      <trkpt lat="48.0211" lon="-4.44635">
        <ele>61.599998474121</ele>
        <time>2013-08-13T12:27:12.000Z</time>
      </trkpt>
      <trkpt lat="48.02109" lon="-4.44633">
        <ele>62</ele>
        <time>2013-08-13T12:27:13.000Z</time>
      </trkpt>
      <trkpt lat="48.02107" lon="-4.44628">
        <ele>64.400001525879</ele>
        <time>2013-08-13T12:27:17.000Z</time>
      </trkpt>
      <trkpt lat="48.02101" lon="-4.44623">
        <ele>65.400001525879</ele>
        <time>2013-08-13T12:27:23.000Z</time>
      </trkpt>
      <trkpt lat="48.02093" lon="-4.44616">
        <ele>64</ele>
        <time>2013-08-13T12:27:30.000Z</time>
      </trkpt>
      <trkpt lat="48.02085" lon="-4.4461">
        <ele>63.400001525879</ele>
        <time>2013-08-13T12:27:37.000Z</time>
      </trkpt>
      <trkpt lat="48.02082" lon="-4.44609">
        <ele>64</ele>
        <time>2013-08-13T12:27:40.000Z</time>
      </trkpt>
      <trkpt lat="48.02074" lon="-4.44603">
        <ele>65</ele>
        <time>2013-08-13T12:27:48.000Z</time>
      </trkpt>
      <trkpt lat="48.0207" lon="-4.44603">
        <ele>65.400001525879</ele>
        <time>2013-08-13T12:27:51.000Z</time>
      </trkpt>
      <trkpt lat="48.02062" lon="-4.44597">
        <ele>65.400001525879</ele>
        <time>2013-08-13T12:27:59.000Z</time>
      </trkpt>
      <trkpt lat="48.02055" lon="-4.44592">
        <ele>65.400001525879</ele>
        <time>2013-08-13T12:28:06.000Z</time>
      </trkpt>
      <trkpt lat="48.02046" lon="-4.44587">
        <ele>64.400001525879</ele>
        <time>2013-08-13T12:28:15.000Z</time>
      </trkpt>
      <trkpt lat="48.02039" lon="-4.44584">
        <ele>64.400001525879</ele>
        <time>2013-08-13T12:28:21.000Z</time>
      </trkpt>
      <trkpt lat="48.02031" lon="-4.44579">
        <ele>65.800003051758</ele>
        <time>2013-08-13T12:28:29.000Z</time>
      </trkpt>
      <trkpt lat="48.0203" lon="-4.44578">
        <ele>65.800003051758</ele>
        <time>2013-08-13T12:28:30.000Z</time>
      </trkpt>
      <trkpt lat="48.02022" lon="-4.44573">
        <ele>65.400001525879</ele>
        <time>2013-08-13T12:28:37.000Z</time>
      </trkpt>
      <trkpt lat="48.02017" lon="-4.44568">
        <ele>65.400001525879</ele>
        <time>2013-08-13T12:28:42.000Z</time>
      </trkpt>
      <trkpt lat="48.02009" lon="-4.44564">
        <ele>65.800003051758</ele>
        <time>2013-08-13T12:28:48.000Z</time>
      </trkpt>
      <trkpt lat="48.02008" lon="-4.44564">
        <ele>66.400001525879</ele>
        <time>2013-08-13T12:28:49.000Z</time>
      </trkpt>
      <trkpt lat="48.02003" lon="-4.44561">
        <ele>67.400001525879</ele>
        <time>2013-08-13T12:28:54.000Z</time>
      </trkpt>
      <trkpt lat="48.01998" lon="-4.44561">
        <ele>67.800003051758</ele>
        <time>2013-08-13T12:28:58.000Z</time>
      </trkpt>
      <trkpt lat="48.01989" lon="-4.44558">
        <ele>69.199996948242</ele>
        <time>2013-08-13T12:29:07.000Z</time>
      </trkpt>
      <trkpt lat="48.01987" lon="-4.44557">
        <ele>69.199996948242</ele>
        <time>2013-08-13T12:29:09.000Z</time>
      </trkpt>
      <trkpt lat="48.0198" lon="-4.44555">
        <ele>67.800003051758</ele>
        <time>2013-08-13T12:29:15.000Z</time>
      </trkpt>
      <trkpt lat="48.01973" lon="-4.44555">
        <ele>67.400001525879</ele>
        <time>2013-08-13T12:29:22.000Z</time>
      </trkpt>
      <trkpt lat="48.01965" lon="-4.44553">
        <ele>67.400001525879</ele>
        <time>2013-08-13T12:29:29.000Z</time>
      </trkpt>
      <trkpt lat="48.01961" lon="-4.44553">
        <ele>67.800003051758</ele>
        <time>2013-08-13T12:29:32.000Z</time>
      </trkpt>
      <trkpt lat="48.01959" lon="-4.44554">
        <ele>67.800003051758</ele>
        <time>2013-08-13T12:29:35.000Z</time>
      </trkpt>
      <trkpt lat="48.01953" lon="-4.44552">
        <ele>68.199996948242</ele>
        <time>2013-08-13T12:29:40.000Z</time>
      </trkpt>
      <trkpt lat="48.01947" lon="-4.4455">
        <ele>68.199996948242</ele>
        <time>2013-08-13T12:29:44.000Z</time>
      </trkpt>
      <trkpt lat="48.01945" lon="-4.44549">
        <ele>67.800003051758</ele>
        <time>2013-08-13T12:29:46.000Z</time>
      </trkpt>
      <trkpt lat="48.01937" lon="-4.44557">
        <ele>68.800003051758</ele>
        <time>2013-08-13T12:29:54.000Z</time>
      </trkpt>
      <trkpt lat="48.01935" lon="-4.4456">
        <ele>70.199996948242</ele>
        <time>2013-08-13T12:29:58.000Z</time>
      </trkpt>
      <trkpt lat="48.01932" lon="-4.44566">
        <ele>70.199996948242</ele>
        <time>2013-08-13T12:30:02.000Z</time>
      </trkpt>
      <trkpt lat="48.01929" lon="-4.44575">
        <ele>73</ele>
        <time>2013-08-13T12:30:08.000Z</time>
      </trkpt>
      <trkpt lat="48.01929" lon="-4.44585">
        <ele>73</ele>
        <time>2013-08-13T12:30:15.000Z</time>
      </trkpt>
      <trkpt lat="48.01927" lon="-4.44594">
        <ele>75</ele>
        <time>2013-08-13T12:30:21.000Z</time>
      </trkpt>
      <trkpt lat="48.01926" lon="-4.44595">
        <ele>74.599998474121</ele>
        <time>2013-08-13T12:30:22.000Z</time>
      </trkpt>
      <trkpt lat="48.01923" lon="-4.44604">
        <ele>75</ele>
        <time>2013-08-13T12:30:28.000Z</time>
      </trkpt>
      <trkpt lat="48.01923" lon="-4.44605">
        <ele>74.599998474121</ele>
        <time>2013-08-13T12:30:29.000Z</time>
      </trkpt>
      <trkpt lat="48.01923" lon="-4.44615">
        <ele>72.199996948242</ele>
        <time>2013-08-13T12:30:36.000Z</time>
      </trkpt>
      <trkpt lat="48.01923" lon="-4.44621">
        <ele>71.199996948242</ele>
        <time>2013-08-13T12:30:40.000Z</time>
      </trkpt>
      <trkpt lat="48.01922" lon="-4.44629">
        <ele>70.199996948242</ele>
        <time>2013-08-13T12:30:45.000Z</time>
      </trkpt>
      <trkpt lat="48.0192" lon="-4.44644">
        <ele>71.199996948242</ele>
        <time>2013-08-13T12:30:54.000Z</time>
      </trkpt>
      <trkpt lat="48.0192" lon="-4.44648">
        <ele>71.199996948242</ele>
        <time>2013-08-13T12:30:56.000Z</time>
      </trkpt>
      <trkpt lat="48.01919" lon="-4.44656">
        <ele>71.599998474121</ele>
        <time>2013-08-13T12:31:01.000Z</time>
      </trkpt>
      <trkpt lat="48.01918" lon="-4.44667">
        <ele>73</ele>
        <time>2013-08-13T12:31:07.000Z</time>
      </trkpt>
      <trkpt lat="48.01918" lon="-4.44677">
        <ele>73.599998474121</ele>
        <time>2013-08-13T12:31:13.000Z</time>
      </trkpt>
      <trkpt lat="48.01916" lon="-4.44688">
        <ele>73.599998474121</ele>
        <time>2013-08-13T12:31:19.000Z</time>
      </trkpt>
      <trkpt lat="48.01915" lon="-4.44692">
        <ele>74</ele>
        <time>2013-08-13T12:31:21.000Z</time>
      </trkpt>
      <trkpt lat="48.01914" lon="-4.44698">
        <ele>74</ele>
        <time>2013-08-13T12:31:25.000Z</time>
      </trkpt>
      <trkpt lat="48.01914" lon="-4.44709">
        <ele>73.599998474121</ele>
        <time>2013-08-13T12:31:32.000Z</time>
      </trkpt>
      <trkpt lat="48.01915" lon="-4.44717">
        <ele>72.599998474121</ele>
        <time>2013-08-13T12:31:37.000Z</time>
      </trkpt>
      <trkpt lat="48.01914" lon="-4.44724">
        <ele>72.599998474121</ele>
        <time>2013-08-13T12:31:41.000Z</time>
      </trkpt>
      <trkpt lat="48.01914" lon="-4.44736">
        <ele>74</ele>
        <time>2013-08-13T12:31:47.000Z</time>
      </trkpt>
      <trkpt lat="48.01914" lon="-4.44749">
        <ele>73.599998474121</ele>
        <time>2013-08-13T12:31:54.000Z</time>
      </trkpt>
      <trkpt lat="48.01913" lon="-4.44751">
        <ele>73.599998474121</ele>
        <time>2013-08-13T12:31:55.000Z</time>
      </trkpt>
      <trkpt lat="48.01913" lon="-4.44762">
        <ele>72.199996948242</ele>
        <time>2013-08-13T12:32:01.000Z</time>
      </trkpt>
      <trkpt lat="48.01912" lon="-4.44764">
        <ele>71.599998474121</ele>
        <time>2013-08-13T12:32:02.000Z</time>
      </trkpt>
      <trkpt lat="48.01911" lon="-4.44768">
        <ele>70.199996948242</ele>
        <time>2013-08-13T12:32:05.000Z</time>
      </trkpt>
      <trkpt lat="48.01903" lon="-4.44778">
        <ele>71.199996948242</ele>
        <time>2013-08-13T12:32:13.000Z</time>
      </trkpt>
      <trkpt lat="48.01896" lon="-4.44779">
        <ele>70.599998474121</ele>
        <time>2013-08-13T12:32:19.000Z</time>
      </trkpt>
      <trkpt lat="48.01887" lon="-4.44778">
        <ele>74</ele>
        <time>2013-08-13T12:32:26.000Z</time>
      </trkpt>
      <trkpt lat="48.01877" lon="-4.44778">
        <ele>76.400001525879</ele>
        <time>2013-08-13T12:32:33.000Z</time>
      </trkpt>
      <trkpt lat="48.01868" lon="-4.44778">
        <ele>72.599998474121</ele>
        <time>2013-08-13T12:32:42.000Z</time>
      </trkpt>
      <trkpt lat="48.01859" lon="-4.44778">
        <ele>73.599998474121</ele>
        <time>2013-08-13T12:32:49.000Z</time>
      </trkpt>
      <trkpt lat="48.01849" lon="-4.44777">
        <ele>76.400001525879</ele>
        <time>2013-08-13T12:32:57.000Z</time>
      </trkpt>
      <trkpt lat="48.0184" lon="-4.44778">
        <ele>78.800003051758</ele>
        <time>2013-08-13T12:33:04.000Z</time>
      </trkpt>
      <trkpt lat="48.01831" lon="-4.44778">
        <ele>77</ele>
        <time>2013-08-13T12:33:11.000Z</time>
      </trkpt>
      <trkpt lat="48.01825" lon="-4.44778">
        <ele>75.599998474121</ele>
        <time>2013-08-13T12:33:18.000Z</time>
      </trkpt>
      <trkpt lat="48.01816" lon="-4.4478">
        <ele>74</ele>
        <time>2013-08-13T12:33:28.000Z</time>
      </trkpt>
      <trkpt lat="48.0181" lon="-4.44782">
        <ele>72.599998474121</ele>
        <time>2013-08-13T12:33:32.000Z</time>
      </trkpt>
      <trkpt lat="48.01802" lon="-4.4478">
        <ele>71.199996948242</ele>
        <time>2013-08-13T12:33:38.000Z</time>
      </trkpt>
      <trkpt lat="48.01795" lon="-4.44782">
        <ele>70.199996948242</ele>
        <time>2013-08-13T12:33:43.000Z</time>
      </trkpt>
      <trkpt lat="48.01792" lon="-4.44786">
        <ele>68.199996948242</ele>
        <time>2013-08-13T12:33:46.000Z</time>
      </trkpt>
      <trkpt lat="48.01786" lon="-4.44786">
        <ele>67.400001525879</ele>
        <time>2013-08-13T12:33:52.000Z</time>
      </trkpt>
      <trkpt lat="48.01777" lon="-4.44785">
        <ele>69.199996948242</ele>
        <time>2013-08-13T12:34:00.000Z</time>
      </trkpt>
      <trkpt lat="48.01767" lon="-4.44784">
        <ele>69.199996948242</ele>
        <time>2013-08-13T12:34:08.000Z</time>
      </trkpt>
      <trkpt lat="48.01758" lon="-4.44786">
        <ele>65.400001525879</ele>
        <time>2013-08-13T12:34:17.000Z</time>
      </trkpt>
      <trkpt lat="48.01755" lon="-4.44787">
        <ele>64.400001525879</ele>
        <time>2013-08-13T12:34:20.000Z</time>
      </trkpt>
      <trkpt lat="48.01747" lon="-4.44784">
        <ele>67.400001525879</ele>
        <time>2013-08-13T12:34:28.000Z</time>
      </trkpt>
      <trkpt lat="48.01738" lon="-4.44785">
        <ele>67.800003051758</ele>
        <time>2013-08-13T12:34:35.000Z</time>
      </trkpt>
      <trkpt lat="48.01729" lon="-4.44787">
        <ele>65</ele>
        <time>2013-08-13T12:34:43.000Z</time>
      </trkpt>
      <trkpt lat="48.01715" lon="-4.44787">
        <ele>65.400001525879</ele>
        <time>2013-08-13T12:34:55.000Z</time>
      </trkpt>
      <trkpt lat="48.01701" lon="-4.44786">
        <ele>69.800003051758</ele>
        <time>2013-08-13T12:35:05.000Z</time>
      </trkpt>
      <trkpt lat="48.01694" lon="-4.44788">
        <ele>71.599998474121</ele>
        <time>2013-08-13T12:35:12.000Z</time>
      </trkpt>
      <trkpt lat="48.01691" lon="-4.44788">
        <ele>70.599998474121</ele>
        <time>2013-08-13T12:35:14.000Z</time>
      </trkpt>
      <trkpt lat="48.01679" lon="-4.4479">
        <ele>70.599998474121</ele>
        <time>2013-08-13T12:35:24.000Z</time>
      </trkpt>
      <trkpt lat="48.01672" lon="-4.4479">
        <ele>68.800003051758</ele>
        <time>2013-08-13T12:35:30.000Z</time>
      </trkpt>
      <trkpt lat="48.01667" lon="-4.4479">
        <ele>68.199996948242</ele>
        <time>2013-08-13T12:35:35.000Z</time>
      </trkpt>
      <trkpt lat="48.01663" lon="-4.44792">
        <ele>66.400001525879</ele>
        <time>2013-08-13T12:35:39.000Z</time>
      </trkpt>
      <trkpt lat="48.01653" lon="-4.44793">
        <ele>66.400001525879</ele>
        <time>2013-08-13T12:35:47.000Z</time>
      </trkpt>
      <trkpt lat="48.01651" lon="-4.44793">
        <ele>67.400001525879</ele>
        <time>2013-08-13T12:35:49.000Z</time>
      </trkpt>
      <trkpt lat="48.01644" lon="-4.44795">
        <ele>69.800003051758</ele>
        <time>2013-08-13T12:35:55.000Z</time>
      </trkpt>
      <trkpt lat="48.01636" lon="-4.44795">
        <ele>69.800003051758</ele>
        <time>2013-08-13T12:36:02.000Z</time>
      </trkpt>
      <trkpt lat="48.01627" lon="-4.44795">
        <ele>68.800003051758</ele>
        <time>2013-08-13T12:36:08.000Z</time>
      </trkpt>
      <trkpt lat="48.01621" lon="-4.44797">
        <ele>69.199996948242</ele>
        <time>2013-08-13T12:36:14.000Z</time>
      </trkpt>
      <trkpt lat="48.01617" lon="-4.44797">
        <ele>68.199996948242</ele>
        <time>2013-08-13T12:36:18.000Z</time>
      </trkpt>
      <trkpt lat="48.01614" lon="-4.44799">
        <ele>68.199996948242</ele>
        <time>2013-08-13T12:36:20.000Z</time>
      </trkpt>
      <trkpt lat="48.01604" lon="-4.44801">
        <ele>66.800003051758</ele>
        <time>2013-08-13T12:36:28.000Z</time>
      </trkpt>
      <trkpt lat="48.01597" lon="-4.44803">
        <ele>65.400001525879</ele>
        <time>2013-08-13T12:36:35.000Z</time>
      </trkpt>
      <trkpt lat="48.01588" lon="-4.44805">
        <ele>66.800003051758</ele>
        <time>2013-08-13T12:36:42.000Z</time>
      </trkpt>
      <trkpt lat="48.01583" lon="-4.44807">
        <ele>68.199996948242</ele>
        <time>2013-08-13T12:36:47.000Z</time>
      </trkpt>
      <trkpt lat="48.01581" lon="-4.44809">
        <ele>68.199996948242</ele>
        <time>2013-08-13T12:36:49.000Z</time>
      </trkpt>
      <trkpt lat="48.0158" lon="-4.44825">
        <ele>67.400001525879</ele>
        <time>2013-08-13T12:36:58.000Z</time>
      </trkpt>
      <trkpt lat="48.01579" lon="-4.4483">
        <ele>67.400001525879</ele>
        <time>2013-08-13T12:37:01.000Z</time>
      </trkpt>
      <trkpt lat="48.0158" lon="-4.44834">
        <ele>67.800003051758</ele>
        <time>2013-08-13T12:37:08.000Z</time>
      </trkpt>
      <trkpt lat="48.01581" lon="-4.44839">
        <ele>68.199996948242</ele>
        <time>2013-08-13T12:37:11.000Z</time>
      </trkpt>
      <trkpt lat="48.01582" lon="-4.44853">
        <ele>67.800003051758</ele>
        <time>2013-08-13T12:37:20.000Z</time>
      </trkpt>
      <trkpt lat="48.01583" lon="-4.44857">
        <ele>66.800003051758</ele>
        <time>2013-08-13T12:37:27.000Z</time>
      </trkpt>
      <trkpt lat="48.01585" lon="-4.44862">
        <ele>66.800003051758</ele>
        <time>2013-08-13T12:37:32.000Z</time>
      </trkpt>
      <trkpt lat="48.01586" lon="-4.4487">
        <ele>67.400001525879</ele>
        <time>2013-08-13T12:37:38.000Z</time>
      </trkpt>
      <trkpt lat="48.01586" lon="-4.44875">
        <ele>68.199996948242</ele>
        <time>2013-08-13T12:37:43.000Z</time>
      </trkpt>
      <trkpt lat="48.01587" lon="-4.44881">
        <ele>67.800003051758</ele>
        <time>2013-08-13T12:37:48.000Z</time>
      </trkpt>
      <trkpt lat="48.01586" lon="-4.44887">
        <ele>67.400001525879</ele>
        <time>2013-08-13T12:37:53.000Z</time>
      </trkpt>
      <trkpt lat="48.01585" lon="-4.44888">
        <ele>67.400001525879</ele>
        <time>2013-08-13T12:37:59.000Z</time>
      </trkpt>
      <trkpt lat="48.01587" lon="-4.44892">
        <ele>67.400001525879</ele>
        <time>2013-08-13T12:38:03.000Z</time>
      </trkpt>
      <trkpt lat="48.01588" lon="-4.44898">
        <ele>66.400001525879</ele>
        <time>2013-08-13T12:38:07.000Z</time>
      </trkpt>
      <trkpt lat="48.01589" lon="-4.44904">
        <ele>67.400001525879</ele>
        <time>2013-08-13T12:38:12.000Z</time>
      </trkpt>
      <trkpt lat="48.0159" lon="-4.44906">
        <ele>67.800003051758</ele>
        <time>2013-08-13T12:38:13.000Z</time>
      </trkpt>
      <trkpt lat="48.0159" lon="-4.4491">
        <ele>67.800003051758</ele>
        <time>2013-08-13T12:38:15.000Z</time>
      </trkpt>
      <trkpt lat="48.0159" lon="-4.44917">
        <ele>67.400001525879</ele>
        <time>2013-08-13T12:38:19.000Z</time>
      </trkpt>
      <trkpt lat="48.0159" lon="-4.44922">
        <ele>67.400001525879</ele>
        <time>2013-08-13T12:38:25.000Z</time>
      </trkpt>
      <trkpt lat="48.01588" lon="-4.44924">
        <ele>67.800003051758</ele>
        <time>2013-08-13T12:38:44.000Z</time>
      </trkpt>
      <trkpt lat="48.01588" lon="-4.44927">
        <ele>66.800003051758</ele>
        <time>2013-08-13T12:38:52.000Z</time>
      </trkpt>
      <trkpt lat="48.01587" lon="-4.44931">
        <ele>69.199996948242</ele>
        <time>2013-08-13T12:39:02.000Z</time>
      </trkpt>
      <trkpt lat="48.01588" lon="-4.44941">
        <ele>68.800003051758</ele>
        <time>2013-08-13T12:39:08.000Z</time>
      </trkpt>
      <trkpt lat="48.01587" lon="-4.44946">
        <ele>68.800003051758</ele>
        <time>2013-08-13T12:39:14.000Z</time>
      </trkpt>
      <trkpt lat="48.01584" lon="-4.44949">
        <ele>69.199996948242</ele>
        <time>2013-08-13T12:39:18.000Z</time>
      </trkpt>
      <trkpt lat="48.0158" lon="-4.44953">
        <ele>70.599998474121</ele>
        <time>2013-08-13T12:39:23.000Z</time>
      </trkpt>
      <trkpt lat="48.01579" lon="-4.44957">
        <ele>69.800003051758</ele>
        <time>2013-08-13T12:39:27.000Z</time>
      </trkpt>
      <trkpt lat="48.01578" lon="-4.44961">
        <ele>66.400001525879</ele>
        <time>2013-08-13T12:39:34.000Z</time>
      </trkpt>
      <trkpt lat="48.01575" lon="-4.44962">
        <ele>65.800003051758</ele>
        <time>2013-08-13T12:39:40.000Z</time>
      </trkpt>
      <trkpt lat="48.01572" lon="-4.44967">
        <ele>65.400001525879</ele>
        <time>2013-08-13T12:39:45.000Z</time>
      </trkpt>
      <trkpt lat="48.01569" lon="-4.44974">
        <ele>64.400001525879</ele>
        <time>2013-08-13T12:39:51.000Z</time>
      </trkpt>
      <trkpt lat="48.01567" lon="-4.44976">
        <ele>65.800003051758</ele>
        <time>2013-08-13T12:39:56.000Z</time>
      </trkpt>
      <trkpt lat="48.01564" lon="-4.44981">
        <ele>65</ele>
        <time>2013-08-13T12:40:03.000Z</time>
      </trkpt>
      <trkpt lat="48.01562" lon="-4.44983">
        <ele>65</ele>
        <time>2013-08-13T12:40:08.000Z</time>
      </trkpt>
      <trkpt lat="48.0156" lon="-4.44987">
        <ele>66.800003051758</ele>
        <time>2013-08-13T12:40:13.000Z</time>
      </trkpt>
      <trkpt lat="48.01558" lon="-4.44991">
        <ele>66.400001525879</ele>
        <time>2013-08-13T12:40:25.000Z</time>
      </trkpt>
      <trkpt lat="48.01555" lon="-4.44997">
        <ele>65</ele>
        <time>2013-08-13T12:40:31.000Z</time>
      </trkpt>
      <trkpt lat="48.01557" lon="-4.45">
        <ele>64.400001525879</ele>
        <time>2013-08-13T12:40:35.000Z</time>
      </trkpt>
      <trkpt lat="48.01556" lon="-4.45006">
        <ele>64.400001525879</ele>
        <time>2013-08-13T12:40:41.000Z</time>
      </trkpt>
      <trkpt lat="48.01553" lon="-4.45011">
        <ele>65.400001525879</ele>
        <time>2013-08-13T12:40:45.000Z</time>
      </trkpt>
      <trkpt lat="48.01551" lon="-4.45017">
        <ele>64</ele>
        <time>2013-08-13T12:40:52.000Z</time>
      </trkpt>
      <trkpt lat="48.01548" lon="-4.45022">
        <ele>64.400001525879</ele>
        <time>2013-08-13T12:40:57.000Z</time>
      </trkpt>
      <trkpt lat="48.01548" lon="-4.4503">
        <ele>65</ele>
        <time>2013-08-13T12:41:03.000Z</time>
      </trkpt>
      <trkpt lat="48.01546" lon="-4.45031">
        <ele>66.800003051758</ele>
        <time>2013-08-13T12:41:09.000Z</time>
      </trkpt>
      <trkpt lat="48.01547" lon="-4.45029">
        <ele>68.800003051758</ele>
        <time>2013-08-13T12:41:18.000Z</time>
      </trkpt>
      <trkpt lat="48.01546" lon="-4.45031">
        <ele>68.800003051758</ele>
        <time>2013-08-13T12:41:20.000Z</time>
      </trkpt>
      <trkpt lat="48.01544" lon="-4.45034">
        <ele>69.199996948242</ele>
        <time>2013-08-13T12:41:22.000Z</time>
      </trkpt>
      <trkpt lat="48.0154" lon="-4.45036">
        <ele>68.800003051758</ele>
        <time>2013-08-13T12:41:27.000Z</time>
      </trkpt>
      <trkpt lat="48.01542" lon="-4.45046">
        <ele>65.800003051758</ele>
        <time>2013-08-13T12:41:34.000Z</time>
      </trkpt>
      <trkpt lat="48.01544" lon="-4.45053">
        <ele>65</ele>
        <time>2013-08-13T12:41:38.000Z</time>
      </trkpt>
      <trkpt lat="48.01546" lon="-4.4506">
        <ele>65</ele>
        <time>2013-08-13T12:41:44.000Z</time>
      </trkpt>
      <trkpt lat="48.01548" lon="-4.45065">
        <ele>65.400001525879</ele>
        <time>2013-08-13T12:41:48.000Z</time>
      </trkpt>
      <trkpt lat="48.0155" lon="-4.45071">
        <ele>65.800003051758</ele>
        <time>2013-08-13T12:41:53.000Z</time>
      </trkpt>
      <trkpt lat="48.0155" lon="-4.45079">
        <ele>66.400001525879</ele>
        <time>2013-08-13T12:41:58.000Z</time>
      </trkpt>
      <trkpt lat="48.01552" lon="-4.45086">
        <ele>66.800003051758</ele>
        <time>2013-08-13T12:42:03.000Z</time>
      </trkpt>
      <trkpt lat="48.01552" lon="-4.45088">
        <ele>66.800003051758</ele>
        <time>2013-08-13T12:42:04.000Z</time>
      </trkpt>
      <trkpt lat="48.01553" lon="-4.45098">
        <ele>66.800003051758</ele>
        <time>2013-08-13T12:42:10.000Z</time>
      </trkpt>
      <trkpt lat="48.01555" lon="-4.45106">
        <ele>66.400001525879</ele>
        <time>2013-08-13T12:42:16.000Z</time>
      </trkpt>
      <trkpt lat="48.01558" lon="-4.45113">
        <ele>65.400001525879</ele>
        <time>2013-08-13T12:42:22.000Z</time>
      </trkpt>
      <trkpt lat="48.01559" lon="-4.45122">
        <ele>65.800003051758</ele>
        <time>2013-08-13T12:42:28.000Z</time>
      </trkpt>
      <trkpt lat="48.01558" lon="-4.45132">
        <ele>66.400001525879</ele>
        <time>2013-08-13T12:42:34.000Z</time>
      </trkpt>
      <trkpt lat="48.0156" lon="-4.45137">
        <ele>66.400001525879</ele>
        <time>2013-08-13T12:42:38.000Z</time>
      </trkpt>
      <trkpt lat="48.01562" lon="-4.45144">
        <ele>65.400001525879</ele>
        <time>2013-08-13T12:42:42.000Z</time>
      </trkpt>
      <trkpt lat="48.01565" lon="-4.45152">
        <ele>64.400001525879</ele>
        <time>2013-08-13T12:42:47.000Z</time>
      </trkpt>
      <trkpt lat="48.01564" lon="-4.45161">
        <ele>61</ele>
        <time>2013-08-13T12:42:53.000Z</time>
      </trkpt>
      <trkpt lat="48.01564" lon="-4.45168">
        <ele>60.599998474121</ele>
        <time>2013-08-13T12:42:58.000Z</time>
      </trkpt>
      <trkpt lat="48.01564" lon="-4.45175">
        <ele>60.200000762939</ele>
        <time>2013-08-13T12:43:03.000Z</time>
      </trkpt>
      <trkpt lat="48.01564" lon="-4.45181">
        <ele>60.200000762939</ele>
        <time>2013-08-13T12:43:07.000Z</time>
      </trkpt>
      <trkpt lat="48.01567" lon="-4.45189">
        <ele>63</ele>
        <time>2013-08-13T12:43:13.000Z</time>
      </trkpt>
      <trkpt lat="48.0157" lon="-4.45194">
        <ele>70.199996948242</ele>
        <time>2013-08-13T12:43:23.000Z</time>
      </trkpt>
      <trkpt lat="48.01565" lon="-4.45199">
        <ele>71.199996948242</ele>
        <time>2013-08-13T12:43:42.000Z</time>
      </trkpt>
      <trkpt lat="48.01562" lon="-4.45199">
        <ele>70.599998474121</ele>
        <time>2013-08-13T12:43:51.000Z</time>
      </trkpt>
      <trkpt lat="48.0156" lon="-4.45204">
        <ele>71.599998474121</ele>
        <time>2013-08-13T12:43:55.000Z</time>
      </trkpt>
      <trkpt lat="48.01557" lon="-4.45207">
        <ele>72.599998474121</ele>
        <time>2013-08-13T12:43:59.000Z</time>
      </trkpt>
      <trkpt lat="48.01552" lon="-4.45206">
        <ele>73</ele>
        <time>2013-08-13T12:44:03.000Z</time>
      </trkpt>
      <trkpt lat="48.01544" lon="-4.4521">
        <ele>74.599998474121</ele>
        <time>2013-08-13T12:44:10.000Z</time>
      </trkpt>
      <trkpt lat="48.01541" lon="-4.45221">
        <ele>73</ele>
        <time>2013-08-13T12:44:17.000Z</time>
      </trkpt>
      <trkpt lat="48.0154" lon="-4.45223">
        <ele>73</ele>
        <time>2013-08-13T12:44:18.000Z</time>
      </trkpt>
      <trkpt lat="48.01539" lon="-4.45234">
        <ele>73</ele>
        <time>2013-08-13T12:44:24.000Z</time>
      </trkpt>
      <trkpt lat="48.01539" lon="-4.45236">
        <ele>72.599998474121</ele>
        <time>2013-08-13T12:44:25.000Z</time>
      </trkpt>
      <trkpt lat="48.0154" lon="-4.45249">
        <ele>72.599998474121</ele>
        <time>2013-08-13T12:44:33.000Z</time>
      </trkpt>
      <trkpt lat="48.01539" lon="-4.4526">
        <ele>72.199996948242</ele>
        <time>2013-08-13T12:44:39.000Z</time>
      </trkpt>
      <trkpt lat="48.0154" lon="-4.45272">
        <ele>73</ele>
        <time>2013-08-13T12:44:46.000Z</time>
      </trkpt>
      <trkpt lat="48.0154" lon="-4.45274">
        <ele>74</ele>
        <time>2013-08-13T12:44:51.000Z</time>
      </trkpt>
      <trkpt lat="48.0154" lon="-4.45277">
        <ele>73</ele>
        <time>2013-08-13T12:45:03.000Z</time>
      </trkpt>
      <trkpt lat="48.0154" lon="-4.45285">
        <ele>72.599998474121</ele>
        <time>2013-08-13T12:45:07.000Z</time>
      </trkpt>
      <trkpt lat="48.01539" lon="-4.45298">
        <ele>72.599998474121</ele>
        <time>2013-08-13T12:45:14.000Z</time>
      </trkpt>
      <trkpt lat="48.01538" lon="-4.45303">
        <ele>73</ele>
        <time>2013-08-13T12:45:17.000Z</time>
      </trkpt>
      <trkpt lat="48.01538" lon="-4.45311">
        <ele>73.599998474121</ele>
        <time>2013-08-13T12:45:22.000Z</time>
      </trkpt>
      <trkpt lat="48.01539" lon="-4.45324">
        <ele>75</ele>
        <time>2013-08-13T12:45:30.000Z</time>
      </trkpt>
      <trkpt lat="48.0154" lon="-4.45341">
        <ele>76</ele>
        <time>2013-08-13T12:45:41.000Z</time>
      </trkpt>
      <trkpt lat="48.01541" lon="-4.45359">
        <ele>77</ele>
        <time>2013-08-13T12:45:52.000Z</time>
      </trkpt>
      <trkpt lat="48.01541" lon="-4.45375">
        <ele>78.400001525879</ele>
        <time>2013-08-13T12:46:02.000Z</time>
      </trkpt>
      <trkpt lat="48.0154" lon="-4.45394">
        <ele>79.400001525879</ele>
        <time>2013-08-13T12:46:13.000Z</time>
      </trkpt>
      <trkpt lat="48.01539" lon="-4.45404">
        <ele>80.400001525879</ele>
        <time>2013-08-13T12:46:19.000Z</time>
      </trkpt>
      <trkpt lat="48.01539" lon="-4.45412">
        <ele>81.199996948242</ele>
        <time>2013-08-13T12:46:24.000Z</time>
      </trkpt>
      <trkpt lat="48.01538" lon="-4.45422">
        <ele>81.800003051758</ele>
        <time>2013-08-13T12:46:29.000Z</time>
      </trkpt>
      <trkpt lat="48.01538" lon="-4.45427">
        <ele>82.199996948242</ele>
        <time>2013-08-13T12:46:31.000Z</time>
      </trkpt>
      <trkpt lat="48.01538" lon="-4.45432">
        <ele>81.800003051758</ele>
        <time>2013-08-13T12:46:34.000Z</time>
      </trkpt>
      <trkpt lat="48.01536" lon="-4.45446">
        <ele>83.199996948242</ele>
        <time>2013-08-13T12:46:42.000Z</time>
      </trkpt>
      <trkpt lat="48.01535" lon="-4.45458">
        <ele>81.800003051758</ele>
        <time>2013-08-13T12:46:48.000Z</time>
      </trkpt>
      <trkpt lat="48.01535" lon="-4.45464">
        <ele>82.199996948242</ele>
        <time>2013-08-13T12:46:52.000Z</time>
      </trkpt>
      <trkpt lat="48.01533" lon="-4.45474">
        <ele>83.199996948242</ele>
        <time>2013-08-13T12:46:58.000Z</time>
      </trkpt>
      <trkpt lat="48.01532" lon="-4.45478">
        <ele>83.599998474121</ele>
        <time>2013-08-13T12:47:00.000Z</time>
      </trkpt>
      <trkpt lat="48.01532" lon="-4.45489">
        <ele>85.599998474121</ele>
        <time>2013-08-13T12:47:07.000Z</time>
      </trkpt>
      <trkpt lat="48.01532" lon="-4.45493">
        <ele>85.199996948242</ele>
        <time>2013-08-13T12:47:12.000Z</time>
      </trkpt>
      <trkpt lat="48.01532" lon="-4.455">
        <ele>84.199996948242</ele>
        <time>2013-08-13T12:47:18.000Z</time>
      </trkpt>
      <trkpt lat="48.01532" lon="-4.45507">
        <ele>83.599998474121</ele>
        <time>2013-08-13T12:47:23.000Z</time>
      </trkpt>
      <trkpt lat="48.01533" lon="-4.45513">
        <ele>83.599998474121</ele>
        <time>2013-08-13T12:47:27.000Z</time>
      </trkpt>
      <trkpt lat="48.01533" lon="-4.45526">
        <ele>84.199996948242</ele>
        <time>2013-08-13T12:47:34.000Z</time>
      </trkpt>
      <trkpt lat="48.01532" lon="-4.45537">
        <ele>84.199996948242</ele>
        <time>2013-08-13T12:47:40.000Z</time>
      </trkpt>
      <trkpt lat="48.01532" lon="-4.45546">
        <ele>85.199996948242</ele>
        <time>2013-08-13T12:47:45.000Z</time>
      </trkpt>
      <trkpt lat="48.01532" lon="-4.4555">
        <ele>85.199996948242</ele>
        <time>2013-08-13T12:47:48.000Z</time>
      </trkpt>
      <trkpt lat="48.01534" lon="-4.45561">
        <ele>86</ele>
        <time>2013-08-13T12:47:55.000Z</time>
      </trkpt>
      <trkpt lat="48.01533" lon="-4.45568">
        <ele>88.400001525879</ele>
        <time>2013-08-13T12:48:00.000Z</time>
      </trkpt>
      <trkpt lat="48.01531" lon="-4.45579">
        <ele>89</ele>
        <time>2013-08-13T12:48:06.000Z</time>
      </trkpt>
      <trkpt lat="48.01528" lon="-4.45591">
        <ele>87.599998474121</ele>
        <time>2013-08-13T12:48:13.000Z</time>
      </trkpt>
      <trkpt lat="48.01527" lon="-4.45594">
        <ele>87.599998474121</ele>
        <time>2013-08-13T12:48:15.000Z</time>
      </trkpt>
      <trkpt lat="48.01528" lon="-4.45603">
        <ele>90</ele>
        <time>2013-08-13T12:48:21.000Z</time>
      </trkpt>
      <trkpt lat="48.01528" lon="-4.45605">
        <ele>89.400001525879</ele>
        <time>2013-08-13T12:48:22.000Z</time>
      </trkpt>
      <trkpt lat="48.01527" lon="-4.45619">
        <ele>89</ele>
        <time>2013-08-13T12:48:29.000Z</time>
      </trkpt>
      <trkpt lat="48.01527" lon="-4.4563">
        <ele>89</ele>
        <time>2013-08-13T12:48:35.000Z</time>
      </trkpt>
      <trkpt lat="48.01527" lon="-4.45637">
        <ele>88</ele>
        <time>2013-08-13T12:48:39.000Z</time>
      </trkpt>
      <trkpt lat="48.01527" lon="-4.45654">
        <ele>84.599998474121</ele>
        <time>2013-08-13T12:48:49.000Z</time>
      </trkpt>
      <trkpt lat="48.01527" lon="-4.45666">
        <ele>83.199996948242</ele>
        <time>2013-08-13T12:48:57.000Z</time>
      </trkpt>
      <trkpt lat="48.01528" lon="-4.45684">
        <ele>82.199996948242</ele>
        <time>2013-08-13T12:49:08.000Z</time>
      </trkpt>
      <trkpt lat="48.01527" lon="-4.45699">
        <ele>81.800003051758</ele>
        <time>2013-08-13T12:49:17.000Z</time>
      </trkpt>
      <trkpt lat="48.01526" lon="-4.45711">
        <ele>81.199996948242</ele>
        <time>2013-08-13T12:49:24.000Z</time>
      </trkpt>
      <trkpt lat="48.01526" lon="-4.45719">
        <ele>82.199996948242</ele>
        <time>2013-08-13T12:49:29.000Z</time>
      </trkpt>
      <trkpt lat="48.01526" lon="-4.45734">
        <ele>82.800003051758</ele>
        <time>2013-08-13T12:49:38.000Z</time>
      </trkpt>
      <trkpt lat="48.01526" lon="-4.45744">
        <ele>83.199996948242</ele>
        <time>2013-08-13T12:49:44.000Z</time>
      </trkpt>
      <trkpt lat="48.01525" lon="-4.45754">
        <ele>84.599998474121</ele>
        <time>2013-08-13T12:49:50.000Z</time>
      </trkpt>
      <trkpt lat="48.01525" lon="-4.45755">
        <ele>84.599998474121</ele>
        <time>2013-08-13T12:49:51.000Z</time>
      </trkpt>
      <trkpt lat="48.01525" lon="-4.45764">
        <ele>85.199996948242</ele>
        <time>2013-08-13T12:49:58.000Z</time>
      </trkpt>
      <trkpt lat="48.01524" lon="-4.45774">
        <ele>84.199996948242</ele>
        <time>2013-08-13T12:50:04.000Z</time>
      </trkpt>
      <trkpt lat="48.01523" lon="-4.45786">
        <ele>85.199996948242</ele>
        <time>2013-08-13T12:50:11.000Z</time>
      </trkpt>
      <trkpt lat="48.01522" lon="-4.458">
        <ele>84.599998474121</ele>
        <time>2013-08-13T12:50:19.000Z</time>
      </trkpt>
      <trkpt lat="48.01522" lon="-4.45813">
        <ele>84.599998474121</ele>
        <time>2013-08-13T12:50:26.000Z</time>
      </trkpt>
      <trkpt lat="48.0152" lon="-4.45823">
        <ele>85.199996948242</ele>
        <time>2013-08-13T12:50:32.000Z</time>
      </trkpt>
      <trkpt lat="48.0152" lon="-4.45834">
        <ele>86</ele>
        <time>2013-08-13T12:50:38.000Z</time>
      </trkpt>
      <trkpt lat="48.01522" lon="-4.45845">
        <ele>87</ele>
        <time>2013-08-13T12:50:45.000Z</time>
      </trkpt>
      <trkpt lat="48.01521" lon="-4.45862">
        <ele>86.599998474121</ele>
        <time>2013-08-13T12:50:55.000Z</time>
      </trkpt>
      <trkpt lat="48.0152" lon="-4.4587">
        <ele>85.599998474121</ele>
        <time>2013-08-13T12:50:59.000Z</time>
      </trkpt>
      <trkpt lat="48.01519" lon="-4.45881">
        <ele>85.199996948242</ele>
        <time>2013-08-13T12:51:05.000Z</time>
      </trkpt>
      <trkpt lat="48.01519" lon="-4.45889">
        <ele>85.599998474121</ele>
        <time>2013-08-13T12:51:10.000Z</time>
      </trkpt>
      <trkpt lat="48.0152" lon="-4.45898">
        <ele>87.599998474121</ele>
        <time>2013-08-13T12:51:16.000Z</time>
      </trkpt>
      <trkpt lat="48.0152" lon="-4.45904">
        <ele>88</ele>
        <time>2013-08-13T12:51:19.000Z</time>
      </trkpt>
      <trkpt lat="48.0152" lon="-4.45915">
        <ele>89</ele>
        <time>2013-08-13T12:51:25.000Z</time>
      </trkpt>
      <trkpt lat="48.0152" lon="-4.45916">
        <ele>89</ele>
        <time>2013-08-13T12:51:26.000Z</time>
      </trkpt>
      <trkpt lat="48.01519" lon="-4.45931">
        <ele>89</ele>
        <time>2013-08-13T12:51:34.000Z</time>
      </trkpt>
      <trkpt lat="48.01519" lon="-4.45944">
        <ele>89.400001525879</ele>
        <time>2013-08-13T12:51:41.000Z</time>
      </trkpt>
      <trkpt lat="48.01519" lon="-4.45959">
        <ele>89</ele>
        <time>2013-08-13T12:51:49.000Z</time>
      </trkpt>
      <trkpt lat="48.01518" lon="-4.45973">
        <ele>88</ele>
        <time>2013-08-13T12:51:58.000Z</time>
      </trkpt>
      <trkpt lat="48.01518" lon="-4.45987">
        <ele>88</ele>
        <time>2013-08-13T12:52:06.000Z</time>
      </trkpt>
      <trkpt lat="48.01516" lon="-4.45993">
        <ele>87.599998474121</ele>
        <time>2013-08-13T12:52:10.000Z</time>
      </trkpt>
      <trkpt lat="48.01515" lon="-4.46004">
        <ele>86</ele>
        <time>2013-08-13T12:52:17.000Z</time>
      </trkpt>
      <trkpt lat="48.01515" lon="-4.46007">
        <ele>85.599998474121</ele>
        <time>2013-08-13T12:52:19.000Z</time>
      </trkpt>
      <trkpt lat="48.01513" lon="-4.46025">
        <ele>84.199996948242</ele>
        <time>2013-08-13T12:52:29.000Z</time>
      </trkpt>
      <trkpt lat="48.01512" lon="-4.46041">
        <ele>83.199996948242</ele>
        <time>2013-08-13T12:52:38.000Z</time>
      </trkpt>
      <trkpt lat="48.01513" lon="-4.46049">
        <ele>84.199996948242</ele>
        <time>2013-08-13T12:52:42.000Z</time>
      </trkpt>
      <trkpt lat="48.01512" lon="-4.46058">
        <ele>85.599998474121</ele>
        <time>2013-08-13T12:52:47.000Z</time>
      </trkpt>
      <trkpt lat="48.01512" lon="-4.46062">
        <ele>85.599998474121</ele>
        <time>2013-08-13T12:52:49.000Z</time>
      </trkpt>
      <trkpt lat="48.0151" lon="-4.4607">
        <ele>84.599998474121</ele>
        <time>2013-08-13T12:52:53.000Z</time>
      </trkpt>
      <trkpt lat="48.01508" lon="-4.46084">
        <ele>84.199996948242</ele>
        <time>2013-08-13T12:53:00.000Z</time>
      </trkpt>
      <trkpt lat="48.01506" lon="-4.46097">
        <ele>84.199996948242</ele>
        <time>2013-08-13T12:53:06.000Z</time>
      </trkpt>
      <trkpt lat="48.01507" lon="-4.46109">
        <ele>84.199996948242</ele>
        <time>2013-08-13T12:53:14.000Z</time>
      </trkpt>
      <trkpt lat="48.0151" lon="-4.46127">
        <ele>83.599998474121</ele>
        <time>2013-08-13T12:53:25.000Z</time>
      </trkpt>
      <trkpt lat="48.01512" lon="-4.46143">
        <ele>83.199996948242</ele>
        <time>2013-08-13T12:53:35.000Z</time>
      </trkpt>
      <trkpt lat="48.01512" lon="-4.46156">
        <ele>83.599998474121</ele>
        <time>2013-08-13T12:53:43.000Z</time>
      </trkpt>
      <trkpt lat="48.01514" lon="-4.46167">
        <ele>85.199996948242</ele>
        <time>2013-08-13T12:53:50.000Z</time>
      </trkpt>
      <trkpt lat="48.01515" lon="-4.4618">
        <ele>88</ele>
        <time>2013-08-13T12:53:57.000Z</time>
      </trkpt>
      <trkpt lat="48.01515" lon="-4.46183">
        <ele>88.400001525879</ele>
        <time>2013-08-13T12:53:59.000Z</time>
      </trkpt>
      <trkpt lat="48.01516" lon="-4.46195">
        <ele>89</ele>
        <time>2013-08-13T12:54:06.000Z</time>
      </trkpt>
      <trkpt lat="48.01513" lon="-4.46197">
        <ele>90</ele>
        <time>2013-08-13T12:54:12.000Z</time>
      </trkpt>
      <trkpt lat="48.01515" lon="-4.46201">
        <ele>89.400001525879</ele>
        <time>2013-08-13T12:54:16.000Z</time>
      </trkpt>
      <trkpt lat="48.01516" lon="-4.46208">
        <ele>88.400001525879</ele>
        <time>2013-08-13T12:54:21.000Z</time>
      </trkpt>
      <trkpt lat="48.01515" lon="-4.46217">
        <ele>86</ele>
        <time>2013-08-13T12:54:26.000Z</time>
      </trkpt>
      <trkpt lat="48.01514" lon="-4.4622">
        <ele>84.599998474121</ele>
        <time>2013-08-13T12:54:28.000Z</time>
      </trkpt>
      <trkpt lat="48.01513" lon="-4.46227">
        <ele>82.800003051758</ele>
        <time>2013-08-13T12:54:32.000Z</time>
      </trkpt>
      <trkpt lat="48.01513" lon="-4.4623">
        <ele>84.199996948242</ele>
        <time>2013-08-13T12:54:37.000Z</time>
      </trkpt>
      <trkpt lat="48.01514" lon="-4.46232">
        <ele>87.599998474121</ele>
        <time>2013-08-13T12:54:46.000Z</time>
      </trkpt>
      <trkpt lat="48.01515" lon="-4.46235">
        <ele>90.400001525879</ele>
        <time>2013-08-13T12:54:57.000Z</time>
      </trkpt>
      <trkpt lat="48.01514" lon="-4.46243">
        <ele>90.800003051758</ele>
        <time>2013-08-13T12:55:02.000Z</time>
      </trkpt>
      <trkpt lat="48.01513" lon="-4.46259">
        <ele>90.800003051758</ele>
        <time>2013-08-13T12:55:11.000Z</time>
      </trkpt>
      <trkpt lat="48.01512" lon="-4.46262">
        <ele>90.800003051758</ele>
        <time>2013-08-13T12:55:16.000Z</time>
      </trkpt>
      <trkpt lat="48.01511" lon="-4.46271">
        <ele>91.400001525879</ele>
        <time>2013-08-13T12:55:23.000Z</time>
      </trkpt>
      <trkpt lat="48.0151" lon="-4.46274">
        <ele>90.400001525879</ele>
        <time>2013-08-13T12:55:29.000Z</time>
      </trkpt>
      <trkpt lat="48.01509" lon="-4.46278">
        <ele>90</ele>
        <time>2013-08-13T12:55:35.000Z</time>
      </trkpt>
      <trkpt lat="48.01506" lon="-4.46285">
        <ele>89.400001525879</ele>
        <time>2013-08-13T12:55:42.000Z</time>
      </trkpt>
      <trkpt lat="48.01501" lon="-4.46287">
        <ele>88.400001525879</ele>
        <time>2013-08-13T12:55:48.000Z</time>
      </trkpt>
      <trkpt lat="48.01499" lon="-4.46286">
        <ele>88</ele>
        <time>2013-08-13T12:55:49.000Z</time>
      </trkpt>
      <trkpt lat="48.01493" lon="-4.46286">
        <ele>85.599998474121</ele>
        <time>2013-08-13T12:55:55.000Z</time>
      </trkpt>
      <trkpt lat="48.01491" lon="-4.46285">
        <ele>85.199996948242</ele>
        <time>2013-08-13T12:55:57.000Z</time>
      </trkpt>
      <trkpt lat="48.01483" lon="-4.46282">
        <ele>82.800003051758</ele>
        <time>2013-08-13T12:56:05.000Z</time>
      </trkpt>
      <trkpt lat="48.0148" lon="-4.4628">
        <ele>82.199996948242</ele>
        <time>2013-08-13T12:56:08.000Z</time>
      </trkpt>
      <trkpt lat="48.01475" lon="-4.46278">
        <ele>82.199996948242</ele>
        <time>2013-08-13T12:56:12.000Z</time>
      </trkpt>
      <trkpt lat="48.01467" lon="-4.46273">
        <ele>80.800003051758</ele>
        <time>2013-08-13T12:56:20.000Z</time>
      </trkpt>
      <trkpt lat="48.01466" lon="-4.46273">
        <ele>80.400001525879</ele>
        <time>2013-08-13T12:56:21.000Z</time>
      </trkpt>
      <trkpt lat="48.01463" lon="-4.4627">
        <ele>78.400001525879</ele>
        <time>2013-08-13T12:56:25.000Z</time>
      </trkpt>
      <trkpt lat="48.01452" lon="-4.46264">
        <ele>76.400001525879</ele>
        <time>2013-08-13T12:56:35.000Z</time>
      </trkpt>
      <trkpt lat="48.01446" lon="-4.46262">
        <ele>76</ele>
        <time>2013-08-13T12:56:40.000Z</time>
      </trkpt>
      <trkpt lat="48.01438" lon="-4.46262">
        <ele>75.599998474121</ele>
        <time>2013-08-13T12:56:48.000Z</time>
      </trkpt>
      <trkpt lat="48.01432" lon="-4.46267">
        <ele>75.599998474121</ele>
        <time>2013-08-13T12:56:54.000Z</time>
      </trkpt>
      <trkpt lat="48.01424" lon="-4.46273">
        <ele>75</ele>
        <time>2013-08-13T12:57:02.000Z</time>
      </trkpt>
      <trkpt lat="48.01415" lon="-4.4628">
        <ele>75</ele>
        <time>2013-08-13T12:57:11.000Z</time>
      </trkpt>
      <trkpt lat="48.01409" lon="-4.46285">
        <ele>75.599998474121</ele>
        <time>2013-08-13T12:57:18.000Z</time>
      </trkpt>
      <trkpt lat="48.014" lon="-4.46289">
        <ele>74</ele>
        <time>2013-08-13T12:57:26.000Z</time>
      </trkpt>
      <trkpt lat="48.01397" lon="-4.46291">
        <ele>74.599998474121</ele>
        <time>2013-08-13T12:57:29.000Z</time>
      </trkpt>
      <trkpt lat="48.01392" lon="-4.46293">
        <ele>75</ele>
        <time>2013-08-13T12:57:36.000Z</time>
      </trkpt>
      <trkpt lat="48.01384" lon="-4.46294">
        <ele>76</ele>
        <time>2013-08-13T12:57:43.000Z</time>
      </trkpt>
      <trkpt lat="48.0138" lon="-4.46294">
        <ele>75.599998474121</ele>
        <time>2013-08-13T12:57:48.000Z</time>
      </trkpt>
      <trkpt lat="48.01379" lon="-4.46296">
        <ele>74.599998474121</ele>
        <time>2013-08-13T12:57:53.000Z</time>
      </trkpt>
      <trkpt lat="48.01378" lon="-4.46297">
        <ele>74</ele>
        <time>2013-08-13T12:58:11.000Z</time>
      </trkpt>
      <trkpt lat="48.01379" lon="-4.46298">
        <ele>75.599998474121</ele>
        <time>2013-08-13T12:58:16.000Z</time>
      </trkpt>
      <trkpt lat="48.01379" lon="-4.46297">
        <ele>77.400001525879</ele>
        <time>2013-08-13T12:58:23.000Z</time>
      </trkpt>
      <trkpt lat="48.01375" lon="-4.46295">
        <ele>78</ele>
        <time>2013-08-13T12:58:30.000Z</time>
      </trkpt>
      <trkpt lat="48.01374" lon="-4.46294">
        <ele>77.400001525879</ele>
        <time>2013-08-13T12:58:31.000Z</time>
      </trkpt>
      <trkpt lat="48.01367" lon="-4.46288">
        <ele>76.400001525879</ele>
        <time>2013-08-13T12:58:38.000Z</time>
      </trkpt>
      <trkpt lat="48.01366" lon="-4.46284">
        <ele>75.599998474121</ele>
        <time>2013-08-13T12:58:44.000Z</time>
      </trkpt>
      <trkpt lat="48.01365" lon="-4.46281">
        <ele>72.199996948242</ele>
        <time>2013-08-13T12:58:50.000Z</time>
      </trkpt>
      <trkpt lat="48.01364" lon="-4.4628">
        <ele>72.199996948242</ele>
        <time>2013-08-13T12:58:56.000Z</time>
      </trkpt>
      <trkpt lat="48.01365" lon="-4.46276">
        <ele>73</ele>
        <time>2013-08-13T12:59:07.000Z</time>
      </trkpt>
      <trkpt lat="48.01366" lon="-4.46274">
        <ele>74.599998474121</ele>
        <time>2013-08-13T12:59:12.000Z</time>
      </trkpt>
      <trkpt lat="48.01369" lon="-4.4627">
        <ele>75.599998474121</ele>
        <time>2013-08-13T12:59:18.000Z</time>
      </trkpt>
      <trkpt lat="48.01372" lon="-4.46268">
        <ele>78.800003051758</ele>
        <time>2013-08-13T12:59:25.000Z</time>
      </trkpt>
      <trkpt lat="48.01372" lon="-4.46268">
        <ele>80.400001525879</ele>
        <time>2013-08-13T12:59:31.000Z</time>
      </trkpt>
      <trkpt lat="48.01369" lon="-4.46268">
        <ele>76</ele>
        <time>2013-08-13T12:59:37.000Z</time>
      </trkpt>
      <trkpt lat="48.01369" lon="-4.46268">
        <ele>74</ele>
        <time>2013-08-13T12:59:47.000Z</time>
      </trkpt>
      <trkpt lat="48.01368" lon="-4.46265">
        <ele>73</ele>
        <time>2013-08-13T12:59:59.000Z</time>
      </trkpt>
      <trkpt lat="48.01368" lon="-4.46271">
        <ele>69.800003051758</ele>
        <time>2013-08-13T13:00:22.000Z</time>
      </trkpt>
      <trkpt lat="48.0137" lon="-4.46273">
        <ele>78.800003051758</ele>
        <time>2013-08-13T13:00:33.000Z</time>
      </trkpt>
      <trkpt lat="48.01366" lon="-4.46275">
        <ele>77</ele>
        <time>2013-08-13T13:00:43.000Z</time>
      </trkpt>
      <trkpt lat="48.01365" lon="-4.46277">
        <ele>74</ele>
        <time>2013-08-13T13:00:50.000Z</time>
      </trkpt>
      <trkpt lat="48.01368" lon="-4.46281">
        <ele>74</ele>
        <time>2013-08-13T13:01:05.000Z</time>
      </trkpt>
      <trkpt lat="48.01367" lon="-4.46283">
        <ele>73</ele>
        <time>2013-08-13T13:01:11.000Z</time>
      </trkpt>
      <trkpt lat="48.0137" lon="-4.46284">
        <ele>78.800003051758</ele>
        <time>2013-08-13T13:01:17.000Z</time>
      </trkpt>
      <trkpt lat="48.01368" lon="-4.46281">
        <ele>80.800003051758</ele>
        <time>2013-08-13T13:01:34.000Z</time>
      </trkpt>
      <trkpt lat="48.0137" lon="-4.46282">
        <ele>81.800003051758</ele>
        <time>2013-08-13T13:01:59.000Z</time>
      </trkpt>
      <trkpt lat="48.01367" lon="-4.46277">
        <ele>78.800003051758</ele>
        <time>2013-08-13T13:02:11.000Z</time>
      </trkpt>
      <trkpt lat="48.01364" lon="-4.46277">
        <ele>76</ele>
        <time>2013-08-13T13:02:23.000Z</time>
      </trkpt>
      <trkpt lat="48.01368" lon="-4.46272">
        <ele>75</ele>
        <time>2013-08-13T13:02:40.000Z</time>
      </trkpt>
      <trkpt lat="48.01368" lon="-4.46269">
        <ele>74.599998474121</ele>
        <time>2013-08-13T13:02:46.000Z</time>
      </trkpt>
      <trkpt lat="48.01367" lon="-4.46266">
        <ele>75</ele>
        <time>2013-08-13T13:02:55.000Z</time>
      </trkpt>
      <trkpt lat="48.01368" lon="-4.46268">
        <ele>79.800003051758</ele>
        <time>2013-08-13T13:03:05.000Z</time>
      </trkpt>
      <trkpt lat="48.01368" lon="-4.46267">
        <ele>76.400001525879</ele>
        <time>2013-08-13T13:03:24.000Z</time>
      </trkpt>
      <trkpt lat="48.01368" lon="-4.46273">
        <ele>79.800003051758</ele>
        <time>2013-08-13T13:03:35.000Z</time>
      </trkpt>
      <trkpt lat="48.01366" lon="-4.46279">
        <ele>74</ele>
        <time>2013-08-13T13:03:47.000Z</time>
      </trkpt>
      <trkpt lat="48.01363" lon="-4.46287">
        <ele>74.599998474121</ele>
        <time>2013-08-13T13:04:04.000Z</time>
      </trkpt>
      <trkpt lat="48.01363" lon="-4.46288">
        <ele>74.599998474121</ele>
        <time>2013-08-13T13:04:06.000Z</time>
      </trkpt>
      <trkpt lat="48.0136" lon="-4.46288">
        <ele>73</ele>
        <time>2013-08-13T13:04:13.000Z</time>
      </trkpt>
      <trkpt lat="48.01358" lon="-4.46286">
        <ele>72.199996948242</ele>
        <time>2013-08-13T13:04:19.000Z</time>
      </trkpt>
      <trkpt lat="48.01357" lon="-4.46284">
        <ele>73</ele>
        <time>2013-08-13T13:04:27.000Z</time>
      </trkpt>
      <trkpt lat="48.01357" lon="-4.46282">
        <ele>73</ele>
        <time>2013-08-13T13:04:32.000Z</time>
      </trkpt>
      <trkpt lat="48.01354" lon="-4.46279">
        <ele>66.400001525879</ele>
        <time>2013-08-13T13:04:55.000Z</time>
      </trkpt>
      <trkpt lat="48.01353" lon="-4.46282">
        <ele>67.400001525879</ele>
        <time>2013-08-13T13:05:05.000Z</time>
      </trkpt>
      <trkpt lat="48.01352" lon="-4.46281">
        <ele>69.199996948242</ele>
        <time>2013-08-13T13:05:15.000Z</time>
      </trkpt>
      <trkpt lat="48.01348" lon="-4.46278">
        <ele>72.199996948242</ele>
        <time>2013-08-13T13:05:23.000Z</time>
      </trkpt>
      <trkpt lat="48.01348" lon="-4.46278">
        <ele>73</ele>
        <time>2013-08-13T13:05:32.000Z</time>
      </trkpt>
      <trkpt lat="48.01346" lon="-4.46278">
        <ele>71.599998474121</ele>
        <time>2013-08-13T13:06:05.000Z</time>
      </trkpt>
      <trkpt lat="48.01344" lon="-4.46279">
        <ele>72.199996948242</ele>
        <time>2013-08-13T13:06:12.000Z</time>
      </trkpt>
      <trkpt lat="48.01341" lon="-4.46278">
        <ele>74</ele>
        <time>2013-08-13T13:06:21.000Z</time>
      </trkpt>
      <trkpt lat="48.01337" lon="-4.46276">
        <ele>76.400001525879</ele>
        <time>2013-08-13T13:06:28.000Z</time>
      </trkpt>
      <trkpt lat="48.01333" lon="-4.46274">
        <ele>77</ele>
        <time>2013-08-13T13:06:42.000Z</time>
      </trkpt>
      <trkpt lat="48.01327" lon="-4.46274">
        <ele>76.400001525879</ele>
        <time>2013-08-13T13:06:49.000Z</time>
      </trkpt>
      <trkpt lat="48.0132" lon="-4.46273">
        <ele>74.599998474121</ele>
        <time>2013-08-13T13:06:55.000Z</time>
      </trkpt>
      <trkpt lat="48.01318" lon="-4.46273">
        <ele>75</ele>
        <time>2013-08-13T13:06:58.000Z</time>
      </trkpt>
      <trkpt lat="48.01312" lon="-4.46271">
        <ele>75.599998474121</ele>
        <time>2013-08-13T13:07:03.000Z</time>
      </trkpt>
      <trkpt lat="48.01305" lon="-4.46267">
        <ele>75.599998474121</ele>
        <time>2013-08-13T13:07:10.000Z</time>
      </trkpt>
      <trkpt lat="48.013" lon="-4.46261">
        <ele>76.400001525879</ele>
        <time>2013-08-13T13:07:16.000Z</time>
      </trkpt>
      <trkpt lat="48.01295" lon="-4.46256">
        <ele>76.400001525879</ele>
        <time>2013-08-13T13:07:22.000Z</time>
      </trkpt>
      <trkpt lat="48.01293" lon="-4.46253">
        <ele>77</ele>
        <time>2013-08-13T13:07:26.000Z</time>
      </trkpt>
      <trkpt lat="48.01293" lon="-4.46253">
        <ele>78</ele>
        <time>2013-08-13T13:07:31.000Z</time>
      </trkpt>
      <trkpt lat="48.0129" lon="-4.46255">
        <ele>78.400001525879</ele>
        <time>2013-08-13T13:07:36.000Z</time>
      </trkpt>
      <trkpt lat="48.01287" lon="-4.46256">
        <ele>78</ele>
        <time>2013-08-13T13:07:38.000Z</time>
      </trkpt>
      <trkpt lat="48.01286" lon="-4.46258">
        <ele>78.800003051758</ele>
        <time>2013-08-13T13:07:44.000Z</time>
      </trkpt>
      <trkpt lat="48.01288" lon="-4.46255">
        <ele>81.199996948242</ele>
        <time>2013-08-13T13:07:55.000Z</time>
      </trkpt>
      <trkpt lat="48.01288" lon="-4.46254">
        <ele>80.800003051758</ele>
        <time>2013-08-13T13:08:05.000Z</time>
      </trkpt>
      <trkpt lat="48.01289" lon="-4.46255">
        <ele>81.199996948242</ele>
        <time>2013-08-13T13:08:12.000Z</time>
      </trkpt>
      <trkpt lat="48.01289" lon="-4.46256">
        <ele>80.800003051758</ele>
        <time>2013-08-13T13:08:19.000Z</time>
      </trkpt>
      <trkpt lat="48.01288" lon="-4.46256">
        <ele>80.400001525879</ele>
        <time>2013-08-13T13:08:25.000Z</time>
      </trkpt>
      <trkpt lat="48.01288" lon="-4.46257">
        <ele>81.199996948242</ele>
        <time>2013-08-13T13:08:33.000Z</time>
      </trkpt>
      <trkpt lat="48.01285" lon="-4.46258">
        <ele>81.199996948242</ele>
        <time>2013-08-13T13:08:38.000Z</time>
      </trkpt>
      <trkpt lat="48.01283" lon="-4.46261">
        <ele>81.800003051758</ele>
        <time>2013-08-13T13:08:44.000Z</time>
      </trkpt>
      <trkpt lat="48.01282" lon="-4.46263">
        <ele>82.199996948242</ele>
        <time>2013-08-13T13:09:03.000Z</time>
      </trkpt>
      <trkpt lat="48.01283" lon="-4.46263">
        <ele>82.199996948242</ele>
        <time>2013-08-13T13:09:10.000Z</time>
      </trkpt>
      <trkpt lat="48.01282" lon="-4.46264">
        <ele>81.800003051758</ele>
        <time>2013-08-13T13:09:21.000Z</time>
      </trkpt>
      <trkpt lat="48.01281" lon="-4.46268">
        <ele>82.199996948242</ele>
        <time>2013-08-13T13:09:26.000Z</time>
      </trkpt>
      <trkpt lat="48.01278" lon="-4.46276">
        <ele>81.800003051758</ele>
        <time>2013-08-13T13:09:36.000Z</time>
      </trkpt>
      <trkpt lat="48.01276" lon="-4.46282">
        <ele>81.199996948242</ele>
        <time>2013-08-13T13:09:43.000Z</time>
      </trkpt>
      <trkpt lat="48.01273" lon="-4.46289">
        <ele>81.199996948242</ele>
        <time>2013-08-13T13:09:51.000Z</time>
      </trkpt>
      <trkpt lat="48.01269" lon="-4.46298">
        <ele>80.800003051758</ele>
        <time>2013-08-13T13:10:00.000Z</time>
      </trkpt>
      <trkpt lat="48.01266" lon="-4.46306">
        <ele>79.800003051758</ele>
        <time>2013-08-13T13:10:08.000Z</time>
      </trkpt>
      <trkpt lat="48.01262" lon="-4.46315">
        <ele>79.400001525879</ele>
        <time>2013-08-13T13:10:16.000Z</time>
      </trkpt>
      <trkpt lat="48.01256" lon="-4.46329">
        <ele>79.800003051758</ele>
        <time>2013-08-13T13:10:28.000Z</time>
      </trkpt>
      <trkpt lat="48.01252" lon="-4.4634">
        <ele>79.800003051758</ele>
        <time>2013-08-13T13:10:38.000Z</time>
      </trkpt>
      <trkpt lat="48.0125" lon="-4.46346">
        <ele>80.400001525879</ele>
        <time>2013-08-13T13:10:44.000Z</time>
      </trkpt>
      <trkpt lat="48.01246" lon="-4.46357">
        <ele>81.800003051758</ele>
        <time>2013-08-13T13:10:53.000Z</time>
      </trkpt>
      <trkpt lat="48.01241" lon="-4.46369">
        <ele>81.800003051758</ele>
        <time>2013-08-13T13:11:03.000Z</time>
      </trkpt>
      <trkpt lat="48.01236" lon="-4.4638">
        <ele>81.800003051758</ele>
        <time>2013-08-13T13:11:11.000Z</time>
      </trkpt>
      <trkpt lat="48.01229" lon="-4.46392">
        <ele>81.199996948242</ele>
        <time>2013-08-13T13:11:20.000Z</time>
      </trkpt>
      <trkpt lat="48.01223" lon="-4.46406">
        <ele>81.800003051758</ele>
        <time>2013-08-13T13:11:30.000Z</time>
      </trkpt>
      <trkpt lat="48.01219" lon="-4.4642">
        <ele>83.199996948242</ele>
        <time>2013-08-13T13:11:39.000Z</time>
      </trkpt>
      <trkpt lat="48.01217" lon="-4.46433">
        <ele>84.199996948242</ele>
        <time>2013-08-13T13:11:48.000Z</time>
      </trkpt>
      <trkpt lat="48.01215" lon="-4.46447">
        <ele>84.599998474121</ele>
        <time>2013-08-13T13:11:57.000Z</time>
      </trkpt>
      <trkpt lat="48.01215" lon="-4.4646">
        <ele>85.599998474121</ele>
        <time>2013-08-13T13:12:05.000Z</time>
      </trkpt>
      <trkpt lat="48.01213" lon="-4.46476">
        <ele>85.599998474121</ele>
        <time>2013-08-13T13:12:15.000Z</time>
      </trkpt>
      <trkpt lat="48.01211" lon="-4.46482">
        <ele>86.599998474121</ele>
        <time>2013-08-13T13:12:19.000Z</time>
      </trkpt>
      <trkpt lat="48.01206" lon="-4.46489">
        <ele>87.599998474121</ele>
        <time>2013-08-13T13:12:25.000Z</time>
      </trkpt>
      <trkpt lat="48.01204" lon="-4.46492">
        <ele>88.400001525879</ele>
        <time>2013-08-13T13:12:28.000Z</time>
      </trkpt>
      <trkpt lat="48.01196" lon="-4.46496">
        <ele>90.800003051758</ele>
        <time>2013-08-13T13:12:35.000Z</time>
      </trkpt>
      <trkpt lat="48.01189" lon="-4.46499">
        <ele>92.800003051758</ele>
        <time>2013-08-13T13:12:42.000Z</time>
      </trkpt>
      <trkpt lat="48.01181" lon="-4.46502">
        <ele>95.599998474121</ele>
        <time>2013-08-13T13:12:50.000Z</time>
      </trkpt>
      <trkpt lat="48.01173" lon="-4.46504">
        <ele>97.199996948242</ele>
        <time>2013-08-13T13:12:57.000Z</time>
      </trkpt>
      <trkpt lat="48.01165" lon="-4.46507">
        <ele>98</ele>
        <time>2013-08-13T13:13:04.000Z</time>
      </trkpt>
      <trkpt lat="48.01162" lon="-4.46507">
        <ele>98</ele>
        <time>2013-08-13T13:13:06.000Z</time>
      </trkpt>
      <trkpt lat="48.01155" lon="-4.46509">
        <ele>97.199996948242</ele>
        <time>2013-08-13T13:13:13.000Z</time>
      </trkpt>
      <trkpt lat="48.01153" lon="-4.46511">
        <ele>95.599998474121</ele>
        <time>2013-08-13T13:13:19.000Z</time>
      </trkpt>
      <trkpt lat="48.01152" lon="-4.46511">
        <ele>95.599998474121</ele>
        <time>2013-08-13T13:13:20.000Z</time>
      </trkpt>
      <trkpt lat="48.01147" lon="-4.46509">
        <ele>94.199996948242</ele>
        <time>2013-08-13T13:13:26.000Z</time>
      </trkpt>
      <trkpt lat="48.01146" lon="-4.46503">
        <ele>93.199996948242</ele>
        <time>2013-08-13T13:13:30.000Z</time>
      </trkpt>
      <trkpt lat="48.01146" lon="-4.46502">
        <ele>92.400001525879</ele>
        <time>2013-08-13T13:13:31.000Z</time>
      </trkpt>
      <trkpt lat="48.01142" lon="-4.46493">
        <ele>90.400001525879</ele>
        <time>2013-08-13T13:13:36.000Z</time>
      </trkpt>
      <trkpt lat="48.01139" lon="-4.46484">
        <ele>87.599998474121</ele>
        <time>2013-08-13T13:13:41.000Z</time>
      </trkpt>
      <trkpt lat="48.01134" lon="-4.46476">
        <ele>85.599998474121</ele>
        <time>2013-08-13T13:13:48.000Z</time>
      </trkpt>
      <trkpt lat="48.0113" lon="-4.46472">
        <ele>84.599998474121</ele>
        <time>2013-08-13T13:13:52.000Z</time>
      </trkpt>
      <trkpt lat="48.01129" lon="-4.4647">
        <ele>85.199996948242</ele>
        <time>2013-08-13T13:13:57.000Z</time>
      </trkpt>
      <trkpt lat="48.01126" lon="-4.46468">
        <ele>84.599998474121</ele>
        <time>2013-08-13T13:14:02.000Z</time>
      </trkpt>
      <trkpt lat="48.01126" lon="-4.46467">
        <ele>85.199996948242</ele>
        <time>2013-08-13T13:14:08.000Z</time>
      </trkpt>
      <trkpt lat="48.01121" lon="-4.4647">
        <ele>85.599998474121</ele>
        <time>2013-08-13T13:14:15.000Z</time>
      </trkpt>
      <trkpt lat="48.01113" lon="-4.46475">
        <ele>86</ele>
        <time>2013-08-13T13:14:22.000Z</time>
      </trkpt>
      <trkpt lat="48.01104" lon="-4.46475">
        <ele>87.599998474121</ele>
        <time>2013-08-13T13:14:30.000Z</time>
      </trkpt>
      <trkpt lat="48.01097" lon="-4.46474">
        <ele>88.400001525879</ele>
        <time>2013-08-13T13:14:36.000Z</time>
      </trkpt>
      <trkpt lat="48.01093" lon="-4.46474">
        <ele>89</ele>
        <time>2013-08-13T13:14:39.000Z</time>
      </trkpt>
      <trkpt lat="48.01084" lon="-4.46472">
        <ele>90</ele>
        <time>2013-08-13T13:14:46.000Z</time>
      </trkpt>
      <trkpt lat="48.01083" lon="-4.46471">
        <ele>90</ele>
        <time>2013-08-13T13:14:47.000Z</time>
      </trkpt>
      <trkpt lat="48.01079" lon="-4.4647">
        <ele>90</ele>
        <time>2013-08-13T13:14:50.000Z</time>
      </trkpt>
      <trkpt lat="48.01073" lon="-4.46471">
        <ele>90.400001525879</ele>
        <time>2013-08-13T13:14:55.000Z</time>
      </trkpt>
      <trkpt lat="48.01068" lon="-4.46469">
        <ele>90</ele>
        <time>2013-08-13T13:15:00.000Z</time>
      </trkpt>
      <trkpt lat="48.01066" lon="-4.46469">
        <ele>90</ele>
        <time>2013-08-13T13:15:01.000Z</time>
      </trkpt>
      <trkpt lat="48.01054" lon="-4.46469">
        <ele>88.400001525879</ele>
        <time>2013-08-13T13:15:11.000Z</time>
      </trkpt>
      <trkpt lat="48.01044" lon="-4.46468">
        <ele>87</ele>
        <time>2013-08-13T13:15:20.000Z</time>
      </trkpt>
      <trkpt lat="48.01032" lon="-4.46468">
        <ele>86.599998474121</ele>
        <time>2013-08-13T13:15:30.000Z</time>
      </trkpt>
      <trkpt lat="48.01022" lon="-4.46466">
        <ele>86</ele>
        <time>2013-08-13T13:15:38.000Z</time>
      </trkpt>
      <trkpt lat="48.01015" lon="-4.46465">
        <ele>85.599998474121</ele>
        <time>2013-08-13T13:15:44.000Z</time>
      </trkpt>
      <trkpt lat="48.01005" lon="-4.46463">
        <ele>85.199996948242</ele>
        <time>2013-08-13T13:15:52.000Z</time>
      </trkpt>
      <trkpt lat="48.01" lon="-4.46462">
        <ele>85.199996948242</ele>
        <time>2013-08-13T13:15:56.000Z</time>
      </trkpt>
      <trkpt lat="48.00987" lon="-4.46462">
        <ele>85.199996948242</ele>
        <time>2013-08-13T13:16:06.000Z</time>
      </trkpt>
      <trkpt lat="48.00977" lon="-4.46462">
        <ele>85.599998474121</ele>
        <time>2013-08-13T13:16:14.000Z</time>
      </trkpt>
      <trkpt lat="48.00973" lon="-4.46461">
        <ele>86</ele>
        <time>2013-08-13T13:16:18.000Z</time>
      </trkpt>
      <trkpt lat="48.00963" lon="-4.46458">
        <ele>87</ele>
        <time>2013-08-13T13:16:26.000Z</time>
      </trkpt>
      <trkpt lat="48.00959" lon="-4.46457">
        <ele>87</ele>
        <time>2013-08-13T13:16:29.000Z</time>
      </trkpt>
      <trkpt lat="48.00957" lon="-4.46458">
        <ele>87</ele>
        <time>2013-08-13T13:16:33.000Z</time>
      </trkpt>
      <trkpt lat="48.00943" lon="-4.46455">
        <ele>86.599998474121</ele>
        <time>2013-08-13T13:16:43.000Z</time>
      </trkpt>
      <trkpt lat="48.00941" lon="-4.46454">
        <ele>86.599998474121</ele>
        <time>2013-08-13T13:16:45.000Z</time>
      </trkpt>
      <trkpt lat="48.00934" lon="-4.46452">
        <ele>86</ele>
        <time>2013-08-13T13:16:51.000Z</time>
      </trkpt>
      <trkpt lat="48.00928" lon="-4.4645">
        <ele>86</ele>
        <time>2013-08-13T13:16:56.000Z</time>
      </trkpt>
      <trkpt lat="48.00922" lon="-4.46449">
        <ele>84.599998474121</ele>
        <time>2013-08-13T13:17:01.000Z</time>
      </trkpt>
      <trkpt lat="48.0092" lon="-4.46448">
        <ele>84.199996948242</ele>
        <time>2013-08-13T13:17:03.000Z</time>
      </trkpt>
      <trkpt lat="48.00911" lon="-4.46449">
        <ele>84.199996948242</ele>
        <time>2013-08-13T13:17:10.000Z</time>
      </trkpt>
      <trkpt lat="48.00906" lon="-4.46448">
        <ele>84.599998474121</ele>
        <time>2013-08-13T13:17:14.000Z</time>
      </trkpt>
      <trkpt lat="48.00901" lon="-4.46448">
        <ele>84.599998474121</ele>
        <time>2013-08-13T13:17:18.000Z</time>
      </trkpt>
      <trkpt lat="48.00896" lon="-4.46446">
        <ele>84.599998474121</ele>
        <time>2013-08-13T13:17:22.000Z</time>
      </trkpt>
      <trkpt lat="48.00895" lon="-4.46446">
        <ele>85.199996948242</ele>
        <time>2013-08-13T13:17:23.000Z</time>
      </trkpt>
      <trkpt lat="48.00886" lon="-4.46447">
        <ele>85.199996948242</ele>
        <time>2013-08-13T13:17:30.000Z</time>
      </trkpt>
      <trkpt lat="48.00877" lon="-4.46445">
        <ele>84.199996948242</ele>
        <time>2013-08-13T13:17:36.000Z</time>
      </trkpt>
      <trkpt lat="48.00876" lon="-4.46444">
        <ele>84.199996948242</ele>
        <time>2013-08-13T13:17:37.000Z</time>
      </trkpt>
      <trkpt lat="48.00867" lon="-4.46443">
        <ele>82.800003051758</ele>
        <time>2013-08-13T13:17:44.000Z</time>
      </trkpt>
      <trkpt lat="48.00858" lon="-4.46442">
        <ele>82.199996948242</ele>
        <time>2013-08-13T13:17:52.000Z</time>
      </trkpt>
      <trkpt lat="48.00854" lon="-4.46441">
        <ele>82.199996948242</ele>
        <time>2013-08-13T13:17:55.000Z</time>
      </trkpt>
      <trkpt lat="48.00846" lon="-4.46441">
        <ele>81.800003051758</ele>
        <time>2013-08-13T13:18:01.000Z</time>
      </trkpt>
      <trkpt lat="48.0084" lon="-4.46441">
        <ele>81.800003051758</ele>
        <time>2013-08-13T13:18:06.000Z</time>
      </trkpt>
      <trkpt lat="48.00833" lon="-4.4644">
        <ele>81.199996948242</ele>
        <time>2013-08-13T13:18:12.000Z</time>
      </trkpt>
      <trkpt lat="48.00829" lon="-4.46438">
        <ele>81.199996948242</ele>
        <time>2013-08-13T13:18:15.000Z</time>
      </trkpt>
      <trkpt lat="48.00826" lon="-4.46438">
        <ele>81.800003051758</ele>
        <time>2013-08-13T13:18:18.000Z</time>
      </trkpt>
      <trkpt lat="48.00818" lon="-4.46441">
        <ele>80.800003051758</ele>
        <time>2013-08-13T13:18:24.000Z</time>
      </trkpt>
      <trkpt lat="48.00813" lon="-4.46447">
        <ele>80.800003051758</ele>
        <time>2013-08-13T13:18:29.000Z</time>
      </trkpt>
      <trkpt lat="48.00811" lon="-4.4645">
        <ele>80.800003051758</ele>
        <time>2013-08-13T13:18:31.000Z</time>
      </trkpt>
      <trkpt lat="48.00808" lon="-4.46461">
        <ele>81.199996948242</ele>
        <time>2013-08-13T13:18:37.000Z</time>
      </trkpt>
      <trkpt lat="48.00807" lon="-4.46469">
        <ele>81.800003051758</ele>
        <time>2013-08-13T13:18:41.000Z</time>
      </trkpt>
      <trkpt lat="48.00806" lon="-4.46486">
        <ele>82.800003051758</ele>
        <time>2013-08-13T13:18:50.000Z</time>
      </trkpt>
      <trkpt lat="48.00804" lon="-4.46501">
        <ele>83.199996948242</ele>
        <time>2013-08-13T13:18:59.000Z</time>
      </trkpt>
      <trkpt lat="48.00803" lon="-4.46513">
        <ele>83.599998474121</ele>
        <time>2013-08-13T13:19:06.000Z</time>
      </trkpt>
      <trkpt lat="48.008" lon="-4.46527">
        <ele>85.199996948242</ele>
        <time>2013-08-13T13:19:14.000Z</time>
      </trkpt>
      <trkpt lat="48.008" lon="-4.4653">
        <ele>85.599998474121</ele>
        <time>2013-08-13T13:19:16.000Z</time>
      </trkpt>
      <trkpt lat="48.00791" lon="-4.46538">
        <ele>87</ele>
        <time>2013-08-13T13:19:24.000Z</time>
      </trkpt>
      <trkpt lat="48.00783" lon="-4.46539">
        <ele>89</ele>
        <time>2013-08-13T13:19:31.000Z</time>
      </trkpt>
      <trkpt lat="48.00771" lon="-4.46539">
        <ele>90</ele>
        <time>2013-08-13T13:19:40.000Z</time>
      </trkpt>
      <trkpt lat="48.00761" lon="-4.46539">
        <ele>90.800003051758</ele>
        <time>2013-08-13T13:19:48.000Z</time>
      </trkpt>
      <trkpt lat="48.00752" lon="-4.46541">
        <ele>91.400001525879</ele>
        <time>2013-08-13T13:19:55.000Z</time>
      </trkpt>
      <trkpt lat="48.00746" lon="-4.46542">
        <ele>92.400001525879</ele>
        <time>2013-08-13T13:20:01.000Z</time>
      </trkpt>
      <trkpt lat="48.00744" lon="-4.46542">
        <ele>92.400001525879</ele>
        <time>2013-08-13T13:20:02.000Z</time>
      </trkpt>
      <trkpt lat="48.00737" lon="-4.46546">
        <ele>94.199996948242</ele>
        <time>2013-08-13T13:20:08.000Z</time>
      </trkpt>
      <trkpt lat="48.00728" lon="-4.46547">
        <ele>97.199996948242</ele>
        <time>2013-08-13T13:20:16.000Z</time>
      </trkpt>
      <trkpt lat="48.00721" lon="-4.46548">
        <ele>98</ele>
        <time>2013-08-13T13:20:22.000Z</time>
      </trkpt>
      <trkpt lat="48.00712" lon="-4.46549">
        <ele>99.599998474121</ele>
        <time>2013-08-13T13:20:30.000Z</time>
      </trkpt>
      <trkpt lat="48.00708" lon="-4.46549">
        <ele>99.599998474121</ele>
        <time>2013-08-13T13:20:33.000Z</time>
      </trkpt>
      <trkpt lat="48.00701" lon="-4.46542">
        <ele>96.599998474121</ele>
        <time>2013-08-13T13:20:40.000Z</time>
      </trkpt>
      <trkpt lat="48.00693" lon="-4.46541">
        <ele>95.199996948242</ele>
        <time>2013-08-13T13:20:46.000Z</time>
      </trkpt>
      <trkpt lat="48.00688" lon="-4.46542">
        <ele>92.400001525879</ele>
        <time>2013-08-13T13:20:51.000Z</time>
      </trkpt>
      <trkpt lat="48.00685" lon="-4.46544">
        <ele>91.800003051758</ele>
        <time>2013-08-13T13:20:56.000Z</time>
      </trkpt>
      <trkpt lat="48.00684" lon="-4.46543">
        <ele>92.800003051758</ele>
        <time>2013-08-13T13:21:01.000Z</time>
      </trkpt>
      <trkpt lat="48.00682" lon="-4.46544">
        <ele>91.400001525879</ele>
        <time>2013-08-13T13:21:10.000Z</time>
      </trkpt>
      <trkpt lat="48.00674" lon="-4.46543">
        <ele>87</ele>
        <time>2013-08-13T13:21:17.000Z</time>
      </trkpt>
      <trkpt lat="48.00674" lon="-4.46543">
        <ele>87.599998474121</ele>
        <time>2013-08-13T13:21:18.000Z</time>
      </trkpt>
      <trkpt lat="48.00668" lon="-4.46544">
        <ele>88</ele>
        <time>2013-08-13T13:21:26.000Z</time>
      </trkpt>
      <trkpt lat="48.00668" lon="-4.46543">
        <ele>89.400001525879</ele>
        <time>2013-08-13T13:21:38.000Z</time>
      </trkpt>
      <trkpt lat="48.00668" lon="-4.46542">
        <ele>90.400001525879</ele>
        <time>2013-08-13T13:21:47.000Z</time>
      </trkpt>
      <trkpt lat="48.00666" lon="-4.46542">
        <ele>90.800003051758</ele>
        <time>2013-08-13T13:21:52.000Z</time>
      </trkpt>
      <trkpt lat="48.00662" lon="-4.46541">
        <ele>84.199996948242</ele>
        <time>2013-08-13T13:22:20.000Z</time>
      </trkpt>
      <trkpt lat="48.00664" lon="-4.46542">
        <ele>88</ele>
        <time>2013-08-13T13:22:43.000Z</time>
      </trkpt>
      <trkpt lat="48.00662" lon="-4.46546">
        <ele>93.199996948242</ele>
        <time>2013-08-13T13:22:56.000Z</time>
      </trkpt>
      <trkpt lat="48.00657" lon="-4.46547">
        <ele>92.400001525879</ele>
        <time>2013-08-13T13:23:03.000Z</time>
      </trkpt>
      <trkpt lat="48.00655" lon="-4.46547">
        <ele>92.400001525879</ele>
        <time>2013-08-13T13:23:07.000Z</time>
      </trkpt>
      <trkpt lat="48.00651" lon="-4.46547">
        <ele>92.400001525879</ele>
        <time>2013-08-13T13:23:13.000Z</time>
      </trkpt>
      <trkpt lat="48.00648" lon="-4.46547">
        <ele>92.400001525879</ele>
        <time>2013-08-13T13:23:18.000Z</time>
      </trkpt>
      <trkpt lat="48.00642" lon="-4.46547">
        <ele>92.400001525879</ele>
        <time>2013-08-13T13:23:23.000Z</time>
      </trkpt>
      <trkpt lat="48.00633" lon="-4.46548">
        <ele>91.400001525879</ele>
        <time>2013-08-13T13:23:31.000Z</time>
      </trkpt>
      <trkpt lat="48.00621" lon="-4.46547">
        <ele>91.800003051758</ele>
        <time>2013-08-13T13:23:40.000Z</time>
      </trkpt>
      <trkpt lat="48.00616" lon="-4.46547">
        <ele>91.400001525879</ele>
        <time>2013-08-13T13:23:44.000Z</time>
      </trkpt>
      <trkpt lat="48.0061" lon="-4.46548">
        <ele>90.400001525879</ele>
        <time>2013-08-13T13:23:50.000Z</time>
      </trkpt>
      <trkpt lat="48.00602" lon="-4.46548">
        <ele>90.800003051758</ele>
        <time>2013-08-13T13:23:57.000Z</time>
      </trkpt>
      <trkpt lat="48.00595" lon="-4.4655">
        <ele>90.400001525879</ele>
        <time>2013-08-13T13:24:04.000Z</time>
      </trkpt>
      <trkpt lat="48.00592" lon="-4.46554">
        <ele>90.400001525879</ele>
        <time>2013-08-13T13:24:10.000Z</time>
      </trkpt>
      <trkpt lat="48.0059" lon="-4.46556">
        <ele>90.400001525879</ele>
        <time>2013-08-13T13:24:13.000Z</time>
      </trkpt>
      <trkpt lat="48.00587" lon="-4.46562">
        <ele>88.400001525879</ele>
        <time>2013-08-13T13:24:18.000Z</time>
      </trkpt>
      <trkpt lat="48.00585" lon="-4.46567">
        <ele>89</ele>
        <time>2013-08-13T13:24:23.000Z</time>
      </trkpt>
      <trkpt lat="48.00585" lon="-4.46567">
        <ele>88.400001525879</ele>
        <time>2013-08-13T13:24:28.000Z</time>
      </trkpt>
      <trkpt lat="48.00583" lon="-4.46573">
        <ele>88</ele>
        <time>2013-08-13T13:24:39.000Z</time>
      </trkpt>
      <trkpt lat="48.00581" lon="-4.46577">
        <ele>88</ele>
        <time>2013-08-13T13:24:42.000Z</time>
      </trkpt>
      <trkpt lat="48.00577" lon="-4.46587">
        <ele>88</ele>
        <time>2013-08-13T13:24:50.000Z</time>
      </trkpt>
      <trkpt lat="48.00576" lon="-4.4659">
        <ele>88</ele>
        <time>2013-08-13T13:24:52.000Z</time>
      </trkpt>
      <trkpt lat="48.00571" lon="-4.46599">
        <ele>86.599998474121</ele>
        <time>2013-08-13T13:24:59.000Z</time>
      </trkpt>
      <trkpt lat="48.00565" lon="-4.4661">
        <ele>86</ele>
        <time>2013-08-13T13:25:07.000Z</time>
      </trkpt>
      <trkpt lat="48.00562" lon="-4.46617">
        <ele>86</ele>
        <time>2013-08-13T13:25:12.000Z</time>
      </trkpt>
      <trkpt lat="48.00558" lon="-4.46624">
        <ele>85.599998474121</ele>
        <time>2013-08-13T13:25:19.000Z</time>
      </trkpt>
      <trkpt lat="48.00556" lon="-4.4663">
        <ele>83.599998474121</ele>
        <time>2013-08-13T13:25:23.000Z</time>
      </trkpt>
      <trkpt lat="48.00552" lon="-4.46634">
        <ele>82.199996948242</ele>
        <time>2013-08-13T13:25:26.000Z</time>
      </trkpt>
      <trkpt lat="48.00548" lon="-4.46643">
        <ele>84.199996948242</ele>
        <time>2013-08-13T13:25:32.000Z</time>
      </trkpt>
      <trkpt lat="48.00544" lon="-4.46657">
        <ele>83.599998474121</ele>
        <time>2013-08-13T13:25:41.000Z</time>
      </trkpt>
      <trkpt lat="48.00543" lon="-4.46666">
        <ele>84.199996948242</ele>
        <time>2013-08-13T13:25:47.000Z</time>
      </trkpt>
      <trkpt lat="48.00541" lon="-4.46673">
        <ele>82.800003051758</ele>
        <time>2013-08-13T13:25:51.000Z</time>
      </trkpt>
      <trkpt lat="48.0054" lon="-4.46678">
        <ele>82.199996948242</ele>
        <time>2013-08-13T13:25:55.000Z</time>
      </trkpt>
      <trkpt lat="48.00538" lon="-4.46689">
        <ele>79.800003051758</ele>
        <time>2013-08-13T13:26:01.000Z</time>
      </trkpt>
      <trkpt lat="48.00537" lon="-4.46699">
        <ele>79.400001525879</ele>
        <time>2013-08-13T13:26:07.000Z</time>
      </trkpt>
      <trkpt lat="48.00536" lon="-4.46711">
        <ele>78.800003051758</ele>
        <time>2013-08-13T13:26:14.000Z</time>
      </trkpt>
      <trkpt lat="48.00533" lon="-4.46724">
        <ele>78.800003051758</ele>
        <time>2013-08-13T13:26:21.000Z</time>
      </trkpt>
      <trkpt lat="48.00532" lon="-4.46725">
        <ele>78.800003051758</ele>
        <time>2013-08-13T13:26:22.000Z</time>
      </trkpt>
      <trkpt lat="48.00527" lon="-4.46728">
        <ele>80.400001525879</ele>
        <time>2013-08-13T13:26:27.000Z</time>
      </trkpt>
      <trkpt lat="48.00522" lon="-4.46731">
        <ele>80.400001525879</ele>
        <time>2013-08-13T13:26:32.000Z</time>
      </trkpt>
      <trkpt lat="48.00518" lon="-4.46733">
        <ele>81.199996948242</ele>
        <time>2013-08-13T13:26:35.000Z</time>
      </trkpt>
      <trkpt lat="48.00516" lon="-4.46733">
        <ele>82.199996948242</ele>
        <time>2013-08-13T13:26:37.000Z</time>
      </trkpt>
      <trkpt lat="48.0051" lon="-4.46736">
        <ele>82.800003051758</ele>
        <time>2013-08-13T13:26:43.000Z</time>
      </trkpt>
      <trkpt lat="48.00509" lon="-4.46737">
        <ele>82.800003051758</ele>
        <time>2013-08-13T13:26:44.000Z</time>
      </trkpt>
      <trkpt lat="48.00504" lon="-4.4674">
        <ele>84.599998474121</ele>
        <time>2013-08-13T13:26:49.000Z</time>
      </trkpt>
      <trkpt lat="48.00496" lon="-4.46744">
        <ele>86</ele>
        <time>2013-08-13T13:26:56.000Z</time>
      </trkpt>
      <trkpt lat="48.0049" lon="-4.46748">
        <ele>84.599998474121</ele>
        <time>2013-08-13T13:27:01.000Z</time>
      </trkpt>
      <trkpt lat="48.00482" lon="-4.46752">
        <ele>85.199996948242</ele>
        <time>2013-08-13T13:27:07.000Z</time>
      </trkpt>
      <trkpt lat="48.00474" lon="-4.46758">
        <ele>86.599998474121</ele>
        <time>2013-08-13T13:27:15.000Z</time>
      </trkpt>
      <trkpt lat="48.00465" lon="-4.46761">
        <ele>86</ele>
        <time>2013-08-13T13:27:22.000Z</time>
      </trkpt>
      <trkpt lat="48.00458" lon="-4.46766">
        <ele>86.599998474121</ele>
        <time>2013-08-13T13:27:28.000Z</time>
      </trkpt>
      <trkpt lat="48.0045" lon="-4.46771">
        <ele>87</ele>
        <time>2013-08-13T13:27:35.000Z</time>
      </trkpt>
      <trkpt lat="48.00441" lon="-4.46775">
        <ele>87.599998474121</ele>
        <time>2013-08-13T13:27:43.000Z</time>
      </trkpt>
      <trkpt lat="48.00432" lon="-4.4678">
        <ele>87</ele>
        <time>2013-08-13T13:27:51.000Z</time>
      </trkpt>
      <trkpt lat="48.00425" lon="-4.46785">
        <ele>86.599998474121</ele>
        <time>2013-08-13T13:27:57.000Z</time>
      </trkpt>
      <trkpt lat="48.00419" lon="-4.46789">
        <ele>85.599998474121</ele>
        <time>2013-08-13T13:28:02.000Z</time>
      </trkpt>
      <trkpt lat="48.00415" lon="-4.46792">
        <ele>85.599998474121</ele>
        <time>2013-08-13T13:28:06.000Z</time>
      </trkpt>
      <trkpt lat="48.00412" lon="-4.46792">
        <ele>86</ele>
        <time>2013-08-13T13:28:08.000Z</time>
      </trkpt>
      <trkpt lat="48.00405" lon="-4.46793">
        <ele>84.199996948242</ele>
        <time>2013-08-13T13:28:14.000Z</time>
      </trkpt>
      <trkpt lat="48.00401" lon="-4.46791">
        <ele>83.599998474121</ele>
        <time>2013-08-13T13:28:17.000Z</time>
      </trkpt>
      <trkpt lat="48.00396" lon="-4.46784">
        <ele>84.199996948242</ele>
        <time>2013-08-13T13:28:23.000Z</time>
      </trkpt>
      <trkpt lat="48.00397" lon="-4.46776">
        <ele>84.199996948242</ele>
        <time>2013-08-13T13:28:27.000Z</time>
      </trkpt>
      <trkpt lat="48.00398" lon="-4.4677">
        <ele>84.199996948242</ele>
        <time>2013-08-13T13:28:31.000Z</time>
      </trkpt>
      <trkpt lat="48.00399" lon="-4.46762">
        <ele>84.599998474121</ele>
        <time>2013-08-13T13:28:35.000Z</time>
      </trkpt>
      <trkpt lat="48.004" lon="-4.46756">
        <ele>85.599998474121</ele>
        <time>2013-08-13T13:28:39.000Z</time>
      </trkpt>
      <trkpt lat="48.004" lon="-4.46751">
        <ele>86</ele>
        <time>2013-08-13T13:28:42.000Z</time>
      </trkpt>
      <trkpt lat="48.00398" lon="-4.46742">
        <ele>85.599998474121</ele>
        <time>2013-08-13T13:28:47.000Z</time>
      </trkpt>
      <trkpt lat="48.00397" lon="-4.46732">
        <ele>84.199996948242</ele>
        <time>2013-08-13T13:28:53.000Z</time>
      </trkpt>
      <trkpt lat="48.00398" lon="-4.46723">
        <ele>81.800003051758</ele>
        <time>2013-08-13T13:28:58.000Z</time>
      </trkpt>
      <trkpt lat="48.004" lon="-4.46713">
        <ele>81.199996948242</ele>
        <time>2013-08-13T13:29:03.000Z</time>
      </trkpt>
      <trkpt lat="48.00399" lon="-4.46704">
        <ele>81.199996948242</ele>
        <time>2013-08-13T13:29:08.000Z</time>
      </trkpt>
      <trkpt lat="48.00399" lon="-4.46702">
        <ele>81.199996948242</ele>
        <time>2013-08-13T13:29:09.000Z</time>
      </trkpt>
      <trkpt lat="48.00393" lon="-4.46693">
        <ele>81.800003051758</ele>
        <time>2013-08-13T13:29:16.000Z</time>
      </trkpt>
      <trkpt lat="48.00386" lon="-4.46686">
        <ele>82.800003051758</ele>
        <time>2013-08-13T13:29:22.000Z</time>
      </trkpt>
      <trkpt lat="48.00385" lon="-4.46684">
        <ele>82.800003051758</ele>
        <time>2013-08-13T13:29:24.000Z</time>
      </trkpt>
      <trkpt lat="48.00376" lon="-4.46672">
        <ele>82.800003051758</ele>
        <time>2013-08-13T13:29:31.000Z</time>
      </trkpt>
      <trkpt lat="48.0037" lon="-4.46669">
        <ele>84.199996948242</ele>
        <time>2013-08-13T13:29:36.000Z</time>
      </trkpt>
      <trkpt lat="48.00364" lon="-4.46663">
        <ele>85.599998474121</ele>
        <time>2013-08-13T13:29:42.000Z</time>
      </trkpt>
      <trkpt lat="48.00363" lon="-4.46662">
        <ele>85.199996948242</ele>
        <time>2013-08-13T13:29:43.000Z</time>
      </trkpt>
      <trkpt lat="48.00357" lon="-4.46656">
        <ele>85.199996948242</ele>
        <time>2013-08-13T13:29:49.000Z</time>
      </trkpt>
      <trkpt lat="48.00352" lon="-4.46651">
        <ele>84.199996948242</ele>
        <time>2013-08-13T13:29:54.000Z</time>
      </trkpt>
      <trkpt lat="48.00348" lon="-4.46651">
        <ele>84.199996948242</ele>
        <time>2013-08-13T13:29:58.000Z</time>
      </trkpt>
      <trkpt lat="48.00343" lon="-4.46648">
        <ele>83.599998474121</ele>
        <time>2013-08-13T13:30:03.000Z</time>
      </trkpt>
      <trkpt lat="48.00337" lon="-4.46648">
        <ele>84.199996948242</ele>
        <time>2013-08-13T13:30:07.000Z</time>
      </trkpt>
      <trkpt lat="48.0033" lon="-4.46644">
        <ele>82.800003051758</ele>
        <time>2013-08-13T13:30:13.000Z</time>
      </trkpt>
      <trkpt lat="48.00326" lon="-4.46642">
        <ele>82.199996948242</ele>
        <time>2013-08-13T13:30:16.000Z</time>
      </trkpt>
      <trkpt lat="48.00318" lon="-4.46641">
        <ele>80.800003051758</ele>
        <time>2013-08-13T13:30:22.000Z</time>
      </trkpt>
      <trkpt lat="48.00314" lon="-4.46637">
        <ele>80.400001525879</ele>
        <time>2013-08-13T13:30:26.000Z</time>
      </trkpt>
      <trkpt lat="48.00309" lon="-4.46636">
        <ele>79.800003051758</ele>
        <time>2013-08-13T13:30:30.000Z</time>
      </trkpt>
      <trkpt lat="48.00301" lon="-4.46634">
        <ele>78</ele>
        <time>2013-08-13T13:30:36.000Z</time>
      </trkpt>
      <trkpt lat="48.00296" lon="-4.46631">
        <ele>76.400001525879</ele>
        <time>2013-08-13T13:30:39.000Z</time>
      </trkpt>
      <trkpt lat="48.00288" lon="-4.46626">
        <ele>77</ele>
        <time>2013-08-13T13:30:47.000Z</time>
      </trkpt>
      <trkpt lat="48.00282" lon="-4.46619">
        <ele>77</ele>
        <time>2013-08-13T13:30:51.000Z</time>
      </trkpt>
      <trkpt lat="48.00277" lon="-4.46615">
        <ele>76.400001525879</ele>
        <time>2013-08-13T13:30:56.000Z</time>
      </trkpt>
      <trkpt lat="48.00268" lon="-4.4661">
        <ele>76.400001525879</ele>
        <time>2013-08-13T13:31:04.000Z</time>
      </trkpt>
      <trkpt lat="48.00267" lon="-4.46609">
        <ele>76.400001525879</ele>
        <time>2013-08-13T13:31:05.000Z</time>
      </trkpt>
      <trkpt lat="48.00261" lon="-4.46603">
        <ele>76.400001525879</ele>
        <time>2013-08-13T13:31:11.000Z</time>
      </trkpt>
      <trkpt lat="48.00255" lon="-4.46597">
        <ele>75</ele>
        <time>2013-08-13T13:31:16.000Z</time>
      </trkpt>
      <trkpt lat="48.00249" lon="-4.46595">
        <ele>73.599998474121</ele>
        <time>2013-08-13T13:31:23.000Z</time>
      </trkpt>
      <trkpt lat="48.00245" lon="-4.4659">
        <ele>72.599998474121</ele>
        <time>2013-08-13T13:31:27.000Z</time>
      </trkpt>
      <trkpt lat="48.00242" lon="-4.46587">
        <ele>73</ele>
        <time>2013-08-13T13:31:31.000Z</time>
      </trkpt>
      <trkpt lat="48.00239" lon="-4.46584">
        <ele>73.599998474121</ele>
        <time>2013-08-13T13:31:35.000Z</time>
      </trkpt>
      <trkpt lat="48.00233" lon="-4.46582">
        <ele>72.599998474121</ele>
        <time>2013-08-13T13:31:40.000Z</time>
      </trkpt>
      <trkpt lat="48.00222" lon="-4.46578">
        <ele>71.599998474121</ele>
        <time>2013-08-13T13:31:48.000Z</time>
      </trkpt>
      <trkpt lat="48.00213" lon="-4.46575">
        <ele>74.599998474121</ele>
        <time>2013-08-13T13:31:56.000Z</time>
      </trkpt>
      <trkpt lat="48.00206" lon="-4.4657">
        <ele>74.599998474121</ele>
        <time>2013-08-13T13:32:03.000Z</time>
      </trkpt>
      <trkpt lat="48.00204" lon="-4.4657">
        <ele>73.599998474121</ele>
        <time>2013-08-13T13:32:09.000Z</time>
      </trkpt>
      <trkpt lat="48.00195" lon="-4.46564">
        <ele>71.599998474121</ele>
        <time>2013-08-13T13:32:17.000Z</time>
      </trkpt>
      <trkpt lat="48.00192" lon="-4.46562">
        <ele>71.599998474121</ele>
        <time>2013-08-13T13:32:20.000Z</time>
      </trkpt>
      <trkpt lat="48.00184" lon="-4.46556">
        <ele>70.199996948242</ele>
        <time>2013-08-13T13:32:27.000Z</time>
      </trkpt>
      <trkpt lat="48.00177" lon="-4.46552">
        <ele>68.199996948242</ele>
        <time>2013-08-13T13:32:32.000Z</time>
      </trkpt>
      <trkpt lat="48.0017" lon="-4.46547">
        <ele>69.199996948242</ele>
        <time>2013-08-13T13:32:37.000Z</time>
      </trkpt>
      <trkpt lat="48.00166" lon="-4.46544">
        <ele>69.800003051758</ele>
        <time>2013-08-13T13:32:42.000Z</time>
      </trkpt>
      <trkpt lat="48.00159" lon="-4.46538">
        <ele>71.599998474121</ele>
        <time>2013-08-13T13:32:49.000Z</time>
      </trkpt>
      <trkpt lat="48.00156" lon="-4.46533">
        <ele>75</ele>
        <time>2013-08-13T13:32:54.000Z</time>
      </trkpt>
      <trkpt lat="48.00145" lon="-4.46528">
        <ele>75</ele>
        <time>2013-08-13T13:33:03.000Z</time>
      </trkpt>
      <trkpt lat="48.00138" lon="-4.46525">
        <ele>74.599998474121</ele>
        <time>2013-08-13T13:33:08.000Z</time>
      </trkpt>
      <trkpt lat="48.00128" lon="-4.46523">
        <ele>73</ele>
        <time>2013-08-13T13:33:16.000Z</time>
      </trkpt>
      <trkpt lat="48.00123" lon="-4.4652">
        <ele>72.199996948242</ele>
        <time>2013-08-13T13:33:21.000Z</time>
      </trkpt>
      <trkpt lat="48.0012" lon="-4.4652">
        <ele>72.599998474121</ele>
        <time>2013-08-13T13:33:24.000Z</time>
      </trkpt>
      <trkpt lat="48.00116" lon="-4.46518">
        <ele>72.599998474121</ele>
        <time>2013-08-13T13:33:27.000Z</time>
      </trkpt>
      <trkpt lat="48.00112" lon="-4.46518">
        <ele>71.599998474121</ele>
        <time>2013-08-13T13:33:30.000Z</time>
      </trkpt>
      <trkpt lat="48.00106" lon="-4.46517">
        <ele>71.599998474121</ele>
        <time>2013-08-13T13:33:35.000Z</time>
      </trkpt>
      <trkpt lat="48.00097" lon="-4.46513">
        <ele>71.599998474121</ele>
        <time>2013-08-13T13:33:42.000Z</time>
      </trkpt>
      <trkpt lat="48.00091" lon="-4.46508">
        <ele>71.199996948242</ele>
        <time>2013-08-13T13:33:48.000Z</time>
      </trkpt>
      <trkpt lat="48.0009" lon="-4.46506">
        <ele>70.199996948242</ele>
        <time>2013-08-13T13:33:50.000Z</time>
      </trkpt>
      <trkpt lat="48.00083" lon="-4.46502">
        <ele>68.199996948242</ele>
        <time>2013-08-13T13:33:56.000Z</time>
      </trkpt>
      <trkpt lat="48.00076" lon="-4.46497">
        <ele>65.400001525879</ele>
        <time>2013-08-13T13:34:02.000Z</time>
      </trkpt>
      <trkpt lat="48.00071" lon="-4.4649">
        <ele>64</ele>
        <time>2013-08-13T13:34:08.000Z</time>
      </trkpt>
      <trkpt lat="48.00066" lon="-4.46487">
        <ele>63.400001525879</ele>
        <time>2013-08-13T13:34:13.000Z</time>
      </trkpt>
      <trkpt lat="48.00061" lon="-4.46484">
        <ele>64.400001525879</ele>
        <time>2013-08-13T13:34:18.000Z</time>
      </trkpt>
      <trkpt lat="48.00058" lon="-4.46483">
        <ele>66.400001525879</ele>
        <time>2013-08-13T13:34:21.000Z</time>
      </trkpt>
      <trkpt lat="48.00055" lon="-4.46481">
        <ele>66.800003051758</ele>
        <time>2013-08-13T13:34:23.000Z</time>
      </trkpt>
      <trkpt lat="48.00047" lon="-4.46479">
        <ele>68.199996948242</ele>
        <time>2013-08-13T13:34:29.000Z</time>
      </trkpt>
      <trkpt lat="48.00045" lon="-4.46478">
        <ele>67.400001525879</ele>
        <time>2013-08-13T13:34:31.000Z</time>
      </trkpt>
      <trkpt lat="48.00039" lon="-4.46477">
        <ele>66.800003051758</ele>
        <time>2013-08-13T13:34:36.000Z</time>
      </trkpt>
      <trkpt lat="48.00033" lon="-4.46475">
        <ele>66.800003051758</ele>
        <time>2013-08-13T13:34:40.000Z</time>
      </trkpt>
      <trkpt lat="48.00024" lon="-4.46467">
        <ele>65</ele>
        <time>2013-08-13T13:34:48.000Z</time>
      </trkpt>
      <trkpt lat="48.00017" lon="-4.46464">
        <ele>64.400001525879</ele>
        <time>2013-08-13T13:34:54.000Z</time>
      </trkpt>
      <trkpt lat="48.00008" lon="-4.46459">
        <ele>65.400001525879</ele>
        <time>2013-08-13T13:35:01.000Z</time>
      </trkpt>
      <trkpt lat="48" lon="-4.46456">
        <ele>65.400001525879</ele>
        <time>2013-08-13T13:35:08.000Z</time>
      </trkpt>
      <trkpt lat="47.99992" lon="-4.46453">
        <ele>65</ele>
        <time>2013-08-13T13:35:14.000Z</time>
      </trkpt>
      <trkpt lat="47.99984" lon="-4.46448">
        <ele>65.400001525879</ele>
        <time>2013-08-13T13:35:21.000Z</time>
      </trkpt>
      <trkpt lat="47.99982" lon="-4.46447">
        <ele>65.800003051758</ele>
        <time>2013-08-13T13:35:23.000Z</time>
      </trkpt>
      <trkpt lat="47.99971" lon="-4.46443">
        <ele>66.800003051758</ele>
        <time>2013-08-13T13:35:32.000Z</time>
      </trkpt>
      <trkpt lat="47.99964" lon="-4.46439">
        <ele>67.800003051758</ele>
        <time>2013-08-13T13:35:37.000Z</time>
      </trkpt>
      <trkpt lat="47.99961" lon="-4.46437">
        <ele>68.199996948242</ele>
        <time>2013-08-13T13:35:39.000Z</time>
      </trkpt>
      <trkpt lat="47.99957" lon="-4.46434">
        <ele>69.199996948242</ele>
        <time>2013-08-13T13:35:44.000Z</time>
      </trkpt>
      <trkpt lat="47.99953" lon="-4.46431">
        <ele>69.199996948242</ele>
        <time>2013-08-13T13:35:47.000Z</time>
      </trkpt>
      <trkpt lat="47.99947" lon="-4.4643">
        <ele>70.199996948242</ele>
        <time>2013-08-13T13:35:53.000Z</time>
      </trkpt>
      <trkpt lat="47.99943" lon="-4.4643">
        <ele>70.199996948242</ele>
        <time>2013-08-13T13:35:57.000Z</time>
      </trkpt>
      <trkpt lat="47.99936" lon="-4.46432">
        <ele>69.800003051758</ele>
        <time>2013-08-13T13:36:02.000Z</time>
      </trkpt>
      <trkpt lat="47.99932" lon="-4.46441">
        <ele>70.199996948242</ele>
        <time>2013-08-13T13:36:08.000Z</time>
      </trkpt>
      <trkpt lat="47.99928" lon="-4.46455">
        <ele>70.199996948242</ele>
        <time>2013-08-13T13:36:17.000Z</time>
      </trkpt>
      <trkpt lat="47.99925" lon="-4.46467">
        <ele>70.199996948242</ele>
        <time>2013-08-13T13:36:24.000Z</time>
      </trkpt>
      <trkpt lat="47.99922" lon="-4.46477">
        <ele>71.199996948242</ele>
        <time>2013-08-13T13:36:30.000Z</time>
      </trkpt>
      <trkpt lat="47.99919" lon="-4.46489">
        <ele>72.199996948242</ele>
        <time>2013-08-13T13:36:37.000Z</time>
      </trkpt>
      <trkpt lat="47.99915" lon="-4.465">
        <ele>74</ele>
        <time>2013-08-13T13:36:43.000Z</time>
      </trkpt>
      <trkpt lat="47.99913" lon="-4.46507">
        <ele>74.599998474121</ele>
        <time>2013-08-13T13:36:47.000Z</time>
      </trkpt>
      <trkpt lat="47.9991" lon="-4.46518">
        <ele>74.599998474121</ele>
        <time>2013-08-13T13:36:53.000Z</time>
      </trkpt>
      <trkpt lat="47.99909" lon="-4.46519">
        <ele>74.599998474121</ele>
        <time>2013-08-13T13:36:54.000Z</time>
      </trkpt>
      <trkpt lat="47.99905" lon="-4.46538">
        <ele>73</ele>
        <time>2013-08-13T13:37:04.000Z</time>
      </trkpt>
      <trkpt lat="47.99903" lon="-4.46542">
        <ele>72.599998474121</ele>
        <time>2013-08-13T13:37:07.000Z</time>
      </trkpt>
      <trkpt lat="47.99902" lon="-4.46556">
        <ele>72.199996948242</ele>
        <time>2013-08-13T13:37:15.000Z</time>
      </trkpt>
      <trkpt lat="47.99899" lon="-4.46571">
        <ele>72.199996948242</ele>
        <time>2013-08-13T13:37:24.000Z</time>
      </trkpt>
      <trkpt lat="47.99896" lon="-4.46583">
        <ele>71.199996948242</ele>
        <time>2013-08-13T13:37:30.000Z</time>
      </trkpt>
      <trkpt lat="47.99891" lon="-4.46596">
        <ele>65.800003051758</ele>
        <time>2013-08-13T13:37:36.000Z</time>
      </trkpt>
      <trkpt lat="47.9989" lon="-4.46602">
        <ele>63.400001525879</ele>
        <time>2013-08-13T13:37:40.000Z</time>
      </trkpt>
      <trkpt lat="47.99888" lon="-4.4661">
        <ele>62.599998474121</ele>
        <time>2013-08-13T13:37:45.000Z</time>
      </trkpt>
      <trkpt lat="47.99887" lon="-4.4662">
        <ele>64</ele>
        <time>2013-08-13T13:37:50.000Z</time>
      </trkpt>
      <trkpt lat="47.99886" lon="-4.46628">
        <ele>66.400001525879</ele>
        <time>2013-08-13T13:37:56.000Z</time>
      </trkpt>
      <trkpt lat="47.99883" lon="-4.46636">
        <ele>67.800003051758</ele>
        <time>2013-08-13T13:38:01.000Z</time>
      </trkpt>
      <trkpt lat="47.99881" lon="-4.46647">
        <ele>72.599998474121</ele>
        <time>2013-08-13T13:38:09.000Z</time>
      </trkpt>
      <trkpt lat="47.99879" lon="-4.46654">
        <ele>74.599998474121</ele>
        <time>2013-08-13T13:38:13.000Z</time>
      </trkpt>
      <trkpt lat="47.99877" lon="-4.46663">
        <ele>76.400001525879</ele>
        <time>2013-08-13T13:38:17.000Z</time>
      </trkpt>
      <trkpt lat="47.99876" lon="-4.46671">
        <ele>78</ele>
        <time>2013-08-13T13:38:22.000Z</time>
      </trkpt>
      <trkpt lat="47.99873" lon="-4.46676">
        <ele>78</ele>
        <time>2013-08-13T13:38:26.000Z</time>
      </trkpt>
      <trkpt lat="47.99871" lon="-4.46683">
        <ele>78.800003051758</ele>
        <time>2013-08-13T13:38:30.000Z</time>
      </trkpt>
      <trkpt lat="47.9987" lon="-4.46687">
        <ele>78.400001525879</ele>
        <time>2013-08-13T13:38:32.000Z</time>
      </trkpt>
      <trkpt lat="47.99866" lon="-4.46701">
        <ele>78</ele>
        <time>2013-08-13T13:38:39.000Z</time>
      </trkpt>
      <trkpt lat="47.99863" lon="-4.4671">
        <ele>75.599998474121</ele>
        <time>2013-08-13T13:38:43.000Z</time>
      </trkpt>
      <trkpt lat="47.99861" lon="-4.4672">
        <ele>73</ele>
        <time>2013-08-13T13:38:48.000Z</time>
      </trkpt>
      <trkpt lat="47.99859" lon="-4.46724">
        <ele>71.199996948242</ele>
        <time>2013-08-13T13:38:51.000Z</time>
      </trkpt>
      <trkpt lat="47.99858" lon="-4.4673">
        <ele>68.800003051758</ele>
        <time>2013-08-13T13:38:55.000Z</time>
      </trkpt>
      <trkpt lat="47.99857" lon="-4.46734">
        <ele>68.199996948242</ele>
        <time>2013-08-13T13:38:57.000Z</time>
      </trkpt>
      <trkpt lat="47.99856" lon="-4.46746">
        <ele>68.800003051758</ele>
        <time>2013-08-13T13:39:03.000Z</time>
      </trkpt>
      <trkpt lat="47.99854" lon="-4.46756">
        <ele>68.800003051758</ele>
        <time>2013-08-13T13:39:08.000Z</time>
      </trkpt>
      <trkpt lat="47.99852" lon="-4.46766">
        <ele>67.800003051758</ele>
        <time>2013-08-13T13:39:13.000Z</time>
      </trkpt>
      <trkpt lat="47.9985" lon="-4.46777">
        <ele>68.800003051758</ele>
        <time>2013-08-13T13:39:19.000Z</time>
      </trkpt>
      <trkpt lat="47.99847" lon="-4.4679">
        <ele>70.599998474121</ele>
        <time>2013-08-13T13:39:26.000Z</time>
      </trkpt>
      <trkpt lat="47.99847" lon="-4.46792">
        <ele>71.199996948242</ele>
        <time>2013-08-13T13:39:27.000Z</time>
      </trkpt>
      <trkpt lat="47.99844" lon="-4.46798">
        <ele>71.199996948242</ele>
        <time>2013-08-13T13:39:32.000Z</time>
      </trkpt>
      <trkpt lat="47.99843" lon="-4.46804">
        <ele>70.199996948242</ele>
        <time>2013-08-13T13:39:35.000Z</time>
      </trkpt>
      <trkpt lat="47.99837" lon="-4.46807">
        <ele>69.199996948242</ele>
        <time>2013-08-13T13:39:42.000Z</time>
      </trkpt>
      <trkpt lat="47.99833" lon="-4.46804">
        <ele>69.199996948242</ele>
        <time>2013-08-13T13:39:47.000Z</time>
      </trkpt>
      <trkpt lat="47.99832" lon="-4.46804">
        <ele>69.199996948242</ele>
        <time>2013-08-13T13:39:48.000Z</time>
      </trkpt>
      <trkpt lat="47.99825" lon="-4.46809">
        <ele>69.800003051758</ele>
        <time>2013-08-13T13:39:53.000Z</time>
      </trkpt>
      <trkpt lat="47.99824" lon="-4.4681">
        <ele>70.199996948242</ele>
        <time>2013-08-13T13:39:54.000Z</time>
      </trkpt>
      <trkpt lat="47.99823" lon="-4.4682">
        <ele>70.199996948242</ele>
        <time>2013-08-13T13:39:59.000Z</time>
      </trkpt>
      <trkpt lat="47.99821" lon="-4.46829">
        <ele>69.800003051758</ele>
        <time>2013-08-13T13:40:04.000Z</time>
      </trkpt>
      <trkpt lat="47.99818" lon="-4.46839">
        <ele>71.199996948242</ele>
        <time>2013-08-13T13:40:10.000Z</time>
      </trkpt>
      <trkpt lat="47.99816" lon="-4.46849">
        <ele>71.599998474121</ele>
        <time>2013-08-13T13:40:16.000Z</time>
      </trkpt>
      <trkpt lat="47.99815" lon="-4.46854">
        <ele>72.599998474121</ele>
        <time>2013-08-13T13:40:18.000Z</time>
      </trkpt>
      <trkpt lat="47.99816" lon="-4.46857">
        <ele>72.599998474121</ele>
        <time>2013-08-13T13:40:26.000Z</time>
      </trkpt>
      <trkpt lat="47.99816" lon="-4.46858">
        <ele>72.599998474121</ele>
        <time>2013-08-13T13:40:27.000Z</time>
      </trkpt>
      <trkpt lat="47.99813" lon="-4.46867">
        <ele>71.599998474121</ele>
        <time>2013-08-13T13:40:33.000Z</time>
      </trkpt>
      <trkpt lat="47.9981" lon="-4.46875">
        <ele>67.400001525879</ele>
        <time>2013-08-13T13:40:40.000Z</time>
      </trkpt>
      <trkpt lat="47.99806" lon="-4.46883">
        <ele>66.800003051758</ele>
        <time>2013-08-13T13:40:46.000Z</time>
      </trkpt>
      <trkpt lat="47.99806" lon="-4.46884">
        <ele>66.800003051758</ele>
        <time>2013-08-13T13:40:47.000Z</time>
      </trkpt>
      <trkpt lat="47.99806" lon="-4.46891">
        <ele>66.800003051758</ele>
        <time>2013-08-13T13:40:51.000Z</time>
      </trkpt>
      <trkpt lat="47.99805" lon="-4.46894">
        <ele>68.800003051758</ele>
        <time>2013-08-13T13:40:56.000Z</time>
      </trkpt>
      <trkpt lat="47.99804" lon="-4.46896">
        <ele>69.199996948242</ele>
        <time>2013-08-13T13:41:00.000Z</time>
      </trkpt>
      <trkpt lat="47.99803" lon="-4.46909">
        <ele>70.199996948242</ele>
        <time>2013-08-13T13:41:07.000Z</time>
      </trkpt>
      <trkpt lat="47.99803" lon="-4.46914">
        <ele>69.800003051758</ele>
        <time>2013-08-13T13:41:10.000Z</time>
      </trkpt>
      <trkpt lat="47.99804" lon="-4.46922">
        <ele>69.199996948242</ele>
        <time>2013-08-13T13:41:14.000Z</time>
      </trkpt>
      <trkpt lat="47.99801" lon="-4.46932">
        <ele>67.800003051758</ele>
        <time>2013-08-13T13:41:20.000Z</time>
      </trkpt>
      <trkpt lat="47.99799" lon="-4.46936">
        <ele>66.400001525879</ele>
        <time>2013-08-13T13:41:24.000Z</time>
      </trkpt>
      <trkpt lat="47.99795" lon="-4.46939">
        <ele>64.400001525879</ele>
        <time>2013-08-13T13:41:28.000Z</time>
      </trkpt>
      <trkpt lat="47.99794" lon="-4.46947">
        <ele>64.400001525879</ele>
        <time>2013-08-13T13:41:33.000Z</time>
      </trkpt>
      <trkpt lat="47.99792" lon="-4.46948">
        <ele>64.400001525879</ele>
        <time>2013-08-13T13:41:35.000Z</time>
      </trkpt>
      <trkpt lat="47.9979" lon="-4.46953">
        <ele>65.800003051758</ele>
        <time>2013-08-13T13:41:39.000Z</time>
      </trkpt>
      <trkpt lat="47.99792" lon="-4.46955">
        <ele>67.400001525879</ele>
        <time>2013-08-13T13:41:48.000Z</time>
      </trkpt>
      <trkpt lat="47.99792" lon="-4.46957">
        <ele>66.800003051758</ele>
        <time>2013-08-13T13:41:55.000Z</time>
      </trkpt>
      <trkpt lat="47.99789" lon="-4.46963">
        <ele>67.400001525879</ele>
        <time>2013-08-13T13:41:59.000Z</time>
      </trkpt>
      <trkpt lat="47.99788" lon="-4.46966">
        <ele>68.199996948242</ele>
        <time>2013-08-13T13:42:01.000Z</time>
      </trkpt>
      <trkpt lat="47.99789" lon="-4.46976">
        <ele>69.199996948242</ele>
        <time>2013-08-13T13:42:06.000Z</time>
      </trkpt>
      <trkpt lat="47.99787" lon="-4.46984">
        <ele>69.199996948242</ele>
        <time>2013-08-13T13:42:11.000Z</time>
      </trkpt>
      <trkpt lat="47.99786" lon="-4.46991">
        <ele>69.199996948242</ele>
        <time>2013-08-13T13:42:19.000Z</time>
      </trkpt>
      <trkpt lat="47.99786" lon="-4.46998">
        <ele>70.199996948242</ele>
        <time>2013-08-13T13:42:23.000Z</time>
      </trkpt>
      <trkpt lat="47.99786" lon="-4.47002">
        <ele>70.199996948242</ele>
        <time>2013-08-13T13:42:25.000Z</time>
      </trkpt>
      <trkpt lat="47.99787" lon="-4.47008">
        <ele>71.599998474121</ele>
        <time>2013-08-13T13:42:30.000Z</time>
      </trkpt>
      <trkpt lat="47.99791" lon="-4.47018">
        <ele>72.199996948242</ele>
        <time>2013-08-13T13:42:39.000Z</time>
      </trkpt>
      <trkpt lat="47.99797" lon="-4.47025">
        <ele>72.599998474121</ele>
        <time>2013-08-13T13:42:45.000Z</time>
      </trkpt>
      <trkpt lat="47.99803" lon="-4.47031">
        <ele>73</ele>
        <time>2013-08-13T13:42:52.000Z</time>
      </trkpt>
      <trkpt lat="47.99808" lon="-4.47037">
        <ele>72.599998474121</ele>
        <time>2013-08-13T13:42:58.000Z</time>
      </trkpt>
      <trkpt lat="47.99809" lon="-4.47039">
        <ele>72.599998474121</ele>
        <time>2013-08-13T13:42:59.000Z</time>
      </trkpt>
      <trkpt lat="47.99811" lon="-4.47043">
        <ele>73</ele>
        <time>2013-08-13T13:43:03.000Z</time>
      </trkpt>
      <trkpt lat="47.99814" lon="-4.47051">
        <ele>73</ele>
        <time>2013-08-13T13:43:10.000Z</time>
      </trkpt>
      <trkpt lat="47.99815" lon="-4.47061">
        <ele>74.599998474121</ele>
        <time>2013-08-13T13:43:16.000Z</time>
      </trkpt>
      <trkpt lat="47.99816" lon="-4.47072">
        <ele>74.599998474121</ele>
        <time>2013-08-13T13:43:23.000Z</time>
      </trkpt>
      <trkpt lat="47.99817" lon="-4.47084">
        <ele>73</ele>
        <time>2013-08-13T13:43:31.000Z</time>
      </trkpt>
      <trkpt lat="47.99818" lon="-4.47096">
        <ele>72.599998474121</ele>
        <time>2013-08-13T13:43:38.000Z</time>
      </trkpt>
      <trkpt lat="47.99817" lon="-4.47101">
        <ele>74</ele>
        <time>2013-08-13T13:43:41.000Z</time>
      </trkpt>
      <trkpt lat="47.99816" lon="-4.47108">
        <ele>72.599998474121</ele>
        <time>2013-08-13T13:43:46.000Z</time>
      </trkpt>
      <trkpt lat="47.99816" lon="-4.47114">
        <ele>71.599998474121</ele>
        <time>2013-08-13T13:43:49.000Z</time>
      </trkpt>
      <trkpt lat="47.9982" lon="-4.47121">
        <ele>69.800003051758</ele>
        <time>2013-08-13T13:43:52.000Z</time>
      </trkpt>
      <trkpt lat="47.99823" lon="-4.47127">
        <ele>66.400001525879</ele>
        <time>2013-08-13T13:43:56.000Z</time>
      </trkpt>
      <trkpt lat="47.99823" lon="-4.47131">
        <ele>64.400001525879</ele>
        <time>2013-08-13T13:43:59.000Z</time>
      </trkpt>
      <trkpt lat="47.99821" lon="-4.47139">
        <ele>64</ele>
        <time>2013-08-13T13:44:04.000Z</time>
      </trkpt>
      <trkpt lat="47.9982" lon="-4.47153">
        <ele>61.599998474121</ele>
        <time>2013-08-13T13:44:12.000Z</time>
      </trkpt>
      <trkpt lat="47.99821" lon="-4.47164">
        <ele>59.599998474121</ele>
        <time>2013-08-13T13:44:19.000Z</time>
      </trkpt>
      <trkpt lat="47.99821" lon="-4.47177">
        <ele>58.200000762939</ele>
        <time>2013-08-13T13:44:26.000Z</time>
      </trkpt>
      <trkpt lat="47.99818" lon="-4.47192">
        <ele>63.400001525879</ele>
        <time>2013-08-13T13:44:32.000Z</time>
      </trkpt>
      <trkpt lat="47.99816" lon="-4.472">
        <ele>65</ele>
        <time>2013-08-13T13:44:37.000Z</time>
      </trkpt>
      <trkpt lat="47.99811" lon="-4.47207">
        <ele>65</ele>
        <time>2013-08-13T13:44:44.000Z</time>
      </trkpt>
      <trkpt lat="47.99808" lon="-4.47212">
        <ele>66.400001525879</ele>
        <time>2013-08-13T13:44:50.000Z</time>
      </trkpt>
      <trkpt lat="47.99807" lon="-4.47213">
        <ele>67.400001525879</ele>
        <time>2013-08-13T13:44:54.000Z</time>
      </trkpt>
      <trkpt lat="47.99802" lon="-4.47217">
        <ele>67.800003051758</ele>
        <time>2013-08-13T13:44:58.000Z</time>
      </trkpt>
      <trkpt lat="47.99799" lon="-4.47221">
        <ele>68.800003051758</ele>
        <time>2013-08-13T13:45:05.000Z</time>
      </trkpt>
      <trkpt lat="47.99792" lon="-4.47229">
        <ele>70.199996948242</ele>
        <time>2013-08-13T13:45:12.000Z</time>
      </trkpt>
      <trkpt lat="47.99783" lon="-4.4724">
        <ele>71.599998474121</ele>
        <time>2013-08-13T13:45:21.000Z</time>
      </trkpt>
      <trkpt lat="47.99775" lon="-4.4725">
        <ele>72.599998474121</ele>
        <time>2013-08-13T13:45:30.000Z</time>
      </trkpt>
      <trkpt lat="47.99767" lon="-4.47258">
        <ele>72.199996948242</ele>
        <time>2013-08-13T13:45:38.000Z</time>
      </trkpt>
      <trkpt lat="47.99762" lon="-4.47265">
        <ele>71.199996948242</ele>
        <time>2013-08-13T13:45:44.000Z</time>
      </trkpt>
      <trkpt lat="47.99757" lon="-4.47273">
        <ele>71.199996948242</ele>
        <time>2013-08-13T13:45:50.000Z</time>
      </trkpt>
      <trkpt lat="47.99757" lon="-4.47275">
        <ele>71.199996948242</ele>
        <time>2013-08-13T13:45:54.000Z</time>
      </trkpt>
      <trkpt lat="47.99754" lon="-4.47278">
        <ele>70.599998474121</ele>
        <time>2013-08-13T13:45:59.000Z</time>
      </trkpt>
      <trkpt lat="47.99754" lon="-4.47279">
        <ele>70.599998474121</ele>
        <time>2013-08-13T13:46:00.000Z</time>
      </trkpt>
      <trkpt lat="47.99751" lon="-4.47283">
        <ele>69.199996948242</ele>
        <time>2013-08-13T13:46:04.000Z</time>
      </trkpt>
      <trkpt lat="47.99747" lon="-4.47291">
        <ele>67.400001525879</ele>
        <time>2013-08-13T13:46:11.000Z</time>
      </trkpt>
      <trkpt lat="47.99741" lon="-4.47301">
        <ele>63.400001525879</ele>
        <time>2013-08-13T13:46:19.000Z</time>
      </trkpt>
      <trkpt lat="47.99738" lon="-4.47306">
        <ele>62</ele>
        <time>2013-08-13T13:46:24.000Z</time>
      </trkpt>
      <trkpt lat="47.99733" lon="-4.47313">
        <ele>61.599998474121</ele>
        <time>2013-08-13T13:46:30.000Z</time>
      </trkpt>
      <trkpt lat="47.9973" lon="-4.47321">
        <ele>61.599998474121</ele>
        <time>2013-08-13T13:46:36.000Z</time>
      </trkpt>
      <trkpt lat="47.99729" lon="-4.47324">
        <ele>61.599998474121</ele>
        <time>2013-08-13T13:46:38.000Z</time>
      </trkpt>
      <trkpt lat="47.99726" lon="-4.4733">
        <ele>60.200000762939</ele>
        <time>2013-08-13T13:46:42.000Z</time>
      </trkpt>
      <trkpt lat="47.99724" lon="-4.47334">
        <ele>60.200000762939</ele>
        <time>2013-08-13T13:46:45.000Z</time>
      </trkpt>
      <trkpt lat="47.99721" lon="-4.47344">
        <ele>59.200000762939</ele>
        <time>2013-08-13T13:46:51.000Z</time>
      </trkpt>
      <trkpt lat="47.99716" lon="-4.47348">
        <ele>58.599998474121</ele>
        <time>2013-08-13T13:46:55.000Z</time>
      </trkpt>
      <trkpt lat="47.99716" lon="-4.4735">
        <ele>58.599998474121</ele>
        <time>2013-08-13T13:46:57.000Z</time>
      </trkpt>
      <trkpt lat="47.99712" lon="-4.47358">
        <ele>58.200000762939</ele>
        <time>2013-08-13T13:47:03.000Z</time>
      </trkpt>
      <trkpt lat="47.99711" lon="-4.4736">
        <ele>58.200000762939</ele>
        <time>2013-08-13T13:47:04.000Z</time>
      </trkpt>
      <trkpt lat="47.99707" lon="-4.47365">
        <ele>58.599998474121</ele>
        <time>2013-08-13T13:47:09.000Z</time>
      </trkpt>
      <trkpt lat="47.99702" lon="-4.47372">
        <ele>58.200000762939</ele>
        <time>2013-08-13T13:47:15.000Z</time>
      </trkpt>
      <trkpt lat="47.99698" lon="-4.47378">
        <ele>58.200000762939</ele>
        <time>2013-08-13T13:47:22.000Z</time>
      </trkpt>
      <trkpt lat="47.99692" lon="-4.47385">
        <ele>56.799999237061</ele>
        <time>2013-08-13T13:47:29.000Z</time>
      </trkpt>
      <trkpt lat="47.99688" lon="-4.4739">
        <ele>56.200000762939</ele>
        <time>2013-08-13T13:47:33.000Z</time>
      </trkpt>
      <trkpt lat="47.99683" lon="-4.47394">
        <ele>55.799999237061</ele>
        <time>2013-08-13T13:47:37.000Z</time>
      </trkpt>
      <trkpt lat="47.9968" lon="-4.47398">
        <ele>54.400001525879</ele>
        <time>2013-08-13T13:47:41.000Z</time>
      </trkpt>
      <trkpt lat="47.99676" lon="-4.47402">
        <ele>53.799999237061</ele>
        <time>2013-08-13T13:47:46.000Z</time>
      </trkpt>
      <trkpt lat="47.99674" lon="-4.47407">
        <ele>53.400001525879</ele>
        <time>2013-08-13T13:47:51.000Z</time>
      </trkpt>
      <trkpt lat="47.99671" lon="-4.47408">
        <ele>53</ele>
        <time>2013-08-13T13:47:53.000Z</time>
      </trkpt>
      <trkpt lat="47.99665" lon="-4.47415">
        <ele>52.400001525879</ele>
        <time>2013-08-13T13:48:01.000Z</time>
      </trkpt>
      <trkpt lat="47.9966" lon="-4.47422">
        <ele>49.599998474121</ele>
        <time>2013-08-13T13:48:09.000Z</time>
      </trkpt>
      <trkpt lat="47.99658" lon="-4.47427">
        <ele>49</ele>
        <time>2013-08-13T13:48:14.000Z</time>
      </trkpt>
      <trkpt lat="47.99655" lon="-4.4743">
        <ele>49.599998474121</ele>
        <time>2013-08-13T13:48:20.000Z</time>
      </trkpt>
      <trkpt lat="47.99651" lon="-4.47433">
        <ele>49.599998474121</ele>
        <time>2013-08-13T13:48:26.000Z</time>
      </trkpt>
      <trkpt lat="47.99651" lon="-4.47434">
        <ele>49.599998474121</ele>
        <time>2013-08-13T13:48:27.000Z</time>
      </trkpt>
      <trkpt lat="47.99647" lon="-4.4744">
        <ele>48.599998474121</ele>
        <time>2013-08-13T13:48:32.000Z</time>
      </trkpt>
      <trkpt lat="47.99645" lon="-4.47443">
        <ele>48.200000762939</ele>
        <time>2013-08-13T13:48:37.000Z</time>
      </trkpt>
      <trkpt lat="47.99644" lon="-4.47446">
        <ele>50</ele>
        <time>2013-08-13T13:48:43.000Z</time>
      </trkpt>
      <trkpt lat="47.99645" lon="-4.47448">
        <ele>52.400001525879</ele>
        <time>2013-08-13T13:48:50.000Z</time>
      </trkpt>
      <trkpt lat="47.99642" lon="-4.47449">
        <ele>50</ele>
        <time>2013-08-13T13:48:57.000Z</time>
      </trkpt>
      <trkpt lat="47.99643" lon="-4.47453">
        <ele>52</ele>
        <time>2013-08-13T13:49:06.000Z</time>
      </trkpt>
      <trkpt lat="47.99642" lon="-4.47457">
        <ele>51.400001525879</ele>
        <time>2013-08-13T13:49:21.000Z</time>
      </trkpt>
      <trkpt lat="47.99643" lon="-4.47453">
        <ele>46.200000762939</ele>
        <time>2013-08-13T13:49:32.000Z</time>
      </trkpt>
      <trkpt lat="47.99645" lon="-4.4745">
        <ele>47.200000762939</ele>
        <time>2013-08-13T13:49:47.000Z</time>
      </trkpt>
      <trkpt lat="47.99646" lon="-4.47443">
        <ele>50</ele>
        <time>2013-08-13T13:50:16.000Z</time>
      </trkpt>
      <trkpt lat="47.99643" lon="-4.47444">
        <ele>48.599998474121</ele>
        <time>2013-08-13T13:50:29.000Z</time>
      </trkpt>
      <trkpt lat="47.99643" lon="-4.47446">
        <ele>53.400001525879</ele>
        <time>2013-08-13T13:50:41.000Z</time>
      </trkpt>
      <trkpt lat="47.99642" lon="-4.47449">
        <ele>60.200000762939</ele>
        <time>2013-08-13T13:50:52.000Z</time>
      </trkpt>
      <trkpt lat="47.99643" lon="-4.47447">
        <ele>56.799999237061</ele>
        <time>2013-08-13T13:51:16.000Z</time>
      </trkpt>
      <trkpt lat="47.99648" lon="-4.4745">
        <ele>63</ele>
        <time>2013-08-13T13:51:27.000Z</time>
      </trkpt>
      <trkpt lat="47.99648" lon="-4.47448">
        <ele>65.400001525879</ele>
        <time>2013-08-13T13:51:41.000Z</time>
      </trkpt>
      <trkpt lat="47.99647" lon="-4.47447">
        <ele>62</ele>
        <time>2013-08-13T13:51:56.000Z</time>
      </trkpt>
      <trkpt lat="47.99644" lon="-4.47449">
        <ele>57.799999237061</ele>
        <time>2013-08-13T13:52:09.000Z</time>
      </trkpt>
      <trkpt lat="47.99644" lon="-4.47449">
        <ele>55.400001525879</ele>
        <time>2013-08-13T13:52:21.000Z</time>
      </trkpt>
      <trkpt lat="47.99644" lon="-4.47449">
        <ele>53</ele>
        <time>2013-08-13T13:52:28.000Z</time>
      </trkpt>
      <trkpt lat="47.9964" lon="-4.47449">
        <ele>50.599998474121</ele>
        <time>2013-08-13T13:52:33.000Z</time>
      </trkpt>
      <trkpt lat="47.99636" lon="-4.47447">
        <ele>46.200000762939</ele>
        <time>2013-08-13T13:52:42.000Z</time>
      </trkpt>
      <trkpt lat="47.99631" lon="-4.47446">
        <ele>45.200000762939</ele>
        <time>2013-08-13T13:52:48.000Z</time>
      </trkpt>
      <trkpt lat="47.99627" lon="-4.47446">
        <ele>47.599998474121</ele>
        <time>2013-08-13T13:52:54.000Z</time>
      </trkpt>
      <trkpt lat="47.9962" lon="-4.47442">
        <ele>44.799999237061</ele>
        <time>2013-08-13T13:53:01.000Z</time>
      </trkpt>
      <trkpt lat="47.99619" lon="-4.47442">
        <ele>47.200000762939</ele>
        <time>2013-08-13T13:53:06.000Z</time>
      </trkpt>
      <trkpt lat="47.99616" lon="-4.47439">
        <ele>49.599998474121</ele>
        <time>2013-08-13T13:53:14.000Z</time>
      </trkpt>
      <trkpt lat="47.99611" lon="-4.47438">
        <ele>50.599998474121</ele>
        <time>2013-08-13T13:53:20.000Z</time>
      </trkpt>
      <trkpt lat="47.9961" lon="-4.4744">
        <ele>51</ele>
        <time>2013-08-13T13:53:21.000Z</time>
      </trkpt>
      <trkpt lat="47.99606" lon="-4.47444">
        <ele>51</ele>
        <time>2013-08-13T13:53:27.000Z</time>
      </trkpt>
      <trkpt lat="47.99604" lon="-4.47446">
        <ele>51</ele>
        <time>2013-08-13T13:53:34.000Z</time>
      </trkpt>
      <trkpt lat="47.99601" lon="-4.47448">
        <ele>49.599998474121</ele>
        <time>2013-08-13T13:53:39.000Z</time>
      </trkpt>
      <trkpt lat="47.99598" lon="-4.47452">
        <ele>48.200000762939</ele>
        <time>2013-08-13T13:53:44.000Z</time>
      </trkpt>
      <trkpt lat="47.99595" lon="-4.47458">
        <ele>48.200000762939</ele>
        <time>2013-08-13T13:53:51.000Z</time>
      </trkpt>
      <trkpt lat="47.99595" lon="-4.47461">
        <ele>50.599998474121</ele>
        <time>2013-08-13T13:53:56.000Z</time>
      </trkpt>
      <trkpt lat="47.99595" lon="-4.47461">
        <ele>52</ele>
        <time>2013-08-13T13:54:05.000Z</time>
      </trkpt>
      <trkpt lat="47.99593" lon="-4.4746">
        <ele>51</ele>
        <time>2013-08-13T13:54:21.000Z</time>
      </trkpt>
      <trkpt lat="47.99587" lon="-4.47459">
        <ele>52</ele>
        <time>2013-08-13T13:54:29.000Z</time>
      </trkpt>
      <trkpt lat="47.99583" lon="-4.47456">
        <ele>51</ele>
        <time>2013-08-13T13:54:35.000Z</time>
      </trkpt>
      <trkpt lat="47.99579" lon="-4.47452">
        <ele>48.599998474121</ele>
        <time>2013-08-13T13:54:41.000Z</time>
      </trkpt>
      <trkpt lat="47.99575" lon="-4.47451">
        <ele>49.599998474121</ele>
        <time>2013-08-13T13:54:46.000Z</time>
      </trkpt>
      <trkpt lat="47.99574" lon="-4.47444">
        <ele>49</ele>
        <time>2013-08-13T13:54:51.000Z</time>
      </trkpt>
      <trkpt lat="47.99572" lon="-4.47441">
        <ele>50</ele>
        <time>2013-08-13T13:54:55.000Z</time>
      </trkpt>
      <trkpt lat="47.99568" lon="-4.47437">
        <ele>50</ele>
        <time>2013-08-13T13:55:02.000Z</time>
      </trkpt>
      <trkpt lat="47.99566" lon="-4.47434">
        <ele>49.599998474121</ele>
        <time>2013-08-13T13:55:05.000Z</time>
      </trkpt>
      <trkpt lat="47.9956" lon="-4.47429">
        <ele>49.599998474121</ele>
        <time>2013-08-13T13:55:11.000Z</time>
      </trkpt>
      <trkpt lat="47.99556" lon="-4.47427">
        <ele>49.599998474121</ele>
        <time>2013-08-13T13:55:15.000Z</time>
      </trkpt>
      <trkpt lat="47.99551" lon="-4.47426">
        <ele>50</ele>
        <time>2013-08-13T13:55:20.000Z</time>
      </trkpt>
      <trkpt lat="47.99543" lon="-4.47423">
        <ele>50</ele>
        <time>2013-08-13T13:55:28.000Z</time>
      </trkpt>
      <trkpt lat="47.99541" lon="-4.47422">
        <ele>50</ele>
        <time>2013-08-13T13:55:30.000Z</time>
      </trkpt>
      <trkpt lat="47.9953" lon="-4.47418">
        <ele>47.200000762939</ele>
        <time>2013-08-13T13:55:38.000Z</time>
      </trkpt>
      <trkpt lat="47.99527" lon="-4.47416">
        <ele>45.599998474121</ele>
        <time>2013-08-13T13:55:41.000Z</time>
      </trkpt>
      <trkpt lat="47.99521" lon="-4.47414">
        <ele>45.200000762939</ele>
        <time>2013-08-13T13:55:46.000Z</time>
      </trkpt>
      <trkpt lat="47.9952" lon="-4.47413">
        <ele>45.599998474121</ele>
        <time>2013-08-13T13:55:48.000Z</time>
      </trkpt>
      <trkpt lat="47.99512" lon="-4.47405">
        <ele>43.799999237061</ele>
        <time>2013-08-13T13:55:55.000Z</time>
      </trkpt>
      <trkpt lat="47.99509" lon="-4.47404">
        <ele>43.200000762939</ele>
        <time>2013-08-13T13:55:58.000Z</time>
      </trkpt>
      <trkpt lat="47.99503" lon="-4.47402">
        <ele>43.200000762939</ele>
        <time>2013-08-13T13:56:04.000Z</time>
      </trkpt>
      <trkpt lat="47.99496" lon="-4.47398">
        <ele>44.799999237061</ele>
        <time>2013-08-13T13:56:10.000Z</time>
      </trkpt>
      <trkpt lat="47.9949" lon="-4.47392">
        <ele>45.200000762939</ele>
        <time>2013-08-13T13:56:16.000Z</time>
      </trkpt>
      <trkpt lat="47.99482" lon="-4.47388">
        <ele>45.200000762939</ele>
        <time>2013-08-13T13:56:23.000Z</time>
      </trkpt>
      <trkpt lat="47.9948" lon="-4.47386">
        <ele>44.799999237061</ele>
        <time>2013-08-13T13:56:25.000Z</time>
      </trkpt>
      <trkpt lat="47.99471" lon="-4.47384">
        <ele>44.799999237061</ele>
        <time>2013-08-13T13:56:33.000Z</time>
      </trkpt>
      <trkpt lat="47.99464" lon="-4.47383">
        <ele>42.799999237061</ele>
        <time>2013-08-13T13:56:38.000Z</time>
      </trkpt>
      <trkpt lat="47.99458" lon="-4.47385">
        <ele>43.200000762939</ele>
        <time>2013-08-13T13:56:43.000Z</time>
      </trkpt>
      <trkpt lat="47.99454" lon="-4.47385">
        <ele>42.400001525879</ele>
        <time>2013-08-13T13:56:49.000Z</time>
      </trkpt>
      <trkpt lat="47.99449" lon="-4.47386">
        <ele>40.400001525879</ele>
        <time>2013-08-13T13:56:53.000Z</time>
      </trkpt>
      <trkpt lat="47.99447" lon="-4.47387">
        <ele>40</ele>
        <time>2013-08-13T13:56:54.000Z</time>
      </trkpt>
      <trkpt lat="47.99442" lon="-4.4739">
        <ele>39</ele>
        <time>2013-08-13T13:56:58.000Z</time>
      </trkpt>
      <trkpt lat="47.99436" lon="-4.47394">
        <ele>40.799999237061</ele>
        <time>2013-08-13T13:57:04.000Z</time>
      </trkpt>
      <trkpt lat="47.99431" lon="-4.47395">
        <ele>42.400001525879</ele>
        <time>2013-08-13T13:57:09.000Z</time>
      </trkpt>
      <trkpt lat="47.99428" lon="-4.47395">
        <ele>42.400001525879</ele>
        <time>2013-08-13T13:57:14.000Z</time>
      </trkpt>
      <trkpt lat="47.99425" lon="-4.47397">
        <ele>42.799999237061</ele>
        <time>2013-08-13T13:57:18.000Z</time>
      </trkpt>
      <trkpt lat="47.99418" lon="-4.474">
        <ele>42.400001525879</ele>
        <time>2013-08-13T13:57:24.000Z</time>
      </trkpt>
      <trkpt lat="47.99411" lon="-4.47402">
        <ele>42.799999237061</ele>
        <time>2013-08-13T13:57:30.000Z</time>
      </trkpt>
      <trkpt lat="47.99403" lon="-4.47404">
        <ele>42.400001525879</ele>
        <time>2013-08-13T13:57:37.000Z</time>
      </trkpt>
      <trkpt lat="47.99402" lon="-4.47403">
        <ele>41.799999237061</ele>
        <time>2013-08-13T13:57:39.000Z</time>
      </trkpt>
      <trkpt lat="47.99395" lon="-4.47401">
        <ele>40.400001525879</ele>
        <time>2013-08-13T13:57:48.000Z</time>
      </trkpt>
      <trkpt lat="47.99391" lon="-4.474">
        <ele>39.400001525879</ele>
        <time>2013-08-13T13:57:56.000Z</time>
      </trkpt>
      <trkpt lat="47.99385" lon="-4.47399">
        <ele>39</ele>
        <time>2013-08-13T13:58:05.000Z</time>
      </trkpt>
      <trkpt lat="47.99384" lon="-4.47399">
        <ele>39</ele>
        <time>2013-08-13T13:58:11.000Z</time>
      </trkpt>
      <trkpt lat="47.99382" lon="-4.47395">
        <ele>38</ele>
        <time>2013-08-13T13:58:20.000Z</time>
      </trkpt>
      <trkpt lat="47.99373" lon="-4.47392">
        <ele>37</ele>
        <time>2013-08-13T13:58:28.000Z</time>
      </trkpt>
      <trkpt lat="47.99365" lon="-4.47388">
        <ele>35.599998474121</ele>
        <time>2013-08-13T13:58:36.000Z</time>
      </trkpt>
      <trkpt lat="47.9936" lon="-4.47383">
        <ele>34.599998474121</ele>
        <time>2013-08-13T13:58:43.000Z</time>
      </trkpt>
      <trkpt lat="47.99356" lon="-4.47375">
        <ele>34.599998474121</ele>
        <time>2013-08-13T13:58:49.000Z</time>
      </trkpt>
      <trkpt lat="47.99357" lon="-4.47367">
        <ele>34.599998474121</ele>
        <time>2013-08-13T13:58:55.000Z</time>
      </trkpt>
      <trkpt lat="47.99357" lon="-4.47363">
        <ele>34.599998474121</ele>
        <time>2013-08-13T13:58:57.000Z</time>
      </trkpt>
      <trkpt lat="47.99358" lon="-4.47356">
        <ele>32.200000762939</ele>
        <time>2013-08-13T13:59:04.000Z</time>
      </trkpt>
      <trkpt lat="47.99357" lon="-4.47355">
        <ele>31.799999237061</ele>
        <time>2013-08-13T13:59:09.000Z</time>
      </trkpt>
      <trkpt lat="47.99356" lon="-4.47355">
        <ele>35.200000762939</ele>
        <time>2013-08-13T13:59:18.000Z</time>
      </trkpt>
      <trkpt lat="47.99355" lon="-4.47357">
        <ele>34.200000762939</ele>
        <time>2013-08-13T13:59:24.000Z</time>
      </trkpt>
      <trkpt lat="47.99353" lon="-4.47358">
        <ele>35.599998474121</ele>
        <time>2013-08-13T13:59:36.000Z</time>
      </trkpt>
      <trkpt lat="47.99354" lon="-4.4736">
        <ele>40.400001525879</ele>
        <time>2013-08-13T13:59:52.000Z</time>
      </trkpt>
      <trkpt lat="47.99356" lon="-4.47362">
        <ele>40.400001525879</ele>
        <time>2013-08-13T14:00:00.000Z</time>
      </trkpt>
      <trkpt lat="47.99355" lon="-4.47369">
        <ele>38</ele>
        <time>2013-08-13T14:00:06.000Z</time>
      </trkpt>
      <trkpt lat="47.99354" lon="-4.47375">
        <ele>35.200000762939</ele>
        <time>2013-08-13T14:00:14.000Z</time>
      </trkpt>
      <trkpt lat="47.99353" lon="-4.47377">
        <ele>34.599998474121</ele>
        <time>2013-08-13T14:00:21.000Z</time>
      </trkpt>
      <trkpt lat="47.99351" lon="-4.4738">
        <ele>34.599998474121</ele>
        <time>2013-08-13T14:00:27.000Z</time>
      </trkpt>
      <trkpt lat="47.99348" lon="-4.47381">
        <ele>34.599998474121</ele>
        <time>2013-08-13T14:00:33.000Z</time>
      </trkpt>
      <trkpt lat="47.99341" lon="-4.47379">
        <ele>34.200000762939</ele>
        <time>2013-08-13T14:00:41.000Z</time>
      </trkpt>
      <trkpt lat="47.99335" lon="-4.47377">
        <ele>32.799999237061</ele>
        <time>2013-08-13T14:00:47.000Z</time>
      </trkpt>
      <trkpt lat="47.99331" lon="-4.47375">
        <ele>31.200000762939</ele>
        <time>2013-08-13T14:00:51.000Z</time>
      </trkpt>
      <trkpt lat="47.99323" lon="-4.47372">
        <ele>29.799999237061</ele>
        <time>2013-08-13T14:00:58.000Z</time>
      </trkpt>
      <trkpt lat="47.99322" lon="-4.47371">
        <ele>29.799999237061</ele>
        <time>2013-08-13T14:00:59.000Z</time>
      </trkpt>
      <trkpt lat="47.99311" lon="-4.47367">
        <ele>29.39999961853</ele>
        <time>2013-08-13T14:01:09.000Z</time>
      </trkpt>
      <trkpt lat="47.99309" lon="-4.47366">
        <ele>29.39999961853</ele>
        <time>2013-08-13T14:01:10.000Z</time>
      </trkpt>
      <trkpt lat="47.99301" lon="-4.47362">
        <ele>29.39999961853</ele>
        <time>2013-08-13T14:01:18.000Z</time>
      </trkpt>
      <trkpt lat="47.99299" lon="-4.47361">
        <ele>29.799999237061</ele>
        <time>2013-08-13T14:01:19.000Z</time>
      </trkpt>
      <trkpt lat="47.99295" lon="-4.47359">
        <ele>29.799999237061</ele>
        <time>2013-08-13T14:01:24.000Z</time>
      </trkpt>
      <trkpt lat="47.99294" lon="-4.47359">
        <ele>30.39999961853</ele>
        <time>2013-08-13T14:01:25.000Z</time>
      </trkpt>
      <trkpt lat="47.9929" lon="-4.47357">
        <ele>31.200000762939</ele>
        <time>2013-08-13T14:01:30.000Z</time>
      </trkpt>
      <trkpt lat="47.99284" lon="-4.47354">
        <ele>32.200000762939</ele>
        <time>2013-08-13T14:01:36.000Z</time>
      </trkpt>
      <trkpt lat="47.99283" lon="-4.47354">
        <ele>32.200000762939</ele>
        <time>2013-08-13T14:01:37.000Z</time>
      </trkpt>
      <trkpt lat="47.99278" lon="-4.47353">
        <ele>32.799999237061</ele>
        <time>2013-08-13T14:01:42.000Z</time>
      </trkpt>
      <trkpt lat="47.99275" lon="-4.47351">
        <ele>33.599998474121</ele>
        <time>2013-08-13T14:01:48.000Z</time>
      </trkpt>
      <trkpt lat="47.99272" lon="-4.47349">
        <ele>32.799999237061</ele>
        <time>2013-08-13T14:01:54.000Z</time>
      </trkpt>
      <trkpt lat="47.99268" lon="-4.47346">
        <ele>32.200000762939</ele>
        <time>2013-08-13T14:01:59.000Z</time>
      </trkpt>
      <trkpt lat="47.99268" lon="-4.47343">
        <ele>31.799999237061</ele>
        <time>2013-08-13T14:02:03.000Z</time>
      </trkpt>
      <trkpt lat="47.99268" lon="-4.47337">
        <ele>30.799999237061</ele>
        <time>2013-08-13T14:02:08.000Z</time>
      </trkpt>
      <trkpt lat="47.99265" lon="-4.47331">
        <ele>33.200000762939</ele>
        <time>2013-08-13T14:02:14.000Z</time>
      </trkpt>
      <trkpt lat="47.99257" lon="-4.47337">
        <ele>43.200000762939</ele>
        <time>2013-08-13T14:02:25.000Z</time>
      </trkpt>
      <trkpt lat="47.99262" lon="-4.4733">
        <ele>37.599998474121</ele>
        <time>2013-08-13T14:02:39.000Z</time>
      </trkpt>
      <trkpt lat="47.99259" lon="-4.4733">
        <ele>36</ele>
        <time>2013-08-13T14:02:46.000Z</time>
      </trkpt>
      <trkpt lat="47.99255" lon="-4.4733">
        <ele>32.799999237061</ele>
        <time>2013-08-13T14:02:54.000Z</time>
      </trkpt>
      <trkpt lat="47.9925" lon="-4.47332">
        <ele>33.200000762939</ele>
        <time>2013-08-13T14:02:58.000Z</time>
      </trkpt>
      <trkpt lat="47.99248" lon="-4.47332">
        <ele>32.799999237061</ele>
        <time>2013-08-13T14:03:00.000Z</time>
      </trkpt>
      <trkpt lat="47.99239" lon="-4.47336">
        <ele>31.200000762939</ele>
        <time>2013-08-13T14:03:10.000Z</time>
      </trkpt>
      <trkpt lat="47.99237" lon="-4.47338">
        <ele>33.200000762939</ele>
        <time>2013-08-13T14:03:17.000Z</time>
      </trkpt>
      <trkpt lat="47.99234" lon="-4.47338">
        <ele>30.799999237061</ele>
        <time>2013-08-13T14:03:22.000Z</time>
      </trkpt>
      <trkpt lat="47.99232" lon="-4.47338">
        <ele>26</ele>
        <time>2013-08-13T14:03:27.000Z</time>
      </trkpt>
      <trkpt lat="47.9923" lon="-4.47342">
        <ele>24.60000038147</ele>
        <time>2013-08-13T14:03:30.000Z</time>
      </trkpt>
      <trkpt lat="47.99226" lon="-4.47348">
        <ele>25</ele>
        <time>2013-08-13T14:03:37.000Z</time>
      </trkpt>
      <trkpt lat="47.99221" lon="-4.47347">
        <ele>27.39999961853</ele>
        <time>2013-08-13T14:03:45.000Z</time>
      </trkpt>
      <trkpt lat="47.99222" lon="-4.47348">
        <ele>30.799999237061</ele>
        <time>2013-08-13T14:03:54.000Z</time>
      </trkpt>
      <trkpt lat="47.99226" lon="-4.47343">
        <ele>31.799999237061</ele>
        <time>2013-08-13T14:04:04.000Z</time>
      </trkpt>
      <trkpt lat="47.9923" lon="-4.47339">
        <ele>29.39999961853</ele>
        <time>2013-08-13T14:04:09.000Z</time>
      </trkpt>
      <trkpt lat="47.99233" lon="-4.47339">
        <ele>28.39999961853</ele>
        <time>2013-08-13T14:04:12.000Z</time>
      </trkpt>
      <trkpt lat="47.99235" lon="-4.4734">
        <ele>28</ele>
        <time>2013-08-13T14:04:14.000Z</time>
      </trkpt>
      <trkpt lat="47.99238" lon="-4.47341">
        <ele>28.799999237061</ele>
        <time>2013-08-13T14:04:19.000Z</time>
      </trkpt>
      <trkpt lat="47.99242" lon="-4.47338">
        <ele>30.39999961853</ele>
        <time>2013-08-13T14:04:25.000Z</time>
      </trkpt>
      <trkpt lat="47.99245" lon="-4.47335">
        <ele>35.599998474121</ele>
        <time>2013-08-13T14:04:31.000Z</time>
      </trkpt>
      <trkpt lat="47.99252" lon="-4.47334">
        <ele>34.599998474121</ele>
        <time>2013-08-13T14:04:37.000Z</time>
      </trkpt>
      <trkpt lat="47.99256" lon="-4.47332">
        <ele>32.799999237061</ele>
        <time>2013-08-13T14:04:42.000Z</time>
      </trkpt>
      <trkpt lat="47.99257" lon="-4.47322">
        <ele>30.39999961853</ele>
        <time>2013-08-13T14:04:48.000Z</time>
      </trkpt>
      <trkpt lat="47.99258" lon="-4.47313">
        <ele>31.799999237061</ele>
        <time>2013-08-13T14:04:52.000Z</time>
      </trkpt>
      <trkpt lat="47.99259" lon="-4.47308">
        <ele>31.200000762939</ele>
        <time>2013-08-13T14:04:56.000Z</time>
      </trkpt>
      <trkpt lat="47.99259" lon="-4.47301">
        <ele>29.39999961853</ele>
        <time>2013-08-13T14:05:02.000Z</time>
      </trkpt>
      <trkpt lat="47.99259" lon="-4.47293">
        <ele>29.799999237061</ele>
        <time>2013-08-13T14:05:06.000Z</time>
      </trkpt>
      <trkpt lat="47.99257" lon="-4.47288">
        <ele>28.39999961853</ele>
        <time>2013-08-13T14:05:10.000Z</time>
      </trkpt>
      <trkpt lat="47.99256" lon="-4.47284">
        <ele>28</ele>
        <time>2013-08-13T14:05:14.000Z</time>
      </trkpt>
      <trkpt lat="47.99254" lon="-4.47274">
        <ele>27.39999961853</ele>
        <time>2013-08-13T14:05:21.000Z</time>
      </trkpt>
      <trkpt lat="47.99252" lon="-4.47271">
        <ele>27.39999961853</ele>
        <time>2013-08-13T14:05:24.000Z</time>
      </trkpt>
      <trkpt lat="47.99245" lon="-4.47269">
        <ele>28</ele>
        <time>2013-08-13T14:05:29.000Z</time>
      </trkpt>
      <trkpt lat="47.99241" lon="-4.47268">
        <ele>27.39999961853</ele>
        <time>2013-08-13T14:05:32.000Z</time>
      </trkpt>
      <trkpt lat="47.99237" lon="-4.47265">
        <ele>29.39999961853</ele>
        <time>2013-08-13T14:05:36.000Z</time>
      </trkpt>
      <trkpt lat="47.99229" lon="-4.47266">
        <ele>31.799999237061</ele>
        <time>2013-08-13T14:05:42.000Z</time>
      </trkpt>
      <trkpt lat="47.99227" lon="-4.47266">
        <ele>31.799999237061</ele>
        <time>2013-08-13T14:05:43.000Z</time>
      </trkpt>
      <trkpt lat="47.99222" lon="-4.47266">
        <ele>34.200000762939</ele>
        <time>2013-08-13T14:05:47.000Z</time>
      </trkpt>
      <trkpt lat="47.99211" lon="-4.47261">
        <ele>29.39999961853</ele>
        <time>2013-08-13T14:05:58.000Z</time>
      </trkpt>
      <trkpt lat="47.99203" lon="-4.47257">
        <ele>29.39999961853</ele>
        <time>2013-08-13T14:06:07.000Z</time>
      </trkpt>
      <trkpt lat="47.992" lon="-4.47255">
        <ele>29.39999961853</ele>
        <time>2013-08-13T14:06:15.000Z</time>
      </trkpt>
      <trkpt lat="47.99197" lon="-4.47252">
        <ele>30.39999961853</ele>
        <time>2013-08-13T14:06:23.000Z</time>
      </trkpt>
      <trkpt lat="47.99192" lon="-4.47247">
        <ele>31.200000762939</ele>
        <time>2013-08-13T14:06:30.000Z</time>
      </trkpt>
      <trkpt lat="47.99191" lon="-4.47246">
        <ele>31.200000762939</ele>
        <time>2013-08-13T14:06:38.000Z</time>
      </trkpt>
      <trkpt lat="47.99189" lon="-4.47241">
        <ele>31.200000762939</ele>
        <time>2013-08-13T14:06:45.000Z</time>
      </trkpt>
      <trkpt lat="47.99185" lon="-4.4723">
        <ele>31.799999237061</ele>
        <time>2013-08-13T14:06:53.000Z</time>
      </trkpt>
      <trkpt lat="47.99184" lon="-4.47225">
        <ele>31.799999237061</ele>
        <time>2013-08-13T14:06:57.000Z</time>
      </trkpt>
      <trkpt lat="47.99181" lon="-4.47209">
        <ele>32.799999237061</ele>
        <time>2013-08-13T14:07:08.000Z</time>
      </trkpt>
      <trkpt lat="47.9918" lon="-4.47196">
        <ele>33.200000762939</ele>
        <time>2013-08-13T14:07:17.000Z</time>
      </trkpt>
      <trkpt lat="47.99179" lon="-4.47186">
        <ele>33.599998474121</ele>
        <time>2013-08-13T14:07:24.000Z</time>
      </trkpt>
      <trkpt lat="47.99176" lon="-4.4717">
        <ele>34.200000762939</ele>
        <time>2013-08-13T14:07:34.000Z</time>
      </trkpt>
      <trkpt lat="47.99174" lon="-4.47152">
        <ele>34.200000762939</ele>
        <time>2013-08-13T14:07:45.000Z</time>
      </trkpt>
      <trkpt lat="47.99172" lon="-4.47134">
        <ele>34.599998474121</ele>
        <time>2013-08-13T14:07:55.000Z</time>
      </trkpt>
      <trkpt lat="47.99169" lon="-4.47118">
        <ele>34.599998474121</ele>
        <time>2013-08-13T14:08:04.000Z</time>
      </trkpt>
      <trkpt lat="47.99161" lon="-4.47101">
        <ele>34.200000762939</ele>
        <time>2013-08-13T14:08:15.000Z</time>
      </trkpt>
      <trkpt lat="47.99154" lon="-4.47088">
        <ele>34.200000762939</ele>
        <time>2013-08-13T14:08:25.000Z</time>
      </trkpt>
      <trkpt lat="47.99151" lon="-4.47076">
        <ele>34.599998474121</ele>
        <time>2013-08-13T14:08:32.000Z</time>
      </trkpt>
      <trkpt lat="47.99149" lon="-4.47065">
        <ele>35.599998474121</ele>
        <time>2013-08-13T14:08:38.000Z</time>
      </trkpt>
      <trkpt lat="47.99148" lon="-4.47059">
        <ele>37</ele>
        <time>2013-08-13T14:08:42.000Z</time>
      </trkpt>
      <trkpt lat="47.99148" lon="-4.47053">
        <ele>38</ele>
        <time>2013-08-13T14:08:46.000Z</time>
      </trkpt>
      <trkpt lat="47.99148" lon="-4.47045">
        <ele>39.400001525879</ele>
        <time>2013-08-13T14:08:52.000Z</time>
      </trkpt>
      <trkpt lat="47.99146" lon="-4.47036">
        <ele>39.400001525879</ele>
        <time>2013-08-13T14:08:58.000Z</time>
      </trkpt>
      <trkpt lat="47.99146" lon="-4.47027">
        <ele>38.400001525879</ele>
        <time>2013-08-13T14:09:03.000Z</time>
      </trkpt>
      <trkpt lat="47.99145" lon="-4.47017">
        <ele>38</ele>
        <time>2013-08-13T14:09:10.000Z</time>
      </trkpt>
      <trkpt lat="47.99145" lon="-4.47008">
        <ele>37.599998474121</ele>
        <time>2013-08-13T14:09:15.000Z</time>
      </trkpt>
      <trkpt lat="47.99147" lon="-4.47001">
        <ele>37.599998474121</ele>
        <time>2013-08-13T14:09:19.000Z</time>
      </trkpt>
      <trkpt lat="47.99148" lon="-4.46991">
        <ele>38</ele>
        <time>2013-08-13T14:09:25.000Z</time>
      </trkpt>
      <trkpt lat="47.99147" lon="-4.46978">
        <ele>39</ele>
        <time>2013-08-13T14:09:32.000Z</time>
      </trkpt>
      <trkpt lat="47.99146" lon="-4.46973">
        <ele>39.400001525879</ele>
        <time>2013-08-13T14:09:35.000Z</time>
      </trkpt>
      <trkpt lat="47.99144" lon="-4.46961">
        <ele>40.400001525879</ele>
        <time>2013-08-13T14:09:42.000Z</time>
      </trkpt>
      <trkpt lat="47.99143" lon="-4.46953">
        <ele>41.799999237061</ele>
        <time>2013-08-13T14:09:47.000Z</time>
      </trkpt>
      <trkpt lat="47.99143" lon="-4.46941">
        <ele>42.799999237061</ele>
        <time>2013-08-13T14:09:54.000Z</time>
      </trkpt>
      <trkpt lat="47.99142" lon="-4.46925">
        <ele>43.200000762939</ele>
        <time>2013-08-13T14:10:03.000Z</time>
      </trkpt>
      <trkpt lat="47.99142" lon="-4.46913">
        <ele>43.799999237061</ele>
        <time>2013-08-13T14:10:10.000Z</time>
      </trkpt>
      <trkpt lat="47.99141" lon="-4.46894">
        <ele>42.400001525879</ele>
        <time>2013-08-13T14:10:21.000Z</time>
      </trkpt>
      <trkpt lat="47.9914" lon="-4.46878">
        <ele>41.400001525879</ele>
        <time>2013-08-13T14:10:30.000Z</time>
      </trkpt>
      <trkpt lat="47.99142" lon="-4.46863">
        <ele>41.400001525879</ele>
        <time>2013-08-13T14:10:38.000Z</time>
      </trkpt>
      <trkpt lat="47.99144" lon="-4.46853">
        <ele>41.400001525879</ele>
        <time>2013-08-13T14:10:43.000Z</time>
      </trkpt>
      <trkpt lat="47.99144" lon="-4.46847">
        <ele>42.400001525879</ele>
        <time>2013-08-13T14:10:46.000Z</time>
      </trkpt>
      <trkpt lat="47.99145" lon="-4.46837">
        <ele>42.799999237061</ele>
        <time>2013-08-13T14:10:52.000Z</time>
      </trkpt>
      <trkpt lat="47.99145" lon="-4.46836">
        <ele>43.200000762939</ele>
        <time>2013-08-13T14:10:53.000Z</time>
      </trkpt>
      <trkpt lat="47.99147" lon="-4.46826">
        <ele>44.799999237061</ele>
        <time>2013-08-13T14:10:59.000Z</time>
      </trkpt>
      <trkpt lat="47.99149" lon="-4.46815">
        <ele>45.200000762939</ele>
        <time>2013-08-13T14:11:05.000Z</time>
      </trkpt>
      <trkpt lat="47.9915" lon="-4.46807">
        <ele>46.200000762939</ele>
        <time>2013-08-13T14:11:10.000Z</time>
      </trkpt>
      <trkpt lat="47.99151" lon="-4.468">
        <ele>46.599998474121</ele>
        <time>2013-08-13T14:11:14.000Z</time>
      </trkpt>
      <trkpt lat="47.99153" lon="-4.46792">
        <ele>47.599998474121</ele>
        <time>2013-08-13T14:11:19.000Z</time>
      </trkpt>
      <trkpt lat="47.99154" lon="-4.46787">
        <ele>47.599998474121</ele>
        <time>2013-08-13T14:11:22.000Z</time>
      </trkpt>
      <trkpt lat="47.99156" lon="-4.46779">
        <ele>47.200000762939</ele>
        <time>2013-08-13T14:11:26.000Z</time>
      </trkpt>
      <trkpt lat="47.99159" lon="-4.46768">
        <ele>47.599998474121</ele>
        <time>2013-08-13T14:11:33.000Z</time>
      </trkpt>
      <trkpt lat="47.99163" lon="-4.46756">
        <ele>45.200000762939</ele>
        <time>2013-08-13T14:11:42.000Z</time>
      </trkpt>
      <trkpt lat="47.99166" lon="-4.46745">
        <ele>44.799999237061</ele>
        <time>2013-08-13T14:11:50.000Z</time>
      </trkpt>
      <trkpt lat="47.99171" lon="-4.46733">
        <ele>45.200000762939</ele>
        <time>2013-08-13T14:11:58.000Z</time>
      </trkpt>
      <trkpt lat="47.99174" lon="-4.4672">
        <ele>44.799999237061</ele>
        <time>2013-08-13T14:12:07.000Z</time>
      </trkpt>
      <trkpt lat="47.99174" lon="-4.46712">
        <ele>45.599998474121</ele>
        <time>2013-08-13T14:12:12.000Z</time>
      </trkpt>
      <trkpt lat="47.99173" lon="-4.46706">
        <ele>47.200000762939</ele>
        <time>2013-08-13T14:12:16.000Z</time>
      </trkpt>
      <trkpt lat="47.99174" lon="-4.46701">
        <ele>49.599998474121</ele>
        <time>2013-08-13T14:12:23.000Z</time>
      </trkpt>
      <trkpt lat="47.99175" lon="-4.46699">
        <ele>49</ele>
        <time>2013-08-13T14:12:31.000Z</time>
      </trkpt>
      <trkpt lat="47.99174" lon="-4.467">
        <ele>50</ele>
        <time>2013-08-13T14:12:46.000Z</time>
      </trkpt>
      <trkpt lat="47.99173" lon="-4.46701">
        <ele>51</ele>
        <time>2013-08-13T14:12:55.000Z</time>
      </trkpt>
      <trkpt lat="47.99172" lon="-4.46702">
        <ele>52</ele>
        <time>2013-08-13T14:13:06.000Z</time>
      </trkpt>
      <trkpt lat="47.9917" lon="-4.467">
        <ele>52</ele>
        <time>2013-08-13T14:13:16.000Z</time>
      </trkpt>
      <trkpt lat="47.9917" lon="-4.46693">
        <ele>52.400001525879</ele>
        <time>2013-08-13T14:13:22.000Z</time>
      </trkpt>
      <trkpt lat="47.99172" lon="-4.46682">
        <ele>53</ele>
        <time>2013-08-13T14:13:29.000Z</time>
      </trkpt>
      <trkpt lat="47.99172" lon="-4.46674">
        <ele>53</ele>
        <time>2013-08-13T14:13:34.000Z</time>
      </trkpt>
      <trkpt lat="47.99174" lon="-4.46662">
        <ele>53.400001525879</ele>
        <time>2013-08-13T14:13:41.000Z</time>
      </trkpt>
      <trkpt lat="47.99174" lon="-4.4666">
        <ele>53</ele>
        <time>2013-08-13T14:13:43.000Z</time>
      </trkpt>
      <trkpt lat="47.99175" lon="-4.46648">
        <ele>53</ele>
        <time>2013-08-13T14:13:51.000Z</time>
      </trkpt>
      <trkpt lat="47.99175" lon="-4.46646">
        <ele>53</ele>
        <time>2013-08-13T14:13:52.000Z</time>
      </trkpt>
      <trkpt lat="47.99176" lon="-4.4663">
        <ele>52.400001525879</ele>
        <time>2013-08-13T14:14:02.000Z</time>
      </trkpt>
      <trkpt lat="47.99177" lon="-4.46625">
        <ele>52</ele>
        <time>2013-08-13T14:14:05.000Z</time>
      </trkpt>
      <trkpt lat="47.99177" lon="-4.46615">
        <ele>51.400001525879</ele>
        <time>2013-08-13T14:14:11.000Z</time>
      </trkpt>
      <trkpt lat="47.99176" lon="-4.46603">
        <ele>51</ele>
        <time>2013-08-13T14:14:18.000Z</time>
      </trkpt>
      <trkpt lat="47.99176" lon="-4.46601">
        <ele>51</ele>
        <time>2013-08-13T14:14:19.000Z</time>
      </trkpt>
      <trkpt lat="47.99176" lon="-4.46588">
        <ele>51.400001525879</ele>
        <time>2013-08-13T14:14:26.000Z</time>
      </trkpt>
      <trkpt lat="47.99175" lon="-4.46587">
        <ele>51.400001525879</ele>
        <time>2013-08-13T14:14:27.000Z</time>
      </trkpt>
      <trkpt lat="47.99175" lon="-4.46578">
        <ele>50.599998474121</ele>
        <time>2013-08-13T14:14:32.000Z</time>
      </trkpt>
      <trkpt lat="47.99174" lon="-4.46568">
        <ele>50</ele>
        <time>2013-08-13T14:14:39.000Z</time>
      </trkpt>
      <trkpt lat="47.99173" lon="-4.46562">
        <ele>50.599998474121</ele>
        <time>2013-08-13T14:14:43.000Z</time>
      </trkpt>
      <trkpt lat="47.99171" lon="-4.46559">
        <ele>50.599998474121</ele>
        <time>2013-08-13T14:14:46.000Z</time>
      </trkpt>
      <trkpt lat="47.99165" lon="-4.46557">
        <ele>50</ele>
        <time>2013-08-13T14:14:51.000Z</time>
      </trkpt>
      <trkpt lat="47.99159" lon="-4.46558">
        <ele>50.599998474121</ele>
        <time>2013-08-13T14:14:56.000Z</time>
      </trkpt>
      <trkpt lat="47.99158" lon="-4.46558">
        <ele>50.599998474121</ele>
        <time>2013-08-13T14:15:01.000Z</time>
      </trkpt>
      <trkpt lat="47.99153" lon="-4.46558">
        <ele>50.599998474121</ele>
        <time>2013-08-13T14:15:06.000Z</time>
      </trkpt>
      <trkpt lat="47.99152" lon="-4.46557">
        <ele>50.599998474121</ele>
        <time>2013-08-13T14:15:07.000Z</time>
      </trkpt>
      <trkpt lat="47.99146" lon="-4.46557">
        <ele>50.599998474121</ele>
        <time>2013-08-13T14:15:12.000Z</time>
      </trkpt>
      <trkpt lat="47.99143" lon="-4.46555">
        <ele>50.599998474121</ele>
        <time>2013-08-13T14:15:15.000Z</time>
      </trkpt>
      <trkpt lat="47.99139" lon="-4.46555">
        <ele>49.599998474121</ele>
        <time>2013-08-13T14:15:19.000Z</time>
      </trkpt>
      <trkpt lat="47.99132" lon="-4.46554">
        <ele>49.599998474121</ele>
        <time>2013-08-13T14:15:25.000Z</time>
      </trkpt>
      <trkpt lat="47.99124" lon="-4.46554">
        <ele>49.599998474121</ele>
        <time>2013-08-13T14:15:32.000Z</time>
      </trkpt>
      <trkpt lat="47.99121" lon="-4.46555">
        <ele>49.599998474121</ele>
        <time>2013-08-13T14:15:34.000Z</time>
      </trkpt>
      <trkpt lat="47.99116" lon="-4.46556">
        <ele>49</ele>
        <time>2013-08-13T14:15:39.000Z</time>
      </trkpt>
      <trkpt lat="47.99115" lon="-4.46556">
        <ele>48.599998474121</ele>
        <time>2013-08-13T14:15:40.000Z</time>
      </trkpt>
      <trkpt lat="47.99107" lon="-4.46553">
        <ele>48.200000762939</ele>
        <time>2013-08-13T14:15:47.000Z</time>
      </trkpt>
      <trkpt lat="47.99105" lon="-4.46553">
        <ele>47.599998474121</ele>
        <time>2013-08-13T14:15:50.000Z</time>
      </trkpt>
      <trkpt lat="47.99098" lon="-4.46551">
        <ele>46.599998474121</ele>
        <time>2013-08-13T14:15:57.000Z</time>
      </trkpt>
      <trkpt lat="47.99091" lon="-4.46551">
        <ele>45.599998474121</ele>
        <time>2013-08-13T14:16:04.000Z</time>
      </trkpt>
      <trkpt lat="47.9909" lon="-4.46551">
        <ele>45.200000762939</ele>
        <time>2013-08-13T14:16:05.000Z</time>
      </trkpt>
      <trkpt lat="47.99085" lon="-4.4655">
        <ele>44.799999237061</ele>
        <time>2013-08-13T14:16:09.000Z</time>
      </trkpt>
      <trkpt lat="47.99081" lon="-4.4655">
        <ele>44.200000762939</ele>
        <time>2013-08-13T14:16:13.000Z</time>
      </trkpt>
      <trkpt lat="47.99076" lon="-4.46547">
        <ele>44.799999237061</ele>
        <time>2013-08-13T14:16:17.000Z</time>
      </trkpt>
      <trkpt lat="47.99064" lon="-4.46548">
        <ele>43.799999237061</ele>
        <time>2013-08-13T14:16:28.000Z</time>
      </trkpt>
      <trkpt lat="47.9906" lon="-4.46548">
        <ele>43.200000762939</ele>
        <time>2013-08-13T14:16:32.000Z</time>
      </trkpt>
      <trkpt lat="47.99056" lon="-4.4654">
        <ele>41.400001525879</ele>
        <time>2013-08-13T14:16:38.000Z</time>
      </trkpt>
      <trkpt lat="47.99052" lon="-4.46532">
        <ele>40.400001525879</ele>
        <time>2013-08-13T14:16:44.000Z</time>
      </trkpt>
      <trkpt lat="47.99051" lon="-4.46531">
        <ele>40.400001525879</ele>
        <time>2013-08-13T14:16:45.000Z</time>
      </trkpt>
      <trkpt lat="47.99049" lon="-4.46525">
        <ele>40</ele>
        <time>2013-08-13T14:16:48.000Z</time>
      </trkpt>
      <trkpt lat="47.99049" lon="-4.46518">
        <ele>40.799999237061</ele>
        <time>2013-08-13T14:16:52.000Z</time>
      </trkpt>
      <trkpt lat="47.99051" lon="-4.46501">
        <ele>40.799999237061</ele>
        <time>2013-08-13T14:17:02.000Z</time>
      </trkpt>
      <trkpt lat="47.99053" lon="-4.46489">
        <ele>40.799999237061</ele>
        <time>2013-08-13T14:17:09.000Z</time>
      </trkpt>
      <trkpt lat="47.99055" lon="-4.46479">
        <ele>40.799999237061</ele>
        <time>2013-08-13T14:17:15.000Z</time>
      </trkpt>
      <trkpt lat="47.99056" lon="-4.46463">
        <ele>39.400001525879</ele>
        <time>2013-08-13T14:17:24.000Z</time>
      </trkpt>
      <trkpt lat="47.99059" lon="-4.46449">
        <ele>40</ele>
        <time>2013-08-13T14:17:32.000Z</time>
      </trkpt>
      <trkpt lat="47.99061" lon="-4.46437">
        <ele>39.400001525879</ele>
        <time>2013-08-13T14:17:39.000Z</time>
      </trkpt>
      <trkpt lat="47.99063" lon="-4.46423">
        <ele>40</ele>
        <time>2013-08-13T14:17:47.000Z</time>
      </trkpt>
      <trkpt lat="47.99065" lon="-4.46409">
        <ele>40.400001525879</ele>
        <time>2013-08-13T14:17:55.000Z</time>
      </trkpt>
      <trkpt lat="47.99066" lon="-4.46397">
        <ele>40.799999237061</ele>
        <time>2013-08-13T14:18:02.000Z</time>
      </trkpt>
      <trkpt lat="47.99068" lon="-4.46385">
        <ele>40.799999237061</ele>
        <time>2013-08-13T14:18:09.000Z</time>
      </trkpt>
      <trkpt lat="47.99069" lon="-4.46369">
        <ele>40.400001525879</ele>
        <time>2013-08-13T14:18:18.000Z</time>
      </trkpt>
      <trkpt lat="47.9907" lon="-4.46359">
        <ele>40.400001525879</ele>
        <time>2013-08-13T14:18:24.000Z</time>
      </trkpt>
      <trkpt lat="47.99073" lon="-4.46346">
        <ele>40</ele>
        <time>2013-08-13T14:18:32.000Z</time>
      </trkpt>
      <trkpt lat="47.99074" lon="-4.4634">
        <ele>39.400001525879</ele>
        <time>2013-08-13T14:18:35.000Z</time>
      </trkpt>
      <trkpt lat="47.99075" lon="-4.4633">
        <ele>39</ele>
        <time>2013-08-13T14:18:43.000Z</time>
      </trkpt>
      <trkpt lat="47.99074" lon="-4.46323">
        <ele>38.400001525879</ele>
        <time>2013-08-13T14:18:48.000Z</time>
      </trkpt>
      <trkpt lat="47.99075" lon="-4.46315">
        <ele>35.200000762939</ele>
        <time>2013-08-13T14:18:55.000Z</time>
      </trkpt>
      <trkpt lat="47.99075" lon="-4.46304">
        <ele>33.200000762939</ele>
        <time>2013-08-13T14:19:03.000Z</time>
      </trkpt>
      <trkpt lat="47.99075" lon="-4.46296">
        <ele>32.799999237061</ele>
        <time>2013-08-13T14:19:09.000Z</time>
      </trkpt>
      <trkpt lat="47.99076" lon="-4.46288">
        <ele>32.799999237061</ele>
        <time>2013-08-13T14:19:15.000Z</time>
      </trkpt>
      <trkpt lat="47.99077" lon="-4.46281">
        <ele>32.799999237061</ele>
        <time>2013-08-13T14:19:20.000Z</time>
      </trkpt>
      <trkpt lat="47.99077" lon="-4.46276">
        <ele>32.799999237061</ele>
        <time>2013-08-13T14:19:25.000Z</time>
      </trkpt>
      <trkpt lat="47.99078" lon="-4.46269">
        <ele>31.799999237061</ele>
        <time>2013-08-13T14:19:30.000Z</time>
      </trkpt>
      <trkpt lat="47.99079" lon="-4.46253">
        <ele>30.799999237061</ele>
        <time>2013-08-13T14:19:40.000Z</time>
      </trkpt>
      <trkpt lat="47.9908" lon="-4.46243">
        <ele>29.39999961853</ele>
        <time>2013-08-13T14:19:47.000Z</time>
      </trkpt>
      <trkpt lat="47.99081" lon="-4.46232">
        <ele>28.39999961853</ele>
        <time>2013-08-13T14:19:54.000Z</time>
      </trkpt>
      <trkpt lat="47.99082" lon="-4.46222">
        <ele>27.39999961853</ele>
        <time>2013-08-13T14:20:01.000Z</time>
      </trkpt>
      <trkpt lat="47.99083" lon="-4.46215">
        <ele>27.39999961853</ele>
        <time>2013-08-13T14:20:06.000Z</time>
      </trkpt>
      <trkpt lat="47.99084" lon="-4.46211">
        <ele>27.39999961853</ele>
        <time>2013-08-13T14:20:09.000Z</time>
      </trkpt>
      <trkpt lat="47.99085" lon="-4.46203">
        <ele>27.39999961853</ele>
        <time>2013-08-13T14:20:15.000Z</time>
      </trkpt>
      <trkpt lat="47.99085" lon="-4.46196">
        <ele>28.39999961853</ele>
        <time>2013-08-13T14:20:22.000Z</time>
      </trkpt>
      <trkpt lat="47.99088" lon="-4.46186">
        <ele>28.39999961853</ele>
        <time>2013-08-13T14:20:28.000Z</time>
      </trkpt>
      <trkpt lat="47.99088" lon="-4.46182">
        <ele>27.39999961853</ele>
        <time>2013-08-13T14:20:32.000Z</time>
      </trkpt>
      <trkpt lat="47.99086" lon="-4.46175">
        <ele>27.39999961853</ele>
        <time>2013-08-13T14:20:38.000Z</time>
      </trkpt>
      <trkpt lat="47.99084" lon="-4.46168">
        <ele>27.39999961853</ele>
        <time>2013-08-13T14:20:43.000Z</time>
      </trkpt>
      <trkpt lat="47.99083" lon="-4.46165">
        <ele>27</ele>
        <time>2013-08-13T14:20:46.000Z</time>
      </trkpt>
      <trkpt lat="47.99076" lon="-4.46159">
        <ele>27.39999961853</ele>
        <time>2013-08-13T14:20:53.000Z</time>
      </trkpt>
      <trkpt lat="47.99069" lon="-4.46153">
        <ele>28.39999961853</ele>
        <time>2013-08-13T14:21:00.000Z</time>
      </trkpt>
      <trkpt lat="47.99062" lon="-4.46146">
        <ele>26.39999961853</ele>
        <time>2013-08-13T14:21:08.000Z</time>
      </trkpt>
      <trkpt lat="47.99055" lon="-4.4614">
        <ele>26.39999961853</ele>
        <time>2013-08-13T14:21:17.000Z</time>
      </trkpt>
      <trkpt lat="47.99049" lon="-4.46134">
        <ele>27</ele>
        <time>2013-08-13T14:21:25.000Z</time>
      </trkpt>
      <trkpt lat="47.99044" lon="-4.46128">
        <ele>27.39999961853</ele>
        <time>2013-08-13T14:21:32.000Z</time>
      </trkpt>
      <trkpt lat="47.99037" lon="-4.4612">
        <ele>27</ele>
        <time>2013-08-13T14:21:40.000Z</time>
      </trkpt>
      <trkpt lat="47.99029" lon="-4.46107">
        <ele>28.799999237061</ele>
        <time>2013-08-13T14:21:51.000Z</time>
      </trkpt>
      <trkpt lat="47.99023" lon="-4.46094">
        <ele>30.799999237061</ele>
        <time>2013-08-13T14:22:00.000Z</time>
      </trkpt>
      <trkpt lat="47.99019" lon="-4.46087">
        <ele>30.39999961853</ele>
        <time>2013-08-13T14:22:06.000Z</time>
      </trkpt>
      <trkpt lat="47.99016" lon="-4.46083">
        <ele>30.39999961853</ele>
        <time>2013-08-13T14:22:14.000Z</time>
      </trkpt>
      <trkpt lat="47.99015" lon="-4.46079">
        <ele>30.799999237061</ele>
        <time>2013-08-13T14:22:21.000Z</time>
      </trkpt>
      <trkpt lat="47.99013" lon="-4.46068">
        <ele>31.200000762939</ele>
        <time>2013-08-13T14:22:28.000Z</time>
      </trkpt>
      <trkpt lat="47.99012" lon="-4.46063">
        <ele>30.799999237061</ele>
        <time>2013-08-13T14:22:34.000Z</time>
      </trkpt>
      <trkpt lat="47.99013" lon="-4.46053">
        <ele>28.39999961853</ele>
        <time>2013-08-13T14:22:41.000Z</time>
      </trkpt>
      <trkpt lat="47.99012" lon="-4.46044">
        <ele>28</ele>
        <time>2013-08-13T14:22:47.000Z</time>
      </trkpt>
      <trkpt lat="47.99008" lon="-4.46034">
        <ele>25.60000038147</ele>
        <time>2013-08-13T14:22:54.000Z</time>
      </trkpt>
      <trkpt lat="47.99007" lon="-4.46032">
        <ele>25</ele>
        <time>2013-08-13T14:22:56.000Z</time>
      </trkpt>
      <trkpt lat="47.99006" lon="-4.46027">
        <ele>25</ele>
        <time>2013-08-13T14:23:04.000Z</time>
      </trkpt>
      <trkpt lat="47.99002" lon="-4.46018">
        <ele>26</ele>
        <time>2013-08-13T14:23:10.000Z</time>
      </trkpt>
      <trkpt lat="47.99" lon="-4.46017">
        <ele>26</ele>
        <time>2013-08-13T14:23:12.000Z</time>
      </trkpt>
      <trkpt lat="47.98997" lon="-4.46011">
        <ele>27</ele>
        <time>2013-08-13T14:23:18.000Z</time>
      </trkpt>
      <trkpt lat="47.98994" lon="-4.46005">
        <ele>27.39999961853</ele>
        <time>2013-08-13T14:23:23.000Z</time>
      </trkpt>
      <trkpt lat="47.98994" lon="-4.46003">
        <ele>27.39999961853</ele>
        <time>2013-08-13T14:23:28.000Z</time>
      </trkpt>
      <trkpt lat="47.98996" lon="-4.46002">
        <ele>28</ele>
        <time>2013-08-13T14:23:30.000Z</time>
      </trkpt>
      <trkpt lat="47.98998" lon="-4.46002">
        <ele>28.39999961853</ele>
        <time>2013-08-13T14:23:38.000Z</time>
      </trkpt>
      <trkpt lat="47.98993" lon="-4.46002">
        <ele>26</ele>
        <time>2013-08-13T14:23:52.000Z</time>
      </trkpt>
      <trkpt lat="47.98992" lon="-4.46001">
        <ele>26.39999961853</ele>
        <time>2013-08-13T14:23:53.000Z</time>
      </trkpt>
      <trkpt lat="47.98986" lon="-4.45999">
        <ele>23.200000762939</ele>
        <time>2013-08-13T14:23:59.000Z</time>
      </trkpt>
      <trkpt lat="47.98981" lon="-4.45995">
        <ele>26.39999961853</ele>
        <time>2013-08-13T14:24:04.000Z</time>
      </trkpt>
      <trkpt lat="47.98977" lon="-4.4599">
        <ele>29.799999237061</ele>
        <time>2013-08-13T14:24:08.000Z</time>
      </trkpt>
      <trkpt lat="47.9897" lon="-4.45989">
        <ele>28.799999237061</ele>
        <time>2013-08-13T14:24:13.000Z</time>
      </trkpt>
      <trkpt lat="47.98965" lon="-4.4599">
        <ele>25.60000038147</ele>
        <time>2013-08-13T14:24:18.000Z</time>
      </trkpt>
      <trkpt lat="47.9896" lon="-4.45988">
        <ele>24.60000038147</ele>
        <time>2013-08-13T14:24:23.000Z</time>
      </trkpt>
      <trkpt lat="47.98954" lon="-4.45986">
        <ele>21.200000762939</ele>
        <time>2013-08-13T14:24:29.000Z</time>
      </trkpt>
      <trkpt lat="47.98949" lon="-4.45984">
        <ele>21.60000038147</ele>
        <time>2013-08-13T14:24:35.000Z</time>
      </trkpt>
      <trkpt lat="47.98945" lon="-4.45981">
        <ele>21.60000038147</ele>
        <time>2013-08-13T14:24:41.000Z</time>
      </trkpt>
      <trkpt lat="47.98941" lon="-4.45979">
        <ele>20.799999237061</ele>
        <time>2013-08-13T14:24:45.000Z</time>
      </trkpt>
      <trkpt lat="47.98938" lon="-4.45978">
        <ele>20.200000762939</ele>
        <time>2013-08-13T14:24:51.000Z</time>
      </trkpt>
      <trkpt lat="47.98931" lon="-4.45975">
        <ele>20.200000762939</ele>
        <time>2013-08-13T14:24:57.000Z</time>
      </trkpt>
      <trkpt lat="47.9893" lon="-4.45974">
        <ele>20.799999237061</ele>
        <time>2013-08-13T14:24:58.000Z</time>
      </trkpt>
      <trkpt lat="47.98924" lon="-4.45974">
        <ele>19.799999237061</ele>
        <time>2013-08-13T14:25:02.000Z</time>
      </trkpt>
      <trkpt lat="47.98917" lon="-4.45972">
        <ele>19.799999237061</ele>
        <time>2013-08-13T14:25:08.000Z</time>
      </trkpt>
      <trkpt lat="47.98913" lon="-4.4597">
        <ele>19.799999237061</ele>
        <time>2013-08-13T14:25:12.000Z</time>
      </trkpt>
      <trkpt lat="47.98909" lon="-4.4597">
        <ele>20.200000762939</ele>
        <time>2013-08-13T14:25:15.000Z</time>
      </trkpt>
      <trkpt lat="47.98904" lon="-4.45969">
        <ele>17.799999237061</ele>
        <time>2013-08-13T14:25:22.000Z</time>
      </trkpt>
      <trkpt lat="47.98905" lon="-4.45963">
        <ele>17.799999237061</ele>
        <time>2013-08-13T14:25:27.000Z</time>
      </trkpt>
      <trkpt lat="47.98904" lon="-4.45952">
        <ele>19.200000762939</ele>
        <time>2013-08-13T14:25:34.000Z</time>
      </trkpt>
      <trkpt lat="47.98904" lon="-4.45946">
        <ele>19.799999237061</ele>
        <time>2013-08-13T14:25:39.000Z</time>
      </trkpt>
      <trkpt lat="47.98903" lon="-4.45936">
        <ele>21.60000038147</ele>
        <time>2013-08-13T14:25:46.000Z</time>
      </trkpt>
      <trkpt lat="47.98902" lon="-4.45933">
        <ele>23.200000762939</ele>
        <time>2013-08-13T14:25:57.000Z</time>
      </trkpt>
      <trkpt lat="47.98895" lon="-4.45933">
        <ele>28.799999237061</ele>
        <time>2013-08-13T14:26:05.000Z</time>
      </trkpt>
      <trkpt lat="47.9889" lon="-4.45932">
        <ele>32.200000762939</ele>
        <time>2013-08-13T14:26:10.000Z</time>
      </trkpt>
      <trkpt lat="47.98886" lon="-4.45927">
        <ele>34.599998474121</ele>
        <time>2013-08-13T14:26:18.000Z</time>
      </trkpt>
      <trkpt lat="47.98885" lon="-4.45927">
        <ele>31.200000762939</ele>
        <time>2013-08-13T14:26:24.000Z</time>
      </trkpt>
      <trkpt lat="47.9889" lon="-4.45929">
        <ele>26</ele>
        <time>2013-08-13T14:26:41.000Z</time>
      </trkpt>
      <trkpt lat="47.98892" lon="-4.45924">
        <ele>28.799999237061</ele>
        <time>2013-08-13T14:26:47.000Z</time>
      </trkpt>
      <trkpt lat="47.98893" lon="-4.45924">
        <ele>31.200000762939</ele>
        <time>2013-08-13T14:26:55.000Z</time>
      </trkpt>
      <trkpt lat="47.9889" lon="-4.45924">
        <ele>32.799999237061</ele>
        <time>2013-08-13T14:27:02.000Z</time>
      </trkpt>
      <trkpt lat="47.98889" lon="-4.45927">
        <ele>29.799999237061</ele>
        <time>2013-08-13T14:27:07.000Z</time>
      </trkpt>
      <trkpt lat="47.9888" lon="-4.45935">
        <ele>35.200000762939</ele>
        <time>2013-08-13T14:27:12.000Z</time>
      </trkpt>
      <trkpt lat="47.98879" lon="-4.45944">
        <ele>39.400001525879</ele>
        <time>2013-08-13T14:27:18.000Z</time>
      </trkpt>
      <trkpt lat="47.9888" lon="-4.4595">
        <ele>42.400001525879</ele>
        <time>2013-08-13T14:27:23.000Z</time>
      </trkpt>
      <trkpt lat="47.98882" lon="-4.45949">
        <ele>39.400001525879</ele>
        <time>2013-08-13T14:27:28.000Z</time>
      </trkpt>
      <trkpt lat="47.98877" lon="-4.4595">
        <ele>38</ele>
        <time>2013-08-13T14:27:34.000Z</time>
      </trkpt>
      <trkpt lat="47.98879" lon="-4.4595">
        <ele>29.799999237061</ele>
        <time>2013-08-13T14:27:40.000Z</time>
      </trkpt>
      <trkpt lat="47.98883" lon="-4.45947">
        <ele>28.39999961853</ele>
        <time>2013-08-13T14:27:45.000Z</time>
      </trkpt>
      <trkpt lat="47.98889" lon="-4.45942">
        <ele>27</ele>
        <time>2013-08-13T14:27:51.000Z</time>
      </trkpt>
      <trkpt lat="47.98901" lon="-4.45953">
        <ele>29.39999961853</ele>
        <time>2013-08-13T14:28:35.000Z</time>
      </trkpt>
      <trkpt lat="47.98903" lon="-4.45952">
        <ele>26.39999961853</ele>
        <time>2013-08-13T14:28:46.000Z</time>
      </trkpt>
      <trkpt lat="47.98905" lon="-4.45951">
        <ele>24.60000038147</ele>
        <time>2013-08-13T14:29:01.000Z</time>
      </trkpt>
      <trkpt lat="47.98907" lon="-4.45949">
        <ele>28</ele>
        <time>2013-08-13T14:29:15.000Z</time>
      </trkpt>
      <trkpt lat="47.98907" lon="-4.45949">
        <ele>27.39999961853</ele>
        <time>2013-08-13T14:29:21.000Z</time>
      </trkpt>
      <trkpt lat="47.98906" lon="-4.45946">
        <ele>27.39999961853</ele>
        <time>2013-08-13T14:29:42.000Z</time>
      </trkpt>
      <trkpt lat="47.98907" lon="-4.45949">
        <ele>28.39999961853</ele>
        <time>2013-08-13T14:29:54.000Z</time>
      </trkpt>
      <trkpt lat="47.98908" lon="-4.45955">
        <ele>26.39999961853</ele>
        <time>2013-08-13T14:29:57.000Z</time>
      </trkpt>
      <trkpt lat="47.98909" lon="-4.45963">
        <ele>22.60000038147</ele>
        <time>2013-08-13T14:30:01.000Z</time>
      </trkpt>
      <trkpt lat="47.98908" lon="-4.45965">
        <ele>22.200000762939</ele>
        <time>2013-08-13T14:30:05.000Z</time>
      </trkpt>
      <trkpt lat="47.98906" lon="-4.45968">
        <ele>22.200000762939</ele>
        <time>2013-08-13T14:30:07.000Z</time>
      </trkpt>
      <trkpt lat="47.98897" lon="-4.4597">
        <ele>20.799999237061</ele>
        <time>2013-08-13T14:30:14.000Z</time>
      </trkpt>
      <trkpt lat="47.98892" lon="-4.45972">
        <ele>18.799999237061</ele>
        <time>2013-08-13T14:30:18.000Z</time>
      </trkpt>
      <trkpt lat="47.98886" lon="-4.45973">
        <ele>19.200000762939</ele>
        <time>2013-08-13T14:30:23.000Z</time>
      </trkpt>
      <trkpt lat="47.9888" lon="-4.45973">
        <ele>19.200000762939</ele>
        <time>2013-08-13T14:30:27.000Z</time>
      </trkpt>
      <trkpt lat="47.98874" lon="-4.45972">
        <ele>20.200000762939</ele>
        <time>2013-08-13T14:30:38.000Z</time>
      </trkpt>
      <trkpt lat="47.98872" lon="-4.45973">
        <ele>19.799999237061</ele>
        <time>2013-08-13T14:30:40.000Z</time>
      </trkpt>
      <trkpt lat="47.98867" lon="-4.45979">
        <ele>15.39999961853</ele>
        <time>2013-08-13T14:30:46.000Z</time>
      </trkpt>
      <trkpt lat="47.98866" lon="-4.4598">
        <ele>15</ele>
        <time>2013-08-13T14:30:47.000Z</time>
      </trkpt>
      <trkpt lat="47.98861" lon="-4.45981">
        <ele>15.800000190735</ele>
        <time>2013-08-13T14:30:53.000Z</time>
      </trkpt>
      <trkpt lat="47.98861" lon="-4.45983">
        <ele>14</ele>
        <time>2013-08-13T14:30:55.000Z</time>
      </trkpt>
      <trkpt lat="47.98855" lon="-4.45992">
        <ele>12</ele>
        <time>2013-08-13T14:31:01.000Z</time>
      </trkpt>
      <trkpt lat="47.98855" lon="-4.45995">
        <ele>10.60000038147</ele>
        <time>2013-08-13T14:31:04.000Z</time>
      </trkpt>
      <trkpt lat="47.98856" lon="-4.46003">
        <ele>5.4000000953674</ele>
        <time>2013-08-13T14:31:10.000Z</time>
      </trkpt>
      <trkpt lat="47.98857" lon="-4.46005">
        <ele>4.4000000953674</ele>
        <time>2013-08-13T14:31:12.000Z</time>
      </trkpt>
      <trkpt lat="47.98862" lon="-4.46011">
        <ele>1</ele>
        <time>2013-08-13T14:31:16.000Z</time>
      </trkpt>
      <trkpt lat="47.98866" lon="-4.46019">
        <ele>-3.4000000953674</ele>
        <time>2013-08-13T14:31:22.000Z</time>
      </trkpt>
      <trkpt lat="47.98867" lon="-4.46029">
        <ele>-4.1999998092651</ele>
        <time>2013-08-13T14:31:29.000Z</time>
      </trkpt>
      <trkpt lat="47.98867" lon="-4.46031">
        <ele>-4.1999998092651</ele>
        <time>2013-08-13T14:31:30.000Z</time>
      </trkpt>
      <trkpt lat="47.98862" lon="-4.46046">
        <ele>-1</ele>
        <time>2013-08-13T14:31:38.000Z</time>
      </trkpt>
      <trkpt lat="47.98861" lon="-4.46052">
        <ele>-2.7999999523163</ele>
        <time>2013-08-13T14:31:42.000Z</time>
      </trkpt>
      <trkpt lat="47.98859" lon="-4.46063">
        <ele>-2.4000000953674</ele>
        <time>2013-08-13T14:31:48.000Z</time>
      </trkpt>
      <trkpt lat="47.98857" lon="-4.46074">
        <ele>0.60000002384186</ele>
        <time>2013-08-13T14:31:54.000Z</time>
      </trkpt>
      <trkpt lat="47.98848" lon="-4.46088">
        <ele>9.6000003814697</ele>
        <time>2013-08-13T14:32:00.000Z</time>
      </trkpt>
      <trkpt lat="47.98847" lon="-4.46091">
        <ele>12</ele>
        <time>2013-08-13T14:32:05.000Z</time>
      </trkpt>
      <trkpt lat="47.98847" lon="-4.46091">
        <ele>19.200000762939</ele>
        <time>2013-08-13T14:32:12.000Z</time>
      </trkpt>
      <trkpt lat="47.98849" lon="-4.46103">
        <ele>15.800000190735</ele>
        <time>2013-08-13T14:32:18.000Z</time>
      </trkpt>
      <trkpt lat="47.98849" lon="-4.46105">
        <ele>14</ele>
        <time>2013-08-13T14:32:20.000Z</time>
      </trkpt>
      <trkpt lat="47.98849" lon="-4.46117">
        <ele>11.60000038147</ele>
        <time>2013-08-13T14:32:27.000Z</time>
      </trkpt>
      <trkpt lat="47.98849" lon="-4.46118">
        <ele>10.199999809265</ele>
        <time>2013-08-13T14:32:28.000Z</time>
      </trkpt>
      <trkpt lat="47.98849" lon="-4.46128">
        <ele>6.1999998092651</ele>
        <time>2013-08-13T14:32:34.000Z</time>
      </trkpt>
      <trkpt lat="47.98845" lon="-4.46132">
        <ele>2.4000000953674</ele>
        <time>2013-08-13T14:32:40.000Z</time>
      </trkpt>
      <trkpt lat="47.9884" lon="-4.46132">
        <ele>6.1999998092651</ele>
        <time>2013-08-13T14:32:44.000Z</time>
      </trkpt>
      <trkpt lat="47.98836" lon="-4.46134">
        <ele>9.6000003814697</ele>
        <time>2013-08-13T14:32:47.000Z</time>
      </trkpt>
      <trkpt lat="47.98833" lon="-4.46135">
        <ele>9.6000003814697</ele>
        <time>2013-08-13T14:32:49.000Z</time>
      </trkpt>
      <trkpt lat="47.98825" lon="-4.46139">
        <ele>6.1999998092651</ele>
        <time>2013-08-13T14:32:56.000Z</time>
      </trkpt>
      <trkpt lat="47.98821" lon="-4.46143">
        <ele>3.4000000953674</ele>
        <time>2013-08-13T14:33:02.000Z</time>
      </trkpt>
      <trkpt lat="47.98818" lon="-4.46146">
        <ele>2.4000000953674</ele>
        <time>2013-08-13T14:33:05.000Z</time>
      </trkpt>
      <trkpt lat="47.98816" lon="-4.46153">
        <ele>-1.7999999523163</ele>
        <time>2013-08-13T14:33:09.000Z</time>
      </trkpt>
      <trkpt lat="47.98816" lon="-4.46162">
        <ele>-2.7999999523163</ele>
        <time>2013-08-13T14:33:14.000Z</time>
      </trkpt>
      <trkpt lat="47.98816" lon="-4.46165">
        <ele>-3.7999999523163</ele>
        <time>2013-08-13T14:33:16.000Z</time>
      </trkpt>
      <trkpt lat="47.98816" lon="-4.46171">
        <ele>-5.1999998092651</ele>
        <time>2013-08-13T14:33:20.000Z</time>
      </trkpt>
      <trkpt lat="47.98814" lon="-4.46179">
        <ele>-7.5999999046326</ele>
        <time>2013-08-13T14:33:27.000Z</time>
      </trkpt>
      <trkpt lat="47.98816" lon="-4.46182">
        <ele>-8.1999998092651</ele>
        <time>2013-08-13T14:33:30.000Z</time>
      </trkpt>
      <trkpt lat="47.98811" lon="-4.46192">
        <ele>-9</ele>
        <time>2013-08-13T14:33:36.000Z</time>
      </trkpt>
      <trkpt lat="47.98808" lon="-4.46199">
        <ele>-12</ele>
        <time>2013-08-13T14:33:42.000Z</time>
      </trkpt>
      <trkpt lat="47.98804" lon="-4.46203">
        <ele>-12.39999961853</ele>
        <time>2013-08-13T14:33:47.000Z</time>
      </trkpt>
      <trkpt lat="47.988" lon="-4.46206">
        <ele>-10</ele>
        <time>2013-08-13T14:33:50.000Z</time>
      </trkpt>
      <trkpt lat="47.9879" lon="-4.4621">
        <ele>-5.8000001907349</ele>
        <time>2013-08-13T14:33:57.000Z</time>
      </trkpt>
      <trkpt lat="47.98785" lon="-4.46213">
        <ele>-3.7999999523163</ele>
        <time>2013-08-13T14:34:01.000Z</time>
      </trkpt>
      <trkpt lat="47.98781" lon="-4.46219">
        <ele>-3.7999999523163</ele>
        <time>2013-08-13T14:34:06.000Z</time>
      </trkpt>
      <trkpt lat="47.98778" lon="-4.46221">
        <ele>-4.8000001907349</ele>
        <time>2013-08-13T14:34:10.000Z</time>
      </trkpt>
      <trkpt lat="47.98769" lon="-4.46225">
        <ele>-0.40000000596046</ele>
        <time>2013-08-13T14:34:15.000Z</time>
      </trkpt>
      <trkpt lat="47.98764" lon="-4.46233">
        <ele>-2.7999999523163</ele>
        <time>2013-08-13T14:34:21.000Z</time>
      </trkpt>
      <trkpt lat="47.98762" lon="-4.46236">
        <ele>-3.4000000953674</ele>
        <time>2013-08-13T14:34:26.000Z</time>
      </trkpt>
      <trkpt lat="47.98758" lon="-4.46242">
        <ele>-3.7999999523163</ele>
        <time>2013-08-13T14:34:30.000Z</time>
      </trkpt>
      <trkpt lat="47.98756" lon="-4.46244">
        <ele>-1.7999999523163</ele>
        <time>2013-08-13T14:34:32.000Z</time>
      </trkpt>
      <trkpt lat="47.98751" lon="-4.46249">
        <ele>-2.7999999523163</ele>
        <time>2013-08-13T14:34:39.000Z</time>
      </trkpt>
      <trkpt lat="47.98741" lon="-4.4625">
        <ele>5.8000001907349</ele>
        <time>2013-08-13T14:34:44.000Z</time>
      </trkpt>
      <trkpt lat="47.98731" lon="-4.46256">
        <ele>6.8000001907349</ele>
        <time>2013-08-13T14:34:50.000Z</time>
      </trkpt>
      <trkpt lat="47.9873" lon="-4.46256">
        <ele>6.8000001907349</ele>
        <time>2013-08-13T14:34:51.000Z</time>
      </trkpt>
      <trkpt lat="47.98726" lon="-4.46253">
        <ele>10.60000038147</ele>
        <time>2013-08-13T14:34:53.000Z</time>
      </trkpt>
      <trkpt lat="47.98722" lon="-4.4625">
        <ele>15</ele>
        <time>2013-08-13T14:34:55.000Z</time>
      </trkpt>
      <trkpt lat="47.98709" lon="-4.46253">
        <ele>23.60000038147</ele>
        <time>2013-08-13T14:35:01.000Z</time>
      </trkpt>
      <trkpt lat="47.98706" lon="-4.46254">
        <ele>25</ele>
        <time>2013-08-13T14:35:03.000Z</time>
      </trkpt>
      <trkpt lat="47.98698" lon="-4.46257">
        <ele>18.39999961853</ele>
        <time>2013-08-13T14:35:12.000Z</time>
      </trkpt>
      <trkpt lat="47.98689" lon="-4.46257">
        <ele>13</ele>
        <time>2013-08-13T14:35:19.000Z</time>
      </trkpt>
      <trkpt lat="47.98686" lon="-4.46258">
        <ele>11.60000038147</ele>
        <time>2013-08-13T14:35:22.000Z</time>
      </trkpt>
      <trkpt lat="47.98683" lon="-4.46259">
        <ele>11</ele>
        <time>2013-08-13T14:35:28.000Z</time>
      </trkpt>
      <trkpt lat="47.9868" lon="-4.46261">
        <ele>9.6000003814697</ele>
        <time>2013-08-13T14:35:37.000Z</time>
      </trkpt>
      <trkpt lat="47.98673" lon="-4.4626">
        <ele>10.199999809265</ele>
        <time>2013-08-13T14:35:44.000Z</time>
      </trkpt>
      <trkpt lat="47.98665" lon="-4.46258">
        <ele>11</ele>
        <time>2013-08-13T14:35:51.000Z</time>
      </trkpt>
      <trkpt lat="47.98653" lon="-4.46258">
        <ele>10.60000038147</ele>
        <time>2013-08-13T14:36:02.000Z</time>
      </trkpt>
      <trkpt lat="47.98648" lon="-4.46254">
        <ele>10.60000038147</ele>
        <time>2013-08-13T14:36:07.000Z</time>
      </trkpt>
      <trkpt lat="47.98641" lon="-4.46247">
        <ele>11</ele>
        <time>2013-08-13T14:36:16.000Z</time>
      </trkpt>
      <trkpt lat="47.98639" lon="-4.46246">
        <ele>10.60000038147</ele>
        <time>2013-08-13T14:36:22.000Z</time>
      </trkpt>
      <trkpt lat="47.98639" lon="-4.46249">
        <ele>9.6000003814697</ele>
        <time>2013-08-13T14:36:38.000Z</time>
      </trkpt>
      <trkpt lat="47.98639" lon="-4.4625">
        <ele>8.6000003814697</ele>
        <time>2013-08-13T14:37:01.000Z</time>
      </trkpt>
      <trkpt lat="47.98639" lon="-4.4625">
        <ele>8.1999998092651</ele>
        <time>2013-08-13T14:37:02.000Z</time>
      </trkpt>
    </trkseg>
  </trk>
</gpx>